<?xml version="1.0" encoding="UTF-8" standalone="no" ?>
<gpx xmlns="http://www.topografix.com/GPX/1/1" xmlns:xsi="http://www.w3.org/2001/XMLSchema-instance" xsi:schemaLocation="http://www.topografix.com/GPX/1/1 http://www.topografix.com/GPX/1/1/gpx.xsd" version="1.1" creator="VisuGPX - https://www.visugpx.com">
  <metadata>
    <name>Road trip fait P/E</name>
  </metadata>
  <trk>
    <name><![CDATA[Road trip fait P/E_17]]></name>
    <extensions>
      <line xmlns="http://www.topografix.com/GPX/gpx_style/0/2">
        <color>FFFF00</color>
        <width>4</width>
      </line>
    </extensions>
    <trkseg>
      <trkpt lat="37.01567" lon="-4.30646">
        <ele>860.7897</ele>
        <time>2021-07-16T17:45:11Z</time>
      </trkpt>
      <trkpt lat="37.01567" lon="-4.30646">
        <ele>860.7897</ele>
        <time>2021-07-16T17:45:11Z</time>
      </trkpt>
      <trkpt lat="37.01572" lon="-4.30655">
        <ele>857.5855</ele>
        <time>2021-07-17T06:26:12Z</time>
      </trkpt>
      <trkpt lat="37.01568" lon="-4.30643">
        <ele>864.8553</ele>
        <time>2021-07-17T06:39:01Z</time>
      </trkpt>
      <trkpt lat="37.01564" lon="-4.30645">
        <ele>860.0273</ele>
        <time>2021-07-17T06:39:22Z</time>
      </trkpt>
      <trkpt lat="37.01564" lon="-4.30642">
        <ele>859.9652</ele>
        <time>2021-07-17T06:40:22Z</time>
      </trkpt>
      <trkpt lat="37.01564" lon="-4.30642">
        <ele>859.5648</ele>
        <time>2021-07-17T06:41:22Z</time>
      </trkpt>
      <trkpt lat="37.01564" lon="-4.30642">
        <ele>859.5648</ele>
        <time>2021-07-17T06:42:22Z</time>
      </trkpt>
      <trkpt lat="37.01562" lon="-4.30645">
        <ele>862.2856</ele>
        <time>2021-07-17T06:43:22Z</time>
      </trkpt>
      <trkpt lat="37.01562" lon="-4.30645">
        <ele>862.2856</ele>
        <time>2021-07-17T06:44:22Z</time>
      </trkpt>
      <trkpt lat="37.01562" lon="-4.30645">
        <ele>862.2856</ele>
        <time>2021-07-17T06:45:21Z</time>
      </trkpt>
      <trkpt lat="37.01564" lon="-4.30646">
        <ele>860.5272</ele>
        <time>2021-07-17T06:46:21Z</time>
      </trkpt>
      <trkpt lat="37.01564" lon="-4.30644">
        <ele>860.5122</ele>
        <time>2021-07-17T06:47:20Z</time>
      </trkpt>
      <trkpt lat="37.01564" lon="-4.30644">
        <ele>860.5122</ele>
        <time>2021-07-17T06:48:20Z</time>
      </trkpt>
      <trkpt lat="37.01564" lon="-4.30644">
        <ele>860.5122</ele>
        <time>2021-07-17T06:49:19Z</time>
      </trkpt>
      <trkpt lat="37.01561" lon="-4.30647">
        <ele>859.9979</ele>
        <time>2021-07-17T06:50:04Z</time>
      </trkpt>
      <trkpt lat="37.01557" lon="-4.30649">
        <ele>860.5611</ele>
        <time>2021-07-17T06:50:15Z</time>
      </trkpt>
      <trkpt lat="37.01563" lon="-4.30646">
        <ele>860.2261</ele>
        <time>2021-07-17T06:50:26Z</time>
      </trkpt>
      <trkpt lat="37.01561" lon="-4.30642">
        <ele>860.4884</ele>
        <time>2021-07-17T06:50:37Z</time>
      </trkpt>
      <trkpt lat="37.01576" lon="-4.30626">
        <ele>858.3657</ele>
        <time>2021-07-17T06:50:48Z</time>
      </trkpt>
      <trkpt lat="37.01573" lon="-4.30595">
        <ele>859.9192</ele>
        <time>2021-07-17T06:50:59Z</time>
      </trkpt>
      <trkpt lat="37.0157" lon="-4.30592">
        <ele>860.5669</ele>
        <time>2021-07-17T06:51:14Z</time>
      </trkpt>
      <trkpt lat="37.01569" lon="-4.30583">
        <ele>858.9649</ele>
        <time>2021-07-17T06:51:50Z</time>
      </trkpt>
      <trkpt lat="37.01558" lon="-4.30478">
        <ele>858.4467</ele>
        <time>2021-07-17T06:52:01Z</time>
      </trkpt>
      <trkpt lat="37.01589" lon="-4.30355">
        <ele>848.7691</ele>
        <time>2021-07-17T06:52:12Z</time>
      </trkpt>
      <trkpt lat="37.01581" lon="-4.3024">
        <ele>842.355</ele>
        <time>2021-07-17T06:52:23Z</time>
      </trkpt>
      <trkpt lat="37.0158" lon="-4.30148">
        <ele>830.3699</ele>
        <time>2021-07-17T06:52:34Z</time>
      </trkpt>
      <trkpt lat="37.01531" lon="-4.30106">
        <ele>838.6282</ele>
        <time>2021-07-17T06:52:45Z</time>
      </trkpt>
      <trkpt lat="37.01443" lon="-4.30041">
        <ele>858.4105</ele>
        <time>2021-07-17T06:52:56Z</time>
      </trkpt>
      <trkpt lat="37.01417" lon="-4.299">
        <ele>865.9234</ele>
        <time>2021-07-17T06:53:07Z</time>
      </trkpt>
      <trkpt lat="37.014" lon="-4.29783">
        <ele>869.9269</ele>
        <time>2021-07-17T06:53:18Z</time>
      </trkpt>
      <trkpt lat="37.01364" lon="-4.29677">
        <ele>881.3253</ele>
        <time>2021-07-17T06:53:29Z</time>
      </trkpt>
      <trkpt lat="37.01344" lon="-4.2949">
        <ele>901.0918</ele>
        <time>2021-07-17T06:53:40Z</time>
      </trkpt>
      <trkpt lat="37.01377" lon="-4.29383">
        <ele>911.2599</ele>
        <time>2021-07-17T06:53:51Z</time>
      </trkpt>
      <trkpt lat="37.01455" lon="-4.29385">
        <ele>902.2466</ele>
        <time>2021-07-17T06:54:02Z</time>
      </trkpt>
      <trkpt lat="37.01529" lon="-4.29359">
        <ele>892.4397</ele>
        <time>2021-07-17T06:54:13Z</time>
      </trkpt>
      <trkpt lat="37.01609" lon="-4.29413">
        <ele>864.505</ele>
        <time>2021-07-17T06:54:24Z</time>
      </trkpt>
      <trkpt lat="37.0168" lon="-4.29375">
        <ele>870.4231</ele>
        <time>2021-07-17T06:54:35Z</time>
      </trkpt>
      <trkpt lat="37.01802" lon="-4.29309">
        <ele>854.7203</ele>
        <time>2021-07-17T06:54:46Z</time>
      </trkpt>
      <trkpt lat="37.01915" lon="-4.29242">
        <ele>864.8292</ele>
        <time>2021-07-17T06:54:57Z</time>
      </trkpt>
      <trkpt lat="37.01991" lon="-4.29193">
        <ele>868.0905</ele>
        <time>2021-07-17T06:55:08Z</time>
      </trkpt>
      <trkpt lat="37.02067" lon="-4.29152">
        <ele>871.1831</ele>
        <time>2021-07-17T06:55:19Z</time>
      </trkpt>
      <trkpt lat="37.02143" lon="-4.29059">
        <ele>864.6026</ele>
        <time>2021-07-17T06:55:30Z</time>
      </trkpt>
      <trkpt lat="37.02243" lon="-4.28957">
        <ele>871.5447</ele>
        <time>2021-07-17T06:55:41Z</time>
      </trkpt>
      <trkpt lat="37.02328" lon="-4.2884">
        <ele>877.3652</ele>
        <time>2021-07-17T06:55:52Z</time>
      </trkpt>
      <trkpt lat="37.02391" lon="-4.28711">
        <ele>879.2237</ele>
        <time>2021-07-17T06:56:03Z</time>
      </trkpt>
      <trkpt lat="37.02429" lon="-4.28641">
        <ele>884.7466</ele>
        <time>2021-07-17T06:56:14Z</time>
      </trkpt>
      <trkpt lat="37.02501" lon="-4.28531">
        <ele>877.99</ele>
        <time>2021-07-17T06:56:25Z</time>
      </trkpt>
      <trkpt lat="37.02613" lon="-4.28427">
        <ele>865.6049</ele>
        <time>2021-07-17T06:56:36Z</time>
      </trkpt>
      <trkpt lat="37.02749" lon="-4.28347">
        <ele>855.8252</ele>
        <time>2021-07-17T06:56:47Z</time>
      </trkpt>
      <trkpt lat="37.02826" lon="-4.28237">
        <ele>864.7764</ele>
        <time>2021-07-17T06:56:58Z</time>
      </trkpt>
      <trkpt lat="37.02901" lon="-4.28116">
        <ele>850.1567</ele>
        <time>2021-07-17T06:57:09Z</time>
      </trkpt>
      <trkpt lat="37.02978" lon="-4.2802">
        <ele>833.3121</ele>
        <time>2021-07-17T06:57:20Z</time>
      </trkpt>
      <trkpt lat="37.03043" lon="-4.27997">
        <ele>820.6731</ele>
        <time>2021-07-17T06:57:31Z</time>
      </trkpt>
      <trkpt lat="37.03141" lon="-4.27916">
        <ele>834.829</ele>
        <time>2021-07-17T06:57:42Z</time>
      </trkpt>
      <trkpt lat="37.03228" lon="-4.27856">
        <ele>827.1628</ele>
        <time>2021-07-17T06:57:53Z</time>
      </trkpt>
      <trkpt lat="37.033" lon="-4.2781">
        <ele>828.6937</ele>
        <time>2021-07-17T06:58:04Z</time>
      </trkpt>
      <trkpt lat="37.03398" lon="-4.27739">
        <ele>816.7005</ele>
        <time>2021-07-17T06:58:15Z</time>
      </trkpt>
      <trkpt lat="37.03516" lon="-4.27617">
        <ele>815.474</ele>
        <time>2021-07-17T06:58:26Z</time>
      </trkpt>
      <trkpt lat="37.03633" lon="-4.27572">
        <ele>814.3415</ele>
        <time>2021-07-17T06:58:37Z</time>
      </trkpt>
      <trkpt lat="37.0375" lon="-4.27553">
        <ele>809.0523</ele>
        <time>2021-07-17T06:58:48Z</time>
      </trkpt>
      <trkpt lat="37.038" lon="-4.27484">
        <ele>823.6751</ele>
        <time>2021-07-17T06:58:59Z</time>
      </trkpt>
      <trkpt lat="37.03939" lon="-4.27402">
        <ele>837.8185</ele>
        <time>2021-07-17T06:59:10Z</time>
      </trkpt>
      <trkpt lat="37.04037" lon="-4.27278">
        <ele>848.389</ele>
        <time>2021-07-17T06:59:21Z</time>
      </trkpt>
      <trkpt lat="37.04157" lon="-4.27306">
        <ele>849.522</ele>
        <time>2021-07-17T06:59:32Z</time>
      </trkpt>
      <trkpt lat="37.0421" lon="-4.27509">
        <ele>859.6172</ele>
        <time>2021-07-17T06:59:43Z</time>
      </trkpt>
      <trkpt lat="37.04257" lon="-4.27731">
        <ele>871.1637</ele>
        <time>2021-07-17T06:59:54Z</time>
      </trkpt>
      <trkpt lat="37.04344" lon="-4.27894">
        <ele>893.2668</ele>
        <time>2021-07-17T07:00:05Z</time>
      </trkpt>
      <trkpt lat="37.04396" lon="-4.28044">
        <ele>911.2246</ele>
        <time>2021-07-17T07:00:16Z</time>
      </trkpt>
      <trkpt lat="37.0453" lon="-4.27982">
        <ele>928.4439</ele>
        <time>2021-07-17T07:00:27Z</time>
      </trkpt>
      <trkpt lat="37.04656" lon="-4.28001">
        <ele>944.2959</ele>
        <time>2021-07-17T07:00:38Z</time>
      </trkpt>
      <trkpt lat="37.0477" lon="-4.28144">
        <ele>958.5301</ele>
        <time>2021-07-17T07:00:49Z</time>
      </trkpt>
      <trkpt lat="37.0491" lon="-4.28212">
        <ele>964.6938</ele>
        <time>2021-07-17T07:01:00Z</time>
      </trkpt>
      <trkpt lat="37.04969" lon="-4.28374">
        <ele>954.3729</ele>
        <time>2021-07-17T07:01:11Z</time>
      </trkpt>
      <trkpt lat="37.05086" lon="-4.28486">
        <ele>939.9357</ele>
        <time>2021-07-17T07:01:22Z</time>
      </trkpt>
      <trkpt lat="37.05139" lon="-4.28579">
        <ele>938.3384</ele>
        <time>2021-07-17T07:01:33Z</time>
      </trkpt>
      <trkpt lat="37.05223" lon="-4.28615">
        <ele>945.5593</ele>
        <time>2021-07-17T07:01:44Z</time>
      </trkpt>
      <trkpt lat="37.05228" lon="-4.28617">
        <ele>946.4216</ele>
        <time>2021-07-17T07:01:56Z</time>
      </trkpt>
      <trkpt lat="37.05293" lon="-4.28652">
        <ele>951.748</ele>
        <time>2021-07-17T07:02:07Z</time>
      </trkpt>
      <trkpt lat="37.05313" lon="-4.2867">
        <ele>949.3962</ele>
        <time>2021-07-17T07:02:18Z</time>
      </trkpt>
      <trkpt lat="37.05296" lon="-4.28658">
        <ele>950.2181</ele>
        <time>2021-07-17T07:02:29Z</time>
      </trkpt>
      <trkpt lat="37.05261" lon="-4.28621">
        <ele>948.3612</ele>
        <time>2021-07-17T07:02:40Z</time>
      </trkpt>
      <trkpt lat="37.05192" lon="-4.28603">
        <ele>940.1796</ele>
        <time>2021-07-17T07:02:51Z</time>
      </trkpt>
      <trkpt lat="37.05125" lon="-4.28569">
        <ele>938.0461</ele>
        <time>2021-07-17T07:03:02Z</time>
      </trkpt>
      <trkpt lat="37.05131" lon="-4.28619">
        <ele>931.4962</ele>
        <time>2021-07-17T07:03:13Z</time>
      </trkpt>
      <trkpt lat="37.05228" lon="-4.28691">
        <ele>917.7733</ele>
        <time>2021-07-17T07:03:24Z</time>
      </trkpt>
      <trkpt lat="37.05279" lon="-4.28801">
        <ele>908.9946</ele>
        <time>2021-07-17T07:03:35Z</time>
      </trkpt>
      <trkpt lat="37.0535" lon="-4.28913">
        <ele>899.5929</ele>
        <time>2021-07-17T07:03:46Z</time>
      </trkpt>
      <trkpt lat="37.05438" lon="-4.29013">
        <ele>882.2723</ele>
        <time>2021-07-17T07:03:57Z</time>
      </trkpt>
      <trkpt lat="37.05473" lon="-4.29103">
        <ele>867.9523</ele>
        <time>2021-07-17T07:04:08Z</time>
      </trkpt>
      <trkpt lat="37.0556" lon="-4.29213">
        <ele>862.4211</ele>
        <time>2021-07-17T07:04:19Z</time>
      </trkpt>
      <trkpt lat="37.05668" lon="-4.29324">
        <ele>851.5348</ele>
        <time>2021-07-17T07:04:30Z</time>
      </trkpt>
      <trkpt lat="37.05761" lon="-4.29424">
        <ele>840.4878</ele>
        <time>2021-07-17T07:04:41Z</time>
      </trkpt>
      <trkpt lat="37.05841" lon="-4.29506">
        <ele>833.986</ele>
        <time>2021-07-17T07:04:52Z</time>
      </trkpt>
      <trkpt lat="37.05892" lon="-4.29582">
        <ele>831.3254</ele>
        <time>2021-07-17T07:05:03Z</time>
      </trkpt>
      <trkpt lat="37.05894" lon="-4.29586">
        <ele>828.6002</ele>
        <time>2021-07-17T07:05:14Z</time>
      </trkpt>
      <trkpt lat="37.05899" lon="-4.29593">
        <ele>829.3028</ele>
        <time>2021-07-17T07:05:42Z</time>
      </trkpt>
      <trkpt lat="37.06046" lon="-4.29563">
        <ele>828.304</ele>
        <time>2021-07-17T07:05:53Z</time>
      </trkpt>
      <trkpt lat="37.06213" lon="-4.29501">
        <ele>825.6792</ele>
        <time>2021-07-17T07:06:04Z</time>
      </trkpt>
      <trkpt lat="37.06409" lon="-4.29393">
        <ele>825.4038</ele>
        <time>2021-07-17T07:06:15Z</time>
      </trkpt>
      <trkpt lat="37.0659" lon="-4.29289">
        <ele>823.4654</ele>
        <time>2021-07-17T07:06:26Z</time>
      </trkpt>
      <trkpt lat="37.0678" lon="-4.29095">
        <ele>814.3688</ele>
        <time>2021-07-17T07:06:37Z</time>
      </trkpt>
      <trkpt lat="37.06916" lon="-4.2892">
        <ele>816.073</ele>
        <time>2021-07-17T07:06:48Z</time>
      </trkpt>
      <trkpt lat="37.07084" lon="-4.28768">
        <ele>799.2627</ele>
        <time>2021-07-17T07:06:59Z</time>
      </trkpt>
      <trkpt lat="37.07215" lon="-4.28638">
        <ele>797.2957</ele>
        <time>2021-07-17T07:07:10Z</time>
      </trkpt>
      <trkpt lat="37.07302" lon="-4.28492">
        <ele>802.5589</ele>
        <time>2021-07-17T07:07:21Z</time>
      </trkpt>
      <trkpt lat="37.07338" lon="-4.28277">
        <ele>808.9332</ele>
        <time>2021-07-17T07:07:32Z</time>
      </trkpt>
      <trkpt lat="37.07328" lon="-4.28165">
        <ele>820.5624</ele>
        <time>2021-07-17T07:07:43Z</time>
      </trkpt>
      <trkpt lat="37.07384" lon="-4.28051">
        <ele>820.4198</ele>
        <time>2021-07-17T07:07:54Z</time>
      </trkpt>
      <trkpt lat="37.07506" lon="-4.27957">
        <ele>819.6884</ele>
        <time>2021-07-17T07:08:05Z</time>
      </trkpt>
      <trkpt lat="37.07646" lon="-4.27886">
        <ele>817.7512</ele>
        <time>2021-07-17T07:08:16Z</time>
      </trkpt>
      <trkpt lat="37.07768" lon="-4.27815">
        <ele>829.8649</ele>
        <time>2021-07-17T07:08:27Z</time>
      </trkpt>
      <trkpt lat="37.07919" lon="-4.27784">
        <ele>842.7433</ele>
        <time>2021-07-17T07:08:38Z</time>
      </trkpt>
      <trkpt lat="37.08059" lon="-4.27707">
        <ele>845.4595</ele>
        <time>2021-07-17T07:08:49Z</time>
      </trkpt>
      <trkpt lat="37.08205" lon="-4.27623">
        <ele>843.7771</ele>
        <time>2021-07-17T07:09:00Z</time>
      </trkpt>
      <trkpt lat="37.08386" lon="-4.27571">
        <ele>837.4406</ele>
        <time>2021-07-17T07:09:11Z</time>
      </trkpt>
      <trkpt lat="37.08592" lon="-4.27509">
        <ele>831.1965</ele>
        <time>2021-07-17T07:09:22Z</time>
      </trkpt>
      <trkpt lat="37.08774" lon="-4.27344">
        <ele>828.4311</ele>
        <time>2021-07-17T07:09:33Z</time>
      </trkpt>
      <trkpt lat="37.08957" lon="-4.27177">
        <ele>839.1059</ele>
        <time>2021-07-17T07:09:44Z</time>
      </trkpt>
      <trkpt lat="37.09013" lon="-4.27049">
        <ele>844.7147</ele>
        <time>2021-07-17T07:09:55Z</time>
      </trkpt>
      <trkpt lat="37.09146" lon="-4.26946">
        <ele>846.5971</ele>
        <time>2021-07-17T07:10:06Z</time>
      </trkpt>
      <trkpt lat="37.09212" lon="-4.26772">
        <ele>850.5147</ele>
        <time>2021-07-17T07:10:17Z</time>
      </trkpt>
      <trkpt lat="37.09348" lon="-4.26682">
        <ele>852.3077</ele>
        <time>2021-07-17T07:10:28Z</time>
      </trkpt>
      <trkpt lat="37.09447" lon="-4.26505">
        <ele>840.1052</ele>
        <time>2021-07-17T07:10:39Z</time>
      </trkpt>
      <trkpt lat="37.09546" lon="-4.26348">
        <ele>841.735</ele>
        <time>2021-07-17T07:10:50Z</time>
      </trkpt>
      <trkpt lat="37.09645" lon="-4.26276">
        <ele>833.697</ele>
        <time>2021-07-17T07:11:01Z</time>
      </trkpt>
      <trkpt lat="37.09706" lon="-4.26109">
        <ele>834.3998</ele>
        <time>2021-07-17T07:11:12Z</time>
      </trkpt>
      <trkpt lat="37.09742" lon="-4.26018">
        <ele>842.4494</ele>
        <time>2021-07-17T07:11:23Z</time>
      </trkpt>
      <trkpt lat="37.09797" lon="-4.25927">
        <ele>836.5433</ele>
        <time>2021-07-17T07:11:34Z</time>
      </trkpt>
      <trkpt lat="37.0983" lon="-4.25843">
        <ele>822.309</ele>
        <time>2021-07-17T07:11:45Z</time>
      </trkpt>
      <trkpt lat="37.09891" lon="-4.25732">
        <ele>817.7764</ele>
        <time>2021-07-17T07:11:56Z</time>
      </trkpt>
      <trkpt lat="37.0997" lon="-4.25637">
        <ele>820.7185</ele>
        <time>2021-07-17T07:12:07Z</time>
      </trkpt>
      <trkpt lat="37.10016" lon="-4.25656">
        <ele>823.9672</ele>
        <time>2021-07-17T07:12:18Z</time>
      </trkpt>
      <trkpt lat="37.10144" lon="-4.25686">
        <ele>837.3914</ele>
        <time>2021-07-17T07:12:29Z</time>
      </trkpt>
      <trkpt lat="37.10264" lon="-4.25774">
        <ele>842.8389</ele>
        <time>2021-07-17T07:12:40Z</time>
      </trkpt>
      <trkpt lat="37.10337" lon="-4.25972">
        <ele>853.2742</ele>
        <time>2021-07-17T07:12:51Z</time>
      </trkpt>
      <trkpt lat="37.10473" lon="-4.2606">
        <ele>859.8624</ele>
        <time>2021-07-17T07:13:02Z</time>
      </trkpt>
      <trkpt lat="37.10582" lon="-4.26159">
        <ele>852.4952</ele>
        <time>2021-07-17T07:13:13Z</time>
      </trkpt>
      <trkpt lat="37.10698" lon="-4.26172">
        <ele>834.54</ele>
        <time>2021-07-17T07:13:24Z</time>
      </trkpt>
      <trkpt lat="37.10809" lon="-4.26264">
        <ele>834.1423</ele>
        <time>2021-07-17T07:13:35Z</time>
      </trkpt>
      <trkpt lat="37.10883" lon="-4.26513">
        <ele>841.0979</ele>
        <time>2021-07-17T07:13:46Z</time>
      </trkpt>
      <trkpt lat="37.11004" lon="-4.2665">
        <ele>846.3804</ele>
        <time>2021-07-17T07:13:57Z</time>
      </trkpt>
      <trkpt lat="37.11049" lon="-4.26801">
        <ele>841.1616</ele>
        <time>2021-07-17T07:14:08Z</time>
      </trkpt>
      <trkpt lat="37.11024" lon="-4.26719">
        <ele>845.3733</ele>
        <time>2021-07-17T07:14:19Z</time>
      </trkpt>
      <trkpt lat="37.11008" lon="-4.26619">
        <ele>847.6371</ele>
        <time>2021-07-17T07:14:30Z</time>
      </trkpt>
      <trkpt lat="37.11102" lon="-4.26578">
        <ele>849.4775</ele>
        <time>2021-07-17T07:14:41Z</time>
      </trkpt>
      <trkpt lat="37.11141" lon="-4.26462">
        <ele>847.3122</ele>
        <time>2021-07-17T07:14:52Z</time>
      </trkpt>
      <trkpt lat="37.11141" lon="-4.26341">
        <ele>844.8468</ele>
        <time>2021-07-17T07:15:03Z</time>
      </trkpt>
      <trkpt lat="37.11155" lon="-4.26209">
        <ele>834.8211</ele>
        <time>2021-07-17T07:15:14Z</time>
      </trkpt>
      <trkpt lat="37.1122" lon="-4.26048">
        <ele>817.8435</ele>
        <time>2021-07-17T07:15:25Z</time>
      </trkpt>
      <trkpt lat="37.11247" lon="-4.25858">
        <ele>793.3466</ele>
        <time>2021-07-17T07:15:36Z</time>
      </trkpt>
      <trkpt lat="37.11197" lon="-4.2573">
        <ele>778.5763</ele>
        <time>2021-07-17T07:15:47Z</time>
      </trkpt>
      <trkpt lat="37.11283" lon="-4.2567">
        <ele>762.7471</ele>
        <time>2021-07-17T07:15:58Z</time>
      </trkpt>
      <trkpt lat="37.11408" lon="-4.25723">
        <ele>751.9433</ele>
        <time>2021-07-17T07:16:09Z</time>
      </trkpt>
      <trkpt lat="37.11551" lon="-4.2576">
        <ele>753.1413</ele>
        <time>2021-07-17T07:16:20Z</time>
      </trkpt>
      <trkpt lat="37.11621" lon="-4.25735">
        <ele>753.5158</ele>
        <time>2021-07-17T07:16:31Z</time>
      </trkpt>
      <trkpt lat="37.11639" lon="-4.25699">
        <ele>748.8534</ele>
        <time>2021-07-17T07:16:42Z</time>
      </trkpt>
      <trkpt lat="37.11694" lon="-4.25679">
        <ele>743.9228</ele>
        <time>2021-07-17T07:16:53Z</time>
      </trkpt>
      <trkpt lat="37.11772" lon="-4.25657">
        <ele>742.9947</ele>
        <time>2021-07-17T07:17:04Z</time>
      </trkpt>
      <trkpt lat="37.11836" lon="-4.257">
        <ele>742.4554</ele>
        <time>2021-07-17T07:17:15Z</time>
      </trkpt>
      <trkpt lat="37.11903" lon="-4.25751">
        <ele>733.4557</ele>
        <time>2021-07-17T07:17:26Z</time>
      </trkpt>
      <trkpt lat="37.11954" lon="-4.25788">
        <ele>731.7472</ele>
        <time>2021-07-17T07:17:37Z</time>
      </trkpt>
      <trkpt lat="37.11999" lon="-4.25748">
        <ele>736.2299</ele>
        <time>2021-07-17T07:17:48Z</time>
      </trkpt>
      <trkpt lat="37.12057" lon="-4.257">
        <ele>733.7737</ele>
        <time>2021-07-17T07:17:59Z</time>
      </trkpt>
      <trkpt lat="37.12135" lon="-4.2571">
        <ele>729.6133</ele>
        <time>2021-07-17T07:18:10Z</time>
      </trkpt>
      <trkpt lat="37.12234" lon="-4.25729">
        <ele>730.6548</ele>
        <time>2021-07-17T07:18:21Z</time>
      </trkpt>
      <trkpt lat="37.12286" lon="-4.25816">
        <ele>733.4389</ele>
        <time>2021-07-17T07:18:32Z</time>
      </trkpt>
      <trkpt lat="37.12328" lon="-4.25902">
        <ele>729.0128</ele>
        <time>2021-07-17T07:18:43Z</time>
      </trkpt>
      <trkpt lat="37.12362" lon="-4.25903">
        <ele>719.4947</ele>
        <time>2021-07-17T07:18:54Z</time>
      </trkpt>
      <trkpt lat="37.12374" lon="-4.25852">
        <ele>714.4678</ele>
        <time>2021-07-17T07:19:05Z</time>
      </trkpt>
      <trkpt lat="37.12423" lon="-4.25877">
        <ele>712.7707</ele>
        <time>2021-07-17T07:19:16Z</time>
      </trkpt>
      <trkpt lat="37.12469" lon="-4.2589">
        <ele>702.4386</ele>
        <time>2021-07-17T07:19:27Z</time>
      </trkpt>
      <trkpt lat="37.12536" lon="-4.25877">
        <ele>688.1673</ele>
        <time>2021-07-17T07:19:38Z</time>
      </trkpt>
      <trkpt lat="37.1257" lon="-4.25856">
        <ele>678.2275</ele>
        <time>2021-07-17T07:19:49Z</time>
      </trkpt>
      <trkpt lat="37.12605" lon="-4.25799">
        <ele>681.4912</ele>
        <time>2021-07-17T07:20:00Z</time>
      </trkpt>
      <trkpt lat="37.12692" lon="-4.25754">
        <ele>679.5936</ele>
        <time>2021-07-17T07:20:11Z</time>
      </trkpt>
      <trkpt lat="37.12796" lon="-4.25751">
        <ele>682.7562</ele>
        <time>2021-07-17T07:20:22Z</time>
      </trkpt>
      <trkpt lat="37.12851" lon="-4.25713">
        <ele>691.0331</ele>
        <time>2021-07-17T07:20:33Z</time>
      </trkpt>
      <trkpt lat="37.1284" lon="-4.25585">
        <ele>702.7078</ele>
        <time>2021-07-17T07:20:44Z</time>
      </trkpt>
      <trkpt lat="37.12836" lon="-4.25556">
        <ele>707.0122</ele>
        <time>2021-07-17T07:20:55Z</time>
      </trkpt>
      <trkpt lat="37.12901" lon="-4.25482">
        <ele>703.6752</ele>
        <time>2021-07-17T07:21:06Z</time>
      </trkpt>
      <trkpt lat="37.12968" lon="-4.25412">
        <ele>713.8233</ele>
        <time>2021-07-17T07:21:17Z</time>
      </trkpt>
      <trkpt lat="37.12997" lon="-4.25356">
        <ele>730.8058</ele>
        <time>2021-07-17T07:21:28Z</time>
      </trkpt>
      <trkpt lat="37.13059" lon="-4.25294">
        <ele>737.3469</ele>
        <time>2021-07-17T07:21:39Z</time>
      </trkpt>
      <trkpt lat="37.13169" lon="-4.25319">
        <ele>735.5254</ele>
        <time>2021-07-17T07:21:50Z</time>
      </trkpt>
      <trkpt lat="37.13271" lon="-4.25349">
        <ele>737.2335</ele>
        <time>2021-07-17T07:22:01Z</time>
      </trkpt>
      <trkpt lat="37.1335" lon="-4.25358">
        <ele>738.3006</ele>
        <time>2021-07-17T07:22:12Z</time>
      </trkpt>
      <trkpt lat="37.13436" lon="-4.2529">
        <ele>733.4299</ele>
        <time>2021-07-17T07:22:23Z</time>
      </trkpt>
      <trkpt lat="37.13535" lon="-4.25251">
        <ele>725.2526</ele>
        <time>2021-07-17T07:22:34Z</time>
      </trkpt>
      <trkpt lat="37.13624" lon="-4.25211">
        <ele>719.1222</ele>
        <time>2021-07-17T07:22:45Z</time>
      </trkpt>
      <trkpt lat="37.13691" lon="-4.25117">
        <ele>717.9013</ele>
        <time>2021-07-17T07:22:56Z</time>
      </trkpt>
      <trkpt lat="37.13764" lon="-4.25015">
        <ele>716.6358</ele>
        <time>2021-07-17T07:23:07Z</time>
      </trkpt>
      <trkpt lat="37.13855" lon="-4.24919">
        <ele>715.0242</ele>
        <time>2021-07-17T07:23:18Z</time>
      </trkpt>
      <trkpt lat="37.13954" lon="-4.24849">
        <ele>705.3222</ele>
        <time>2021-07-17T07:23:29Z</time>
      </trkpt>
      <trkpt lat="37.14043" lon="-4.24816">
        <ele>698.5826</ele>
        <time>2021-07-17T07:23:40Z</time>
      </trkpt>
      <trkpt lat="37.14112" lon="-4.24808">
        <ele>702.6319</ele>
        <time>2021-07-17T07:23:51Z</time>
      </trkpt>
      <trkpt lat="37.14259" lon="-4.24878">
        <ele>716.1492</ele>
        <time>2021-07-17T07:24:02Z</time>
      </trkpt>
      <trkpt lat="37.14402" lon="-4.24968">
        <ele>727.6339</ele>
        <time>2021-07-17T07:24:13Z</time>
      </trkpt>
      <trkpt lat="37.14529" lon="-4.25053">
        <ele>735.011</ele>
        <time>2021-07-17T07:24:24Z</time>
      </trkpt>
      <trkpt lat="37.14596" lon="-4.25166">
        <ele>727.8361</ele>
        <time>2021-07-17T07:24:35Z</time>
      </trkpt>
      <trkpt lat="37.14598" lon="-4.25121">
        <ele>724.7594</ele>
        <time>2021-07-17T07:24:46Z</time>
      </trkpt>
      <trkpt lat="37.14605" lon="-4.25009">
        <ele>722.7948</ele>
        <time>2021-07-17T07:24:57Z</time>
      </trkpt>
      <trkpt lat="37.14719" lon="-4.24968">
        <ele>717.8145</ele>
        <time>2021-07-17T07:25:08Z</time>
      </trkpt>
      <trkpt lat="37.14753" lon="-4.24722">
        <ele>710.1502</ele>
        <time>2021-07-17T07:25:19Z</time>
      </trkpt>
      <trkpt lat="37.14817" lon="-4.24487">
        <ele>711.2333</ele>
        <time>2021-07-17T07:25:30Z</time>
      </trkpt>
      <trkpt lat="37.14927" lon="-4.24243">
        <ele>709.5408</ele>
        <time>2021-07-17T07:25:41Z</time>
      </trkpt>
      <trkpt lat="37.15025" lon="-4.24043">
        <ele>710.7232</ele>
        <time>2021-07-17T07:25:52Z</time>
      </trkpt>
      <trkpt lat="37.15065" lon="-4.23906">
        <ele>705.4025</ele>
        <time>2021-07-17T07:26:03Z</time>
      </trkpt>
      <trkpt lat="37.15045" lon="-4.23705">
        <ele>691.3198</ele>
        <time>2021-07-17T07:26:14Z</time>
      </trkpt>
      <trkpt lat="37.15025" lon="-4.23508">
        <ele>678.5975</ele>
        <time>2021-07-17T07:26:25Z</time>
      </trkpt>
      <trkpt lat="37.15149" lon="-4.23359">
        <ele>665.31</ele>
        <time>2021-07-17T07:26:36Z</time>
      </trkpt>
      <trkpt lat="37.15262" lon="-4.23243">
        <ele>655.1466</ele>
        <time>2021-07-17T07:26:47Z</time>
      </trkpt>
      <trkpt lat="37.1527" lon="-4.23225">
        <ele>653.6189</ele>
        <time>2021-07-17T07:26:58Z</time>
      </trkpt>
      <trkpt lat="37.1528" lon="-4.23231">
        <ele>653.6177</ele>
        <time>2021-07-17T07:27:20Z</time>
      </trkpt>
      <trkpt lat="37.1527" lon="-4.23224">
        <ele>653.6177</ele>
        <time>2021-07-17T07:27:31Z</time>
      </trkpt>
      <trkpt lat="37.1528" lon="-4.23231">
        <ele>653.6177</ele>
        <time>2021-07-17T07:27:42Z</time>
      </trkpt>
      <trkpt lat="37.1527" lon="-4.23224">
        <ele>653.6177</ele>
        <time>2021-07-17T07:27:53Z</time>
      </trkpt>
      <trkpt lat="37.1528" lon="-4.23232">
        <ele>653.6004</ele>
        <time>2021-07-17T07:28:22Z</time>
      </trkpt>
      <trkpt lat="37.1527" lon="-4.23224">
        <ele>653.6651</ele>
        <time>2021-07-17T07:28:33Z</time>
      </trkpt>
      <trkpt lat="37.15228" lon="-4.2314">
        <ele>645.789</ele>
        <time>2021-07-17T07:28:44Z</time>
      </trkpt>
      <trkpt lat="37.1509" lon="-4.23028">
        <ele>636.6715</ele>
        <time>2021-07-17T07:28:55Z</time>
      </trkpt>
      <trkpt lat="37.14954" lon="-4.2294">
        <ele>626.482</ele>
        <time>2021-07-17T07:29:06Z</time>
      </trkpt>
      <trkpt lat="37.15019" lon="-4.22826">
        <ele>616.5367</ele>
        <time>2021-07-17T07:29:17Z</time>
      </trkpt>
      <trkpt lat="37.15142" lon="-4.22737">
        <ele>607.2332</ele>
        <time>2021-07-17T07:29:28Z</time>
      </trkpt>
      <trkpt lat="37.15199" lon="-4.22717">
        <ele>604.706</ele>
        <time>2021-07-17T07:29:39Z</time>
      </trkpt>
      <trkpt lat="37.15197" lon="-4.22526">
        <ele>599.1657</ele>
        <time>2021-07-17T07:29:50Z</time>
      </trkpt>
      <trkpt lat="37.15283" lon="-4.22257">
        <ele>590.823</ele>
        <time>2021-07-17T07:30:01Z</time>
      </trkpt>
      <trkpt lat="37.15367" lon="-4.22004">
        <ele>578.7478</ele>
        <time>2021-07-17T07:30:12Z</time>
      </trkpt>
      <trkpt lat="37.15465" lon="-4.21767">
        <ele>561.8809</ele>
        <time>2021-07-17T07:30:23Z</time>
      </trkpt>
      <trkpt lat="37.15418" lon="-4.21561">
        <ele>545.2972</ele>
        <time>2021-07-17T07:30:34Z</time>
      </trkpt>
      <trkpt lat="37.1538" lon="-4.21328">
        <ele>531.1554</ele>
        <time>2021-07-17T07:30:45Z</time>
      </trkpt>
      <trkpt lat="37.15396" lon="-4.21103">
        <ele>517.0108</ele>
        <time>2021-07-17T07:30:56Z</time>
      </trkpt>
      <trkpt lat="37.15518" lon="-4.21046">
        <ele>504.7402</ele>
        <time>2021-07-17T07:31:07Z</time>
      </trkpt>
      <trkpt lat="37.15525" lon="-4.20855">
        <ele>496.5945</ele>
        <time>2021-07-17T07:31:18Z</time>
      </trkpt>
      <trkpt lat="37.15556" lon="-4.20736">
        <ele>489.8399</ele>
        <time>2021-07-17T07:31:29Z</time>
      </trkpt>
      <trkpt lat="37.15588" lon="-4.20683">
        <ele>489.4919</ele>
        <time>2021-07-17T07:31:40Z</time>
      </trkpt>
      <trkpt lat="37.15632" lon="-4.20646">
        <ele>491.2436</ele>
        <time>2021-07-17T07:31:51Z</time>
      </trkpt>
      <trkpt lat="37.1559" lon="-4.20675">
        <ele>494.7288</ele>
        <time>2021-07-17T07:32:02Z</time>
      </trkpt>
      <trkpt lat="37.15582" lon="-4.20726">
        <ele>494.7489</ele>
        <time>2021-07-17T07:32:13Z</time>
      </trkpt>
      <trkpt lat="37.15564" lon="-4.20745">
        <ele>498.3338</ele>
        <time>2021-07-17T07:32:24Z</time>
      </trkpt>
      <trkpt lat="37.1558" lon="-4.20706">
        <ele>490.5948</ele>
        <time>2021-07-17T07:32:35Z</time>
      </trkpt>
      <trkpt lat="37.15625" lon="-4.20647">
        <ele>493.1479</ele>
        <time>2021-07-17T07:32:46Z</time>
      </trkpt>
      <trkpt lat="37.15763" lon="-4.20653">
        <ele>502.034</ele>
        <time>2021-07-17T07:32:57Z</time>
      </trkpt>
      <trkpt lat="37.15848" lon="-4.20626">
        <ele>506.438</ele>
        <time>2021-07-17T07:33:08Z</time>
      </trkpt>
      <trkpt lat="37.15762" lon="-4.2056">
        <ele>513.3625</ele>
        <time>2021-07-17T07:33:19Z</time>
      </trkpt>
      <trkpt lat="37.15771" lon="-4.20351">
        <ele>528.7319</ele>
        <time>2021-07-17T07:33:30Z</time>
      </trkpt>
      <trkpt lat="37.15843" lon="-4.2009">
        <ele>539.2162</ele>
        <time>2021-07-17T07:33:41Z</time>
      </trkpt>
      <trkpt lat="37.15932" lon="-4.19853">
        <ele>557.4398</ele>
        <time>2021-07-17T07:33:52Z</time>
      </trkpt>
      <trkpt lat="37.16027" lon="-4.19654">
        <ele>544.0118</ele>
        <time>2021-07-17T07:34:03Z</time>
      </trkpt>
      <trkpt lat="37.16178" lon="-4.19525">
        <ele>538.076</ele>
        <time>2021-07-17T07:34:14Z</time>
      </trkpt>
      <trkpt lat="37.16383" lon="-4.19447">
        <ele>527.9427</ele>
        <time>2021-07-17T07:34:25Z</time>
      </trkpt>
      <trkpt lat="37.16569" lon="-4.19344">
        <ele>525.6042</ele>
        <time>2021-07-17T07:34:36Z</time>
      </trkpt>
      <trkpt lat="37.16601" lon="-4.19315">
        <ele>524.3124</ele>
        <time>2021-07-17T07:34:47Z</time>
      </trkpt>
      <trkpt lat="37.16789" lon="-4.19271">
        <ele>515.5859</ele>
        <time>2021-07-17T07:34:58Z</time>
      </trkpt>
      <trkpt lat="37.1695" lon="-4.19397">
        <ele>510.9516</ele>
        <time>2021-07-17T07:35:09Z</time>
      </trkpt>
      <trkpt lat="37.17116" lon="-4.19568">
        <ele>501.1667</ele>
        <time>2021-07-17T07:35:20Z</time>
      </trkpt>
      <trkpt lat="37.17309" lon="-4.1969">
        <ele>490.6334</ele>
        <time>2021-07-17T07:35:31Z</time>
      </trkpt>
      <trkpt lat="37.17449" lon="-4.19761">
        <ele>486.0836</ele>
        <time>2021-07-17T07:35:42Z</time>
      </trkpt>
      <trkpt lat="37.17572" lon="-4.19739">
        <ele>479.0189</ele>
        <time>2021-07-17T07:35:53Z</time>
      </trkpt>
      <trkpt lat="37.17584" lon="-4.19656">
        <ele>479.5937</ele>
        <time>2021-07-17T07:36:04Z</time>
      </trkpt>
      <trkpt lat="37.17541" lon="-4.19431">
        <ele>489.7136</ele>
        <time>2021-07-17T07:36:15Z</time>
      </trkpt>
      <trkpt lat="37.17627" lon="-4.19194">
        <ele>493.711</ele>
        <time>2021-07-17T07:36:26Z</time>
      </trkpt>
      <trkpt lat="37.17648" lon="-4.18912">
        <ele>492.8417</ele>
        <time>2021-07-17T07:36:37Z</time>
      </trkpt>
      <trkpt lat="37.17667" lon="-4.18626">
        <ele>490.2053</ele>
        <time>2021-07-17T07:36:48Z</time>
      </trkpt>
      <trkpt lat="37.17685" lon="-4.1831">
        <ele>482.5004</ele>
        <time>2021-07-17T07:36:59Z</time>
      </trkpt>
      <trkpt lat="37.1773" lon="-4.18095">
        <ele>484.5092</ele>
        <time>2021-07-17T07:37:10Z</time>
      </trkpt>
      <trkpt lat="37.17798" lon="-4.17878">
        <ele>493.8288</ele>
        <time>2021-07-17T07:37:21Z</time>
      </trkpt>
      <trkpt lat="37.1774" lon="-4.17635">
        <ele>479.3582</ele>
        <time>2021-07-17T07:37:32Z</time>
      </trkpt>
      <trkpt lat="37.17756" lon="-4.17378">
        <ele>487.1447</ele>
        <time>2021-07-17T07:37:43Z</time>
      </trkpt>
      <trkpt lat="37.17732" lon="-4.17174">
        <ele>486.878</ele>
        <time>2021-07-17T07:37:54Z</time>
      </trkpt>
      <trkpt lat="37.17616" lon="-4.16999">
        <ele>496.6864</ele>
        <time>2021-07-17T07:38:05Z</time>
      </trkpt>
      <trkpt lat="37.1746" lon="-4.16873">
        <ele>501.557</ele>
        <time>2021-07-17T07:38:16Z</time>
      </trkpt>
      <trkpt lat="37.17289" lon="-4.16938">
        <ele>495.4592</ele>
        <time>2021-07-17T07:38:27Z</time>
      </trkpt>
      <trkpt lat="37.17147" lon="-4.17089">
        <ele>494.1071</ele>
        <time>2021-07-17T07:38:38Z</time>
      </trkpt>
      <trkpt lat="37.17083" lon="-4.17002">
        <ele>492.0312</ele>
        <time>2021-07-17T07:38:49Z</time>
      </trkpt>
      <trkpt lat="37.1696" lon="-4.16914">
        <ele>494.298</ele>
        <time>2021-07-17T07:39:00Z</time>
      </trkpt>
      <trkpt lat="37.16882" lon="-4.16836">
        <ele>490.7817</ele>
        <time>2021-07-17T07:39:11Z</time>
      </trkpt>
      <trkpt lat="37.16928" lon="-4.16656">
        <ele>493.6881</ele>
        <time>2021-07-17T07:39:22Z</time>
      </trkpt>
      <trkpt lat="37.16959" lon="-4.16504">
        <ele>499.7016</ele>
        <time>2021-07-17T07:39:33Z</time>
      </trkpt>
      <trkpt lat="37.16894" lon="-4.16437">
        <ele>504.1852</ele>
        <time>2021-07-17T07:39:44Z</time>
      </trkpt>
      <trkpt lat="37.16845" lon="-4.16322">
        <ele>507.1864</ele>
        <time>2021-07-17T07:39:55Z</time>
      </trkpt>
      <trkpt lat="37.168" lon="-4.16232">
        <ele>509.6089</ele>
        <time>2021-07-17T07:40:06Z</time>
      </trkpt>
      <trkpt lat="37.1683" lon="-4.16278">
        <ele>510.4404</ele>
        <time>2021-07-17T07:40:17Z</time>
      </trkpt>
      <trkpt lat="37.16834" lon="-4.16285">
        <ele>510.9017</ele>
        <time>2021-07-17T07:40:28Z</time>
      </trkpt>
      <trkpt lat="37.1683" lon="-4.16288">
        <ele>512.2541</ele>
        <time>2021-07-17T07:41:01Z</time>
      </trkpt>
      <trkpt lat="37.16834" lon="-4.16287">
        <ele>514.3584</ele>
        <time>2021-07-17T07:41:26Z</time>
      </trkpt>
      <trkpt lat="37.16833" lon="-4.16282">
        <ele>516.2841</ele>
        <time>2021-07-17T07:41:40Z</time>
      </trkpt>
      <trkpt lat="37.16826" lon="-4.16266">
        <ele>514.1835</ele>
        <time>2021-07-17T07:41:51Z</time>
      </trkpt>
      <trkpt lat="37.16823" lon="-4.16269">
        <ele>506.632</ele>
        <time>2021-07-17T07:42:30Z</time>
      </trkpt>
      <trkpt lat="37.16827" lon="-4.1627">
        <ele>506.729</ele>
        <time>2021-07-17T07:42:48Z</time>
      </trkpt>
      <trkpt lat="37.16827" lon="-4.16276">
        <ele>505.1071</ele>
        <time>2021-07-17T07:43:03Z</time>
      </trkpt>
      <trkpt lat="37.16828" lon="-4.16271">
        <ele>506.4262</ele>
        <time>2021-07-17T07:43:33Z</time>
      </trkpt>
      <trkpt lat="37.16832" lon="-4.1627">
        <ele>507.6797</ele>
        <time>2021-07-17T07:43:50Z</time>
      </trkpt>
      <trkpt lat="37.16833" lon="-4.16266">
        <ele>508.8974</ele>
        <time>2021-07-17T07:44:05Z</time>
      </trkpt>
      <trkpt lat="37.16835" lon="-4.16266">
        <ele>509.1419</ele>
        <time>2021-07-17T07:45:03Z</time>
      </trkpt>
      <trkpt lat="37.16833" lon="-4.16267">
        <ele>506.7566</ele>
        <time>2021-07-17T07:46:02Z</time>
      </trkpt>
      <trkpt lat="37.16829" lon="-4.16265">
        <ele>505.9631</ele>
        <time>2021-07-17T07:46:23Z</time>
      </trkpt>
      <trkpt lat="37.16832" lon="-4.16262">
        <ele>506.2329</ele>
        <time>2021-07-17T07:46:35Z</time>
      </trkpt>
      <trkpt lat="37.16833" lon="-4.16266">
        <ele>507.9754</ele>
        <time>2021-07-17T07:47:00Z</time>
      </trkpt>
      <trkpt lat="37.16835" lon="-4.16262">
        <ele>507.3133</ele>
        <time>2021-07-17T07:47:48Z</time>
      </trkpt>
      <trkpt lat="37.16836" lon="-4.16258">
        <ele>504.6825</ele>
        <time>2021-07-17T07:48:47Z</time>
      </trkpt>
      <trkpt lat="37.16834" lon="-4.16262">
        <ele>507.0298</ele>
        <time>2021-07-17T07:49:29Z</time>
      </trkpt>
      <trkpt lat="37.16831" lon="-4.16265">
        <ele>505.8679</ele>
        <time>2021-07-17T07:50:19Z</time>
      </trkpt>
      <trkpt lat="37.16829" lon="-4.16265">
        <ele>505.6587</ele>
        <time>2021-07-17T07:51:18Z</time>
      </trkpt>
      <trkpt lat="37.16828" lon="-4.16265">
        <ele>506.0857</ele>
        <time>2021-07-17T07:52:17Z</time>
      </trkpt>
      <trkpt lat="37.16828" lon="-4.16265">
        <ele>506.0857</ele>
        <time>2021-07-17T07:53:16Z</time>
      </trkpt>
      <trkpt lat="37.16833" lon="-4.16262">
        <ele>505.4212</ele>
        <time>2021-07-17T07:53:51Z</time>
      </trkpt>
      <trkpt lat="37.16826" lon="-4.16272">
        <ele>504.4396</ele>
        <time>2021-07-17T07:54:35Z</time>
      </trkpt>
      <trkpt lat="37.1683" lon="-4.1627">
        <ele>504.1183</ele>
        <time>2021-07-17T07:54:46Z</time>
      </trkpt>
      <trkpt lat="37.16834" lon="-4.16265">
        <ele>507.434</ele>
        <time>2021-07-17T07:55:00Z</time>
      </trkpt>
      <trkpt lat="37.1683" lon="-4.16265">
        <ele>505.6854</ele>
        <time>2021-07-17T07:55:29Z</time>
      </trkpt>
      <trkpt lat="37.16826" lon="-4.16266">
        <ele>505.9082</ele>
        <time>2021-07-17T07:55:46Z</time>
      </trkpt>
      <trkpt lat="37.1682" lon="-4.16266">
        <ele>507.1371</ele>
        <time>2021-07-17T07:55:57Z</time>
      </trkpt>
      <trkpt lat="37.1682" lon="-4.16274">
        <ele>508.4084</ele>
        <time>2021-07-17T07:56:08Z</time>
      </trkpt>
      <trkpt lat="37.16822" lon="-4.16271">
        <ele>509.4441</ele>
        <time>2021-07-17T07:57:07Z</time>
      </trkpt>
      <trkpt lat="37.1683" lon="-4.16262">
        <ele>507.5046</ele>
        <time>2021-07-17T07:58:05Z</time>
      </trkpt>
      <trkpt lat="37.1683" lon="-4.16266">
        <ele>505.7267</ele>
        <time>2021-07-17T07:58:21Z</time>
      </trkpt>
      <trkpt lat="37.1683" lon="-4.16266">
        <ele>505.1082</ele>
        <time>2021-07-17T07:59:21Z</time>
      </trkpt>
      <trkpt lat="37.16832" lon="-4.16258">
        <ele>506.9298</ele>
        <time>2021-07-17T07:59:32Z</time>
      </trkpt>
      <trkpt lat="37.16831" lon="-4.16258">
        <ele>506.9016</ele>
        <time>2021-07-17T08:00:31Z</time>
      </trkpt>
      <trkpt lat="37.16831" lon="-4.16258">
        <ele>506.9016</ele>
        <time>2021-07-17T08:01:31Z</time>
      </trkpt>
      <trkpt lat="37.16831" lon="-4.16258">
        <ele>506.9016</ele>
        <time>2021-07-17T08:02:30Z</time>
      </trkpt>
      <trkpt lat="37.16831" lon="-4.16258">
        <ele>506.9016</ele>
        <time>2021-07-17T08:03:30Z</time>
      </trkpt>
      <trkpt lat="37.16831" lon="-4.16258">
        <ele>506.9016</ele>
        <time>2021-07-17T08:04:29Z</time>
      </trkpt>
      <trkpt lat="37.16831" lon="-4.16258">
        <ele>506.9016</ele>
        <time>2021-07-17T08:05:29Z</time>
      </trkpt>
      <trkpt lat="37.16831" lon="-4.16258">
        <ele>506.9016</ele>
        <time>2021-07-17T08:06:27Z</time>
      </trkpt>
      <trkpt lat="37.16826" lon="-4.16266">
        <ele>505.7779</ele>
        <time>2021-07-17T08:06:38Z</time>
      </trkpt>
      <trkpt lat="37.16828" lon="-4.1627">
        <ele>505.6899</ele>
        <time>2021-07-17T08:07:18Z</time>
      </trkpt>
      <trkpt lat="37.16831" lon="-4.16267">
        <ele>507.6201</ele>
        <time>2021-07-17T08:07:33Z</time>
      </trkpt>
      <trkpt lat="37.16834" lon="-4.16265">
        <ele>503.9717</ele>
        <time>2021-07-17T08:08:32Z</time>
      </trkpt>
      <trkpt lat="37.16834" lon="-4.16265">
        <ele>503.9717</ele>
        <time>2021-07-17T08:09:31Z</time>
      </trkpt>
      <trkpt lat="37.1683" lon="-4.16265">
        <ele>506.0132</ele>
        <time>2021-07-17T08:10:23Z</time>
      </trkpt>
      <trkpt lat="37.16824" lon="-4.16269">
        <ele>504.1672</ele>
        <time>2021-07-17T08:10:34Z</time>
      </trkpt>
      <trkpt lat="37.16828" lon="-4.1629">
        <ele>505.4483</ele>
        <time>2021-07-17T08:10:45Z</time>
      </trkpt>
      <trkpt lat="37.16822" lon="-4.16294">
        <ele>507.1198</ele>
        <time>2021-07-17T08:10:56Z</time>
      </trkpt>
      <trkpt lat="37.16817" lon="-4.16295">
        <ele>506.275</ele>
        <time>2021-07-17T08:11:12Z</time>
      </trkpt>
      <trkpt lat="37.16814" lon="-4.16294">
        <ele>508.7733</ele>
        <time>2021-07-17T08:11:25Z</time>
      </trkpt>
      <trkpt lat="37.16818" lon="-4.16296">
        <ele>506.6115</ele>
        <time>2021-07-17T08:11:36Z</time>
      </trkpt>
      <trkpt lat="37.16817" lon="-4.16289">
        <ele>511.0104</ele>
        <time>2021-07-17T08:11:47Z</time>
      </trkpt>
      <trkpt lat="37.16814" lon="-4.16285">
        <ele>510.0949</ele>
        <time>2021-07-17T08:12:10Z</time>
      </trkpt>
      <trkpt lat="37.16807" lon="-4.16289">
        <ele>511.9267</ele>
        <time>2021-07-17T08:12:32Z</time>
      </trkpt>
      <trkpt lat="37.16804" lon="-4.16293">
        <ele>516.1548</ele>
        <time>2021-07-17T08:13:11Z</time>
      </trkpt>
      <trkpt lat="37.16808" lon="-4.16297">
        <ele>516.0968</ele>
        <time>2021-07-17T08:13:22Z</time>
      </trkpt>
      <trkpt lat="37.16805" lon="-4.16296">
        <ele>515.61</ele>
        <time>2021-07-17T08:13:34Z</time>
      </trkpt>
      <trkpt lat="37.16807" lon="-4.163">
        <ele>516.361</ele>
        <time>2021-07-17T08:13:45Z</time>
      </trkpt>
      <trkpt lat="37.16805" lon="-4.16292">
        <ele>510.9688</ele>
        <time>2021-07-17T08:14:13Z</time>
      </trkpt>
      <trkpt lat="37.16772" lon="-4.16143">
        <ele>515.5774</ele>
        <time>2021-07-17T08:14:24Z</time>
      </trkpt>
      <trkpt lat="37.16685" lon="-4.16">
        <ele>515.5905</ele>
        <time>2021-07-17T08:14:35Z</time>
      </trkpt>
      <trkpt lat="37.16585" lon="-4.15877">
        <ele>521.3217</ele>
        <time>2021-07-17T08:14:46Z</time>
      </trkpt>
      <trkpt lat="37.16601" lon="-4.15719">
        <ele>525.7251</ele>
        <time>2021-07-17T08:14:57Z</time>
      </trkpt>
      <trkpt lat="37.16601" lon="-4.15571">
        <ele>533.1996</ele>
        <time>2021-07-17T08:15:08Z</time>
      </trkpt>
      <trkpt lat="37.16554" lon="-4.15432">
        <ele>542.7577</ele>
        <time>2021-07-17T08:15:19Z</time>
      </trkpt>
      <trkpt lat="37.16446" lon="-4.15357">
        <ele>539.0018</ele>
        <time>2021-07-17T08:15:30Z</time>
      </trkpt>
      <trkpt lat="37.16368" lon="-4.15303">
        <ele>536.3122</ele>
        <time>2021-07-17T08:15:41Z</time>
      </trkpt>
      <trkpt lat="37.16295" lon="-4.15206">
        <ele>534.1901</ele>
        <time>2021-07-17T08:15:52Z</time>
      </trkpt>
      <trkpt lat="37.16274" lon="-4.15056">
        <ele>530.8208</ele>
        <time>2021-07-17T08:16:03Z</time>
      </trkpt>
      <trkpt lat="37.16261" lon="-4.14954">
        <ele>535.4963</ele>
        <time>2021-07-17T08:16:14Z</time>
      </trkpt>
      <trkpt lat="37.1624" lon="-4.14813">
        <ele>540.7911</ele>
        <time>2021-07-17T08:16:25Z</time>
      </trkpt>
      <trkpt lat="37.16141" lon="-4.14721">
        <ele>541.9375</ele>
        <time>2021-07-17T08:16:36Z</time>
      </trkpt>
      <trkpt lat="37.16078" lon="-4.14584">
        <ele>532.6137</ele>
        <time>2021-07-17T08:16:47Z</time>
      </trkpt>
      <trkpt lat="37.16203" lon="-4.14479">
        <ele>522.6512</ele>
        <time>2021-07-17T08:16:58Z</time>
      </trkpt>
      <trkpt lat="37.16278" lon="-4.14339">
        <ele>513.3328</ele>
        <time>2021-07-17T08:17:09Z</time>
      </trkpt>
      <trkpt lat="37.16316" lon="-4.14208">
        <ele>506.2642</ele>
        <time>2021-07-17T08:17:20Z</time>
      </trkpt>
      <trkpt lat="37.16344" lon="-4.14112">
        <ele>500.0173</ele>
        <time>2021-07-17T08:17:31Z</time>
      </trkpt>
      <trkpt lat="37.16372" lon="-4.14011">
        <ele>495.4718</ele>
        <time>2021-07-17T08:17:42Z</time>
      </trkpt>
      <trkpt lat="37.16408" lon="-4.13915">
        <ele>492.7262</ele>
        <time>2021-07-17T08:17:53Z</time>
      </trkpt>
      <trkpt lat="37.16438" lon="-4.13974">
        <ele>490.1586</ele>
        <time>2021-07-17T08:18:04Z</time>
      </trkpt>
      <trkpt lat="37.16446" lon="-4.14033">
        <ele>489.2889</ele>
        <time>2021-07-17T08:18:15Z</time>
      </trkpt>
      <trkpt lat="37.16452" lon="-4.141">
        <ele>489.4611</ele>
        <time>2021-07-17T08:18:26Z</time>
      </trkpt>
      <trkpt lat="37.16468" lon="-4.14175">
        <ele>485.9165</ele>
        <time>2021-07-17T08:18:37Z</time>
      </trkpt>
      <trkpt lat="37.16449" lon="-4.14233">
        <ele>479.7264</ele>
        <time>2021-07-17T08:18:48Z</time>
      </trkpt>
      <trkpt lat="37.16418" lon="-4.14329">
        <ele>474.5997</ele>
        <time>2021-07-17T08:18:59Z</time>
      </trkpt>
      <trkpt lat="37.16435" lon="-4.14435">
        <ele>470.5602</ele>
        <time>2021-07-17T08:19:10Z</time>
      </trkpt>
      <trkpt lat="37.16498" lon="-4.14521">
        <ele>466.6095</ele>
        <time>2021-07-17T08:19:21Z</time>
      </trkpt>
      <trkpt lat="37.16562" lon="-4.14561">
        <ele>459.8881</ele>
        <time>2021-07-17T08:19:32Z</time>
      </trkpt>
      <trkpt lat="37.16642" lon="-4.14569">
        <ele>456.3711</ele>
        <time>2021-07-17T08:19:43Z</time>
      </trkpt>
      <trkpt lat="37.1672" lon="-4.14591">
        <ele>457.1543</ele>
        <time>2021-07-17T08:19:54Z</time>
      </trkpt>
      <trkpt lat="37.16791" lon="-4.14597">
        <ele>455.0317</ele>
        <time>2021-07-17T08:20:05Z</time>
      </trkpt>
      <trkpt lat="37.16882" lon="-4.1456">
        <ele>458.7954</ele>
        <time>2021-07-17T08:20:16Z</time>
      </trkpt>
      <trkpt lat="37.1699" lon="-4.14522">
        <ele>459.1218</ele>
        <time>2021-07-17T08:20:27Z</time>
      </trkpt>
      <trkpt lat="37.1707" lon="-4.14492">
        <ele>454.7792</ele>
        <time>2021-07-17T08:20:38Z</time>
      </trkpt>
      <trkpt lat="37.17191" lon="-4.14391">
        <ele>457.6647</ele>
        <time>2021-07-17T08:20:49Z</time>
      </trkpt>
      <trkpt lat="37.17305" lon="-4.14263">
        <ele>462.4666</ele>
        <time>2021-07-17T08:21:00Z</time>
      </trkpt>
      <trkpt lat="37.17377" lon="-4.14097">
        <ele>475.5448</ele>
        <time>2021-07-17T08:21:11Z</time>
      </trkpt>
      <trkpt lat="37.17436" lon="-4.13969">
        <ele>485.1392</ele>
        <time>2021-07-17T08:21:22Z</time>
      </trkpt>
      <trkpt lat="37.17497" lon="-4.13877">
        <ele>486.4315</ele>
        <time>2021-07-17T08:21:33Z</time>
      </trkpt>
      <trkpt lat="37.17617" lon="-4.13769">
        <ele>499.1331</ele>
        <time>2021-07-17T08:21:44Z</time>
      </trkpt>
      <trkpt lat="37.17661" lon="-4.1359">
        <ele>512.0836</ele>
        <time>2021-07-17T08:21:55Z</time>
      </trkpt>
      <trkpt lat="37.17757" lon="-4.1343">
        <ele>512.0037</ele>
        <time>2021-07-17T08:22:06Z</time>
      </trkpt>
      <trkpt lat="37.17827" lon="-4.13278">
        <ele>510.2831</ele>
        <time>2021-07-17T08:22:17Z</time>
      </trkpt>
      <trkpt lat="37.17829" lon="-4.13089">
        <ele>518.6405</ele>
        <time>2021-07-17T08:22:28Z</time>
      </trkpt>
      <trkpt lat="37.17898" lon="-4.12891">
        <ele>529.278</ele>
        <time>2021-07-17T08:22:39Z</time>
      </trkpt>
      <trkpt lat="37.17925" lon="-4.12664">
        <ele>540.0056</ele>
        <time>2021-07-17T08:22:50Z</time>
      </trkpt>
      <trkpt lat="37.17911" lon="-4.12429">
        <ele>551.9531</ele>
        <time>2021-07-17T08:23:01Z</time>
      </trkpt>
      <trkpt lat="37.17901" lon="-4.12317">
        <ele>554.6636</ele>
        <time>2021-07-17T08:23:12Z</time>
      </trkpt>
      <trkpt lat="37.17895" lon="-4.12248">
        <ele>555.1805</ele>
        <time>2021-07-17T08:23:23Z</time>
      </trkpt>
      <trkpt lat="37.17986" lon="-4.12154">
        <ele>560.0551</ele>
        <time>2021-07-17T08:23:34Z</time>
      </trkpt>
      <trkpt lat="37.17959" lon="-4.12078">
        <ele>563.9996</ele>
        <time>2021-07-17T08:23:45Z</time>
      </trkpt>
      <trkpt lat="37.17886" lon="-4.12093">
        <ele>572.3049</ele>
        <time>2021-07-17T08:23:56Z</time>
      </trkpt>
      <trkpt lat="37.17836" lon="-4.12045">
        <ele>579.6929</ele>
        <time>2021-07-17T08:24:07Z</time>
      </trkpt>
      <trkpt lat="37.17874" lon="-4.11848">
        <ele>591.6306</ele>
        <time>2021-07-17T08:24:18Z</time>
      </trkpt>
      <trkpt lat="37.17928" lon="-4.11708">
        <ele>600.1671</ele>
        <time>2021-07-17T08:24:29Z</time>
      </trkpt>
      <trkpt lat="37.18029" lon="-4.11674">
        <ele>594.4718</ele>
        <time>2021-07-17T08:24:40Z</time>
      </trkpt>
      <trkpt lat="37.18102" lon="-4.11536">
        <ele>601.0442</ele>
        <time>2021-07-17T08:24:51Z</time>
      </trkpt>
      <trkpt lat="37.18145" lon="-4.11432">
        <ele>608.3358</ele>
        <time>2021-07-17T08:25:02Z</time>
      </trkpt>
      <trkpt lat="37.18272" lon="-4.11493">
        <ele>624.6721</ele>
        <time>2021-07-17T08:25:13Z</time>
      </trkpt>
      <trkpt lat="37.18355" lon="-4.11407">
        <ele>629.5305</ele>
        <time>2021-07-17T08:25:24Z</time>
      </trkpt>
      <trkpt lat="37.18447" lon="-4.11321">
        <ele>636.6861</ele>
        <time>2021-07-17T08:25:35Z</time>
      </trkpt>
      <trkpt lat="37.1852" lon="-4.11245">
        <ele>646.108</ele>
        <time>2021-07-17T08:25:46Z</time>
      </trkpt>
      <trkpt lat="37.18549" lon="-4.11121">
        <ele>648.0597</ele>
        <time>2021-07-17T08:25:57Z</time>
      </trkpt>
      <trkpt lat="37.18556" lon="-4.10971">
        <ele>653.6859</ele>
        <time>2021-07-17T08:26:08Z</time>
      </trkpt>
      <trkpt lat="37.18705" lon="-4.10931">
        <ele>666.8915</ele>
        <time>2021-07-17T08:26:19Z</time>
      </trkpt>
      <trkpt lat="37.18771" lon="-4.11054">
        <ele>671.3236</ele>
        <time>2021-07-17T08:26:30Z</time>
      </trkpt>
      <trkpt lat="37.18855" lon="-4.11169">
        <ele>681.4769</ele>
        <time>2021-07-17T08:26:41Z</time>
      </trkpt>
      <trkpt lat="37.18864" lon="-4.11196">
        <ele>681.0561</ele>
        <time>2021-07-17T08:26:52Z</time>
      </trkpt>
      <trkpt lat="37.18884" lon="-4.11183">
        <ele>678.0378</ele>
        <time>2021-07-17T08:27:03Z</time>
      </trkpt>
      <trkpt lat="37.18967" lon="-4.11103">
        <ele>682.1333</ele>
        <time>2021-07-17T08:27:14Z</time>
      </trkpt>
      <trkpt lat="37.19074" lon="-4.11033">
        <ele>687.9103</ele>
        <time>2021-07-17T08:27:25Z</time>
      </trkpt>
      <trkpt lat="37.19097" lon="-4.10986">
        <ele>687.4504</ele>
        <time>2021-07-17T08:27:36Z</time>
      </trkpt>
      <trkpt lat="37.19107" lon="-4.10956">
        <ele>689.1084</ele>
        <time>2021-07-17T08:27:47Z</time>
      </trkpt>
      <trkpt lat="37.19179" lon="-4.10911">
        <ele>679.4477</ele>
        <time>2021-07-17T08:27:58Z</time>
      </trkpt>
      <trkpt lat="37.19328" lon="-4.10883">
        <ele>658.9084</ele>
        <time>2021-07-17T08:28:09Z</time>
      </trkpt>
      <trkpt lat="37.19436" lon="-4.10773">
        <ele>644.7514</ele>
        <time>2021-07-17T08:28:20Z</time>
      </trkpt>
      <trkpt lat="37.1959" lon="-4.10653">
        <ele>627.1801</ele>
        <time>2021-07-17T08:28:31Z</time>
      </trkpt>
      <trkpt lat="37.19743" lon="-4.10514">
        <ele>626.9071</ele>
        <time>2021-07-17T08:28:42Z</time>
      </trkpt>
      <trkpt lat="37.19859" lon="-4.10331">
        <ele>625.3808</ele>
        <time>2021-07-17T08:28:53Z</time>
      </trkpt>
      <trkpt lat="37.20032" lon="-4.10166">
        <ele>620.7856</ele>
        <time>2021-07-17T08:29:04Z</time>
      </trkpt>
      <trkpt lat="37.2022" lon="-4.10028">
        <ele>614.7665</ele>
        <time>2021-07-17T08:29:15Z</time>
      </trkpt>
      <trkpt lat="37.20384" lon="-4.09889">
        <ele>612.5186</ele>
        <time>2021-07-17T08:29:26Z</time>
      </trkpt>
      <trkpt lat="37.20517" lon="-4.09751">
        <ele>599.6175</ele>
        <time>2021-07-17T08:29:37Z</time>
      </trkpt>
      <trkpt lat="37.20612" lon="-4.09602">
        <ele>585.8332</ele>
        <time>2021-07-17T08:29:48Z</time>
      </trkpt>
      <trkpt lat="37.20768" lon="-4.09497">
        <ele>579.0497</ele>
        <time>2021-07-17T08:29:59Z</time>
      </trkpt>
      <trkpt lat="37.20905" lon="-4.09336">
        <ele>592.8054</ele>
        <time>2021-07-17T08:30:10Z</time>
      </trkpt>
      <trkpt lat="37.21003" lon="-4.09166">
        <ele>584.2263</ele>
        <time>2021-07-17T08:30:21Z</time>
      </trkpt>
      <trkpt lat="37.21092" lon="-4.08983">
        <ele>583.1348</ele>
        <time>2021-07-17T08:30:32Z</time>
      </trkpt>
      <trkpt lat="37.2122" lon="-4.08807">
        <ele>583.2135</ele>
        <time>2021-07-17T08:30:43Z</time>
      </trkpt>
      <trkpt lat="37.2134" lon="-4.08624">
        <ele>583.6084</ele>
        <time>2021-07-17T08:30:54Z</time>
      </trkpt>
      <trkpt lat="37.21445" lon="-4.08474">
        <ele>561.1568</ele>
        <time>2021-07-17T08:31:05Z</time>
      </trkpt>
      <trkpt lat="37.21479" lon="-4.08346">
        <ele>551.5346</ele>
        <time>2021-07-17T08:31:16Z</time>
      </trkpt>
      <trkpt lat="37.21467" lon="-4.08201">
        <ele>545.4902</ele>
        <time>2021-07-17T08:31:27Z</time>
      </trkpt>
      <trkpt lat="37.21454" lon="-4.08073">
        <ele>531.3419</ele>
        <time>2021-07-17T08:31:38Z</time>
      </trkpt>
      <trkpt lat="37.21494" lon="-4.07936">
        <ele>526.7951</ele>
        <time>2021-07-17T08:31:49Z</time>
      </trkpt>
      <trkpt lat="37.21509" lon="-4.07798">
        <ele>522.9546</ele>
        <time>2021-07-17T08:32:00Z</time>
      </trkpt>
      <trkpt lat="37.2142" lon="-4.077">
        <ele>521.0982</ele>
        <time>2021-07-17T08:32:11Z</time>
      </trkpt>
      <trkpt lat="37.21331" lon="-4.07588">
        <ele>518.552</ele>
        <time>2021-07-17T08:32:22Z</time>
      </trkpt>
      <trkpt lat="37.21281" lon="-4.07433">
        <ele>514.7886</ele>
        <time>2021-07-17T08:32:33Z</time>
      </trkpt>
      <trkpt lat="37.21278" lon="-4.07266">
        <ele>508.8137</ele>
        <time>2021-07-17T08:32:44Z</time>
      </trkpt>
      <trkpt lat="37.21321" lon="-4.0723">
        <ele>508.8389</ele>
        <time>2021-07-17T08:32:55Z</time>
      </trkpt>
      <trkpt lat="37.21482" lon="-4.07124">
        <ele>503.3244</ele>
        <time>2021-07-17T08:33:06Z</time>
      </trkpt>
      <trkpt lat="37.21582" lon="-4.07067">
        <ele>499.9824</ele>
        <time>2021-07-17T08:33:17Z</time>
      </trkpt>
      <trkpt lat="37.21654" lon="-4.07041">
        <ele>501.8515</ele>
        <time>2021-07-17T08:33:28Z</time>
      </trkpt>
      <trkpt lat="37.21706" lon="-4.06995">
        <ele>503.5916</ele>
        <time>2021-07-17T08:33:39Z</time>
      </trkpt>
      <trkpt lat="37.21722" lon="-4.06962">
        <ele>510.7567</ele>
        <time>2021-07-17T08:33:50Z</time>
      </trkpt>
      <trkpt lat="37.21813" lon="-4.07032">
        <ele>509.8268</ele>
        <time>2021-07-17T08:34:01Z</time>
      </trkpt>
      <trkpt lat="37.21924" lon="-4.07112">
        <ele>512.7429</ele>
        <time>2021-07-17T08:34:12Z</time>
      </trkpt>
      <trkpt lat="37.22086" lon="-4.07183">
        <ele>512.4577</ele>
        <time>2021-07-17T08:34:23Z</time>
      </trkpt>
      <trkpt lat="37.22257" lon="-4.07315">
        <ele>518.1659</ele>
        <time>2021-07-17T08:34:34Z</time>
      </trkpt>
      <trkpt lat="37.22459" lon="-4.07405">
        <ele>526.9523</ele>
        <time>2021-07-17T08:34:45Z</time>
      </trkpt>
      <trkpt lat="37.22688" lon="-4.07463">
        <ele>525.519</ele>
        <time>2021-07-17T08:34:56Z</time>
      </trkpt>
      <trkpt lat="37.22934" lon="-4.07548">
        <ele>527.4431</ele>
        <time>2021-07-17T08:35:07Z</time>
      </trkpt>
      <trkpt lat="37.23146" lon="-4.07661">
        <ele>530.9195</ele>
        <time>2021-07-17T08:35:18Z</time>
      </trkpt>
      <trkpt lat="37.2336" lon="-4.07706">
        <ele>533.6516</ele>
        <time>2021-07-17T08:35:29Z</time>
      </trkpt>
      <trkpt lat="37.2358" lon="-4.07681">
        <ele>539.766</ele>
        <time>2021-07-17T08:35:40Z</time>
      </trkpt>
      <trkpt lat="37.23803" lon="-4.07665">
        <ele>544.6768</ele>
        <time>2021-07-17T08:35:51Z</time>
      </trkpt>
      <trkpt lat="37.23977" lon="-4.07766">
        <ele>552.9692</ele>
        <time>2021-07-17T08:36:02Z</time>
      </trkpt>
      <trkpt lat="37.24134" lon="-4.07738">
        <ele>551.539</ele>
        <time>2021-07-17T08:36:13Z</time>
      </trkpt>
      <trkpt lat="37.24316" lon="-4.07664">
        <ele>551.722</ele>
        <time>2021-07-17T08:36:24Z</time>
      </trkpt>
      <trkpt lat="37.24506" lon="-4.07799">
        <ele>555.1168</ele>
        <time>2021-07-17T08:36:35Z</time>
      </trkpt>
      <trkpt lat="37.24657" lon="-4.07949">
        <ele>563.7687</ele>
        <time>2021-07-17T08:36:46Z</time>
      </trkpt>
      <trkpt lat="37.24865" lon="-4.07961">
        <ele>555.7975</ele>
        <time>2021-07-17T08:36:57Z</time>
      </trkpt>
      <trkpt lat="37.25059" lon="-4.0797">
        <ele>555.1269</ele>
        <time>2021-07-17T08:37:08Z</time>
      </trkpt>
      <trkpt lat="37.25258" lon="-4.0804">
        <ele>565.32</ele>
        <time>2021-07-17T08:37:19Z</time>
      </trkpt>
      <trkpt lat="37.2538" lon="-4.0825">
        <ele>561.29</ele>
        <time>2021-07-17T08:37:30Z</time>
      </trkpt>
      <trkpt lat="37.25548" lon="-4.08395">
        <ele>557.6853</ele>
        <time>2021-07-17T08:37:41Z</time>
      </trkpt>
      <trkpt lat="37.25769" lon="-4.08418">
        <ele>573.869</ele>
        <time>2021-07-17T08:37:52Z</time>
      </trkpt>
      <trkpt lat="37.25978" lon="-4.08469">
        <ele>571.0447</ele>
        <time>2021-07-17T08:38:03Z</time>
      </trkpt>
      <trkpt lat="37.26144" lon="-4.08288">
        <ele>570.6087</ele>
        <time>2021-07-17T08:38:14Z</time>
      </trkpt>
      <trkpt lat="37.26333" lon="-4.08116">
        <ele>580.1633</ele>
        <time>2021-07-17T08:38:25Z</time>
      </trkpt>
      <trkpt lat="37.26507" lon="-4.07905">
        <ele>585.5321</ele>
        <time>2021-07-17T08:38:36Z</time>
      </trkpt>
      <trkpt lat="37.26648" lon="-4.07727">
        <ele>584.6385</ele>
        <time>2021-07-17T08:38:48Z</time>
      </trkpt>
      <trkpt lat="37.2678" lon="-4.07644">
        <ele>593.3874</ele>
        <time>2021-07-17T08:38:59Z</time>
      </trkpt>
      <trkpt lat="37.2697" lon="-4.0751">
        <ele>593.4836</ele>
        <time>2021-07-17T08:39:10Z</time>
      </trkpt>
      <trkpt lat="37.27144" lon="-4.07369">
        <ele>602.1187</ele>
        <time>2021-07-17T08:39:21Z</time>
      </trkpt>
      <trkpt lat="37.27266" lon="-4.07537">
        <ele>601.6171</ele>
        <time>2021-07-17T08:39:32Z</time>
      </trkpt>
      <trkpt lat="37.27343" lon="-4.07453">
        <ele>605.0871</ele>
        <time>2021-07-17T08:39:43Z</time>
      </trkpt>
      <trkpt lat="37.27399" lon="-4.07357">
        <ele>609.9976</ele>
        <time>2021-07-17T08:39:54Z</time>
      </trkpt>
      <trkpt lat="37.2747" lon="-4.07376">
        <ele>614.8371</ele>
        <time>2021-07-17T08:40:05Z</time>
      </trkpt>
      <trkpt lat="37.27581" lon="-4.07527">
        <ele>617.8636</ele>
        <time>2021-07-17T08:40:16Z</time>
      </trkpt>
      <trkpt lat="37.27783" lon="-4.07638">
        <ele>603.3158</ele>
        <time>2021-07-17T08:40:27Z</time>
      </trkpt>
      <trkpt lat="37.27992" lon="-4.07697">
        <ele>611.7887</ele>
        <time>2021-07-17T08:40:38Z</time>
      </trkpt>
      <trkpt lat="37.28182" lon="-4.07689">
        <ele>617.5266</ele>
        <time>2021-07-17T08:40:49Z</time>
      </trkpt>
      <trkpt lat="37.28362" lon="-4.07714">
        <ele>617.7063</ele>
        <time>2021-07-17T08:41:00Z</time>
      </trkpt>
      <trkpt lat="37.28596" lon="-4.07607">
        <ele>625.3279</ele>
        <time>2021-07-17T08:41:11Z</time>
      </trkpt>
      <trkpt lat="37.28762" lon="-4.07653">
        <ele>632.0048</ele>
        <time>2021-07-17T08:41:22Z</time>
      </trkpt>
      <trkpt lat="37.28917" lon="-4.07812">
        <ele>633.4418</ele>
        <time>2021-07-17T08:41:33Z</time>
      </trkpt>
      <trkpt lat="37.29062" lon="-4.07814">
        <ele>639.4794</ele>
        <time>2021-07-17T08:41:44Z</time>
      </trkpt>
      <trkpt lat="37.2926" lon="-4.07724">
        <ele>651.4891</ele>
        <time>2021-07-17T08:41:55Z</time>
      </trkpt>
      <trkpt lat="37.29392" lon="-4.07832">
        <ele>657.4291</ele>
        <time>2021-07-17T08:42:06Z</time>
      </trkpt>
      <trkpt lat="37.29593" lon="-4.07823">
        <ele>646.3855</ele>
        <time>2021-07-17T08:42:17Z</time>
      </trkpt>
      <trkpt lat="37.29784" lon="-4.07663">
        <ele>650.1845</ele>
        <time>2021-07-17T08:42:28Z</time>
      </trkpt>
      <trkpt lat="37.30025" lon="-4.07724">
        <ele>662.4742</ele>
        <time>2021-07-17T08:42:39Z</time>
      </trkpt>
      <trkpt lat="37.3022" lon="-4.07755">
        <ele>678.9214</ele>
        <time>2021-07-17T08:42:50Z</time>
      </trkpt>
      <trkpt lat="37.30363" lon="-4.07555">
        <ele>675.8241</ele>
        <time>2021-07-17T08:43:01Z</time>
      </trkpt>
      <trkpt lat="37.30492" lon="-4.07287">
        <ele>666.3402</ele>
        <time>2021-07-17T08:43:12Z</time>
      </trkpt>
      <trkpt lat="37.30677" lon="-4.07074">
        <ele>673.6812</ele>
        <time>2021-07-17T08:43:23Z</time>
      </trkpt>
      <trkpt lat="37.30865" lon="-4.06821">
        <ele>674.4129</ele>
        <time>2021-07-17T08:43:34Z</time>
      </trkpt>
      <trkpt lat="37.31024" lon="-4.06588">
        <ele>679.7694</ele>
        <time>2021-07-17T08:43:45Z</time>
      </trkpt>
      <trkpt lat="37.3124" lon="-4.06461">
        <ele>681.8991</ele>
        <time>2021-07-17T08:43:56Z</time>
      </trkpt>
      <trkpt lat="37.31441" lon="-4.0631">
        <ele>681.4203</ele>
        <time>2021-07-17T08:44:07Z</time>
      </trkpt>
      <trkpt lat="37.31576" lon="-4.06196">
        <ele>683.4948</ele>
        <time>2021-07-17T08:44:18Z</time>
      </trkpt>
      <trkpt lat="37.31522" lon="-4.06003">
        <ele>689.9728</ele>
        <time>2021-07-17T08:44:29Z</time>
      </trkpt>
      <trkpt lat="37.31576" lon="-4.05765">
        <ele>690.0558</ele>
        <time>2021-07-17T08:44:40Z</time>
      </trkpt>
      <trkpt lat="37.31714" lon="-4.05546">
        <ele>692.0523</ele>
        <time>2021-07-17T08:44:51Z</time>
      </trkpt>
      <trkpt lat="37.31867" lon="-4.05331">
        <ele>693.1118</ele>
        <time>2021-07-17T08:45:02Z</time>
      </trkpt>
      <trkpt lat="37.31923" lon="-4.0502">
        <ele>699.9215</ele>
        <time>2021-07-17T08:45:13Z</time>
      </trkpt>
      <trkpt lat="37.31963" lon="-4.04711">
        <ele>703.9144</ele>
        <time>2021-07-17T08:45:24Z</time>
      </trkpt>
      <trkpt lat="37.31988" lon="-4.04397">
        <ele>706.2488</ele>
        <time>2021-07-17T08:45:35Z</time>
      </trkpt>
      <trkpt lat="37.31999" lon="-4.04135">
        <ele>707.3057</ele>
        <time>2021-07-17T08:45:46Z</time>
      </trkpt>
      <trkpt lat="37.32006" lon="-4.03998">
        <ele>710.5011</ele>
        <time>2021-07-17T08:45:57Z</time>
      </trkpt>
      <trkpt lat="37.32008" lon="-4.03905">
        <ele>711.3802</ele>
        <time>2021-07-17T08:46:08Z</time>
      </trkpt>
      <trkpt lat="37.32005" lon="-4.03771">
        <ele>713.5834</ele>
        <time>2021-07-17T08:46:19Z</time>
      </trkpt>
      <trkpt lat="37.32012" lon="-4.0363">
        <ele>716.9208</ele>
        <time>2021-07-17T08:46:30Z</time>
      </trkpt>
      <trkpt lat="37.32045" lon="-4.03347">
        <ele>725.1401</ele>
        <time>2021-07-17T08:46:41Z</time>
      </trkpt>
      <trkpt lat="37.32153" lon="-4.03073">
        <ele>724.2986</ele>
        <time>2021-07-17T08:46:52Z</time>
      </trkpt>
      <trkpt lat="37.32222" lon="-4.02815">
        <ele>727.1446</ele>
        <time>2021-07-17T08:47:03Z</time>
      </trkpt>
      <trkpt lat="37.32311" lon="-4.02612">
        <ele>736.8646</ele>
        <time>2021-07-17T08:47:14Z</time>
      </trkpt>
      <trkpt lat="37.32259" lon="-4.02355">
        <ele>745.9656</ele>
        <time>2021-07-17T08:47:25Z</time>
      </trkpt>
      <trkpt lat="37.32285" lon="-4.02075">
        <ele>746.4919</ele>
        <time>2021-07-17T08:47:36Z</time>
      </trkpt>
      <trkpt lat="37.32241" lon="-4.0186">
        <ele>760.6454</ele>
        <time>2021-07-17T08:47:47Z</time>
      </trkpt>
      <trkpt lat="37.32192" lon="-4.01748">
        <ele>761.8598</ele>
        <time>2021-07-17T08:47:58Z</time>
      </trkpt>
      <trkpt lat="37.32328" lon="-4.01672">
        <ele>769.8292</ele>
        <time>2021-07-17T08:48:09Z</time>
      </trkpt>
      <trkpt lat="37.32461" lon="-4.01481">
        <ele>768.2609</ele>
        <time>2021-07-17T08:48:20Z</time>
      </trkpt>
      <trkpt lat="37.32483" lon="-4.01244">
        <ele>769.8953</ele>
        <time>2021-07-17T08:48:31Z</time>
      </trkpt>
      <trkpt lat="37.32341" lon="-4.01104">
        <ele>785.9547</ele>
        <time>2021-07-17T08:48:42Z</time>
      </trkpt>
      <trkpt lat="37.3226" lon="-4.00951">
        <ele>803.6655</ele>
        <time>2021-07-17T08:48:53Z</time>
      </trkpt>
      <trkpt lat="37.32257" lon="-4.00844">
        <ele>808.1159</ele>
        <time>2021-07-17T08:49:04Z</time>
      </trkpt>
      <trkpt lat="37.32284" lon="-4.00727">
        <ele>814.984</ele>
        <time>2021-07-17T08:49:15Z</time>
      </trkpt>
      <trkpt lat="37.3231" lon="-4.00658">
        <ele>822.4053</ele>
        <time>2021-07-17T08:49:26Z</time>
      </trkpt>
      <trkpt lat="37.32348" lon="-4.00558">
        <ele>831.0875</ele>
        <time>2021-07-17T08:49:37Z</time>
      </trkpt>
      <trkpt lat="37.32342" lon="-4.00383">
        <ele>840.1404</ele>
        <time>2021-07-17T08:49:48Z</time>
      </trkpt>
      <trkpt lat="37.32343" lon="-4.00323">
        <ele>843.3608</ele>
        <time>2021-07-17T08:49:59Z</time>
      </trkpt>
      <trkpt lat="37.32371" lon="-4.00223">
        <ele>849.7735</ele>
        <time>2021-07-17T08:50:10Z</time>
      </trkpt>
      <trkpt lat="37.32315" lon="-4.00259">
        <ele>855.0309</ele>
        <time>2021-07-17T08:50:21Z</time>
      </trkpt>
      <trkpt lat="37.32226" lon="-4.00325">
        <ele>865.4495</ele>
        <time>2021-07-17T08:50:32Z</time>
      </trkpt>
      <trkpt lat="37.32196" lon="-4.00311">
        <ele>876.1989</ele>
        <time>2021-07-17T08:50:43Z</time>
      </trkpt>
      <trkpt lat="37.32187" lon="-4.00205">
        <ele>884.4164</ele>
        <time>2021-07-17T08:50:54Z</time>
      </trkpt>
      <trkpt lat="37.3216" lon="-4.00112">
        <ele>885.6764</ele>
        <time>2021-07-17T08:51:05Z</time>
      </trkpt>
      <trkpt lat="37.32135" lon="-4.00079">
        <ele>892.2095</ele>
        <time>2021-07-17T08:51:16Z</time>
      </trkpt>
      <trkpt lat="37.32235" lon="-3.99933">
        <ele>905.5005</ele>
        <time>2021-07-17T08:51:27Z</time>
      </trkpt>
      <trkpt lat="37.32242" lon="-3.9968">
        <ele>924.6764</ele>
        <time>2021-07-17T08:51:38Z</time>
      </trkpt>
      <trkpt lat="37.32345" lon="-3.99401">
        <ele>941.2339</ele>
        <time>2021-07-17T08:51:49Z</time>
      </trkpt>
      <trkpt lat="37.32416" lon="-3.9911">
        <ele>963.6976</ele>
        <time>2021-07-17T08:52:00Z</time>
      </trkpt>
      <trkpt lat="37.3249" lon="-3.98837">
        <ele>978.309</ele>
        <time>2021-07-17T08:52:11Z</time>
      </trkpt>
      <trkpt lat="37.32652" lon="-3.98725">
        <ele>972.7464</ele>
        <time>2021-07-17T08:52:22Z</time>
      </trkpt>
      <trkpt lat="37.32801" lon="-3.98669">
        <ele>964.4934</ele>
        <time>2021-07-17T08:52:33Z</time>
      </trkpt>
      <trkpt lat="37.32764" lon="-3.98423">
        <ele>948.6828</ele>
        <time>2021-07-17T08:52:44Z</time>
      </trkpt>
      <trkpt lat="37.32858" lon="-3.98151">
        <ele>945.6118</ele>
        <time>2021-07-17T08:52:55Z</time>
      </trkpt>
      <trkpt lat="37.32983" lon="-3.97914">
        <ele>920.3772</ele>
        <time>2021-07-17T08:53:06Z</time>
      </trkpt>
      <trkpt lat="37.32974" lon="-3.97664">
        <ele>911.4009</ele>
        <time>2021-07-17T08:53:17Z</time>
      </trkpt>
      <trkpt lat="37.3286" lon="-3.97449">
        <ele>906.5333</ele>
        <time>2021-07-17T08:53:28Z</time>
      </trkpt>
      <trkpt lat="37.32954" lon="-3.97222">
        <ele>898.5864</ele>
        <time>2021-07-17T08:53:40Z</time>
      </trkpt>
      <trkpt lat="37.32928" lon="-3.97037">
        <ele>904.2529</ele>
        <time>2021-07-17T08:53:51Z</time>
      </trkpt>
      <trkpt lat="37.3292" lon="-3.96726">
        <ele>908.0993</ele>
        <time>2021-07-17T08:54:02Z</time>
      </trkpt>
      <trkpt lat="37.32982" lon="-3.96451">
        <ele>921.7992</ele>
        <time>2021-07-17T08:54:13Z</time>
      </trkpt>
      <trkpt lat="37.33014" lon="-3.96182">
        <ele>931.8788</ele>
        <time>2021-07-17T08:54:24Z</time>
      </trkpt>
      <trkpt lat="37.33073" lon="-3.95889">
        <ele>944.1614</ele>
        <time>2021-07-17T08:54:35Z</time>
      </trkpt>
      <trkpt lat="37.33185" lon="-3.95623">
        <ele>952.3924</ele>
        <time>2021-07-17T08:54:46Z</time>
      </trkpt>
      <trkpt lat="37.33261" lon="-3.95367">
        <ele>963.3998</ele>
        <time>2021-07-17T08:54:57Z</time>
      </trkpt>
      <trkpt lat="37.33426" lon="-3.95195">
        <ele>967.7315</ele>
        <time>2021-07-17T08:55:08Z</time>
      </trkpt>
      <trkpt lat="37.3359" lon="-3.94992">
        <ele>969.2297</ele>
        <time>2021-07-17T08:55:19Z</time>
      </trkpt>
      <trkpt lat="37.33754" lon="-3.94784">
        <ele>980.4858</ele>
        <time>2021-07-17T08:55:30Z</time>
      </trkpt>
      <trkpt lat="37.33921" lon="-3.946">
        <ele>985.2193</ele>
        <time>2021-07-17T08:55:41Z</time>
      </trkpt>
      <trkpt lat="37.34107" lon="-3.94357">
        <ele>990.0924</ele>
        <time>2021-07-17T08:55:52Z</time>
      </trkpt>
      <trkpt lat="37.34197" lon="-3.94092">
        <ele>996.6458</ele>
        <time>2021-07-17T08:56:03Z</time>
      </trkpt>
      <trkpt lat="37.34321" lon="-3.9382">
        <ele>1001.325</ele>
        <time>2021-07-17T08:56:14Z</time>
      </trkpt>
      <trkpt lat="37.34474" lon="-3.93517">
        <ele>1009.397</ele>
        <time>2021-07-17T08:56:25Z</time>
      </trkpt>
      <trkpt lat="37.34599" lon="-3.93235">
        <ele>1013.329</ele>
        <time>2021-07-17T08:56:36Z</time>
      </trkpt>
      <trkpt lat="37.34617" lon="-3.92918">
        <ele>1012.121</ele>
        <time>2021-07-17T08:56:47Z</time>
      </trkpt>
      <trkpt lat="37.34746" lon="-3.92631">
        <ele>1004.789</ele>
        <time>2021-07-17T08:56:58Z</time>
      </trkpt>
      <trkpt lat="37.34924" lon="-3.92393">
        <ele>1003.321</ele>
        <time>2021-07-17T08:57:09Z</time>
      </trkpt>
      <trkpt lat="37.351" lon="-3.9228">
        <ele>1005.904</ele>
        <time>2021-07-17T08:57:20Z</time>
      </trkpt>
      <trkpt lat="37.35224" lon="-3.92046">
        <ele>996.9829</ele>
        <time>2021-07-17T08:57:31Z</time>
      </trkpt>
      <trkpt lat="37.3528" lon="-3.91759">
        <ele>986.7039</ele>
        <time>2021-07-17T08:57:42Z</time>
      </trkpt>
      <trkpt lat="37.35373" lon="-3.91444">
        <ele>976.555</ele>
        <time>2021-07-17T08:57:53Z</time>
      </trkpt>
      <trkpt lat="37.35491" lon="-3.91145">
        <ele>971.6405</ele>
        <time>2021-07-17T08:58:04Z</time>
      </trkpt>
      <trkpt lat="37.35546" lon="-3.90825">
        <ele>968.5998</ele>
        <time>2021-07-17T08:58:15Z</time>
      </trkpt>
      <trkpt lat="37.35537" lon="-3.90503">
        <ele>969.2227</ele>
        <time>2021-07-17T08:58:26Z</time>
      </trkpt>
      <trkpt lat="37.35477" lon="-3.90191">
        <ele>971.3908</ele>
        <time>2021-07-17T08:58:37Z</time>
      </trkpt>
      <trkpt lat="37.35609" lon="-3.89941">
        <ele>972.7681</ele>
        <time>2021-07-17T08:58:48Z</time>
      </trkpt>
      <trkpt lat="37.35656" lon="-3.89617">
        <ele>957.2305</ele>
        <time>2021-07-17T08:58:59Z</time>
      </trkpt>
      <trkpt lat="37.35667" lon="-3.89303">
        <ele>953.546</ele>
        <time>2021-07-17T08:59:10Z</time>
      </trkpt>
      <trkpt lat="37.35583" lon="-3.89047">
        <ele>951.7355</ele>
        <time>2021-07-17T08:59:21Z</time>
      </trkpt>
      <trkpt lat="37.35522" lon="-3.88766">
        <ele>953.2168</ele>
        <time>2021-07-17T08:59:32Z</time>
      </trkpt>
      <trkpt lat="37.35458" lon="-3.88485">
        <ele>947.1716</ele>
        <time>2021-07-17T08:59:43Z</time>
      </trkpt>
      <trkpt lat="37.35251" lon="-3.88315">
        <ele>922.4609</ele>
        <time>2021-07-17T08:59:54Z</time>
      </trkpt>
      <trkpt lat="37.35091" lon="-3.88071">
        <ele>901.0409</ele>
        <time>2021-07-17T09:00:05Z</time>
      </trkpt>
      <trkpt lat="37.34939" lon="-3.87834">
        <ele>912.8525</ele>
        <time>2021-07-17T09:00:16Z</time>
      </trkpt>
      <trkpt lat="37.34875" lon="-3.87529">
        <ele>906.1174</ele>
        <time>2021-07-17T09:00:27Z</time>
      </trkpt>
      <trkpt lat="37.34748" lon="-3.8724">
        <ele>884.1484</ele>
        <time>2021-07-17T09:00:38Z</time>
      </trkpt>
      <trkpt lat="37.34511" lon="-3.87264">
        <ele>873.8581</ele>
        <time>2021-07-17T09:00:49Z</time>
      </trkpt>
      <trkpt lat="37.34323" lon="-3.87358">
        <ele>866.2619</ele>
        <time>2021-07-17T09:01:00Z</time>
      </trkpt>
      <trkpt lat="37.3428" lon="-3.87143">
        <ele>868.1201</ele>
        <time>2021-07-17T09:01:11Z</time>
      </trkpt>
      <trkpt lat="37.34184" lon="-3.86936">
        <ele>862.2315</ele>
        <time>2021-07-17T09:01:22Z</time>
      </trkpt>
      <trkpt lat="37.3415" lon="-3.86614">
        <ele>860.9582</ele>
        <time>2021-07-17T09:01:33Z</time>
      </trkpt>
      <trkpt lat="37.34082" lon="-3.86296">
        <ele>864.1588</ele>
        <time>2021-07-17T09:01:44Z</time>
      </trkpt>
      <trkpt lat="37.3408" lon="-3.8604">
        <ele>856.7754</ele>
        <time>2021-07-17T09:01:55Z</time>
      </trkpt>
      <trkpt lat="37.3416" lon="-3.85688">
        <ele>836.5799</ele>
        <time>2021-07-17T09:02:06Z</time>
      </trkpt>
      <trkpt lat="37.3413" lon="-3.85346">
        <ele>832.5377</ele>
        <time>2021-07-17T09:02:17Z</time>
      </trkpt>
      <trkpt lat="37.3417" lon="-3.85034">
        <ele>836.5136</ele>
        <time>2021-07-17T09:02:28Z</time>
      </trkpt>
      <trkpt lat="37.34205" lon="-3.84727">
        <ele>844.7582</ele>
        <time>2021-07-17T09:02:39Z</time>
      </trkpt>
      <trkpt lat="37.34252" lon="-3.84409">
        <ele>844.5104</ele>
        <time>2021-07-17T09:02:50Z</time>
      </trkpt>
      <trkpt lat="37.34367" lon="-3.84111">
        <ele>849.2709</ele>
        <time>2021-07-17T09:03:01Z</time>
      </trkpt>
      <trkpt lat="37.34447" lon="-3.83807">
        <ele>851.7515</ele>
        <time>2021-07-17T09:03:12Z</time>
      </trkpt>
      <trkpt lat="37.34456" lon="-3.83531">
        <ele>854.8072</ele>
        <time>2021-07-17T09:03:23Z</time>
      </trkpt>
      <trkpt lat="37.34424" lon="-3.83318">
        <ele>861.5333</ele>
        <time>2021-07-17T09:03:34Z</time>
      </trkpt>
      <trkpt lat="37.34411" lon="-3.83238">
        <ele>863.2586</ele>
        <time>2021-07-17T09:03:45Z</time>
      </trkpt>
      <trkpt lat="37.34315" lon="-3.83213">
        <ele>868.5957</ele>
        <time>2021-07-17T09:03:56Z</time>
      </trkpt>
      <trkpt lat="37.34218" lon="-3.83247">
        <ele>870.9238</ele>
        <time>2021-07-17T09:04:07Z</time>
      </trkpt>
      <trkpt lat="37.34148" lon="-3.83255">
        <ele>869.826</ele>
        <time>2021-07-17T09:04:18Z</time>
      </trkpt>
      <trkpt lat="37.3405" lon="-3.83256">
        <ele>864.9426</ele>
        <time>2021-07-17T09:04:29Z</time>
      </trkpt>
      <trkpt lat="37.33917" lon="-3.83253">
        <ele>855.8998</ele>
        <time>2021-07-17T09:04:40Z</time>
      </trkpt>
      <trkpt lat="37.33868" lon="-3.83255">
        <ele>856.2279</ele>
        <time>2021-07-17T09:04:51Z</time>
      </trkpt>
      <trkpt lat="37.33864" lon="-3.83253">
        <ele>857.3051</ele>
        <time>2021-07-17T09:05:05Z</time>
      </trkpt>
      <trkpt lat="37.33864" lon="-3.83253">
        <ele>858.9302</ele>
        <time>2021-07-17T09:06:04Z</time>
      </trkpt>
      <trkpt lat="37.33858" lon="-3.8325">
        <ele>858.5403</ele>
        <time>2021-07-17T09:06:31Z</time>
      </trkpt>
      <trkpt lat="37.33749" lon="-3.83245">
        <ele>861.8944</ele>
        <time>2021-07-17T09:06:42Z</time>
      </trkpt>
      <trkpt lat="37.3371" lon="-3.83244">
        <ele>866.6527</ele>
        <time>2021-07-17T09:06:53Z</time>
      </trkpt>
      <trkpt lat="37.33662" lon="-3.83241">
        <ele>869.1346</ele>
        <time>2021-07-17T09:07:04Z</time>
      </trkpt>
      <trkpt lat="37.33539" lon="-3.83238">
        <ele>871.617</ele>
        <time>2021-07-17T09:07:15Z</time>
      </trkpt>
      <trkpt lat="37.334" lon="-3.83233">
        <ele>877.1635</ele>
        <time>2021-07-17T09:07:26Z</time>
      </trkpt>
      <trkpt lat="37.33244" lon="-3.83172">
        <ele>887.1176</ele>
        <time>2021-07-17T09:07:37Z</time>
      </trkpt>
      <trkpt lat="37.33072" lon="-3.83131">
        <ele>895.0323</ele>
        <time>2021-07-17T09:07:48Z</time>
      </trkpt>
      <trkpt lat="37.32857" lon="-3.83221">
        <ele>895.9482</ele>
        <time>2021-07-17T09:07:59Z</time>
      </trkpt>
      <trkpt lat="37.32614" lon="-3.83243">
        <ele>893.4937</ele>
        <time>2021-07-17T09:08:10Z</time>
      </trkpt>
      <trkpt lat="37.32423" lon="-3.83366">
        <ele>888.1443</ele>
        <time>2021-07-17T09:08:21Z</time>
      </trkpt>
      <trkpt lat="37.32348" lon="-3.83575">
        <ele>885.644</ele>
        <time>2021-07-17T09:08:32Z</time>
      </trkpt>
      <trkpt lat="37.32246" lon="-3.83762">
        <ele>880.3936</ele>
        <time>2021-07-17T09:08:43Z</time>
      </trkpt>
      <trkpt lat="37.32044" lon="-3.83791">
        <ele>883.6603</ele>
        <time>2021-07-17T09:08:54Z</time>
      </trkpt>
      <trkpt lat="37.31991" lon="-3.83569">
        <ele>881.5848</ele>
        <time>2021-07-17T09:09:05Z</time>
      </trkpt>
      <trkpt lat="37.319" lon="-3.83349">
        <ele>876.3408</ele>
        <time>2021-07-17T09:09:16Z</time>
      </trkpt>
      <trkpt lat="37.31722" lon="-3.83191">
        <ele>865.6333</ele>
        <time>2021-07-17T09:09:27Z</time>
      </trkpt>
      <trkpt lat="37.31538" lon="-3.83015">
        <ele>853.38</ele>
        <time>2021-07-17T09:09:38Z</time>
      </trkpt>
      <trkpt lat="37.31357" lon="-3.82834">
        <ele>843.4982</ele>
        <time>2021-07-17T09:09:49Z</time>
      </trkpt>
      <trkpt lat="37.31226" lon="-3.82612">
        <ele>839.0065</ele>
        <time>2021-07-17T09:10:00Z</time>
      </trkpt>
      <trkpt lat="37.31112" lon="-3.82405">
        <ele>831.8201</ele>
        <time>2021-07-17T09:10:11Z</time>
      </trkpt>
      <trkpt lat="37.30956" lon="-3.82237">
        <ele>832.9121</ele>
        <time>2021-07-17T09:10:22Z</time>
      </trkpt>
      <trkpt lat="37.30822" lon="-3.82035">
        <ele>831.1238</ele>
        <time>2021-07-17T09:10:33Z</time>
      </trkpt>
      <trkpt lat="37.30626" lon="-3.81954">
        <ele>823.9453</ele>
        <time>2021-07-17T09:10:44Z</time>
      </trkpt>
      <trkpt lat="37.30418" lon="-3.81904">
        <ele>817.6768</ele>
        <time>2021-07-17T09:10:55Z</time>
      </trkpt>
      <trkpt lat="37.30256" lon="-3.81729">
        <ele>803.6632</ele>
        <time>2021-07-17T09:11:06Z</time>
      </trkpt>
      <trkpt lat="37.30086" lon="-3.81562">
        <ele>801.2088</ele>
        <time>2021-07-17T09:11:17Z</time>
      </trkpt>
      <trkpt lat="37.2987" lon="-3.81477">
        <ele>805.8405</ele>
        <time>2021-07-17T09:11:28Z</time>
      </trkpt>
      <trkpt lat="37.29729" lon="-3.81229">
        <ele>818.342</ele>
        <time>2021-07-17T09:11:39Z</time>
      </trkpt>
      <trkpt lat="37.29632" lon="-3.80953">
        <ele>827.2332</ele>
        <time>2021-07-17T09:11:50Z</time>
      </trkpt>
      <trkpt lat="37.29461" lon="-3.80779">
        <ele>820.0953</ele>
        <time>2021-07-17T09:12:01Z</time>
      </trkpt>
      <trkpt lat="37.29256" lon="-3.80685">
        <ele>811.0153</ele>
        <time>2021-07-17T09:12:12Z</time>
      </trkpt>
      <trkpt lat="37.29029" lon="-3.80584">
        <ele>799.8719</ele>
        <time>2021-07-17T09:12:24Z</time>
      </trkpt>
      <trkpt lat="37.28797" lon="-3.8048">
        <ele>787.2113</ele>
        <time>2021-07-17T09:12:35Z</time>
      </trkpt>
      <trkpt lat="37.28562" lon="-3.80375">
        <ele>775.2905</ele>
        <time>2021-07-17T09:12:46Z</time>
      </trkpt>
      <trkpt lat="37.28306" lon="-3.80238">
        <ele>763.608</ele>
        <time>2021-07-17T09:12:57Z</time>
      </trkpt>
      <trkpt lat="37.28096" lon="-3.80049">
        <ele>753.5069</ele>
        <time>2021-07-17T09:13:08Z</time>
      </trkpt>
      <trkpt lat="37.27914" lon="-3.79833">
        <ele>744.1623</ele>
        <time>2021-07-17T09:13:19Z</time>
      </trkpt>
      <trkpt lat="37.27741" lon="-3.79683">
        <ele>731.0634</ele>
        <time>2021-07-17T09:13:30Z</time>
      </trkpt>
      <trkpt lat="37.27593" lon="-3.7954">
        <ele>719.1184</ele>
        <time>2021-07-17T09:13:41Z</time>
      </trkpt>
      <trkpt lat="37.27491" lon="-3.79317">
        <ele>705.2817</ele>
        <time>2021-07-17T09:13:52Z</time>
      </trkpt>
      <trkpt lat="37.27339" lon="-3.79134">
        <ele>688.5336</ele>
        <time>2021-07-17T09:14:03Z</time>
      </trkpt>
      <trkpt lat="37.2712" lon="-3.79051">
        <ele>676.4689</ele>
        <time>2021-07-17T09:14:14Z</time>
      </trkpt>
      <trkpt lat="37.26897" lon="-3.78985">
        <ele>662.4131</ele>
        <time>2021-07-17T09:14:25Z</time>
      </trkpt>
      <trkpt lat="37.26712" lon="-3.78925">
        <ele>648.9497</ele>
        <time>2021-07-17T09:14:36Z</time>
      </trkpt>
      <trkpt lat="37.26496" lon="-3.78795">
        <ele>642.6117</ele>
        <time>2021-07-17T09:14:47Z</time>
      </trkpt>
      <trkpt lat="37.2638" lon="-3.78535">
        <ele>632.6217</ele>
        <time>2021-07-17T09:14:58Z</time>
      </trkpt>
      <trkpt lat="37.26333" lon="-3.78209">
        <ele>617.9588</ele>
        <time>2021-07-17T09:15:09Z</time>
      </trkpt>
      <trkpt lat="37.26289" lon="-3.77905">
        <ele>607.0561</ele>
        <time>2021-07-17T09:15:20Z</time>
      </trkpt>
      <trkpt lat="37.26245" lon="-3.77599">
        <ele>595.0267</ele>
        <time>2021-07-17T09:15:31Z</time>
      </trkpt>
      <trkpt lat="37.26198" lon="-3.77293">
        <ele>586.7432</ele>
        <time>2021-07-17T09:15:42Z</time>
      </trkpt>
      <trkpt lat="37.2608" lon="-3.7704">
        <ele>577.8071</ele>
        <time>2021-07-17T09:15:53Z</time>
      </trkpt>
      <trkpt lat="37.25911" lon="-3.76856">
        <ele>570.3877</ele>
        <time>2021-07-17T09:16:04Z</time>
      </trkpt>
      <trkpt lat="37.25796" lon="-3.76643">
        <ele>568.9686</ele>
        <time>2021-07-17T09:16:15Z</time>
      </trkpt>
      <trkpt lat="37.2567" lon="-3.76517">
        <ele>572.2745</ele>
        <time>2021-07-17T09:16:26Z</time>
      </trkpt>
      <trkpt lat="37.25564" lon="-3.76568">
        <ele>565.5579</ele>
        <time>2021-07-17T09:16:37Z</time>
      </trkpt>
      <trkpt lat="37.25596" lon="-3.76445">
        <ele>565.6644</ele>
        <time>2021-07-17T09:16:48Z</time>
      </trkpt>
      <trkpt lat="37.25664" lon="-3.76382">
        <ele>569.5163</ele>
        <time>2021-07-17T09:16:59Z</time>
      </trkpt>
      <trkpt lat="37.25614" lon="-3.76239">
        <ele>573.0319</ele>
        <time>2021-07-17T09:17:10Z</time>
      </trkpt>
      <trkpt lat="37.25527" lon="-3.76066">
        <ele>581.193</ele>
        <time>2021-07-17T09:17:21Z</time>
      </trkpt>
      <trkpt lat="37.25447" lon="-3.75901">
        <ele>578.349</ele>
        <time>2021-07-17T09:17:32Z</time>
      </trkpt>
      <trkpt lat="37.25367" lon="-3.75787">
        <ele>574.1624</ele>
        <time>2021-07-17T09:17:43Z</time>
      </trkpt>
      <trkpt lat="37.25264" lon="-3.7567">
        <ele>573.0565</ele>
        <time>2021-07-17T09:17:54Z</time>
      </trkpt>
      <trkpt lat="37.2518" lon="-3.75598">
        <ele>575.8495</ele>
        <time>2021-07-17T09:18:05Z</time>
      </trkpt>
      <trkpt lat="37.25167" lon="-3.75584">
        <ele>580.2408</ele>
        <time>2021-07-17T09:18:16Z</time>
      </trkpt>
      <trkpt lat="37.25116" lon="-3.75535">
        <ele>583.1794</ele>
        <time>2021-07-17T09:18:27Z</time>
      </trkpt>
      <trkpt lat="37.25062" lon="-3.75491">
        <ele>586.6013</ele>
        <time>2021-07-17T09:18:38Z</time>
      </trkpt>
      <trkpt lat="37.2504" lon="-3.75468">
        <ele>584.0779</ele>
        <time>2021-07-17T09:18:49Z</time>
      </trkpt>
      <trkpt lat="37.25015" lon="-3.75443">
        <ele>585.9961</ele>
        <time>2021-07-17T09:19:00Z</time>
      </trkpt>
      <trkpt lat="37.24949" lon="-3.75296">
        <ele>582.3934</ele>
        <time>2021-07-17T09:19:11Z</time>
      </trkpt>
      <trkpt lat="37.24901" lon="-3.75144">
        <ele>579.1122</ele>
        <time>2021-07-17T09:19:22Z</time>
      </trkpt>
      <trkpt lat="37.24834" lon="-3.74936">
        <ele>579.5594</ele>
        <time>2021-07-17T09:19:33Z</time>
      </trkpt>
      <trkpt lat="37.24812" lon="-3.74746">
        <ele>579.7446</ele>
        <time>2021-07-17T09:19:44Z</time>
      </trkpt>
      <trkpt lat="37.24831" lon="-3.74586">
        <ele>582.9399</ele>
        <time>2021-07-17T09:19:55Z</time>
      </trkpt>
      <trkpt lat="37.24821" lon="-3.74437">
        <ele>584.6026</ele>
        <time>2021-07-17T09:20:06Z</time>
      </trkpt>
      <trkpt lat="37.24704" lon="-3.74307">
        <ele>578.43</ele>
        <time>2021-07-17T09:20:17Z</time>
      </trkpt>
      <trkpt lat="37.24564" lon="-3.7416">
        <ele>572.8923</ele>
        <time>2021-07-17T09:20:28Z</time>
      </trkpt>
      <trkpt lat="37.24434" lon="-3.7402">
        <ele>570.3222</ele>
        <time>2021-07-17T09:20:39Z</time>
      </trkpt>
      <trkpt lat="37.24324" lon="-3.73905">
        <ele>575.6676</ele>
        <time>2021-07-17T09:20:50Z</time>
      </trkpt>
      <trkpt lat="37.24191" lon="-3.73756">
        <ele>576.6059</ele>
        <time>2021-07-17T09:21:01Z</time>
      </trkpt>
      <trkpt lat="37.24052" lon="-3.73601">
        <ele>571.3542</ele>
        <time>2021-07-17T09:21:12Z</time>
      </trkpt>
      <trkpt lat="37.23899" lon="-3.73437">
        <ele>571.2261</ele>
        <time>2021-07-17T09:21:23Z</time>
      </trkpt>
      <trkpt lat="37.23759" lon="-3.73278">
        <ele>571.003</ele>
        <time>2021-07-17T09:21:34Z</time>
      </trkpt>
      <trkpt lat="37.236" lon="-3.731">
        <ele>569.0327</ele>
        <time>2021-07-17T09:21:45Z</time>
      </trkpt>
      <trkpt lat="37.23445" lon="-3.72927">
        <ele>569.3815</ele>
        <time>2021-07-17T09:21:56Z</time>
      </trkpt>
      <trkpt lat="37.2331" lon="-3.72779">
        <ele>568.6905</ele>
        <time>2021-07-17T09:22:07Z</time>
      </trkpt>
      <trkpt lat="37.23181" lon="-3.72641">
        <ele>574.1909</ele>
        <time>2021-07-17T09:22:18Z</time>
      </trkpt>
      <trkpt lat="37.23054" lon="-3.72499">
        <ele>574.0173</ele>
        <time>2021-07-17T09:22:29Z</time>
      </trkpt>
      <trkpt lat="37.22923" lon="-3.7235">
        <ele>573.2122</ele>
        <time>2021-07-17T09:22:40Z</time>
      </trkpt>
      <trkpt lat="37.22793" lon="-3.72205">
        <ele>576.6027</ele>
        <time>2021-07-17T09:22:51Z</time>
      </trkpt>
      <trkpt lat="37.22715" lon="-3.72038">
        <ele>576.4495</ele>
        <time>2021-07-17T09:23:02Z</time>
      </trkpt>
      <trkpt lat="37.22643" lon="-3.71841">
        <ele>576.8515</ele>
        <time>2021-07-17T09:23:13Z</time>
      </trkpt>
      <trkpt lat="37.22573" lon="-3.71645">
        <ele>577.511</ele>
        <time>2021-07-17T09:23:24Z</time>
      </trkpt>
      <trkpt lat="37.22501" lon="-3.71441">
        <ele>579.2107</ele>
        <time>2021-07-17T09:23:35Z</time>
      </trkpt>
      <trkpt lat="37.22411" lon="-3.71192">
        <ele>579.4205</ele>
        <time>2021-07-17T09:23:46Z</time>
      </trkpt>
      <trkpt lat="37.22339" lon="-3.70998">
        <ele>583.4886</ele>
        <time>2021-07-17T09:23:57Z</time>
      </trkpt>
      <trkpt lat="37.22269" lon="-3.70811">
        <ele>583.8351</ele>
        <time>2021-07-17T09:24:08Z</time>
      </trkpt>
      <trkpt lat="37.22199" lon="-3.70614">
        <ele>582.3405</ele>
        <time>2021-07-17T09:24:19Z</time>
      </trkpt>
      <trkpt lat="37.22143" lon="-3.70446">
        <ele>584.5394</ele>
        <time>2021-07-17T09:24:30Z</time>
      </trkpt>
      <trkpt lat="37.22094" lon="-3.703">
        <ele>584.9046</ele>
        <time>2021-07-17T09:24:41Z</time>
      </trkpt>
      <trkpt lat="37.22032" lon="-3.70128">
        <ele>589.4521</ele>
        <time>2021-07-17T09:24:52Z</time>
      </trkpt>
      <trkpt lat="37.22009" lon="-3.7006">
        <ele>592.0631</ele>
        <time>2021-07-17T09:25:03Z</time>
      </trkpt>
      <trkpt lat="37.22006" lon="-3.70057">
        <ele>591.926</ele>
        <time>2021-07-17T09:25:32Z</time>
      </trkpt>
      <trkpt lat="37.21973" lon="-3.69962">
        <ele>590.9474</ele>
        <time>2021-07-17T09:25:43Z</time>
      </trkpt>
      <trkpt lat="37.21912" lon="-3.69808">
        <ele>591.9078</ele>
        <time>2021-07-17T09:25:54Z</time>
      </trkpt>
      <trkpt lat="37.2184" lon="-3.69656">
        <ele>596.8072</ele>
        <time>2021-07-17T09:26:05Z</time>
      </trkpt>
      <trkpt lat="37.21764" lon="-3.69498">
        <ele>597.6865</ele>
        <time>2021-07-17T09:26:16Z</time>
      </trkpt>
      <trkpt lat="37.21684" lon="-3.69334">
        <ele>603.6934</ele>
        <time>2021-07-17T09:26:27Z</time>
      </trkpt>
      <trkpt lat="37.21605" lon="-3.69164">
        <ele>611.6796</ele>
        <time>2021-07-17T09:26:38Z</time>
      </trkpt>
      <trkpt lat="37.21545" lon="-3.69042">
        <ele>606.8002</ele>
        <time>2021-07-17T09:26:49Z</time>
      </trkpt>
      <trkpt lat="37.21543" lon="-3.69037">
        <ele>606.3688</ele>
        <time>2021-07-17T09:27:00Z</time>
      </trkpt>
      <trkpt lat="37.2154" lon="-3.6903">
        <ele>606.7418</ele>
        <time>2021-07-17T09:27:30Z</time>
      </trkpt>
      <trkpt lat="37.21493" lon="-3.68931">
        <ele>607.9501</ele>
        <time>2021-07-17T09:27:41Z</time>
      </trkpt>
      <trkpt lat="37.21388" lon="-3.68765">
        <ele>603.7988</ele>
        <time>2021-07-17T09:27:52Z</time>
      </trkpt>
      <trkpt lat="37.21279" lon="-3.68576">
        <ele>603.8903</ele>
        <time>2021-07-17T09:28:03Z</time>
      </trkpt>
      <trkpt lat="37.21179" lon="-3.68361">
        <ele>606.5829</ele>
        <time>2021-07-17T09:28:14Z</time>
      </trkpt>
      <trkpt lat="37.21076" lon="-3.68129">
        <ele>609.9223</ele>
        <time>2021-07-17T09:28:25Z</time>
      </trkpt>
      <trkpt lat="37.20991" lon="-3.67885">
        <ele>609.1232</ele>
        <time>2021-07-17T09:28:36Z</time>
      </trkpt>
      <trkpt lat="37.20919" lon="-3.67735">
        <ele>606.9585</ele>
        <time>2021-07-17T09:28:47Z</time>
      </trkpt>
      <trkpt lat="37.20875" lon="-3.67668">
        <ele>607.521</ele>
        <time>2021-07-17T09:28:58Z</time>
      </trkpt>
      <trkpt lat="37.20819" lon="-3.67559">
        <ele>609.5519</ele>
        <time>2021-07-17T09:29:09Z</time>
      </trkpt>
      <trkpt lat="37.20784" lon="-3.6743">
        <ele>610.0756</ele>
        <time>2021-07-17T09:29:20Z</time>
      </trkpt>
      <trkpt lat="37.207" lon="-3.67272">
        <ele>610.7539</ele>
        <time>2021-07-17T09:29:31Z</time>
      </trkpt>
      <trkpt lat="37.20618" lon="-3.67078">
        <ele>609.3473</ele>
        <time>2021-07-17T09:29:42Z</time>
      </trkpt>
      <trkpt lat="37.20546" lon="-3.66868">
        <ele>611.7395</ele>
        <time>2021-07-17T09:29:53Z</time>
      </trkpt>
      <trkpt lat="37.20544" lon="-3.66624">
        <ele>621.4899</ele>
        <time>2021-07-17T09:30:04Z</time>
      </trkpt>
      <trkpt lat="37.20545" lon="-3.6641">
        <ele>614.7974</ele>
        <time>2021-07-17T09:30:15Z</time>
      </trkpt>
      <trkpt lat="37.20528" lon="-3.66158">
        <ele>620.5908</ele>
        <time>2021-07-17T09:30:26Z</time>
      </trkpt>
      <trkpt lat="37.20491" lon="-3.65908">
        <ele>622.8268</ele>
        <time>2021-07-17T09:30:37Z</time>
      </trkpt>
      <trkpt lat="37.20441" lon="-3.65674">
        <ele>625.5446</ele>
        <time>2021-07-17T09:30:48Z</time>
      </trkpt>
      <trkpt lat="37.20369" lon="-3.65529">
        <ele>623.6144</ele>
        <time>2021-07-17T09:30:59Z</time>
      </trkpt>
      <trkpt lat="37.20255" lon="-3.6536">
        <ele>629.23</ele>
        <time>2021-07-17T09:31:10Z</time>
      </trkpt>
      <trkpt lat="37.20134" lon="-3.6521">
        <ele>627.5439</ele>
        <time>2021-07-17T09:31:21Z</time>
      </trkpt>
      <trkpt lat="37.19998" lon="-3.65028">
        <ele>630.0624</ele>
        <time>2021-07-17T09:31:32Z</time>
      </trkpt>
      <trkpt lat="37.19869" lon="-3.64924">
        <ele>630.0483</ele>
        <time>2021-07-17T09:31:43Z</time>
      </trkpt>
      <trkpt lat="37.19773" lon="-3.64869">
        <ele>626.9831</ele>
        <time>2021-07-17T09:31:54Z</time>
      </trkpt>
      <trkpt lat="37.19683" lon="-3.64804">
        <ele>625.0935</ele>
        <time>2021-07-17T09:32:05Z</time>
      </trkpt>
      <trkpt lat="37.1964" lon="-3.64646">
        <ele>632.3482</ele>
        <time>2021-07-17T09:32:16Z</time>
      </trkpt>
      <trkpt lat="37.19518" lon="-3.64609">
        <ele>640.8526</ele>
        <time>2021-07-17T09:32:27Z</time>
      </trkpt>
      <trkpt lat="37.19354" lon="-3.64499">
        <ele>632.9476</ele>
        <time>2021-07-17T09:32:38Z</time>
      </trkpt>
      <trkpt lat="37.19219" lon="-3.64377">
        <ele>631.4762</ele>
        <time>2021-07-17T09:32:49Z</time>
      </trkpt>
      <trkpt lat="37.19184" lon="-3.64369">
        <ele>633.9482</ele>
        <time>2021-07-17T09:33:00Z</time>
      </trkpt>
      <trkpt lat="37.1918" lon="-3.64368">
        <ele>640.9968</ele>
        <time>2021-07-17T09:33:51Z</time>
      </trkpt>
      <trkpt lat="37.19176" lon="-3.64367">
        <ele>644.0089</ele>
        <time>2021-07-17T09:34:09Z</time>
      </trkpt>
      <trkpt lat="37.19085" lon="-3.64359">
        <ele>640.3345</ele>
        <time>2021-07-17T09:34:20Z</time>
      </trkpt>
      <trkpt lat="37.18939" lon="-3.64379">
        <ele>636.5711</ele>
        <time>2021-07-17T09:34:31Z</time>
      </trkpt>
      <trkpt lat="37.18761" lon="-3.64329">
        <ele>634.9429</ele>
        <time>2021-07-17T09:34:42Z</time>
      </trkpt>
      <trkpt lat="37.18573" lon="-3.64259">
        <ele>631.9728</ele>
        <time>2021-07-17T09:34:53Z</time>
      </trkpt>
      <trkpt lat="37.18395" lon="-3.64175">
        <ele>627.6788</ele>
        <time>2021-07-17T09:35:04Z</time>
      </trkpt>
      <trkpt lat="37.18194" lon="-3.64151">
        <ele>628.3993</ele>
        <time>2021-07-17T09:35:15Z</time>
      </trkpt>
      <trkpt lat="37.18017" lon="-3.64148">
        <ele>623.9006</ele>
        <time>2021-07-17T09:35:26Z</time>
      </trkpt>
      <trkpt lat="37.17915" lon="-3.64126">
        <ele>631.7082</ele>
        <time>2021-07-17T09:35:37Z</time>
      </trkpt>
      <trkpt lat="37.17788" lon="-3.64115">
        <ele>647.4714</ele>
        <time>2021-07-17T09:35:48Z</time>
      </trkpt>
      <trkpt lat="37.1759" lon="-3.64029">
        <ele>664.722</ele>
        <time>2021-07-17T09:35:59Z</time>
      </trkpt>
      <trkpt lat="37.17499" lon="-3.63983">
        <ele>660.7352</ele>
        <time>2021-07-17T09:36:10Z</time>
      </trkpt>
      <trkpt lat="37.17388" lon="-3.63811">
        <ele>651.5825</ele>
        <time>2021-07-17T09:36:21Z</time>
      </trkpt>
      <trkpt lat="37.17241" lon="-3.6356">
        <ele>646.1745</ele>
        <time>2021-07-17T09:36:32Z</time>
      </trkpt>
      <trkpt lat="37.17097" lon="-3.63532">
        <ele>641.909</ele>
        <time>2021-07-17T09:36:43Z</time>
      </trkpt>
      <trkpt lat="37.16973" lon="-3.63602">
        <ele>640.0769</ele>
        <time>2021-07-17T09:36:54Z</time>
      </trkpt>
      <trkpt lat="37.16932" lon="-3.63529">
        <ele>641.3913</ele>
        <time>2021-07-17T09:37:05Z</time>
      </trkpt>
      <trkpt lat="37.16845" lon="-3.63367">
        <ele>643.5947</ele>
        <time>2021-07-17T09:37:16Z</time>
      </trkpt>
      <trkpt lat="37.16785" lon="-3.63171">
        <ele>642.0591</ele>
        <time>2021-07-17T09:37:27Z</time>
      </trkpt>
      <trkpt lat="37.16773" lon="-3.6294">
        <ele>643.0009</ele>
        <time>2021-07-17T09:37:38Z</time>
      </trkpt>
      <trkpt lat="37.16744" lon="-3.62724">
        <ele>643.8074</ele>
        <time>2021-07-17T09:37:49Z</time>
      </trkpt>
      <trkpt lat="37.1669" lon="-3.62522">
        <ele>646.5572</ele>
        <time>2021-07-17T09:38:00Z</time>
      </trkpt>
      <trkpt lat="37.16661" lon="-3.62422">
        <ele>648.6523</ele>
        <time>2021-07-17T09:38:11Z</time>
      </trkpt>
      <trkpt lat="37.16565" lon="-3.62504">
        <ele>651.0484</ele>
        <time>2021-07-17T09:38:22Z</time>
      </trkpt>
      <trkpt lat="37.16429" lon="-3.62643">
        <ele>650.3418</ele>
        <time>2021-07-17T09:38:33Z</time>
      </trkpt>
      <trkpt lat="37.16336" lon="-3.62787">
        <ele>651.3411</ele>
        <time>2021-07-17T09:38:44Z</time>
      </trkpt>
      <trkpt lat="37.16309" lon="-3.62831">
        <ele>650.4032</ele>
        <time>2021-07-17T09:38:55Z</time>
      </trkpt>
      <trkpt lat="37.16287" lon="-3.62697">
        <ele>650.2953</ele>
        <time>2021-07-17T09:39:06Z</time>
      </trkpt>
      <trkpt lat="37.16213" lon="-3.62413">
        <ele>652.9956</ele>
        <time>2021-07-17T09:39:17Z</time>
      </trkpt>
      <trkpt lat="37.16157" lon="-3.62105">
        <ele>646.5183</ele>
        <time>2021-07-17T09:39:28Z</time>
      </trkpt>
      <trkpt lat="37.16136" lon="-3.61869">
        <ele>653.567</ele>
        <time>2021-07-17T09:39:39Z</time>
      </trkpt>
      <trkpt lat="37.16121" lon="-3.61704">
        <ele>655.2649</ele>
        <time>2021-07-17T09:39:50Z</time>
      </trkpt>
      <trkpt lat="37.16127" lon="-3.61488">
        <ele>660.172</ele>
        <time>2021-07-17T09:40:01Z</time>
      </trkpt>
      <trkpt lat="37.1619" lon="-3.61202">
        <ele>659.6017</ele>
        <time>2021-07-17T09:40:12Z</time>
      </trkpt>
      <trkpt lat="37.16254" lon="-3.60957">
        <ele>661.7597</ele>
        <time>2021-07-17T09:40:23Z</time>
      </trkpt>
      <trkpt lat="37.16288" lon="-3.60852">
        <ele>663.247</ele>
        <time>2021-07-17T09:40:34Z</time>
      </trkpt>
      <trkpt lat="37.1629" lon="-3.60846">
        <ele>668.4016</ele>
        <time>2021-07-17T09:40:49Z</time>
      </trkpt>
      <trkpt lat="37.16235" lon="-3.60717">
        <ele>674.2178</ele>
        <time>2021-07-17T09:41:00Z</time>
      </trkpt>
      <trkpt lat="37.16159" lon="-3.60576">
        <ele>678.0338</ele>
        <time>2021-07-17T09:41:11Z</time>
      </trkpt>
      <trkpt lat="37.16095" lon="-3.60496">
        <ele>678.0684</ele>
        <time>2021-07-17T09:41:22Z</time>
      </trkpt>
      <trkpt lat="37.16105" lon="-3.60436">
        <ele>677.4539</ele>
        <time>2021-07-17T09:41:33Z</time>
      </trkpt>
      <trkpt lat="37.16124" lon="-3.60419">
        <ele>674.8174</ele>
        <time>2021-07-17T09:41:44Z</time>
      </trkpt>
      <trkpt lat="37.16193" lon="-3.60325">
        <ele>677.0592</ele>
        <time>2021-07-17T09:41:55Z</time>
      </trkpt>
      <trkpt lat="37.16277" lon="-3.60188">
        <ele>670.2712</ele>
        <time>2021-07-17T09:42:06Z</time>
      </trkpt>
      <trkpt lat="37.16388" lon="-3.60049">
        <ele>672.1455</ele>
        <time>2021-07-17T09:42:17Z</time>
      </trkpt>
      <trkpt lat="37.16495" lon="-3.59954">
        <ele>671.8854</ele>
        <time>2021-07-17T09:42:28Z</time>
      </trkpt>
      <trkpt lat="37.16587" lon="-3.59875">
        <ele>673.0845</ele>
        <time>2021-07-17T09:42:39Z</time>
      </trkpt>
      <trkpt lat="37.16591" lon="-3.59875">
        <ele>668.5581</ele>
        <time>2021-07-17T09:42:59Z</time>
      </trkpt>
      <trkpt lat="37.16614" lon="-3.59847">
        <ele>671.7695</ele>
        <time>2021-07-17T09:43:10Z</time>
      </trkpt>
      <trkpt lat="37.16671" lon="-3.59782">
        <ele>677.1827</ele>
        <time>2021-07-17T09:43:21Z</time>
      </trkpt>
      <trkpt lat="37.16731" lon="-3.59661">
        <ele>675.0152</ele>
        <time>2021-07-17T09:43:32Z</time>
      </trkpt>
      <trkpt lat="37.16739" lon="-3.59651">
        <ele>680.9188</ele>
        <time>2021-07-17T09:43:43Z</time>
      </trkpt>
      <trkpt lat="37.16742" lon="-3.59647">
        <ele>682.2943</ele>
        <time>2021-07-17T09:43:58Z</time>
      </trkpt>
      <trkpt lat="37.16748" lon="-3.59642">
        <ele>690.3595</ele>
        <time>2021-07-17T09:44:09Z</time>
      </trkpt>
      <trkpt lat="37.16773" lon="-3.59631">
        <ele>690.5128</ele>
        <time>2021-07-17T09:44:20Z</time>
      </trkpt>
      <trkpt lat="37.16806" lon="-3.59588">
        <ele>684.0887</ele>
        <time>2021-07-17T09:44:31Z</time>
      </trkpt>
      <trkpt lat="37.16848" lon="-3.59507">
        <ele>681.0449</ele>
        <time>2021-07-17T09:44:42Z</time>
      </trkpt>
      <trkpt lat="37.16888" lon="-3.59412">
        <ele>679.395</ele>
        <time>2021-07-17T09:44:53Z</time>
      </trkpt>
      <trkpt lat="37.16895" lon="-3.59317">
        <ele>676.982</ele>
        <time>2021-07-17T09:45:04Z</time>
      </trkpt>
      <trkpt lat="37.16872" lon="-3.5922">
        <ele>680.4838</ele>
        <time>2021-07-17T09:45:15Z</time>
      </trkpt>
      <trkpt lat="37.16813" lon="-3.59114">
        <ele>682.8609</ele>
        <time>2021-07-17T09:45:26Z</time>
      </trkpt>
      <trkpt lat="37.1673" lon="-3.58987">
        <ele>683.2989</ele>
        <time>2021-07-17T09:45:37Z</time>
      </trkpt>
      <trkpt lat="37.16731" lon="-3.58938">
        <ele>684.8405</ele>
        <time>2021-07-17T09:45:48Z</time>
      </trkpt>
      <trkpt lat="37.16735" lon="-3.58935">
        <ele>683.6095</ele>
        <time>2021-07-17T09:46:02Z</time>
      </trkpt>
      <trkpt lat="37.16777" lon="-3.58889">
        <ele>685.6148</ele>
        <time>2021-07-17T09:46:13Z</time>
      </trkpt>
      <trkpt lat="37.16835" lon="-3.58955">
        <ele>684.767</ele>
        <time>2021-07-17T09:46:24Z</time>
      </trkpt>
      <trkpt lat="37.16872" lon="-3.59028">
        <ele>679.2625</ele>
        <time>2021-07-17T09:46:35Z</time>
      </trkpt>
      <trkpt lat="37.16907" lon="-3.59107">
        <ele>676.2782</ele>
        <time>2021-07-17T09:46:46Z</time>
      </trkpt>
      <trkpt lat="37.16928" lon="-3.59057">
        <ele>687.4914</ele>
        <time>2021-07-17T09:46:57Z</time>
      </trkpt>
      <trkpt lat="37.16904" lon="-3.58927">
        <ele>690.5069</ele>
        <time>2021-07-17T09:47:08Z</time>
      </trkpt>
      <trkpt lat="37.16883" lon="-3.58812">
        <ele>702.628</ele>
        <time>2021-07-17T09:47:19Z</time>
      </trkpt>
      <trkpt lat="37.16876" lon="-3.5876">
        <ele>702.2667</ele>
        <time>2021-07-17T09:47:30Z</time>
      </trkpt>
      <trkpt lat="37.16881" lon="-3.58756">
        <ele>697.4002</ele>
        <time>2021-07-17T09:47:51Z</time>
      </trkpt>
      <trkpt lat="37.1688" lon="-3.58753">
        <ele>692.6409</ele>
        <time>2021-07-17T09:48:50Z</time>
      </trkpt>
      <trkpt lat="37.16906" lon="-3.58778">
        <ele>694.532</ele>
        <time>2021-07-17T09:49:01Z</time>
      </trkpt>
      <trkpt lat="37.16955" lon="-3.58868">
        <ele>702.1509</ele>
        <time>2021-07-17T09:49:12Z</time>
      </trkpt>
      <trkpt lat="37.16988" lon="-3.58912">
        <ele>709.3494</ele>
        <time>2021-07-17T09:49:23Z</time>
      </trkpt>
      <trkpt lat="37.1703" lon="-3.58863">
        <ele>714.051</ele>
        <time>2021-07-17T09:49:34Z</time>
      </trkpt>
      <trkpt lat="37.17123" lon="-3.58855">
        <ele>721.5496</ele>
        <time>2021-07-17T09:49:45Z</time>
      </trkpt>
      <trkpt lat="37.17203" lon="-3.58862">
        <ele>728.3871</ele>
        <time>2021-07-17T09:49:56Z</time>
      </trkpt>
      <trkpt lat="37.17246" lon="-3.58873">
        <ele>733.4132</ele>
        <time>2021-07-17T09:50:07Z</time>
      </trkpt>
      <trkpt lat="37.17292" lon="-3.58897">
        <ele>740.5472</ele>
        <time>2021-07-17T09:50:18Z</time>
      </trkpt>
      <trkpt lat="37.17351" lon="-3.58937">
        <ele>747.5358</ele>
        <time>2021-07-17T09:50:29Z</time>
      </trkpt>
      <trkpt lat="37.174" lon="-3.5897">
        <ele>755.6989</ele>
        <time>2021-07-17T09:50:40Z</time>
      </trkpt>
      <trkpt lat="37.17439" lon="-3.58968">
        <ele>767.5291</ele>
        <time>2021-07-17T09:50:51Z</time>
      </trkpt>
      <trkpt lat="37.17427" lon="-3.5892">
        <ele>769.2788</ele>
        <time>2021-07-17T09:51:02Z</time>
      </trkpt>
      <trkpt lat="37.17401" lon="-3.58809">
        <ele>772.1986</ele>
        <time>2021-07-17T09:51:13Z</time>
      </trkpt>
      <trkpt lat="37.17408" lon="-3.58718">
        <ele>776.7048</ele>
        <time>2021-07-17T09:51:24Z</time>
      </trkpt>
      <trkpt lat="37.17428" lon="-3.58618">
        <ele>778.235</ele>
        <time>2021-07-17T09:51:35Z</time>
      </trkpt>
      <trkpt lat="37.17422" lon="-3.58514">
        <ele>790.3826</ele>
        <time>2021-07-17T09:51:46Z</time>
      </trkpt>
      <trkpt lat="37.17392" lon="-3.58445">
        <ele>801.1783</ele>
        <time>2021-07-17T09:51:57Z</time>
      </trkpt>
      <trkpt lat="37.17383" lon="-3.58427">
        <ele>802.0554</ele>
        <time>2021-07-17T09:52:08Z</time>
      </trkpt>
      <trkpt lat="37.17383" lon="-3.58427">
        <ele>796.7443</ele>
        <time>2021-07-17T09:53:08Z</time>
      </trkpt>
      <trkpt lat="37.17382" lon="-3.58424">
        <ele>800.5026</ele>
        <time>2021-07-17T09:54:06Z</time>
      </trkpt>
      <trkpt lat="37.17384" lon="-3.58429">
        <ele>799.2343</ele>
        <time>2021-07-17T09:54:25Z</time>
      </trkpt>
      <trkpt lat="37.17386" lon="-3.58433">
        <ele>800.3197</ele>
        <time>2021-07-17T09:54:37Z</time>
      </trkpt>
      <trkpt lat="37.17388" lon="-3.58437">
        <ele>804.3427</ele>
        <time>2021-07-17T09:55:17Z</time>
      </trkpt>
      <trkpt lat="37.17386" lon="-3.58432">
        <ele>802.2078</ele>
        <time>2021-07-17T09:55:29Z</time>
      </trkpt>
      <trkpt lat="37.17384" lon="-3.58428">
        <ele>802.8658</ele>
        <time>2021-07-17T09:55:47Z</time>
      </trkpt>
      <trkpt lat="37.17383" lon="-3.58426">
        <ele>802.1024</ele>
        <time>2021-07-17T09:56:47Z</time>
      </trkpt>
      <trkpt lat="37.17386" lon="-3.58423">
        <ele>802.4188</ele>
        <time>2021-07-17T09:56:58Z</time>
      </trkpt>
      <trkpt lat="37.17383" lon="-3.58424">
        <ele>801.3432</ele>
        <time>2021-07-17T09:57:52Z</time>
      </trkpt>
      <trkpt lat="37.17383" lon="-3.58425">
        <ele>798.4156</ele>
        <time>2021-07-17T09:58:52Z</time>
      </trkpt>
      <trkpt lat="37.17383" lon="-3.58425">
        <ele>800.3834</ele>
        <time>2021-07-17T09:59:51Z</time>
      </trkpt>
      <trkpt lat="37.17384" lon="-3.58428">
        <ele>790.4666</ele>
        <time>2021-07-17T10:00:50Z</time>
      </trkpt>
      <trkpt lat="37.17384" lon="-3.58428">
        <ele>791.8298</ele>
        <time>2021-07-17T10:01:49Z</time>
      </trkpt>
      <trkpt lat="37.17384" lon="-3.58428">
        <ele>790.5719</ele>
        <time>2021-07-17T10:02:48Z</time>
      </trkpt>
      <trkpt lat="37.17384" lon="-3.58427">
        <ele>789.9846</ele>
        <time>2021-07-17T10:03:48Z</time>
      </trkpt>
      <trkpt lat="37.17383" lon="-3.58425">
        <ele>789.5709</ele>
        <time>2021-07-17T10:04:47Z</time>
      </trkpt>
      <trkpt lat="37.17361" lon="-3.58395">
        <ele>793.5224</ele>
        <time>2021-07-17T10:05:40Z</time>
      </trkpt>
      <trkpt lat="37.17349" lon="-3.58388">
        <ele>794.3212</ele>
        <time>2021-07-17T10:05:51Z</time>
      </trkpt>
      <trkpt lat="37.17341" lon="-3.58375">
        <ele>795.1111</ele>
        <time>2021-07-17T10:06:02Z</time>
      </trkpt>
      <trkpt lat="37.17315" lon="-3.5837">
        <ele>794.9114</ele>
        <time>2021-07-17T10:06:13Z</time>
      </trkpt>
      <trkpt lat="37.1731" lon="-3.58354">
        <ele>792.9089</ele>
        <time>2021-07-17T10:06:24Z</time>
      </trkpt>
      <trkpt lat="37.17308" lon="-3.58347">
        <ele>798.3757</ele>
        <time>2021-07-17T10:06:38Z</time>
      </trkpt>
      <trkpt lat="37.17306" lon="-3.58339">
        <ele>796.5911</ele>
        <time>2021-07-17T10:06:49Z</time>
      </trkpt>
      <trkpt lat="37.17302" lon="-3.58328">
        <ele>795.4372</ele>
        <time>2021-07-17T10:07:05Z</time>
      </trkpt>
      <trkpt lat="37.17332" lon="-3.58316">
        <ele>795.6555</ele>
        <time>2021-07-17T10:07:35Z</time>
      </trkpt>
      <trkpt lat="37.17344" lon="-3.5832">
        <ele>794.8878</ele>
        <time>2021-07-17T10:07:46Z</time>
      </trkpt>
      <trkpt lat="37.17358" lon="-3.58318">
        <ele>794.7267</ele>
        <time>2021-07-17T10:07:57Z</time>
      </trkpt>
      <trkpt lat="37.17371" lon="-3.58319">
        <ele>792.7004</ele>
        <time>2021-07-17T10:08:08Z</time>
      </trkpt>
      <trkpt lat="37.17379" lon="-3.58328">
        <ele>793.7574</ele>
        <time>2021-07-17T10:08:19Z</time>
      </trkpt>
      <trkpt lat="37.17392" lon="-3.58334">
        <ele>792.2171</ele>
        <time>2021-07-17T10:08:30Z</time>
      </trkpt>
      <trkpt lat="37.17394" lon="-3.5833">
        <ele>792.7365</ele>
        <time>2021-07-17T10:08:41Z</time>
      </trkpt>
      <trkpt lat="37.17403" lon="-3.58331">
        <ele>794.2731</ele>
        <time>2021-07-17T10:08:52Z</time>
      </trkpt>
      <trkpt lat="37.17425" lon="-3.5836">
        <ele>789.0727</ele>
        <time>2021-07-17T10:09:19Z</time>
      </trkpt>
      <trkpt lat="37.17436" lon="-3.58372">
        <ele>791.9483</ele>
        <time>2021-07-17T10:09:30Z</time>
      </trkpt>
      <trkpt lat="37.17446" lon="-3.58385">
        <ele>791.6342</ele>
        <time>2021-07-17T10:09:41Z</time>
      </trkpt>
      <trkpt lat="37.17445" lon="-3.58398">
        <ele>791.454</ele>
        <time>2021-07-17T10:09:52Z</time>
      </trkpt>
      <trkpt lat="37.17442" lon="-3.58411">
        <ele>787.4759</ele>
        <time>2021-07-17T10:10:03Z</time>
      </trkpt>
      <trkpt lat="37.17437" lon="-3.58417">
        <ele>786.8541</ele>
        <time>2021-07-17T10:10:14Z</time>
      </trkpt>
      <trkpt lat="37.17431" lon="-3.58417">
        <ele>790.2044</ele>
        <time>2021-07-17T10:10:25Z</time>
      </trkpt>
      <trkpt lat="37.17419" lon="-3.58423">
        <ele>785.5086</ele>
        <time>2021-07-17T10:10:36Z</time>
      </trkpt>
      <trkpt lat="37.1741" lon="-3.58431">
        <ele>786.2449</ele>
        <time>2021-07-17T10:10:47Z</time>
      </trkpt>
      <trkpt lat="37.17409" lon="-3.58443">
        <ele>786.0792</ele>
        <time>2021-07-17T10:10:58Z</time>
      </trkpt>
      <trkpt lat="37.17397" lon="-3.5846">
        <ele>785.0801</ele>
        <time>2021-07-17T10:11:09Z</time>
      </trkpt>
      <trkpt lat="37.17401" lon="-3.58472">
        <ele>786.3359</ele>
        <time>2021-07-17T10:11:20Z</time>
      </trkpt>
      <trkpt lat="37.17407" lon="-3.58484">
        <ele>784.5041</ele>
        <time>2021-07-17T10:11:31Z</time>
      </trkpt>
      <trkpt lat="37.17411" lon="-3.5849">
        <ele>785.9363</ele>
        <time>2021-07-17T10:11:42Z</time>
      </trkpt>
      <trkpt lat="37.17415" lon="-3.58496">
        <ele>783.0156</ele>
        <time>2021-07-17T10:11:53Z</time>
      </trkpt>
      <trkpt lat="37.17418" lon="-3.58498">
        <ele>786.3937</ele>
        <time>2021-07-17T10:12:11Z</time>
      </trkpt>
      <trkpt lat="37.17426" lon="-3.58507">
        <ele>787.6206</ele>
        <time>2021-07-17T10:12:22Z</time>
      </trkpt>
      <trkpt lat="37.17433" lon="-3.58521">
        <ele>785.0239</ele>
        <time>2021-07-17T10:12:33Z</time>
      </trkpt>
      <trkpt lat="37.17465" lon="-3.58515">
        <ele>781.6506</ele>
        <time>2021-07-17T10:13:10Z</time>
      </trkpt>
      <trkpt lat="37.17477" lon="-3.58517">
        <ele>787.0447</ele>
        <time>2021-07-17T10:13:21Z</time>
      </trkpt>
      <trkpt lat="37.1749" lon="-3.58517">
        <ele>786.7419</ele>
        <time>2021-07-17T10:13:32Z</time>
      </trkpt>
      <trkpt lat="37.17503" lon="-3.58513">
        <ele>784.9422</ele>
        <time>2021-07-17T10:13:43Z</time>
      </trkpt>
      <trkpt lat="37.17514" lon="-3.58508">
        <ele>787.9677</ele>
        <time>2021-07-17T10:13:54Z</time>
      </trkpt>
      <trkpt lat="37.17528" lon="-3.58511">
        <ele>787.235</ele>
        <time>2021-07-17T10:14:05Z</time>
      </trkpt>
      <trkpt lat="37.17536" lon="-3.58514">
        <ele>787.1751</ele>
        <time>2021-07-17T10:14:16Z</time>
      </trkpt>
      <trkpt lat="37.17541" lon="-3.58527">
        <ele>787.2558</ele>
        <time>2021-07-17T10:14:27Z</time>
      </trkpt>
      <trkpt lat="37.17546" lon="-3.58539">
        <ele>786.7635</ele>
        <time>2021-07-17T10:14:38Z</time>
      </trkpt>
      <trkpt lat="37.17555" lon="-3.58555">
        <ele>783.5901</ele>
        <time>2021-07-17T10:14:49Z</time>
      </trkpt>
      <trkpt lat="37.17553" lon="-3.58547">
        <ele>783.3147</ele>
        <time>2021-07-17T10:15:02Z</time>
      </trkpt>
      <trkpt lat="37.17566" lon="-3.58559">
        <ele>781.0232</ele>
        <time>2021-07-17T10:15:18Z</time>
      </trkpt>
      <trkpt lat="37.1757" lon="-3.5858">
        <ele>780.8268</ele>
        <time>2021-07-17T10:15:29Z</time>
      </trkpt>
      <trkpt lat="37.17584" lon="-3.58589">
        <ele>779.4737</ele>
        <time>2021-07-17T10:15:40Z</time>
      </trkpt>
      <trkpt lat="37.17576" lon="-3.58586">
        <ele>778.4209</ele>
        <time>2021-07-17T10:15:51Z</time>
      </trkpt>
      <trkpt lat="37.17586" lon="-3.58591">
        <ele>778.0049</ele>
        <time>2021-07-17T10:16:02Z</time>
      </trkpt>
      <trkpt lat="37.17596" lon="-3.58597">
        <ele>778.5264</ele>
        <time>2021-07-17T10:16:13Z</time>
      </trkpt>
      <trkpt lat="37.17603" lon="-3.58601">
        <ele>778.3921</ele>
        <time>2021-07-17T10:16:25Z</time>
      </trkpt>
      <trkpt lat="37.17605" lon="-3.58612">
        <ele>778.368</ele>
        <time>2021-07-17T10:16:36Z</time>
      </trkpt>
      <trkpt lat="37.17613" lon="-3.58621">
        <ele>777.6628</ele>
        <time>2021-07-17T10:16:47Z</time>
      </trkpt>
      <trkpt lat="37.17624" lon="-3.58629">
        <ele>776.1223</ele>
        <time>2021-07-17T10:16:58Z</time>
      </trkpt>
      <trkpt lat="37.17633" lon="-3.58634">
        <ele>775.9439</ele>
        <time>2021-07-17T10:17:09Z</time>
      </trkpt>
      <trkpt lat="37.1764" lon="-3.5864">
        <ele>774.9969</ele>
        <time>2021-07-17T10:17:20Z</time>
      </trkpt>
      <trkpt lat="37.1764" lon="-3.58649">
        <ele>773.9573</ele>
        <time>2021-07-17T10:17:31Z</time>
      </trkpt>
      <trkpt lat="37.17655" lon="-3.58659">
        <ele>772.4221</ele>
        <time>2021-07-17T10:17:42Z</time>
      </trkpt>
      <trkpt lat="37.17667" lon="-3.58667">
        <ele>770.1367</ele>
        <time>2021-07-17T10:18:02Z</time>
      </trkpt>
      <trkpt lat="37.17677" lon="-3.58672">
        <ele>770.0419</ele>
        <time>2021-07-17T10:18:13Z</time>
      </trkpt>
      <trkpt lat="37.17674" lon="-3.58669">
        <ele>770.2372</ele>
        <time>2021-07-17T10:18:24Z</time>
      </trkpt>
      <trkpt lat="37.17671" lon="-3.58675">
        <ele>768.2168</ele>
        <time>2021-07-17T10:18:40Z</time>
      </trkpt>
      <trkpt lat="37.17676" lon="-3.58678">
        <ele>768.2698</ele>
        <time>2021-07-17T10:18:51Z</time>
      </trkpt>
      <trkpt lat="37.1768" lon="-3.58681">
        <ele>768.4209</ele>
        <time>2021-07-17T10:19:02Z</time>
      </trkpt>
      <trkpt lat="37.17685" lon="-3.58688">
        <ele>765.8427</ele>
        <time>2021-07-17T10:19:24Z</time>
      </trkpt>
      <trkpt lat="37.17684" lon="-3.58698">
        <ele>765.6625</ele>
        <time>2021-07-17T10:19:35Z</time>
      </trkpt>
      <trkpt lat="37.17687" lon="-3.58696">
        <ele>765.6567</ele>
        <time>2021-07-17T10:20:05Z</time>
      </trkpt>
      <trkpt lat="37.17686" lon="-3.587">
        <ele>765.7422</ele>
        <time>2021-07-17T10:20:16Z</time>
      </trkpt>
      <trkpt lat="37.17691" lon="-3.58701">
        <ele>763.7165</ele>
        <time>2021-07-17T10:20:27Z</time>
      </trkpt>
      <trkpt lat="37.17681" lon="-3.58682">
        <ele>771.71</ele>
        <time>2021-07-17T10:20:40Z</time>
      </trkpt>
      <trkpt lat="37.17672" lon="-3.58681">
        <ele>772.074</ele>
        <time>2021-07-17T10:20:51Z</time>
      </trkpt>
      <trkpt lat="37.17661" lon="-3.5868">
        <ele>774.5091</ele>
        <time>2021-07-17T10:21:02Z</time>
      </trkpt>
      <trkpt lat="37.17653" lon="-3.58679">
        <ele>770.9982</ele>
        <time>2021-07-17T10:21:13Z</time>
      </trkpt>
      <trkpt lat="37.17648" lon="-3.58633">
        <ele>775.6656</ele>
        <time>2021-07-17T10:21:24Z</time>
      </trkpt>
      <trkpt lat="37.17638" lon="-3.58627">
        <ele>775.1759</ele>
        <time>2021-07-17T10:21:35Z</time>
      </trkpt>
      <trkpt lat="37.1763" lon="-3.58617">
        <ele>781.9218</ele>
        <time>2021-07-17T10:21:46Z</time>
      </trkpt>
      <trkpt lat="37.17619" lon="-3.5861">
        <ele>778.4708</ele>
        <time>2021-07-17T10:21:57Z</time>
      </trkpt>
      <trkpt lat="37.17607" lon="-3.58605">
        <ele>780.4117</ele>
        <time>2021-07-17T10:22:08Z</time>
      </trkpt>
      <trkpt lat="37.176" lon="-3.58594">
        <ele>779.5454</ele>
        <time>2021-07-17T10:22:19Z</time>
      </trkpt>
      <trkpt lat="37.17592" lon="-3.58582">
        <ele>782.466</ele>
        <time>2021-07-17T10:22:30Z</time>
      </trkpt>
      <trkpt lat="37.1758" lon="-3.58572">
        <ele>783.6365</ele>
        <time>2021-07-17T10:22:41Z</time>
      </trkpt>
      <trkpt lat="37.17569" lon="-3.5859">
        <ele>782.4217</ele>
        <time>2021-07-17T10:22:52Z</time>
      </trkpt>
      <trkpt lat="37.17559" lon="-3.58589">
        <ele>785.8391</ele>
        <time>2021-07-17T10:23:03Z</time>
      </trkpt>
      <trkpt lat="37.17554" lon="-3.58545">
        <ele>787.3347</ele>
        <time>2021-07-17T10:23:14Z</time>
      </trkpt>
      <trkpt lat="37.17549" lon="-3.58531">
        <ele>789.579</ele>
        <time>2021-07-17T10:23:25Z</time>
      </trkpt>
      <trkpt lat="37.17544" lon="-3.58533">
        <ele>789.7294</ele>
        <time>2021-07-17T10:23:36Z</time>
      </trkpt>
      <trkpt lat="37.1754" lon="-3.58533">
        <ele>789.6305</ele>
        <time>2021-07-17T10:23:47Z</time>
      </trkpt>
      <trkpt lat="37.17529" lon="-3.5851">
        <ele>788.9538</ele>
        <time>2021-07-17T10:23:58Z</time>
      </trkpt>
      <trkpt lat="37.17526" lon="-3.58511">
        <ele>789.933</ele>
        <time>2021-07-17T10:24:11Z</time>
      </trkpt>
      <trkpt lat="37.17513" lon="-3.58513">
        <ele>788.7137</ele>
        <time>2021-07-17T10:24:22Z</time>
      </trkpt>
      <trkpt lat="37.17504" lon="-3.58514">
        <ele>784.9771</ele>
        <time>2021-07-17T10:24:33Z</time>
      </trkpt>
      <trkpt lat="37.17496" lon="-3.58516">
        <ele>787.0855</ele>
        <time>2021-07-17T10:24:44Z</time>
      </trkpt>
      <trkpt lat="37.17492" lon="-3.58516">
        <ele>785.9703</ele>
        <time>2021-07-17T10:24:59Z</time>
      </trkpt>
      <trkpt lat="37.17481" lon="-3.58518">
        <ele>787.7556</ele>
        <time>2021-07-17T10:25:10Z</time>
      </trkpt>
      <trkpt lat="37.1747" lon="-3.5852">
        <ele>789.0811</ele>
        <time>2021-07-17T10:25:21Z</time>
      </trkpt>
      <trkpt lat="37.17455" lon="-3.58522">
        <ele>785.0723</ele>
        <time>2021-07-17T10:25:32Z</time>
      </trkpt>
      <trkpt lat="37.17444" lon="-3.58524">
        <ele>783.0233</ele>
        <time>2021-07-17T10:25:43Z</time>
      </trkpt>
      <trkpt lat="37.17439" lon="-3.58524">
        <ele>786.3281</ele>
        <time>2021-07-17T10:25:54Z</time>
      </trkpt>
      <trkpt lat="37.17434" lon="-3.58525">
        <ele>790.4177</ele>
        <time>2021-07-17T10:26:05Z</time>
      </trkpt>
      <trkpt lat="37.17421" lon="-3.58477">
        <ele>784.2777</ele>
        <time>2021-07-17T10:26:16Z</time>
      </trkpt>
      <trkpt lat="37.17418" lon="-3.58461">
        <ele>780.0956</ele>
        <time>2021-07-17T10:26:27Z</time>
      </trkpt>
      <trkpt lat="37.17411" lon="-3.58447">
        <ele>783.6851</ele>
        <time>2021-07-17T10:26:38Z</time>
      </trkpt>
      <trkpt lat="37.1739" lon="-3.58442">
        <ele>785.4774</ele>
        <time>2021-07-17T10:26:49Z</time>
      </trkpt>
      <trkpt lat="37.17383" lon="-3.58425">
        <ele>789.274</ele>
        <time>2021-07-17T10:27:00Z</time>
      </trkpt>
      <trkpt lat="37.17379" lon="-3.58419">
        <ele>785.5227</ele>
        <time>2021-07-17T10:27:11Z</time>
      </trkpt>
      <trkpt lat="37.17374" lon="-3.58415">
        <ele>789.3281</ele>
        <time>2021-07-17T10:27:29Z</time>
      </trkpt>
      <trkpt lat="37.17369" lon="-3.58412">
        <ele>790.0427</ele>
        <time>2021-07-17T10:27:40Z</time>
      </trkpt>
      <trkpt lat="37.17369" lon="-3.58412">
        <ele>790.2513</ele>
        <time>2021-07-17T10:28:39Z</time>
      </trkpt>
      <trkpt lat="37.17369" lon="-3.58412">
        <ele>790.0588</ele>
        <time>2021-07-17T10:29:38Z</time>
      </trkpt>
      <trkpt lat="37.17369" lon="-3.58412">
        <ele>789.9702</ele>
        <time>2021-07-17T10:30:38Z</time>
      </trkpt>
      <trkpt lat="37.17369" lon="-3.58412">
        <ele>790.4186</ele>
        <time>2021-07-17T10:31:37Z</time>
      </trkpt>
      <trkpt lat="37.17355" lon="-3.58407">
        <ele>793.0535</ele>
        <time>2021-07-17T10:31:48Z</time>
      </trkpt>
      <trkpt lat="37.17342" lon="-3.58402">
        <ele>796.5359</ele>
        <time>2021-07-17T10:31:59Z</time>
      </trkpt>
      <trkpt lat="37.17332" lon="-3.58396">
        <ele>798.0416</ele>
        <time>2021-07-17T10:32:10Z</time>
      </trkpt>
      <trkpt lat="37.17327" lon="-3.58392">
        <ele>798.8744</ele>
        <time>2021-07-17T10:32:21Z</time>
      </trkpt>
      <trkpt lat="37.17324" lon="-3.58389">
        <ele>798.746</ele>
        <time>2021-07-17T10:33:02Z</time>
      </trkpt>
      <trkpt lat="37.1732" lon="-3.58383">
        <ele>791.8311</ele>
        <time>2021-07-17T10:33:37Z</time>
      </trkpt>
      <trkpt lat="37.17313" lon="-3.58365">
        <ele>799.4295</ele>
        <time>2021-07-17T10:34:09Z</time>
      </trkpt>
      <trkpt lat="37.17337" lon="-3.58401">
        <ele>797.9064</ele>
        <time>2021-07-17T10:34:20Z</time>
      </trkpt>
      <trkpt lat="37.17345" lon="-3.58404">
        <ele>796.6407</ele>
        <time>2021-07-17T10:34:31Z</time>
      </trkpt>
      <trkpt lat="37.17357" lon="-3.58408">
        <ele>794.5791</ele>
        <time>2021-07-17T10:34:42Z</time>
      </trkpt>
      <trkpt lat="37.17371" lon="-3.58413">
        <ele>792.8265</ele>
        <time>2021-07-17T10:34:53Z</time>
      </trkpt>
      <trkpt lat="37.17379" lon="-3.58419">
        <ele>791.6843</ele>
        <time>2021-07-17T10:35:04Z</time>
      </trkpt>
      <trkpt lat="37.17383" lon="-3.58425">
        <ele>788.974</ele>
        <time>2021-07-17T10:35:15Z</time>
      </trkpt>
      <trkpt lat="37.17383" lon="-3.58425">
        <ele>792.2871</ele>
        <time>2021-07-17T10:36:14Z</time>
      </trkpt>
      <trkpt lat="37.17383" lon="-3.58425">
        <ele>791.207</ele>
        <time>2021-07-17T10:37:14Z</time>
      </trkpt>
      <trkpt lat="37.17385" lon="-3.5843">
        <ele>788.5948</ele>
        <time>2021-07-17T10:37:40Z</time>
      </trkpt>
      <trkpt lat="37.1739" lon="-3.58442">
        <ele>788.9026</ele>
        <time>2021-07-17T10:37:51Z</time>
      </trkpt>
      <trkpt lat="37.1739" lon="-3.58442">
        <ele>791.1409</ele>
        <time>2021-07-17T10:38:50Z</time>
      </trkpt>
      <trkpt lat="37.1739" lon="-3.58442">
        <ele>790.3668</ele>
        <time>2021-07-17T10:39:49Z</time>
      </trkpt>
      <trkpt lat="37.1739" lon="-3.58442">
        <ele>790.1391</ele>
        <time>2021-07-17T10:40:49Z</time>
      </trkpt>
      <trkpt lat="37.1739" lon="-3.58442">
        <ele>795.2072</ele>
        <time>2021-07-17T10:41:49Z</time>
      </trkpt>
      <trkpt lat="37.1739" lon="-3.58442">
        <ele>794.3698</ele>
        <time>2021-07-17T10:42:49Z</time>
      </trkpt>
      <trkpt lat="37.17394" lon="-3.58453">
        <ele>793.991</ele>
        <time>2021-07-17T10:43:09Z</time>
      </trkpt>
      <trkpt lat="37.17432" lon="-3.58516">
        <ele>784.9922</ele>
        <time>2021-07-17T10:43:20Z</time>
      </trkpt>
      <trkpt lat="37.17431" lon="-3.58617">
        <ele>777.8968</ele>
        <time>2021-07-17T10:43:31Z</time>
      </trkpt>
      <trkpt lat="37.17412" lon="-3.58714">
        <ele>772.2473</ele>
        <time>2021-07-17T10:43:42Z</time>
      </trkpt>
      <trkpt lat="37.17407" lon="-3.58826">
        <ele>767.3643</ele>
        <time>2021-07-17T10:43:53Z</time>
      </trkpt>
      <trkpt lat="37.17444" lon="-3.58954">
        <ele>761.9035</ele>
        <time>2021-07-17T10:44:04Z</time>
      </trkpt>
      <trkpt lat="37.17427" lon="-3.58987">
        <ele>763.9537</ele>
        <time>2021-07-17T10:44:15Z</time>
      </trkpt>
      <trkpt lat="37.17424" lon="-3.58988">
        <ele>765.2467</ele>
        <time>2021-07-17T10:44:29Z</time>
      </trkpt>
      <trkpt lat="37.17414" lon="-3.58987">
        <ele>764.7735</ele>
        <time>2021-07-17T10:44:51Z</time>
      </trkpt>
      <trkpt lat="37.17335" lon="-3.5893">
        <ele>747.2257</ele>
        <time>2021-07-17T10:45:02Z</time>
      </trkpt>
      <trkpt lat="37.17258" lon="-3.58881">
        <ele>739.3802</ele>
        <time>2021-07-17T10:45:13Z</time>
      </trkpt>
      <trkpt lat="37.17172" lon="-3.58858">
        <ele>724.7385</ele>
        <time>2021-07-17T10:45:24Z</time>
      </trkpt>
      <trkpt lat="37.17043" lon="-3.58867">
        <ele>710.6592</ele>
        <time>2021-07-17T10:45:35Z</time>
      </trkpt>
      <trkpt lat="37.1698" lon="-3.58925">
        <ele>706.2392</ele>
        <time>2021-07-17T10:45:46Z</time>
      </trkpt>
      <trkpt lat="37.16978" lon="-3.58928">
        <ele>705.6384</ele>
        <time>2021-07-17T10:45:57Z</time>
      </trkpt>
      <trkpt lat="37.16972" lon="-3.58918">
        <ele>705.3299</ele>
        <time>2021-07-17T10:46:17Z</time>
      </trkpt>
      <trkpt lat="37.16936" lon="-3.58844">
        <ele>702.8351</ele>
        <time>2021-07-17T10:46:28Z</time>
      </trkpt>
      <trkpt lat="37.16898" lon="-3.58758">
        <ele>696.9393</ele>
        <time>2021-07-17T10:46:39Z</time>
      </trkpt>
      <trkpt lat="37.16884" lon="-3.58795">
        <ele>693.8229</ele>
        <time>2021-07-17T10:46:50Z</time>
      </trkpt>
      <trkpt lat="37.16908" lon="-3.58928">
        <ele>683.5848</ele>
        <time>2021-07-17T10:47:01Z</time>
      </trkpt>
      <trkpt lat="37.16935" lon="-3.59073">
        <ele>675.6888</ele>
        <time>2021-07-17T10:47:12Z</time>
      </trkpt>
      <trkpt lat="37.16917" lon="-3.59119">
        <ele>672.9137</ele>
        <time>2021-07-17T10:47:23Z</time>
      </trkpt>
      <trkpt lat="37.16946" lon="-3.59203">
        <ele>673.152</ele>
        <time>2021-07-17T10:47:34Z</time>
      </trkpt>
      <trkpt lat="37.16982" lon="-3.59353">
        <ele>674.9819</ele>
        <time>2021-07-17T10:47:45Z</time>
      </trkpt>
      <trkpt lat="37.16965" lon="-3.59504">
        <ele>673.6635</ele>
        <time>2021-07-17T10:47:56Z</time>
      </trkpt>
      <trkpt lat="37.16941" lon="-3.59621">
        <ele>672.9463</ele>
        <time>2021-07-17T10:48:07Z</time>
      </trkpt>
      <trkpt lat="37.16927" lon="-3.59649">
        <ele>671.6075</ele>
        <time>2021-07-17T10:48:18Z</time>
      </trkpt>
      <trkpt lat="37.16895" lon="-3.59687">
        <ele>672.7223</ele>
        <time>2021-07-17T10:48:29Z</time>
      </trkpt>
      <trkpt lat="37.16878" lon="-3.59674">
        <ele>674.6761</ele>
        <time>2021-07-17T10:48:40Z</time>
      </trkpt>
      <trkpt lat="37.16819" lon="-3.59645">
        <ele>676.7221</ele>
        <time>2021-07-17T10:48:51Z</time>
      </trkpt>
      <trkpt lat="37.1675" lon="-3.59647">
        <ele>675.7031</ele>
        <time>2021-07-17T10:49:02Z</time>
      </trkpt>
      <trkpt lat="37.1671" lon="-3.59717">
        <ele>682.7876</ele>
        <time>2021-07-17T10:49:13Z</time>
      </trkpt>
      <trkpt lat="37.16679" lon="-3.59785">
        <ele>687.8136</ele>
        <time>2021-07-17T10:49:24Z</time>
      </trkpt>
      <trkpt lat="37.16647" lon="-3.59863">
        <ele>681.5026</ele>
        <time>2021-07-17T10:49:35Z</time>
      </trkpt>
      <trkpt lat="37.16588" lon="-3.59889">
        <ele>668.7118</ele>
        <time>2021-07-17T10:49:46Z</time>
      </trkpt>
      <trkpt lat="37.16519" lon="-3.59948">
        <ele>668.7593</ele>
        <time>2021-07-17T10:49:57Z</time>
      </trkpt>
      <trkpt lat="37.16456" lon="-3.6">
        <ele>667.2316</ele>
        <time>2021-07-17T10:50:08Z</time>
      </trkpt>
      <trkpt lat="37.16344" lon="-3.60094">
        <ele>665.8149</ele>
        <time>2021-07-17T10:50:19Z</time>
      </trkpt>
      <trkpt lat="37.1634" lon="-3.60156">
        <ele>670.8094</ele>
        <time>2021-07-17T10:50:30Z</time>
      </trkpt>
      <trkpt lat="37.16382" lon="-3.6019">
        <ele>675.3335</ele>
        <time>2021-07-17T10:50:41Z</time>
      </trkpt>
      <trkpt lat="37.16444" lon="-3.6023">
        <ele>684.4375</ele>
        <time>2021-07-17T10:50:52Z</time>
      </trkpt>
      <trkpt lat="37.16479" lon="-3.60251">
        <ele>687.4015</ele>
        <time>2021-07-17T10:51:03Z</time>
      </trkpt>
      <trkpt lat="37.16509" lon="-3.60272">
        <ele>695.5644</ele>
        <time>2021-07-17T10:51:20Z</time>
      </trkpt>
      <trkpt lat="37.1656" lon="-3.603">
        <ele>688.7151</ele>
        <time>2021-07-17T10:51:31Z</time>
      </trkpt>
      <trkpt lat="37.16621" lon="-3.6034">
        <ele>687.371</ele>
        <time>2021-07-17T10:51:42Z</time>
      </trkpt>
      <trkpt lat="37.16688" lon="-3.60378">
        <ele>684.5696</ele>
        <time>2021-07-17T10:51:53Z</time>
      </trkpt>
      <trkpt lat="37.1673" lon="-3.60405">
        <ele>690.1649</ele>
        <time>2021-07-17T10:52:04Z</time>
      </trkpt>
      <trkpt lat="37.16736" lon="-3.60408">
        <ele>694.6432</ele>
        <time>2021-07-17T10:52:15Z</time>
      </trkpt>
      <trkpt lat="37.16741" lon="-3.60411">
        <ele>695.4251</ele>
        <time>2021-07-17T10:52:35Z</time>
      </trkpt>
      <trkpt lat="37.16804" lon="-3.6045">
        <ele>693.2181</ele>
        <time>2021-07-17T10:52:46Z</time>
      </trkpt>
      <trkpt lat="37.16861" lon="-3.60485">
        <ele>695.6642</ele>
        <time>2021-07-17T10:52:57Z</time>
      </trkpt>
      <trkpt lat="37.16902" lon="-3.6051">
        <ele>700.2476</ele>
        <time>2021-07-17T10:53:08Z</time>
      </trkpt>
      <trkpt lat="37.16984" lon="-3.6056">
        <ele>702.0651</ele>
        <time>2021-07-17T10:53:19Z</time>
      </trkpt>
      <trkpt lat="37.1705" lon="-3.60601">
        <ele>703.6142</ele>
        <time>2021-07-17T10:53:30Z</time>
      </trkpt>
      <trkpt lat="37.17084" lon="-3.60624">
        <ele>711.4632</ele>
        <time>2021-07-17T10:53:41Z</time>
      </trkpt>
      <trkpt lat="37.17089" lon="-3.60624">
        <ele>718.7218</ele>
        <time>2021-07-17T10:54:25Z</time>
      </trkpt>
      <trkpt lat="37.17118" lon="-3.60632">
        <ele>719.1615</ele>
        <time>2021-07-17T10:54:36Z</time>
      </trkpt>
      <trkpt lat="37.1721" lon="-3.607">
        <ele>714.4108</ele>
        <time>2021-07-17T10:54:47Z</time>
      </trkpt>
      <trkpt lat="37.17273" lon="-3.60737">
        <ele>706.0188</ele>
        <time>2021-07-17T10:54:58Z</time>
      </trkpt>
      <trkpt lat="37.17353" lon="-3.60785">
        <ele>703.6543</ele>
        <time>2021-07-17T10:55:09Z</time>
      </trkpt>
      <trkpt lat="37.17404" lon="-3.60815">
        <ele>699.897</ele>
        <time>2021-07-17T10:55:20Z</time>
      </trkpt>
      <trkpt lat="37.17409" lon="-3.60818">
        <ele>702.5804</ele>
        <time>2021-07-17T10:55:31Z</time>
      </trkpt>
      <trkpt lat="37.17418" lon="-3.60824">
        <ele>711.0999</ele>
        <time>2021-07-17T10:55:42Z</time>
      </trkpt>
      <trkpt lat="37.1748" lon="-3.60864">
        <ele>707.3373</ele>
        <time>2021-07-17T10:55:53Z</time>
      </trkpt>
      <trkpt lat="37.17515" lon="-3.60886">
        <ele>704.0719</ele>
        <time>2021-07-17T10:56:04Z</time>
      </trkpt>
      <trkpt lat="37.1763" lon="-3.60955">
        <ele>699.2079</ele>
        <time>2021-07-17T10:56:15Z</time>
      </trkpt>
      <trkpt lat="37.17741" lon="-3.61021">
        <ele>694.0668</ele>
        <time>2021-07-17T10:56:26Z</time>
      </trkpt>
      <trkpt lat="37.17774" lon="-3.61035">
        <ele>691.3881</ele>
        <time>2021-07-17T10:56:37Z</time>
      </trkpt>
      <trkpt lat="37.1778" lon="-3.61034">
        <ele>687.3775</ele>
        <time>2021-07-17T10:56:48Z</time>
      </trkpt>
      <trkpt lat="37.17795" lon="-3.61026">
        <ele>683.4246</ele>
        <time>2021-07-17T10:56:59Z</time>
      </trkpt>
      <trkpt lat="37.17812" lon="-3.60989">
        <ele>686.8869</ele>
        <time>2021-07-17T10:57:10Z</time>
      </trkpt>
      <trkpt lat="37.17829" lon="-3.60941">
        <ele>693.245</ele>
        <time>2021-07-17T10:57:21Z</time>
      </trkpt>
      <trkpt lat="37.17941" lon="-3.60806">
        <ele>685.8323</ele>
        <time>2021-07-17T10:57:32Z</time>
      </trkpt>
      <trkpt lat="37.18044" lon="-3.6068">
        <ele>683.7611</ele>
        <time>2021-07-17T10:57:43Z</time>
      </trkpt>
      <trkpt lat="37.18138" lon="-3.60608">
        <ele>681.0038</ele>
        <time>2021-07-17T10:57:54Z</time>
      </trkpt>
      <trkpt lat="37.1824" lon="-3.60555">
        <ele>686.9368</ele>
        <time>2021-07-17T10:58:05Z</time>
      </trkpt>
      <trkpt lat="37.18384" lon="-3.60478">
        <ele>685.6971</ele>
        <time>2021-07-17T10:58:16Z</time>
      </trkpt>
      <trkpt lat="37.18537" lon="-3.60409">
        <ele>692.5541</ele>
        <time>2021-07-17T10:58:27Z</time>
      </trkpt>
      <trkpt lat="37.18664" lon="-3.60373">
        <ele>709.5125</ele>
        <time>2021-07-17T10:58:38Z</time>
      </trkpt>
      <trkpt lat="37.1872" lon="-3.60306">
        <ele>710.8528</ele>
        <time>2021-07-17T10:58:49Z</time>
      </trkpt>
      <trkpt lat="37.18756" lon="-3.60124">
        <ele>714.9657</ele>
        <time>2021-07-17T10:59:00Z</time>
      </trkpt>
      <trkpt lat="37.18803" lon="-3.59981">
        <ele>719.2351</ele>
        <time>2021-07-17T10:59:11Z</time>
      </trkpt>
      <trkpt lat="37.18723" lon="-3.59902">
        <ele>724.4301</ele>
        <time>2021-07-17T10:59:22Z</time>
      </trkpt>
      <trkpt lat="37.18621" lon="-3.59911">
        <ele>729.0285</ele>
        <time>2021-07-17T10:59:33Z</time>
      </trkpt>
      <trkpt lat="37.18598" lon="-3.59798">
        <ele>740.7781</ele>
        <time>2021-07-17T10:59:44Z</time>
      </trkpt>
      <trkpt lat="37.18534" lon="-3.59709">
        <ele>744.6577</ele>
        <time>2021-07-17T10:59:55Z</time>
      </trkpt>
      <trkpt lat="37.18501" lon="-3.59662">
        <ele>749.6912</ele>
        <time>2021-07-17T11:00:06Z</time>
      </trkpt>
      <trkpt lat="37.18509" lon="-3.59786">
        <ele>748.121</ele>
        <time>2021-07-17T11:00:17Z</time>
      </trkpt>
      <trkpt lat="37.18526" lon="-3.59821">
        <ele>747.4808</ele>
        <time>2021-07-17T11:00:28Z</time>
      </trkpt>
      <trkpt lat="37.18512" lon="-3.59856">
        <ele>748.8778</ele>
        <time>2021-07-17T11:00:39Z</time>
      </trkpt>
      <trkpt lat="37.18469" lon="-3.59801">
        <ele>754.1265</ele>
        <time>2021-07-17T11:00:50Z</time>
      </trkpt>
      <trkpt lat="37.18373" lon="-3.59729">
        <ele>763.376</ele>
        <time>2021-07-17T11:01:01Z</time>
      </trkpt>
      <trkpt lat="37.18318" lon="-3.59635">
        <ele>767.8636</ele>
        <time>2021-07-17T11:01:12Z</time>
      </trkpt>
      <trkpt lat="37.18381" lon="-3.5956">
        <ele>774.7229</ele>
        <time>2021-07-17T11:01:23Z</time>
      </trkpt>
      <trkpt lat="37.18428" lon="-3.59433">
        <ele>770.0447</ele>
        <time>2021-07-17T11:01:34Z</time>
      </trkpt>
      <trkpt lat="37.18443" lon="-3.59392">
        <ele>770.2416</ele>
        <time>2021-07-17T11:01:45Z</time>
      </trkpt>
      <trkpt lat="37.18446" lon="-3.59387">
        <ele>768.1431</ele>
        <time>2021-07-17T11:01:56Z</time>
      </trkpt>
      <trkpt lat="37.18408" lon="-3.59346">
        <ele>771.4308</ele>
        <time>2021-07-17T11:02:07Z</time>
      </trkpt>
      <trkpt lat="37.18431" lon="-3.59307">
        <ele>771.2872</ele>
        <time>2021-07-17T11:02:18Z</time>
      </trkpt>
      <trkpt lat="37.18449" lon="-3.59287">
        <ele>770.4365</ele>
        <time>2021-07-17T11:02:29Z</time>
      </trkpt>
      <trkpt lat="37.18464" lon="-3.5928">
        <ele>774.2265</ele>
        <time>2021-07-17T11:02:40Z</time>
      </trkpt>
      <trkpt lat="37.18494" lon="-3.59247">
        <ele>777.0544</ele>
        <time>2021-07-17T11:02:51Z</time>
      </trkpt>
      <trkpt lat="37.18553" lon="-3.59198">
        <ele>785.9284</ele>
        <time>2021-07-17T11:03:02Z</time>
      </trkpt>
      <trkpt lat="37.18564" lon="-3.59181">
        <ele>786.8286</ele>
        <time>2021-07-17T11:03:13Z</time>
      </trkpt>
      <trkpt lat="37.18577" lon="-3.59144">
        <ele>789.3528</ele>
        <time>2021-07-17T11:03:24Z</time>
      </trkpt>
      <trkpt lat="37.18568" lon="-3.59085">
        <ele>799.8997</ele>
        <time>2021-07-17T11:03:35Z</time>
      </trkpt>
      <trkpt lat="37.18525" lon="-3.59043">
        <ele>800.8718</ele>
        <time>2021-07-17T11:03:46Z</time>
      </trkpt>
      <trkpt lat="37.18498" lon="-3.59008">
        <ele>799.9132</ele>
        <time>2021-07-17T11:03:57Z</time>
      </trkpt>
      <trkpt lat="37.18492" lon="-3.59003">
        <ele>799.9933</ele>
        <time>2021-07-17T11:04:08Z</time>
      </trkpt>
      <trkpt lat="37.18491" lon="-3.59002">
        <ele>798.5967</ele>
        <time>2021-07-17T11:05:07Z</time>
      </trkpt>
      <trkpt lat="37.18491" lon="-3.59002">
        <ele>800.1316</ele>
        <time>2021-07-17T11:06:07Z</time>
      </trkpt>
      <trkpt lat="37.18491" lon="-3.59002">
        <ele>800.7426</ele>
        <time>2021-07-17T11:07:07Z</time>
      </trkpt>
      <trkpt lat="37.18526" lon="-3.59046">
        <ele>801.1192</ele>
        <time>2021-07-17T11:07:18Z</time>
      </trkpt>
      <trkpt lat="37.18554" lon="-3.59072">
        <ele>799.1253</ele>
        <time>2021-07-17T11:07:29Z</time>
      </trkpt>
      <trkpt lat="37.18581" lon="-3.5909">
        <ele>797.1605</ele>
        <time>2021-07-17T11:07:40Z</time>
      </trkpt>
      <trkpt lat="37.18576" lon="-3.5915">
        <ele>788.9092</ele>
        <time>2021-07-17T11:07:51Z</time>
      </trkpt>
      <trkpt lat="37.18607" lon="-3.59153">
        <ele>788.9645</ele>
        <time>2021-07-17T11:08:02Z</time>
      </trkpt>
      <trkpt lat="37.18653" lon="-3.59146">
        <ele>796.7119</ele>
        <time>2021-07-17T11:08:13Z</time>
      </trkpt>
      <trkpt lat="37.18701" lon="-3.59154">
        <ele>803.0648</ele>
        <time>2021-07-17T11:08:24Z</time>
      </trkpt>
      <trkpt lat="37.18696" lon="-3.59231">
        <ele>794.2488</ele>
        <time>2021-07-17T11:08:35Z</time>
      </trkpt>
      <trkpt lat="37.18691" lon="-3.59261">
        <ele>791.7076</ele>
        <time>2021-07-17T11:08:46Z</time>
      </trkpt>
      <trkpt lat="37.18689" lon="-3.59276">
        <ele>790.5547</ele>
        <time>2021-07-17T11:08:57Z</time>
      </trkpt>
      <trkpt lat="37.18684" lon="-3.59342">
        <ele>787.0894</ele>
        <time>2021-07-17T11:09:08Z</time>
      </trkpt>
      <trkpt lat="37.18668" lon="-3.59433">
        <ele>779.9722</ele>
        <time>2021-07-17T11:09:19Z</time>
      </trkpt>
      <trkpt lat="37.18618" lon="-3.59504">
        <ele>769.5005</ele>
        <time>2021-07-17T11:09:30Z</time>
      </trkpt>
      <trkpt lat="37.18556" lon="-3.5957">
        <ele>756.5931</ele>
        <time>2021-07-17T11:09:41Z</time>
      </trkpt>
      <trkpt lat="37.18535" lon="-3.59634">
        <ele>747.9991</ele>
        <time>2021-07-17T11:09:52Z</time>
      </trkpt>
      <trkpt lat="37.18512" lon="-3.59704">
        <ele>741.968</ele>
        <time>2021-07-17T11:10:03Z</time>
      </trkpt>
      <trkpt lat="37.18554" lon="-3.5979">
        <ele>732.4468</ele>
        <time>2021-07-17T11:10:14Z</time>
      </trkpt>
      <trkpt lat="37.18584" lon="-3.59874">
        <ele>724.6317</ele>
        <time>2021-07-17T11:10:25Z</time>
      </trkpt>
      <trkpt lat="37.18582" lon="-3.59963">
        <ele>713.9418</ele>
        <time>2021-07-17T11:10:36Z</time>
      </trkpt>
      <trkpt lat="37.18583" lon="-3.59995">
        <ele>710.6956</ele>
        <time>2021-07-17T11:10:47Z</time>
      </trkpt>
      <trkpt lat="37.18499" lon="-3.60017">
        <ele>697.4647</ele>
        <time>2021-07-17T11:10:58Z</time>
      </trkpt>
      <trkpt lat="37.1841" lon="-3.60085">
        <ele>689.7835</ele>
        <time>2021-07-17T11:11:09Z</time>
      </trkpt>
      <trkpt lat="37.18331" lon="-3.60169">
        <ele>685.5311</ele>
        <time>2021-07-17T11:11:20Z</time>
      </trkpt>
      <trkpt lat="37.18321" lon="-3.60183">
        <ele>686.0484</ele>
        <time>2021-07-17T11:11:31Z</time>
      </trkpt>
      <trkpt lat="37.18318" lon="-3.60192">
        <ele>682.4025</ele>
        <time>2021-07-17T11:11:49Z</time>
      </trkpt>
      <trkpt lat="37.1829" lon="-3.60229">
        <ele>685.0453</ele>
        <time>2021-07-17T11:12:00Z</time>
      </trkpt>
      <trkpt lat="37.18269" lon="-3.60159">
        <ele>691.4398</ele>
        <time>2021-07-17T11:12:11Z</time>
      </trkpt>
      <trkpt lat="37.18218" lon="-3.60105">
        <ele>686.3944</ele>
        <time>2021-07-17T11:12:22Z</time>
      </trkpt>
      <trkpt lat="37.18195" lon="-3.60092">
        <ele>686.6388</ele>
        <time>2021-07-17T11:12:33Z</time>
      </trkpt>
      <trkpt lat="37.18186" lon="-3.60087">
        <ele>686.9808</ele>
        <time>2021-07-17T11:13:01Z</time>
      </trkpt>
      <trkpt lat="37.18138" lon="-3.6006">
        <ele>687.3214</ele>
        <time>2021-07-17T11:13:12Z</time>
      </trkpt>
      <trkpt lat="37.18087" lon="-3.60033">
        <ele>686.1936</ele>
        <time>2021-07-17T11:13:23Z</time>
      </trkpt>
      <trkpt lat="37.18003" lon="-3.59987">
        <ele>685.7413</ele>
        <time>2021-07-17T11:13:34Z</time>
      </trkpt>
      <trkpt lat="37.17927" lon="-3.59945">
        <ele>686.1042</ele>
        <time>2021-07-17T11:13:45Z</time>
      </trkpt>
      <trkpt lat="37.17922" lon="-3.59942">
        <ele>686.5563</ele>
        <time>2021-07-17T11:13:56Z</time>
      </trkpt>
      <trkpt lat="37.17918" lon="-3.5994">
        <ele>687.3324</ele>
        <time>2021-07-17T11:14:07Z</time>
      </trkpt>
      <trkpt lat="37.17874" lon="-3.59916">
        <ele>687.1242</ele>
        <time>2021-07-17T11:14:18Z</time>
      </trkpt>
      <trkpt lat="37.17799" lon="-3.59875">
        <ele>689.6819</ele>
        <time>2021-07-17T11:14:29Z</time>
      </trkpt>
      <trkpt lat="37.17716" lon="-3.59829">
        <ele>690.256</ele>
        <time>2021-07-17T11:14:40Z</time>
      </trkpt>
      <trkpt lat="37.17644" lon="-3.5979">
        <ele>689.4721</ele>
        <time>2021-07-17T11:14:51Z</time>
      </trkpt>
      <trkpt lat="37.17629" lon="-3.59782">
        <ele>690.2503</ele>
        <time>2021-07-17T11:15:02Z</time>
      </trkpt>
      <trkpt lat="37.17613" lon="-3.59773">
        <ele>689.5097</ele>
        <time>2021-07-17T11:15:13Z</time>
      </trkpt>
      <trkpt lat="37.1758" lon="-3.59755">
        <ele>690.9336</ele>
        <time>2021-07-17T11:15:24Z</time>
      </trkpt>
      <trkpt lat="37.17576" lon="-3.59763">
        <ele>692.9223</ele>
        <time>2021-07-17T11:15:35Z</time>
      </trkpt>
      <trkpt lat="37.17571" lon="-3.59771">
        <ele>691.5274</ele>
        <time>2021-07-17T11:15:46Z</time>
      </trkpt>
      <trkpt lat="37.17532" lon="-3.59828">
        <ele>689.4833</ele>
        <time>2021-07-17T11:15:57Z</time>
      </trkpt>
      <trkpt lat="37.17457" lon="-3.59885">
        <ele>685.0403</ele>
        <time>2021-07-17T11:16:08Z</time>
      </trkpt>
      <trkpt lat="37.17391" lon="-3.5993">
        <ele>680.0693</ele>
        <time>2021-07-17T11:16:19Z</time>
      </trkpt>
      <trkpt lat="37.17371" lon="-3.59944">
        <ele>681.4484</ele>
        <time>2021-07-17T11:16:30Z</time>
      </trkpt>
      <trkpt lat="37.17366" lon="-3.59947">
        <ele>682.7167</ele>
        <time>2021-07-17T11:17:12Z</time>
      </trkpt>
      <trkpt lat="37.17286" lon="-3.59951">
        <ele>680.2743</ele>
        <time>2021-07-17T11:17:23Z</time>
      </trkpt>
      <trkpt lat="37.17183" lon="-3.59896">
        <ele>679.1113</ele>
        <time>2021-07-17T11:17:34Z</time>
      </trkpt>
      <trkpt lat="37.17089" lon="-3.5984">
        <ele>673.674</ele>
        <time>2021-07-17T11:17:45Z</time>
      </trkpt>
      <trkpt lat="37.17049" lon="-3.59813">
        <ele>672.3089</ele>
        <time>2021-07-17T11:17:56Z</time>
      </trkpt>
      <trkpt lat="37.16995" lon="-3.59771">
        <ele>672.6902</ele>
        <time>2021-07-17T11:18:07Z</time>
      </trkpt>
      <trkpt lat="37.16928" lon="-3.59714">
        <ele>671.9724</ele>
        <time>2021-07-17T11:18:18Z</time>
      </trkpt>
      <trkpt lat="37.16924" lon="-3.5971">
        <ele>672.19</ele>
        <time>2021-07-17T11:18:29Z</time>
      </trkpt>
      <trkpt lat="37.16919" lon="-3.59706">
        <ele>671.9906</ele>
        <time>2021-07-17T11:18:40Z</time>
      </trkpt>
      <trkpt lat="37.16895" lon="-3.59687">
        <ele>671.4991</ele>
        <time>2021-07-17T11:18:51Z</time>
      </trkpt>
      <trkpt lat="37.16799" lon="-3.59641">
        <ele>669.5172</ele>
        <time>2021-07-17T11:19:02Z</time>
      </trkpt>
      <trkpt lat="37.16735" lon="-3.59664">
        <ele>671.9205</ele>
        <time>2021-07-17T11:19:13Z</time>
      </trkpt>
      <trkpt lat="37.16717" lon="-3.59703">
        <ele>676.7723</ele>
        <time>2021-07-17T11:19:24Z</time>
      </trkpt>
      <trkpt lat="37.16684" lon="-3.59775">
        <ele>680.8304</ele>
        <time>2021-07-17T11:19:35Z</time>
      </trkpt>
      <trkpt lat="37.16675" lon="-3.59842">
        <ele>672.7171</ele>
        <time>2021-07-17T11:19:46Z</time>
      </trkpt>
      <trkpt lat="37.16602" lon="-3.59877">
        <ele>671.6331</ele>
        <time>2021-07-17T11:19:57Z</time>
      </trkpt>
      <trkpt lat="37.16538" lon="-3.59931">
        <ele>666.9077</ele>
        <time>2021-07-17T11:20:08Z</time>
      </trkpt>
      <trkpt lat="37.16467" lon="-3.59992">
        <ele>667.1617</ele>
        <time>2021-07-17T11:20:19Z</time>
      </trkpt>
      <trkpt lat="37.16386" lon="-3.60054">
        <ele>667.0117</ele>
        <time>2021-07-17T11:20:30Z</time>
      </trkpt>
      <trkpt lat="37.163" lon="-3.60157">
        <ele>661.7554</ele>
        <time>2021-07-17T11:20:41Z</time>
      </trkpt>
      <trkpt lat="37.16231" lon="-3.60275">
        <ele>661.2264</ele>
        <time>2021-07-17T11:20:52Z</time>
      </trkpt>
      <trkpt lat="37.16161" lon="-3.60375">
        <ele>677.8729</ele>
        <time>2021-07-17T11:21:03Z</time>
      </trkpt>
      <trkpt lat="37.16121" lon="-3.6044">
        <ele>673.4747</ele>
        <time>2021-07-17T11:21:14Z</time>
      </trkpt>
      <trkpt lat="37.16085" lon="-3.60493">
        <ele>669.8504</ele>
        <time>2021-07-17T11:21:25Z</time>
      </trkpt>
      <trkpt lat="37.16007" lon="-3.60553">
        <ele>668.7487</ele>
        <time>2021-07-17T11:21:36Z</time>
      </trkpt>
      <trkpt lat="37.15922" lon="-3.60618">
        <ele>671.2489</ele>
        <time>2021-07-17T11:21:47Z</time>
      </trkpt>
      <trkpt lat="37.15879" lon="-3.6066">
        <ele>677.0227</ele>
        <time>2021-07-17T11:21:58Z</time>
      </trkpt>
      <trkpt lat="37.15864" lon="-3.60682">
        <ele>679.4779</ele>
        <time>2021-07-17T11:22:09Z</time>
      </trkpt>
      <trkpt lat="37.15837" lon="-3.60726">
        <ele>676.863</ele>
        <time>2021-07-17T11:22:20Z</time>
      </trkpt>
      <trkpt lat="37.159" lon="-3.60625">
        <ele>676.4182</ele>
        <time>2021-07-17T11:22:31Z</time>
      </trkpt>
      <trkpt lat="37.15956" lon="-3.60581">
        <ele>674.996</ele>
        <time>2021-07-17T11:22:42Z</time>
      </trkpt>
      <trkpt lat="37.15956" lon="-3.60581">
        <ele>681.8549</ele>
        <time>2021-07-17T11:23:42Z</time>
      </trkpt>
      <trkpt lat="37.15956" lon="-3.60581">
        <ele>682.7388</ele>
        <time>2021-07-17T11:24:41Z</time>
      </trkpt>
      <trkpt lat="37.15956" lon="-3.60581">
        <ele>676.0511</ele>
        <time>2021-07-17T11:25:41Z</time>
      </trkpt>
      <trkpt lat="37.15956" lon="-3.60581">
        <ele>672.4144</ele>
        <time>2021-07-17T11:26:40Z</time>
      </trkpt>
      <trkpt lat="37.15957" lon="-3.6058">
        <ele>671.8853</ele>
        <time>2021-07-17T11:27:40Z</time>
      </trkpt>
      <trkpt lat="37.15958" lon="-3.60579">
        <ele>676.8926</ele>
        <time>2021-07-17T11:28:39Z</time>
      </trkpt>
      <trkpt lat="37.15956" lon="-3.60581">
        <ele>663.6565</ele>
        <time>2021-07-17T11:29:39Z</time>
      </trkpt>
      <trkpt lat="37.15956" lon="-3.60581">
        <ele>663.5737</ele>
        <time>2021-07-17T11:30:39Z</time>
      </trkpt>
      <trkpt lat="37.15956" lon="-3.60581">
        <ele>663.6799</ele>
        <time>2021-07-17T11:31:39Z</time>
      </trkpt>
      <trkpt lat="37.15956" lon="-3.60581">
        <ele>663.2762</ele>
        <time>2021-07-17T11:32:39Z</time>
      </trkpt>
      <trkpt lat="37.15956" lon="-3.60581">
        <ele>663.692</ele>
        <time>2021-07-17T11:33:39Z</time>
      </trkpt>
      <trkpt lat="37.15956" lon="-3.60581">
        <ele>664.5447</ele>
        <time>2021-07-17T11:34:38Z</time>
      </trkpt>
      <trkpt lat="37.15956" lon="-3.60581">
        <ele>662.6549</ele>
        <time>2021-07-17T11:35:37Z</time>
      </trkpt>
      <trkpt lat="37.15956" lon="-3.60581">
        <ele>663.7821</ele>
        <time>2021-07-17T11:36:36Z</time>
      </trkpt>
      <trkpt lat="37.15956" lon="-3.60581">
        <ele>663.8266</ele>
        <time>2021-07-17T11:37:36Z</time>
      </trkpt>
      <trkpt lat="37.15956" lon="-3.60581">
        <ele>663.2147</ele>
        <time>2021-07-17T11:38:36Z</time>
      </trkpt>
      <trkpt lat="37.15956" lon="-3.60581">
        <ele>663.5672</ele>
        <time>2021-07-17T11:39:35Z</time>
      </trkpt>
      <trkpt lat="37.15956" lon="-3.60581">
        <ele>663.4141</ele>
        <time>2021-07-17T11:40:35Z</time>
      </trkpt>
      <trkpt lat="37.15956" lon="-3.60581">
        <ele>664.443</ele>
        <time>2021-07-17T11:41:35Z</time>
      </trkpt>
      <trkpt lat="37.15956" lon="-3.60581">
        <ele>663.7926</ele>
        <time>2021-07-17T11:42:34Z</time>
      </trkpt>
      <trkpt lat="37.15956" lon="-3.60581">
        <ele>664.0695</ele>
        <time>2021-07-17T11:43:34Z</time>
      </trkpt>
      <trkpt lat="37.15932" lon="-3.60554">
        <ele>663.6292</ele>
        <time>2021-07-17T11:44:02Z</time>
      </trkpt>
      <trkpt lat="37.15961" lon="-3.60577">
        <ele>664.3199</ele>
        <time>2021-07-17T11:44:13Z</time>
      </trkpt>
      <trkpt lat="37.15996" lon="-3.6055">
        <ele>665.7744</ele>
        <time>2021-07-17T11:44:24Z</time>
      </trkpt>
      <trkpt lat="37.16077" lon="-3.60449">
        <ele>664.5074</ele>
        <time>2021-07-17T11:44:35Z</time>
      </trkpt>
      <trkpt lat="37.16082" lon="-3.60495">
        <ele>664.4189</ele>
        <time>2021-07-17T11:44:46Z</time>
      </trkpt>
      <trkpt lat="37.15993" lon="-3.60564">
        <ele>663.1315</ele>
        <time>2021-07-17T11:44:57Z</time>
      </trkpt>
      <trkpt lat="37.15909" lon="-3.60628">
        <ele>662.4529</ele>
        <time>2021-07-17T11:45:08Z</time>
      </trkpt>
      <trkpt lat="37.15895" lon="-3.60643">
        <ele>664.2536</ele>
        <time>2021-07-17T11:45:19Z</time>
      </trkpt>
      <trkpt lat="37.15888" lon="-3.6065">
        <ele>663.7196</ele>
        <time>2021-07-17T11:45:30Z</time>
      </trkpt>
      <trkpt lat="37.15881" lon="-3.60658">
        <ele>663.0963</ele>
        <time>2021-07-17T11:45:42Z</time>
      </trkpt>
      <trkpt lat="37.15861" lon="-3.60704">
        <ele>662.3972</ele>
        <time>2021-07-17T11:45:53Z</time>
      </trkpt>
      <trkpt lat="37.15797" lon="-3.60783">
        <ele>662.9089</ele>
        <time>2021-07-17T11:46:04Z</time>
      </trkpt>
      <trkpt lat="37.15735" lon="-3.60855">
        <ele>661.031</ele>
        <time>2021-07-17T11:46:15Z</time>
      </trkpt>
      <trkpt lat="37.15695" lon="-3.60888">
        <ele>661.8197</ele>
        <time>2021-07-17T11:46:26Z</time>
      </trkpt>
      <trkpt lat="37.15679" lon="-3.60901">
        <ele>666.1108</ele>
        <time>2021-07-17T11:46:37Z</time>
      </trkpt>
      <trkpt lat="37.15675" lon="-3.60904">
        <ele>676.3632</ele>
        <time>2021-07-17T11:47:15Z</time>
      </trkpt>
      <trkpt lat="37.15615" lon="-3.60952">
        <ele>674.0879</ele>
        <time>2021-07-17T11:47:26Z</time>
      </trkpt>
      <trkpt lat="37.15536" lon="-3.61018">
        <ele>666.4241</ele>
        <time>2021-07-17T11:47:37Z</time>
      </trkpt>
      <trkpt lat="37.15446" lon="-3.61109">
        <ele>666.5216</ele>
        <time>2021-07-17T11:47:48Z</time>
      </trkpt>
      <trkpt lat="37.1537" lon="-3.61193">
        <ele>662.8817</ele>
        <time>2021-07-17T11:47:59Z</time>
      </trkpt>
      <trkpt lat="37.15344" lon="-3.61222">
        <ele>663.0018</ele>
        <time>2021-07-17T11:48:10Z</time>
      </trkpt>
      <trkpt lat="37.15325" lon="-3.61243">
        <ele>663.7211</ele>
        <time>2021-07-17T11:48:21Z</time>
      </trkpt>
      <trkpt lat="37.15305" lon="-3.61313">
        <ele>665.4204</ele>
        <time>2021-07-17T11:48:32Z</time>
      </trkpt>
      <trkpt lat="37.15203" lon="-3.61291">
        <ele>667.5686</ele>
        <time>2021-07-17T11:48:43Z</time>
      </trkpt>
      <trkpt lat="37.15067" lon="-3.61228">
        <ele>672.1177</ele>
        <time>2021-07-17T11:48:54Z</time>
      </trkpt>
      <trkpt lat="37.14934" lon="-3.61172">
        <ele>668.0724</ele>
        <time>2021-07-17T11:49:05Z</time>
      </trkpt>
      <trkpt lat="37.14833" lon="-3.61127">
        <ele>668.8667</ele>
        <time>2021-07-17T11:49:16Z</time>
      </trkpt>
      <trkpt lat="37.14733" lon="-3.61082">
        <ele>670.0897</ele>
        <time>2021-07-17T11:49:27Z</time>
      </trkpt>
      <trkpt lat="37.147" lon="-3.61074">
        <ele>669.7619</ele>
        <time>2021-07-17T11:49:38Z</time>
      </trkpt>
      <trkpt lat="37.14624" lon="-3.61082">
        <ele>668.3631</ele>
        <time>2021-07-17T11:49:49Z</time>
      </trkpt>
      <trkpt lat="37.14497" lon="-3.61169">
        <ele>671.6453</ele>
        <time>2021-07-17T11:50:00Z</time>
      </trkpt>
      <trkpt lat="37.14403" lon="-3.613">
        <ele>670.0544</ele>
        <time>2021-07-17T11:50:11Z</time>
      </trkpt>
      <trkpt lat="37.14396" lon="-3.61331">
        <ele>669.5722</ele>
        <time>2021-07-17T11:50:22Z</time>
      </trkpt>
      <trkpt lat="37.14319" lon="-3.6142">
        <ele>669.9924</ele>
        <time>2021-07-17T11:50:33Z</time>
      </trkpt>
      <trkpt lat="37.14251" lon="-3.61492">
        <ele>670.9009</ele>
        <time>2021-07-17T11:50:44Z</time>
      </trkpt>
      <trkpt lat="37.14201" lon="-3.6156">
        <ele>669.1371</ele>
        <time>2021-07-17T11:50:55Z</time>
      </trkpt>
      <trkpt lat="37.1413" lon="-3.61651">
        <ele>668.5216</ele>
        <time>2021-07-17T11:51:06Z</time>
      </trkpt>
      <trkpt lat="37.14071" lon="-3.61732">
        <ele>669.1041</ele>
        <time>2021-07-17T11:51:17Z</time>
      </trkpt>
      <trkpt lat="37.14043" lon="-3.61777">
        <ele>670.6741</ele>
        <time>2021-07-17T11:51:28Z</time>
      </trkpt>
      <trkpt lat="37.14014" lon="-3.61826">
        <ele>671.756</ele>
        <time>2021-07-17T11:51:39Z</time>
      </trkpt>
      <trkpt lat="37.13956" lon="-3.61895">
        <ele>671.8487</ele>
        <time>2021-07-17T11:51:50Z</time>
      </trkpt>
      <trkpt lat="37.13885" lon="-3.61962">
        <ele>674.0164</ele>
        <time>2021-07-17T11:52:01Z</time>
      </trkpt>
      <trkpt lat="37.13835" lon="-3.62008">
        <ele>675.5347</ele>
        <time>2021-07-17T11:52:12Z</time>
      </trkpt>
      <trkpt lat="37.13845" lon="-3.6207">
        <ele>677.3827</ele>
        <time>2021-07-17T11:52:23Z</time>
      </trkpt>
      <trkpt lat="37.13865" lon="-3.6218">
        <ele>676.4751</ele>
        <time>2021-07-17T11:52:34Z</time>
      </trkpt>
      <trkpt lat="37.13902" lon="-3.62271">
        <ele>675.9956</ele>
        <time>2021-07-17T11:52:45Z</time>
      </trkpt>
      <trkpt lat="37.13934" lon="-3.62367">
        <ele>678.312</ele>
        <time>2021-07-17T11:52:56Z</time>
      </trkpt>
      <trkpt lat="37.13957" lon="-3.62448">
        <ele>679.0629</ele>
        <time>2021-07-17T11:53:07Z</time>
      </trkpt>
      <trkpt lat="37.13973" lon="-3.62538">
        <ele>678.7474</ele>
        <time>2021-07-17T11:53:18Z</time>
      </trkpt>
      <trkpt lat="37.13997" lon="-3.62641">
        <ele>678.6017</ele>
        <time>2021-07-17T11:53:29Z</time>
      </trkpt>
      <trkpt lat="37.14017" lon="-3.62724">
        <ele>677.8176</ele>
        <time>2021-07-17T11:53:40Z</time>
      </trkpt>
      <trkpt lat="37.14041" lon="-3.62805">
        <ele>678.7684</ele>
        <time>2021-07-17T11:53:51Z</time>
      </trkpt>
      <trkpt lat="37.13979" lon="-3.62841">
        <ele>679.1148</ele>
        <time>2021-07-17T11:54:02Z</time>
      </trkpt>
      <trkpt lat="37.13825" lon="-3.62868">
        <ele>681.9568</ele>
        <time>2021-07-17T11:54:13Z</time>
      </trkpt>
      <trkpt lat="37.1368" lon="-3.62894">
        <ele>682.8794</ele>
        <time>2021-07-17T11:54:24Z</time>
      </trkpt>
      <trkpt lat="37.135" lon="-3.62923">
        <ele>688.5281</ele>
        <time>2021-07-17T11:54:35Z</time>
      </trkpt>
      <trkpt lat="37.13299" lon="-3.62958">
        <ele>692.4582</ele>
        <time>2021-07-17T11:54:46Z</time>
      </trkpt>
      <trkpt lat="37.13134" lon="-3.62987">
        <ele>695.7777</ele>
        <time>2021-07-17T11:54:57Z</time>
      </trkpt>
      <trkpt lat="37.1298" lon="-3.63014">
        <ele>700.3277</ele>
        <time>2021-07-17T11:55:08Z</time>
      </trkpt>
      <trkpt lat="37.12828" lon="-3.63041">
        <ele>702.7751</ele>
        <time>2021-07-17T11:55:19Z</time>
      </trkpt>
      <trkpt lat="37.12734" lon="-3.63058">
        <ele>705.1669</ele>
        <time>2021-07-17T11:55:30Z</time>
      </trkpt>
      <trkpt lat="37.1263" lon="-3.63076">
        <ele>707.4464</ele>
        <time>2021-07-17T11:55:41Z</time>
      </trkpt>
      <trkpt lat="37.12507" lon="-3.63097">
        <ele>709.7555</ele>
        <time>2021-07-17T11:55:52Z</time>
      </trkpt>
      <trkpt lat="37.12414" lon="-3.63113">
        <ele>713.5563</ele>
        <time>2021-07-17T11:56:03Z</time>
      </trkpt>
      <trkpt lat="37.12362" lon="-3.63122">
        <ele>714.5689</ele>
        <time>2021-07-17T11:56:14Z</time>
      </trkpt>
      <trkpt lat="37.12265" lon="-3.63139">
        <ele>714.6122</ele>
        <time>2021-07-17T11:56:25Z</time>
      </trkpt>
      <trkpt lat="37.12142" lon="-3.6316">
        <ele>716.3623</ele>
        <time>2021-07-17T11:56:36Z</time>
      </trkpt>
      <trkpt lat="37.12041" lon="-3.63178">
        <ele>717.4687</ele>
        <time>2021-07-17T11:56:47Z</time>
      </trkpt>
      <trkpt lat="37.11961" lon="-3.63194">
        <ele>719.4139</ele>
        <time>2021-07-17T11:56:58Z</time>
      </trkpt>
      <trkpt lat="37.11837" lon="-3.63221">
        <ele>720.3345</ele>
        <time>2021-07-17T11:57:09Z</time>
      </trkpt>
      <trkpt lat="37.11725" lon="-3.63301">
        <ele>718.6539</ele>
        <time>2021-07-17T11:57:20Z</time>
      </trkpt>
      <trkpt lat="37.11669" lon="-3.63381">
        <ele>720.5208</ele>
        <time>2021-07-17T11:57:31Z</time>
      </trkpt>
      <trkpt lat="37.11596" lon="-3.63412">
        <ele>722.4115</ele>
        <time>2021-07-17T11:57:42Z</time>
      </trkpt>
      <trkpt lat="37.11477" lon="-3.63515">
        <ele>722.6654</ele>
        <time>2021-07-17T11:57:53Z</time>
      </trkpt>
      <trkpt lat="37.11364" lon="-3.63614">
        <ele>725.3648</ele>
        <time>2021-07-17T11:58:04Z</time>
      </trkpt>
      <trkpt lat="37.11268" lon="-3.63697">
        <ele>725.6182</ele>
        <time>2021-07-17T11:58:15Z</time>
      </trkpt>
      <trkpt lat="37.11164" lon="-3.63786">
        <ele>729.3515</ele>
        <time>2021-07-17T11:58:26Z</time>
      </trkpt>
      <trkpt lat="37.11042" lon="-3.63892">
        <ele>731.383</ele>
        <time>2021-07-17T11:58:37Z</time>
      </trkpt>
      <trkpt lat="37.10925" lon="-3.63996">
        <ele>731.7893</ele>
        <time>2021-07-17T11:58:48Z</time>
      </trkpt>
      <trkpt lat="37.1081" lon="-3.64098">
        <ele>732.4796</ele>
        <time>2021-07-17T11:58:59Z</time>
      </trkpt>
      <trkpt lat="37.1067" lon="-3.64216">
        <ele>740.7187</ele>
        <time>2021-07-17T11:59:10Z</time>
      </trkpt>
      <trkpt lat="37.1062" lon="-3.64292">
        <ele>740.9149</ele>
        <time>2021-07-17T11:59:21Z</time>
      </trkpt>
      <trkpt lat="37.10574" lon="-3.6439">
        <ele>739.5316</ele>
        <time>2021-07-17T11:59:32Z</time>
      </trkpt>
      <trkpt lat="37.10422" lon="-3.64441">
        <ele>738.4955</ele>
        <time>2021-07-17T11:59:43Z</time>
      </trkpt>
      <trkpt lat="37.10298" lon="-3.64482">
        <ele>735.4848</ele>
        <time>2021-07-17T11:59:54Z</time>
      </trkpt>
      <trkpt lat="37.10154" lon="-3.6453">
        <ele>735.0059</ele>
        <time>2021-07-17T12:00:05Z</time>
      </trkpt>
      <trkpt lat="37.10012" lon="-3.64612">
        <ele>737.2982</ele>
        <time>2021-07-17T12:00:16Z</time>
      </trkpt>
      <trkpt lat="37.09918" lon="-3.64811">
        <ele>739.8751</ele>
        <time>2021-07-17T12:00:27Z</time>
      </trkpt>
      <trkpt lat="37.09755" lon="-3.64829">
        <ele>744.6101</ele>
        <time>2021-07-17T12:00:38Z</time>
      </trkpt>
      <trkpt lat="37.09576" lon="-3.64816">
        <ele>750.0587</ele>
        <time>2021-07-17T12:00:49Z</time>
      </trkpt>
      <trkpt lat="37.09388" lon="-3.648">
        <ele>753.5507</ele>
        <time>2021-07-17T12:01:00Z</time>
      </trkpt>
      <trkpt lat="37.09284" lon="-3.64756">
        <ele>754.6299</ele>
        <time>2021-07-17T12:01:11Z</time>
      </trkpt>
      <trkpt lat="37.09085" lon="-3.64768">
        <ele>759.4976</ele>
        <time>2021-07-17T12:01:22Z</time>
      </trkpt>
      <trkpt lat="37.08889" lon="-3.64817">
        <ele>766.3374</ele>
        <time>2021-07-17T12:01:33Z</time>
      </trkpt>
      <trkpt lat="37.08745" lon="-3.64814">
        <ele>767.1539</ele>
        <time>2021-07-17T12:01:44Z</time>
      </trkpt>
      <trkpt lat="37.08569" lon="-3.64786">
        <ele>768.5963</ele>
        <time>2021-07-17T12:01:55Z</time>
      </trkpt>
      <trkpt lat="37.08507" lon="-3.64743">
        <ele>769.0552</ele>
        <time>2021-07-17T12:02:06Z</time>
      </trkpt>
      <trkpt lat="37.08501" lon="-3.64741">
        <ele>768.3384</ele>
        <time>2021-07-17T12:02:17Z</time>
      </trkpt>
      <trkpt lat="37.08551" lon="-3.64626">
        <ele>769.5273</ele>
        <time>2021-07-17T12:02:28Z</time>
      </trkpt>
      <trkpt lat="37.0853" lon="-3.64691">
        <ele>769.9859</ele>
        <time>2021-07-17T12:02:39Z</time>
      </trkpt>
      <trkpt lat="37.08469" lon="-3.64789">
        <ele>767.4758</ele>
        <time>2021-07-17T12:02:50Z</time>
      </trkpt>
      <trkpt lat="37.08536" lon="-3.64841">
        <ele>770.9032</ele>
        <time>2021-07-17T12:03:01Z</time>
      </trkpt>
      <trkpt lat="37.08689" lon="-3.64857">
        <ele>763.3252</ele>
        <time>2021-07-17T12:03:12Z</time>
      </trkpt>
      <trkpt lat="37.087" lon="-3.64858">
        <ele>764.9818</ele>
        <time>2021-07-17T12:03:23Z</time>
      </trkpt>
      <trkpt lat="37.08702" lon="-3.64867">
        <ele>769.2021</ele>
        <time>2021-07-17T12:03:42Z</time>
      </trkpt>
      <trkpt lat="37.08673" lon="-3.64868">
        <ele>770.3388</ele>
        <time>2021-07-17T12:03:53Z</time>
      </trkpt>
      <trkpt lat="37.08644" lon="-3.64866">
        <ele>771.0199</ele>
        <time>2021-07-17T12:04:04Z</time>
      </trkpt>
      <trkpt lat="37.08612" lon="-3.64864">
        <ele>773.8011</ele>
        <time>2021-07-17T12:04:15Z</time>
      </trkpt>
      <trkpt lat="37.08583" lon="-3.64847">
        <ele>773.1659</ele>
        <time>2021-07-17T12:04:26Z</time>
      </trkpt>
      <trkpt lat="37.08509" lon="-3.64845">
        <ele>774.5644</ele>
        <time>2021-07-17T12:04:37Z</time>
      </trkpt>
      <trkpt lat="37.08421" lon="-3.64892">
        <ele>776.9063</ele>
        <time>2021-07-17T12:04:48Z</time>
      </trkpt>
      <trkpt lat="37.08299" lon="-3.64841">
        <ele>779.1763</ele>
        <time>2021-07-17T12:04:59Z</time>
      </trkpt>
      <trkpt lat="37.0808" lon="-3.64839">
        <ele>790.9985</ele>
        <time>2021-07-17T12:05:10Z</time>
      </trkpt>
      <trkpt lat="37.07859" lon="-3.64871">
        <ele>796.834</ele>
        <time>2021-07-17T12:05:21Z</time>
      </trkpt>
      <trkpt lat="37.07629" lon="-3.64916">
        <ele>807.3924</ele>
        <time>2021-07-17T12:05:32Z</time>
      </trkpt>
      <trkpt lat="37.07401" lon="-3.6496">
        <ele>818.1423</ele>
        <time>2021-07-17T12:05:43Z</time>
      </trkpt>
      <trkpt lat="37.07174" lon="-3.65057">
        <ele>831.2369</ele>
        <time>2021-07-17T12:05:54Z</time>
      </trkpt>
      <trkpt lat="37.0696" lon="-3.65155">
        <ele>837.8374</ele>
        <time>2021-07-17T12:06:05Z</time>
      </trkpt>
      <trkpt lat="37.06743" lon="-3.65049">
        <ele>843.2391</ele>
        <time>2021-07-17T12:06:16Z</time>
      </trkpt>
      <trkpt lat="37.06525" lon="-3.64955">
        <ele>848.2235</ele>
        <time>2021-07-17T12:06:27Z</time>
      </trkpt>
      <trkpt lat="37.06289" lon="-3.6497">
        <ele>853.3984</ele>
        <time>2021-07-17T12:06:38Z</time>
      </trkpt>
      <trkpt lat="37.06034" lon="-3.6495">
        <ele>849.4823</ele>
        <time>2021-07-17T12:06:49Z</time>
      </trkpt>
      <trkpt lat="37.0577" lon="-3.64927">
        <ele>842.8327</ele>
        <time>2021-07-17T12:07:00Z</time>
      </trkpt>
      <trkpt lat="37.05551" lon="-3.64974">
        <ele>842.0663</ele>
        <time>2021-07-17T12:07:11Z</time>
      </trkpt>
      <trkpt lat="37.05365" lon="-3.64955">
        <ele>844.8489</ele>
        <time>2021-07-17T12:07:22Z</time>
      </trkpt>
      <trkpt lat="37.05169" lon="-3.64898">
        <ele>851.127</ele>
        <time>2021-07-17T12:07:33Z</time>
      </trkpt>
      <trkpt lat="37.04984" lon="-3.64838">
        <ele>853.1981</ele>
        <time>2021-07-17T12:07:44Z</time>
      </trkpt>
      <trkpt lat="37.04913" lon="-3.64845">
        <ele>853.4958</ele>
        <time>2021-07-17T12:07:55Z</time>
      </trkpt>
      <trkpt lat="37.04798" lon="-3.64778">
        <ele>852.4438</ele>
        <time>2021-07-17T12:08:06Z</time>
      </trkpt>
      <trkpt lat="37.04634" lon="-3.64692">
        <ele>849.4792</ele>
        <time>2021-07-17T12:08:17Z</time>
      </trkpt>
      <trkpt lat="37.04453" lon="-3.64567">
        <ele>840.9802</ele>
        <time>2021-07-17T12:08:28Z</time>
      </trkpt>
      <trkpt lat="37.04279" lon="-3.64415">
        <ele>833.7037</ele>
        <time>2021-07-17T12:08:39Z</time>
      </trkpt>
      <trkpt lat="37.04095" lon="-3.64269">
        <ele>828.8737</ele>
        <time>2021-07-17T12:08:50Z</time>
      </trkpt>
      <trkpt lat="37.03903" lon="-3.6413">
        <ele>825.261</ele>
        <time>2021-07-17T12:09:01Z</time>
      </trkpt>
      <trkpt lat="37.03739" lon="-3.64025">
        <ele>823.7536</ele>
        <time>2021-07-17T12:09:12Z</time>
      </trkpt>
      <trkpt lat="37.03621" lon="-3.63968">
        <ele>824.5232</ele>
        <time>2021-07-17T12:09:23Z</time>
      </trkpt>
      <trkpt lat="37.03543" lon="-3.639">
        <ele>824.9148</ele>
        <time>2021-07-17T12:09:34Z</time>
      </trkpt>
      <trkpt lat="37.03402" lon="-3.63794">
        <ele>824.0514</ele>
        <time>2021-07-17T12:09:45Z</time>
      </trkpt>
      <trkpt lat="37.03225" lon="-3.63661">
        <ele>820.779</ele>
        <time>2021-07-17T12:09:56Z</time>
      </trkpt>
      <trkpt lat="37.03051" lon="-3.63528">
        <ele>818.2699</ele>
        <time>2021-07-17T12:10:07Z</time>
      </trkpt>
      <trkpt lat="37.02882" lon="-3.63391">
        <ele>815.2701</ele>
        <time>2021-07-17T12:10:18Z</time>
      </trkpt>
      <trkpt lat="37.02801" lon="-3.63158">
        <ele>811.1025</ele>
        <time>2021-07-17T12:10:29Z</time>
      </trkpt>
      <trkpt lat="37.02744" lon="-3.62895">
        <ele>807.4012</ele>
        <time>2021-07-17T12:10:40Z</time>
      </trkpt>
      <trkpt lat="37.02739" lon="-3.62663">
        <ele>807.8458</ele>
        <time>2021-07-17T12:10:51Z</time>
      </trkpt>
      <trkpt lat="37.02777" lon="-3.62431">
        <ele>808.0547</ele>
        <time>2021-07-17T12:11:02Z</time>
      </trkpt>
      <trkpt lat="37.02742" lon="-3.62182">
        <ele>805.7357</ele>
        <time>2021-07-17T12:11:13Z</time>
      </trkpt>
      <trkpt lat="37.02829" lon="-3.61956">
        <ele>797.7114</ele>
        <time>2021-07-17T12:11:24Z</time>
      </trkpt>
      <trkpt lat="37.02744" lon="-3.61736">
        <ele>789.9484</ele>
        <time>2021-07-17T12:11:35Z</time>
      </trkpt>
      <trkpt lat="37.02549" lon="-3.61593">
        <ele>782.14</ele>
        <time>2021-07-17T12:11:46Z</time>
      </trkpt>
      <trkpt lat="37.02386" lon="-3.61398">
        <ele>774.6198</ele>
        <time>2021-07-17T12:11:57Z</time>
      </trkpt>
      <trkpt lat="37.02254" lon="-3.6113">
        <ele>761.5839</ele>
        <time>2021-07-17T12:12:08Z</time>
      </trkpt>
      <trkpt lat="37.02142" lon="-3.60855">
        <ele>747.348</ele>
        <time>2021-07-17T12:12:19Z</time>
      </trkpt>
      <trkpt lat="37.02026" lon="-3.6058">
        <ele>741.2612</ele>
        <time>2021-07-17T12:12:30Z</time>
      </trkpt>
      <trkpt lat="37.01917" lon="-3.60303">
        <ele>740.5331</ele>
        <time>2021-07-17T12:12:41Z</time>
      </trkpt>
      <trkpt lat="37.0182" lon="-3.60023">
        <ele>743.1001</ele>
        <time>2021-07-17T12:12:52Z</time>
      </trkpt>
      <trkpt lat="37.01759" lon="-3.59724">
        <ele>747.0945</ele>
        <time>2021-07-17T12:13:03Z</time>
      </trkpt>
      <trkpt lat="37.01596" lon="-3.5949">
        <ele>753.5877</ele>
        <time>2021-07-17T12:13:14Z</time>
      </trkpt>
      <trkpt lat="37.01431" lon="-3.59268">
        <ele>760.124</ele>
        <time>2021-07-17T12:13:25Z</time>
      </trkpt>
      <trkpt lat="37.01265" lon="-3.59057">
        <ele>763.6619</ele>
        <time>2021-07-17T12:13:36Z</time>
      </trkpt>
      <trkpt lat="37.01097" lon="-3.58865">
        <ele>766.655</ele>
        <time>2021-07-17T12:13:47Z</time>
      </trkpt>
      <trkpt lat="37.00945" lon="-3.58693">
        <ele>766.7415</ele>
        <time>2021-07-17T12:13:58Z</time>
      </trkpt>
      <trkpt lat="37.00848" lon="-3.58584">
        <ele>770.1996</ele>
        <time>2021-07-17T12:14:09Z</time>
      </trkpt>
      <trkpt lat="37.00747" lon="-3.5847">
        <ele>773.6001</ele>
        <time>2021-07-17T12:14:20Z</time>
      </trkpt>
      <trkpt lat="37.00612" lon="-3.58322">
        <ele>777.548</ele>
        <time>2021-07-17T12:14:31Z</time>
      </trkpt>
      <trkpt lat="37.0048" lon="-3.58187">
        <ele>781.3345</ele>
        <time>2021-07-17T12:14:42Z</time>
      </trkpt>
      <trkpt lat="37.00325" lon="-3.58041">
        <ele>784.2384</ele>
        <time>2021-07-17T12:14:53Z</time>
      </trkpt>
      <trkpt lat="37.00159" lon="-3.57888">
        <ele>783.6521</ele>
        <time>2021-07-17T12:15:04Z</time>
      </trkpt>
      <trkpt lat="37.00019" lon="-3.57691">
        <ele>777.2237</ele>
        <time>2021-07-17T12:15:15Z</time>
      </trkpt>
      <trkpt lat="36.99864" lon="-3.57462">
        <ele>768.2455</ele>
        <time>2021-07-17T12:15:26Z</time>
      </trkpt>
      <trkpt lat="36.99682" lon="-3.57245">
        <ele>761.294</ele>
        <time>2021-07-17T12:15:37Z</time>
      </trkpt>
      <trkpt lat="36.99533" lon="-3.57055">
        <ele>767.8783</ele>
        <time>2021-07-17T12:15:48Z</time>
      </trkpt>
      <trkpt lat="36.99382" lon="-3.56832">
        <ele>775.5577</ele>
        <time>2021-07-17T12:15:59Z</time>
      </trkpt>
      <trkpt lat="36.9924" lon="-3.56595">
        <ele>783.276</ele>
        <time>2021-07-17T12:16:10Z</time>
      </trkpt>
      <trkpt lat="36.99108" lon="-3.56375">
        <ele>792.573</ele>
        <time>2021-07-17T12:16:21Z</time>
      </trkpt>
      <trkpt lat="36.98983" lon="-3.56168">
        <ele>801.4929</ele>
        <time>2021-07-17T12:16:32Z</time>
      </trkpt>
      <trkpt lat="36.98818" lon="-3.55984">
        <ele>809.4547</ele>
        <time>2021-07-17T12:16:43Z</time>
      </trkpt>
      <trkpt lat="36.98639" lon="-3.55886">
        <ele>815.0204</ele>
        <time>2021-07-17T12:16:54Z</time>
      </trkpt>
      <trkpt lat="36.98429" lon="-3.55862">
        <ele>819.654</ele>
        <time>2021-07-17T12:17:05Z</time>
      </trkpt>
      <trkpt lat="36.98209" lon="-3.55867">
        <ele>821.4629</ele>
        <time>2021-07-17T12:17:16Z</time>
      </trkpt>
      <trkpt lat="36.97979" lon="-3.55872">
        <ele>824.4436</ele>
        <time>2021-07-17T12:17:27Z</time>
      </trkpt>
      <trkpt lat="36.97769" lon="-3.55877">
        <ele>824.86</ele>
        <time>2021-07-17T12:17:38Z</time>
      </trkpt>
      <trkpt lat="36.97568" lon="-3.5588">
        <ele>827.7326</ele>
        <time>2021-07-17T12:17:49Z</time>
      </trkpt>
      <trkpt lat="36.97428" lon="-3.55888">
        <ele>831.3517</ele>
        <time>2021-07-17T12:18:00Z</time>
      </trkpt>
      <trkpt lat="36.97418" lon="-3.55889">
        <ele>831.8157</ele>
        <time>2021-07-17T12:18:11Z</time>
      </trkpt>
      <trkpt lat="36.97368" lon="-3.55854">
        <ele>831.1984</ele>
        <time>2021-07-17T12:18:22Z</time>
      </trkpt>
      <trkpt lat="36.97419" lon="-3.55757">
        <ele>833.2522</ele>
        <time>2021-07-17T12:18:33Z</time>
      </trkpt>
      <trkpt lat="36.97448" lon="-3.55724">
        <ele>837.7899</ele>
        <time>2021-07-17T12:18:44Z</time>
      </trkpt>
      <trkpt lat="36.97444" lon="-3.55725">
        <ele>836.1955</ele>
        <time>2021-07-17T12:18:59Z</time>
      </trkpt>
      <trkpt lat="36.97444" lon="-3.55725">
        <ele>836.211</ele>
        <time>2021-07-17T12:19:59Z</time>
      </trkpt>
      <trkpt lat="36.97441" lon="-3.55718">
        <ele>830.7636</ele>
        <time>2021-07-17T12:20:39Z</time>
      </trkpt>
      <trkpt lat="36.9744" lon="-3.55718">
        <ele>831.0327</ele>
        <time>2021-07-17T12:21:39Z</time>
      </trkpt>
      <trkpt lat="36.9744" lon="-3.5572">
        <ele>832.3156</ele>
        <time>2021-07-17T12:22:39Z</time>
      </trkpt>
      <trkpt lat="36.97443" lon="-3.55723">
        <ele>832.8666</ele>
        <time>2021-07-17T12:23:22Z</time>
      </trkpt>
      <trkpt lat="36.97445" lon="-3.55722">
        <ele>836.0017</ele>
        <time>2021-07-17T12:24:22Z</time>
      </trkpt>
      <trkpt lat="36.97441" lon="-3.55726">
        <ele>838.7362</ele>
        <time>2021-07-17T12:25:18Z</time>
      </trkpt>
      <trkpt lat="36.97419" lon="-3.55757">
        <ele>833.9982</ele>
        <time>2021-07-17T12:25:29Z</time>
      </trkpt>
      <trkpt lat="36.97386" lon="-3.55733">
        <ele>835.3388</ele>
        <time>2021-07-17T12:25:40Z</time>
      </trkpt>
      <trkpt lat="36.97237" lon="-3.55621">
        <ele>837.493</ele>
        <time>2021-07-17T12:25:51Z</time>
      </trkpt>
      <trkpt lat="36.97077" lon="-3.55501">
        <ele>846.0347</ele>
        <time>2021-07-17T12:26:02Z</time>
      </trkpt>
      <trkpt lat="36.96938" lon="-3.55397">
        <ele>851.6227</ele>
        <time>2021-07-17T12:26:13Z</time>
      </trkpt>
      <trkpt lat="36.96749" lon="-3.55254">
        <ele>856.2203</ele>
        <time>2021-07-17T12:26:24Z</time>
      </trkpt>
      <trkpt lat="36.96544" lon="-3.55101">
        <ele>852.9438</ele>
        <time>2021-07-17T12:26:35Z</time>
      </trkpt>
      <trkpt lat="36.96428" lon="-3.54954">
        <ele>841.3889</ele>
        <time>2021-07-17T12:26:46Z</time>
      </trkpt>
      <trkpt lat="36.96375" lon="-3.54747">
        <ele>831.1208</ele>
        <time>2021-07-17T12:26:57Z</time>
      </trkpt>
      <trkpt lat="36.96492" lon="-3.54639">
        <ele>825.2446</ele>
        <time>2021-07-17T12:27:08Z</time>
      </trkpt>
      <trkpt lat="36.96653" lon="-3.54515">
        <ele>815.6545</ele>
        <time>2021-07-17T12:27:19Z</time>
      </trkpt>
      <trkpt lat="36.96722" lon="-3.54382">
        <ele>810.7772</ele>
        <time>2021-07-17T12:27:30Z</time>
      </trkpt>
      <trkpt lat="36.96637" lon="-3.54278">
        <ele>812.143</ele>
        <time>2021-07-17T12:27:41Z</time>
      </trkpt>
      <trkpt lat="36.96468" lon="-3.5439">
        <ele>800.1479</ele>
        <time>2021-07-17T12:27:52Z</time>
      </trkpt>
      <trkpt lat="36.96255" lon="-3.54485">
        <ele>784.2113</ele>
        <time>2021-07-17T12:28:03Z</time>
      </trkpt>
      <trkpt lat="36.96037" lon="-3.54503">
        <ele>775.3494</ele>
        <time>2021-07-17T12:28:14Z</time>
      </trkpt>
      <trkpt lat="36.95881" lon="-3.54507">
        <ele>766.7304</ele>
        <time>2021-07-17T12:28:25Z</time>
      </trkpt>
      <trkpt lat="36.95781" lon="-3.54649">
        <ele>758.4569</ele>
        <time>2021-07-17T12:28:36Z</time>
      </trkpt>
      <trkpt lat="36.956" lon="-3.54758">
        <ele>756.3287</ele>
        <time>2021-07-17T12:28:47Z</time>
      </trkpt>
      <trkpt lat="36.95415" lon="-3.54867">
        <ele>746.7424</ele>
        <time>2021-07-17T12:28:58Z</time>
      </trkpt>
      <trkpt lat="36.9533" lon="-3.54918">
        <ele>740.1363</ele>
        <time>2021-07-17T12:29:09Z</time>
      </trkpt>
      <trkpt lat="36.95211" lon="-3.55007">
        <ele>733.5538</ele>
        <time>2021-07-17T12:29:20Z</time>
      </trkpt>
      <trkpt lat="36.95113" lon="-3.55078">
        <ele>725.8464</ele>
        <time>2021-07-17T12:29:31Z</time>
      </trkpt>
      <trkpt lat="36.95023" lon="-3.55142">
        <ele>720.6879</ele>
        <time>2021-07-17T12:29:42Z</time>
      </trkpt>
      <trkpt lat="36.94922" lon="-3.55186">
        <ele>718.3807</ele>
        <time>2021-07-17T12:29:53Z</time>
      </trkpt>
      <trkpt lat="36.94833" lon="-3.55122">
        <ele>714.6857</ele>
        <time>2021-07-17T12:30:04Z</time>
      </trkpt>
      <trkpt lat="36.94759" lon="-3.55027">
        <ele>719.7277</ele>
        <time>2021-07-17T12:30:15Z</time>
      </trkpt>
      <trkpt lat="36.94682" lon="-3.54956">
        <ele>716.1994</ele>
        <time>2021-07-17T12:30:26Z</time>
      </trkpt>
      <trkpt lat="36.9462" lon="-3.54855">
        <ele>708.7422</ele>
        <time>2021-07-17T12:30:37Z</time>
      </trkpt>
      <trkpt lat="36.94463" lon="-3.54852">
        <ele>694.7674</ele>
        <time>2021-07-17T12:30:48Z</time>
      </trkpt>
      <trkpt lat="36.9428" lon="-3.54836">
        <ele>684.8111</ele>
        <time>2021-07-17T12:30:59Z</time>
      </trkpt>
      <trkpt lat="36.94096" lon="-3.54915">
        <ele>669.3896</ele>
        <time>2021-07-17T12:31:10Z</time>
      </trkpt>
      <trkpt lat="36.93978" lon="-3.55056">
        <ele>651.2246</ele>
        <time>2021-07-17T12:31:21Z</time>
      </trkpt>
      <trkpt lat="36.93831" lon="-3.55025">
        <ele>638.8914</ele>
        <time>2021-07-17T12:31:32Z</time>
      </trkpt>
      <trkpt lat="36.93632" lon="-3.5498">
        <ele>626.6301</ele>
        <time>2021-07-17T12:31:43Z</time>
      </trkpt>
      <trkpt lat="36.93417" lon="-3.54933">
        <ele>608.4218</ele>
        <time>2021-07-17T12:31:54Z</time>
      </trkpt>
      <trkpt lat="36.93205" lon="-3.54884">
        <ele>591.5879</ele>
        <time>2021-07-17T12:32:05Z</time>
      </trkpt>
      <trkpt lat="36.92984" lon="-3.54842">
        <ele>577.3283</ele>
        <time>2021-07-17T12:32:16Z</time>
      </trkpt>
      <trkpt lat="36.92912" lon="-3.54706">
        <ele>564.6087</ele>
        <time>2021-07-17T12:32:27Z</time>
      </trkpt>
      <trkpt lat="36.93046" lon="-3.54649">
        <ele>558.4375</ele>
        <time>2021-07-17T12:32:38Z</time>
      </trkpt>
      <trkpt lat="36.93062" lon="-3.54543">
        <ele>551.7841</ele>
        <time>2021-07-17T12:32:49Z</time>
      </trkpt>
      <trkpt lat="36.92953" lon="-3.54554">
        <ele>543.2027</ele>
        <time>2021-07-17T12:33:00Z</time>
      </trkpt>
      <trkpt lat="36.92835" lon="-3.54571">
        <ele>537.6003</ele>
        <time>2021-07-17T12:33:11Z</time>
      </trkpt>
      <trkpt lat="36.92733" lon="-3.54544">
        <ele>531.1892</ele>
        <time>2021-07-17T12:33:22Z</time>
      </trkpt>
      <trkpt lat="36.92721" lon="-3.54444">
        <ele>533.6901</ele>
        <time>2021-07-17T12:33:33Z</time>
      </trkpt>
      <trkpt lat="36.92729" lon="-3.54355">
        <ele>529.6435</ele>
        <time>2021-07-17T12:33:44Z</time>
      </trkpt>
      <trkpt lat="36.92732" lon="-3.54318">
        <ele>529.0152</ele>
        <time>2021-07-17T12:33:55Z</time>
      </trkpt>
      <trkpt lat="36.92736" lon="-3.54241">
        <ele>532.7008</ele>
        <time>2021-07-17T12:34:06Z</time>
      </trkpt>
      <trkpt lat="36.92729" lon="-3.54149">
        <ele>535.7974</ele>
        <time>2021-07-17T12:34:17Z</time>
      </trkpt>
      <trkpt lat="36.92718" lon="-3.54087">
        <ele>540.2138</ele>
        <time>2021-07-17T12:34:28Z</time>
      </trkpt>
      <trkpt lat="36.92715" lon="-3.53942">
        <ele>542.5973</ele>
        <time>2021-07-17T12:34:39Z</time>
      </trkpt>
      <trkpt lat="36.92725" lon="-3.53771">
        <ele>541.6802</ele>
        <time>2021-07-17T12:34:50Z</time>
      </trkpt>
      <trkpt lat="36.92702" lon="-3.53684">
        <ele>538.6113</ele>
        <time>2021-07-17T12:35:01Z</time>
      </trkpt>
      <trkpt lat="36.92607" lon="-3.5359">
        <ele>544.5376</ele>
        <time>2021-07-17T12:35:12Z</time>
      </trkpt>
      <trkpt lat="36.92479" lon="-3.53513">
        <ele>551.6067</ele>
        <time>2021-07-17T12:35:23Z</time>
      </trkpt>
      <trkpt lat="36.92395" lon="-3.5341">
        <ele>556.1628</ele>
        <time>2021-07-17T12:35:34Z</time>
      </trkpt>
      <trkpt lat="36.92406" lon="-3.53273">
        <ele>561.8578</ele>
        <time>2021-07-17T12:35:45Z</time>
      </trkpt>
      <trkpt lat="36.92364" lon="-3.53075">
        <ele>567.4705</ele>
        <time>2021-07-17T12:35:56Z</time>
      </trkpt>
      <trkpt lat="36.92269" lon="-3.52868">
        <ele>570.4457</ele>
        <time>2021-07-17T12:36:07Z</time>
      </trkpt>
      <trkpt lat="36.92211" lon="-3.52597">
        <ele>570.6433</ele>
        <time>2021-07-17T12:36:18Z</time>
      </trkpt>
      <trkpt lat="36.9212" lon="-3.52404">
        <ele>575.0783</ele>
        <time>2021-07-17T12:36:29Z</time>
      </trkpt>
      <trkpt lat="36.92012" lon="-3.5235">
        <ele>577.2765</ele>
        <time>2021-07-17T12:36:40Z</time>
      </trkpt>
      <trkpt lat="36.91883" lon="-3.52392">
        <ele>574.3266</ele>
        <time>2021-07-17T12:36:51Z</time>
      </trkpt>
      <trkpt lat="36.91917" lon="-3.52534">
        <ele>571.7583</ele>
        <time>2021-07-17T12:37:02Z</time>
      </trkpt>
      <trkpt lat="36.91801" lon="-3.5258">
        <ele>564.5269</ele>
        <time>2021-07-17T12:37:13Z</time>
      </trkpt>
      <trkpt lat="36.91701" lon="-3.52662">
        <ele>555.8651</ele>
        <time>2021-07-17T12:37:24Z</time>
      </trkpt>
      <trkpt lat="36.91779" lon="-3.52718">
        <ele>552.3134</ele>
        <time>2021-07-17T12:37:35Z</time>
      </trkpt>
      <trkpt lat="36.91776" lon="-3.52728">
        <ele>551.5485</ele>
        <time>2021-07-17T12:37:46Z</time>
      </trkpt>
      <trkpt lat="36.91666" lon="-3.52729">
        <ele>548.6599</ele>
        <time>2021-07-17T12:37:57Z</time>
      </trkpt>
      <trkpt lat="36.91531" lon="-3.52692">
        <ele>539.4293</ele>
        <time>2021-07-17T12:38:08Z</time>
      </trkpt>
      <trkpt lat="36.91613" lon="-3.52623">
        <ele>532.7429</ele>
        <time>2021-07-17T12:38:19Z</time>
      </trkpt>
      <trkpt lat="36.91477" lon="-3.52583">
        <ele>524.7435</ele>
        <time>2021-07-17T12:38:30Z</time>
      </trkpt>
      <trkpt lat="36.91321" lon="-3.52605">
        <ele>515.0185</ele>
        <time>2021-07-17T12:38:41Z</time>
      </trkpt>
      <trkpt lat="36.91137" lon="-3.52636">
        <ele>497.6487</ele>
        <time>2021-07-17T12:38:52Z</time>
      </trkpt>
      <trkpt lat="36.90953" lon="-3.52636">
        <ele>481.3524</ele>
        <time>2021-07-17T12:39:03Z</time>
      </trkpt>
      <trkpt lat="36.90874" lon="-3.52792">
        <ele>474.633</ele>
        <time>2021-07-17T12:39:14Z</time>
      </trkpt>
      <trkpt lat="36.90735" lon="-3.52789">
        <ele>462.8359</ele>
        <time>2021-07-17T12:39:25Z</time>
      </trkpt>
      <trkpt lat="36.9058" lon="-3.52861">
        <ele>454.0571</ele>
        <time>2021-07-17T12:39:36Z</time>
      </trkpt>
      <trkpt lat="36.90552" lon="-3.52775">
        <ele>437.7401</ele>
        <time>2021-07-17T12:39:47Z</time>
      </trkpt>
      <trkpt lat="36.90475" lon="-3.52666">
        <ele>431.9245</ele>
        <time>2021-07-17T12:39:58Z</time>
      </trkpt>
      <trkpt lat="36.90293" lon="-3.52659">
        <ele>430.0329</ele>
        <time>2021-07-17T12:40:09Z</time>
      </trkpt>
      <trkpt lat="36.90119" lon="-3.52597">
        <ele>424.7287</ele>
        <time>2021-07-17T12:40:20Z</time>
      </trkpt>
      <trkpt lat="36.9001" lon="-3.52515">
        <ele>418.2964</ele>
        <time>2021-07-17T12:40:31Z</time>
      </trkpt>
      <trkpt lat="36.89839" lon="-3.52362">
        <ele>409.079</ele>
        <time>2021-07-17T12:40:42Z</time>
      </trkpt>
      <trkpt lat="36.89673" lon="-3.52233">
        <ele>396.9808</ele>
        <time>2021-07-17T12:40:53Z</time>
      </trkpt>
      <trkpt lat="36.89618" lon="-3.52003">
        <ele>383.2097</ele>
        <time>2021-07-17T12:41:04Z</time>
      </trkpt>
      <trkpt lat="36.89651" lon="-3.51875">
        <ele>376.8582</ele>
        <time>2021-07-17T12:41:10Z</time>
      </trkpt>
      <trkpt lat="36.8978" lon="-3.51652">
        <ele>365.6306</ele>
        <time>2021-07-17T12:41:21Z</time>
      </trkpt>
      <trkpt lat="36.89866" lon="-3.51469">
        <ele>354.8461</ele>
        <time>2021-07-17T12:41:32Z</time>
      </trkpt>
      <trkpt lat="36.89872" lon="-3.51447">
        <ele>351.0283</ele>
        <time>2021-07-17T12:41:43Z</time>
      </trkpt>
      <trkpt lat="36.89871" lon="-3.51448">
        <ele>350.3075</ele>
        <time>2021-07-17T12:42:42Z</time>
      </trkpt>
      <trkpt lat="36.89872" lon="-3.51451">
        <ele>348.363</ele>
        <time>2021-07-17T12:43:41Z</time>
      </trkpt>
      <trkpt lat="36.89877" lon="-3.51443">
        <ele>348.3074</ele>
        <time>2021-07-17T12:44:16Z</time>
      </trkpt>
      <trkpt lat="36.89897" lon="-3.5124">
        <ele>341.7161</ele>
        <time>2021-07-17T12:44:27Z</time>
      </trkpt>
      <trkpt lat="36.89777" lon="-3.51035">
        <ele>329.543</ele>
        <time>2021-07-17T12:44:38Z</time>
      </trkpt>
      <trkpt lat="36.89565" lon="-3.50921">
        <ele>317.7446</ele>
        <time>2021-07-17T12:44:49Z</time>
      </trkpt>
      <trkpt lat="36.8935" lon="-3.50882">
        <ele>310.3033</ele>
        <time>2021-07-17T12:45:00Z</time>
      </trkpt>
      <trkpt lat="36.89166" lon="-3.50701">
        <ele>320.7984</ele>
        <time>2021-07-17T12:45:11Z</time>
      </trkpt>
      <trkpt lat="36.89025" lon="-3.50446">
        <ele>334.5306</ele>
        <time>2021-07-17T12:45:22Z</time>
      </trkpt>
      <trkpt lat="36.88839" lon="-3.50242">
        <ele>346.7594</ele>
        <time>2021-07-17T12:45:33Z</time>
      </trkpt>
      <trkpt lat="36.88636" lon="-3.50197">
        <ele>353.377</ele>
        <time>2021-07-17T12:45:44Z</time>
      </trkpt>
      <trkpt lat="36.88431" lon="-3.50202">
        <ele>361.9291</ele>
        <time>2021-07-17T12:45:55Z</time>
      </trkpt>
      <trkpt lat="36.88252" lon="-3.50009">
        <ele>369.3442</ele>
        <time>2021-07-17T12:46:06Z</time>
      </trkpt>
      <trkpt lat="36.88108" lon="-3.49758">
        <ele>371.9523</ele>
        <time>2021-07-17T12:46:17Z</time>
      </trkpt>
      <trkpt lat="36.87952" lon="-3.49521">
        <ele>368.4262</ele>
        <time>2021-07-17T12:46:28Z</time>
      </trkpt>
      <trkpt lat="36.87833" lon="-3.49232">
        <ele>359.0341</ele>
        <time>2021-07-17T12:46:39Z</time>
      </trkpt>
      <trkpt lat="36.87618" lon="-3.49087">
        <ele>348.431</ele>
        <time>2021-07-17T12:46:50Z</time>
      </trkpt>
      <trkpt lat="36.87368" lon="-3.49054">
        <ele>333.0743</ele>
        <time>2021-07-17T12:47:01Z</time>
      </trkpt>
      <trkpt lat="36.87149" lon="-3.4912">
        <ele>319.041</ele>
        <time>2021-07-17T12:47:12Z</time>
      </trkpt>
      <trkpt lat="36.86909" lon="-3.49199">
        <ele>303.852</ele>
        <time>2021-07-17T12:47:23Z</time>
      </trkpt>
      <trkpt lat="36.86664" lon="-3.49225">
        <ele>288.8183</ele>
        <time>2021-07-17T12:47:34Z</time>
      </trkpt>
      <trkpt lat="36.86452" lon="-3.49321">
        <ele>276.3135</ele>
        <time>2021-07-17T12:47:45Z</time>
      </trkpt>
      <trkpt lat="36.86326" lon="-3.49549">
        <ele>260.7468</ele>
        <time>2021-07-17T12:47:56Z</time>
      </trkpt>
      <trkpt lat="36.8619" lon="-3.49775">
        <ele>246.6774</ele>
        <time>2021-07-17T12:48:07Z</time>
      </trkpt>
      <trkpt lat="36.86013" lon="-3.49996">
        <ele>228.5286</ele>
        <time>2021-07-17T12:48:18Z</time>
      </trkpt>
      <trkpt lat="36.85798" lon="-3.50173">
        <ele>210.812</ele>
        <time>2021-07-17T12:48:29Z</time>
      </trkpt>
      <trkpt lat="36.85544" lon="-3.5021">
        <ele>196.3442</ele>
        <time>2021-07-17T12:48:40Z</time>
      </trkpt>
      <trkpt lat="36.85374" lon="-3.50425">
        <ele>179.5543</ele>
        <time>2021-07-17T12:48:51Z</time>
      </trkpt>
      <trkpt lat="36.85188" lon="-3.5057">
        <ele>167.3062</ele>
        <time>2021-07-17T12:49:02Z</time>
      </trkpt>
      <trkpt lat="36.85098" lon="-3.506">
        <ele>158.6804</ele>
        <time>2021-07-17T12:49:13Z</time>
      </trkpt>
      <trkpt lat="36.85028" lon="-3.5052">
        <ele>159.8654</ele>
        <time>2021-07-17T12:49:24Z</time>
      </trkpt>
      <trkpt lat="36.85123" lon="-3.50512">
        <ele>145.3963</ele>
        <time>2021-07-17T12:49:35Z</time>
      </trkpt>
      <trkpt lat="36.85221" lon="-3.50347">
        <ele>154.0609</ele>
        <time>2021-07-17T12:49:46Z</time>
      </trkpt>
      <trkpt lat="36.85202" lon="-3.50371">
        <ele>156.6711</ele>
        <time>2021-07-17T12:49:57Z</time>
      </trkpt>
      <trkpt lat="36.8507" lon="-3.50486">
        <ele>158.5308</ele>
        <time>2021-07-17T12:50:08Z</time>
      </trkpt>
      <trkpt lat="36.85007" lon="-3.5053">
        <ele>158.6346</ele>
        <time>2021-07-17T12:50:19Z</time>
      </trkpt>
      <trkpt lat="36.84949" lon="-3.50597">
        <ele>158.5612</ele>
        <time>2021-07-17T12:50:30Z</time>
      </trkpt>
      <trkpt lat="36.84946" lon="-3.506">
        <ele>157.5902</ele>
        <time>2021-07-17T12:50:41Z</time>
      </trkpt>
      <trkpt lat="36.84866" lon="-3.50624">
        <ele>160.8029</ele>
        <time>2021-07-17T12:50:52Z</time>
      </trkpt>
      <trkpt lat="36.84717" lon="-3.50713">
        <ele>164.197</ele>
        <time>2021-07-17T12:51:03Z</time>
      </trkpt>
      <trkpt lat="36.8462" lon="-3.50701">
        <ele>165.0778</ele>
        <time>2021-07-17T12:51:14Z</time>
      </trkpt>
      <trkpt lat="36.8459" lon="-3.5071">
        <ele>165.4915</ele>
        <time>2021-07-17T12:51:25Z</time>
      </trkpt>
      <trkpt lat="36.8459" lon="-3.50715">
        <ele>164.9468</ele>
        <time>2021-07-17T12:51:40Z</time>
      </trkpt>
      <trkpt lat="36.84595" lon="-3.50709">
        <ele>169.6446</ele>
        <time>2021-07-17T12:51:56Z</time>
      </trkpt>
      <trkpt lat="36.84735" lon="-3.50698">
        <ele>163.3535</ele>
        <time>2021-07-17T12:52:07Z</time>
      </trkpt>
      <trkpt lat="36.8487" lon="-3.50618">
        <ele>161.7275</ele>
        <time>2021-07-17T12:52:18Z</time>
      </trkpt>
      <trkpt lat="36.84987" lon="-3.50551">
        <ele>159.5177</ele>
        <time>2021-07-17T12:52:29Z</time>
      </trkpt>
      <trkpt lat="36.85057" lon="-3.5055">
        <ele>159.6226</ele>
        <time>2021-07-17T12:52:40Z</time>
      </trkpt>
      <trkpt lat="36.85124" lon="-3.50634">
        <ele>159.7029</ele>
        <time>2021-07-17T12:52:51Z</time>
      </trkpt>
      <trkpt lat="36.84965" lon="-3.50805">
        <ele>150.636</ele>
        <time>2021-07-17T12:53:02Z</time>
      </trkpt>
      <trkpt lat="36.84835" lon="-3.50884">
        <ele>145.3472</ele>
        <time>2021-07-17T12:53:13Z</time>
      </trkpt>
      <trkpt lat="36.84733" lon="-3.50929">
        <ele>146.3054</ele>
        <time>2021-07-17T12:53:24Z</time>
      </trkpt>
      <trkpt lat="36.84643" lon="-3.50979">
        <ele>142.7226</ele>
        <time>2021-07-17T12:53:35Z</time>
      </trkpt>
      <trkpt lat="36.84551" lon="-3.51031">
        <ele>138.4247</ele>
        <time>2021-07-17T12:53:46Z</time>
      </trkpt>
      <trkpt lat="36.84482" lon="-3.5109">
        <ele>140.3236</ele>
        <time>2021-07-17T12:53:57Z</time>
      </trkpt>
      <trkpt lat="36.84431" lon="-3.51152">
        <ele>136.8237</ele>
        <time>2021-07-17T12:54:08Z</time>
      </trkpt>
      <trkpt lat="36.84388" lon="-3.51198">
        <ele>137.3342</ele>
        <time>2021-07-17T12:54:19Z</time>
      </trkpt>
      <trkpt lat="36.84387" lon="-3.51193">
        <ele>138.7252</ele>
        <time>2021-07-17T12:55:05Z</time>
      </trkpt>
      <trkpt lat="36.8439" lon="-3.51187">
        <ele>137.8114</ele>
        <time>2021-07-17T12:55:16Z</time>
      </trkpt>
      <trkpt lat="36.84388" lon="-3.51189">
        <ele>134.2897</ele>
        <time>2021-07-17T12:56:15Z</time>
      </trkpt>
      <trkpt lat="36.84385" lon="-3.51187">
        <ele>134.1017</ele>
        <time>2021-07-17T12:56:26Z</time>
      </trkpt>
      <trkpt lat="36.8438" lon="-3.51185">
        <ele>133.5703</ele>
        <time>2021-07-17T12:56:37Z</time>
      </trkpt>
      <trkpt lat="36.8438" lon="-3.51189">
        <ele>133.5665</ele>
        <time>2021-07-17T12:56:50Z</time>
      </trkpt>
      <trkpt lat="36.84385" lon="-3.51188">
        <ele>133.1083</ele>
        <time>2021-07-17T12:57:03Z</time>
      </trkpt>
      <trkpt lat="36.84392" lon="-3.5118">
        <ele>133.7207</ele>
        <time>2021-07-17T12:57:14Z</time>
      </trkpt>
      <trkpt lat="36.844" lon="-3.5118">
        <ele>132.4046</ele>
        <time>2021-07-17T12:57:25Z</time>
      </trkpt>
      <trkpt lat="36.84395" lon="-3.51182">
        <ele>131.3326</ele>
        <time>2021-07-17T12:57:40Z</time>
      </trkpt>
      <trkpt lat="36.84389" lon="-3.51184">
        <ele>133.1054</ele>
        <time>2021-07-17T12:57:51Z</time>
      </trkpt>
      <trkpt lat="36.84387" lon="-3.51187">
        <ele>133.9513</ele>
        <time>2021-07-17T12:58:15Z</time>
      </trkpt>
      <trkpt lat="36.84386" lon="-3.5119">
        <ele>135.2034</ele>
        <time>2021-07-17T12:59:14Z</time>
      </trkpt>
      <trkpt lat="36.84387" lon="-3.51186">
        <ele>134.1169</ele>
        <time>2021-07-17T12:59:40Z</time>
      </trkpt>
      <trkpt lat="36.84383" lon="-3.51185">
        <ele>133.6864</ele>
        <time>2021-07-17T13:00:09Z</time>
      </trkpt>
      <trkpt lat="36.84387" lon="-3.51187">
        <ele>133.6028</ele>
        <time>2021-07-17T13:00:57Z</time>
      </trkpt>
      <trkpt lat="36.84386" lon="-3.51187">
        <ele>134.369</ele>
        <time>2021-07-17T13:01:57Z</time>
      </trkpt>
      <trkpt lat="36.84386" lon="-3.51187">
        <ele>134.369</ele>
        <time>2021-07-17T13:02:57Z</time>
      </trkpt>
      <trkpt lat="36.84386" lon="-3.51187">
        <ele>134.369</ele>
        <time>2021-07-17T13:03:57Z</time>
      </trkpt>
      <trkpt lat="36.84386" lon="-3.51187">
        <ele>134.369</ele>
        <time>2021-07-17T13:04:57Z</time>
      </trkpt>
      <trkpt lat="36.84386" lon="-3.51187">
        <ele>134.369</ele>
        <time>2021-07-17T13:05:57Z</time>
      </trkpt>
      <trkpt lat="36.84386" lon="-3.51187">
        <ele>134.369</ele>
        <time>2021-07-17T13:06:57Z</time>
      </trkpt>
      <trkpt lat="36.84386" lon="-3.51187">
        <ele>134.369</ele>
        <time>2021-07-17T13:07:57Z</time>
      </trkpt>
      <trkpt lat="36.84386" lon="-3.51187">
        <ele>134.369</ele>
        <time>2021-07-17T13:08:57Z</time>
      </trkpt>
      <trkpt lat="36.84385" lon="-3.51185">
        <ele>132.6455</ele>
        <time>2021-07-17T13:09:57Z</time>
      </trkpt>
      <trkpt lat="36.84385" lon="-3.51185">
        <ele>132.6455</ele>
        <time>2021-07-17T13:10:57Z</time>
      </trkpt>
      <trkpt lat="36.84385" lon="-3.51185">
        <ele>132.6455</ele>
        <time>2021-07-17T13:11:57Z</time>
      </trkpt>
      <trkpt lat="36.84385" lon="-3.51185">
        <ele>132.6455</ele>
        <time>2021-07-17T13:12:56Z</time>
      </trkpt>
      <trkpt lat="36.84385" lon="-3.51185">
        <ele>132.6455</ele>
        <time>2021-07-17T13:13:56Z</time>
      </trkpt>
      <trkpt lat="36.84385" lon="-3.51185">
        <ele>132.6455</ele>
        <time>2021-07-17T13:14:55Z</time>
      </trkpt>
      <trkpt lat="36.84385" lon="-3.51185">
        <ele>132.6455</ele>
        <time>2021-07-17T13:15:54Z</time>
      </trkpt>
      <trkpt lat="36.84385" lon="-3.51185">
        <ele>132.6455</ele>
        <time>2021-07-17T13:16:53Z</time>
      </trkpt>
      <trkpt lat="36.84385" lon="-3.51185">
        <ele>132.6455</ele>
        <time>2021-07-17T13:17:52Z</time>
      </trkpt>
      <trkpt lat="36.84385" lon="-3.51185">
        <ele>132.6455</ele>
        <time>2021-07-17T13:18:51Z</time>
      </trkpt>
      <trkpt lat="36.84385" lon="-3.51185">
        <ele>132.6455</ele>
        <time>2021-07-17T13:19:50Z</time>
      </trkpt>
      <trkpt lat="36.84385" lon="-3.51185">
        <ele>132.6455</ele>
        <time>2021-07-17T13:20:49Z</time>
      </trkpt>
      <trkpt lat="36.84385" lon="-3.51185">
        <ele>132.6455</ele>
        <time>2021-07-17T13:21:48Z</time>
      </trkpt>
      <trkpt lat="36.84385" lon="-3.51185">
        <ele>132.6455</ele>
        <time>2021-07-17T13:22:47Z</time>
      </trkpt>
      <trkpt lat="36.84385" lon="-3.51185">
        <ele>132.6455</ele>
        <time>2021-07-17T13:23:46Z</time>
      </trkpt>
      <trkpt lat="36.84385" lon="-3.51185">
        <ele>132.6455</ele>
        <time>2021-07-17T13:24:45Z</time>
      </trkpt>
      <trkpt lat="36.84385" lon="-3.51185">
        <ele>132.6455</ele>
        <time>2021-07-17T13:25:44Z</time>
      </trkpt>
      <trkpt lat="36.84385" lon="-3.51185">
        <ele>132.6455</ele>
        <time>2021-07-17T13:26:43Z</time>
      </trkpt>
      <trkpt lat="36.84385" lon="-3.51185">
        <ele>132.6455</ele>
        <time>2021-07-17T13:27:42Z</time>
      </trkpt>
      <trkpt lat="36.84385" lon="-3.51185">
        <ele>132.6455</ele>
        <time>2021-07-17T13:28:41Z</time>
      </trkpt>
      <trkpt lat="36.84385" lon="-3.51185">
        <ele>132.6455</ele>
        <time>2021-07-17T13:29:40Z</time>
      </trkpt>
      <trkpt lat="36.84381" lon="-3.51181">
        <ele>133.6001</ele>
        <time>2021-07-17T13:29:59Z</time>
      </trkpt>
      <trkpt lat="36.84384" lon="-3.51184">
        <ele>133.4641</ele>
        <time>2021-07-17T13:30:13Z</time>
      </trkpt>
      <trkpt lat="36.84388" lon="-3.51184">
        <ele>134.0962</ele>
        <time>2021-07-17T13:30:29Z</time>
      </trkpt>
      <trkpt lat="36.84384" lon="-3.51182">
        <ele>133.2108</ele>
        <time>2021-07-17T13:31:07Z</time>
      </trkpt>
      <trkpt lat="36.84385" lon="-3.51179">
        <ele>136.6429</ele>
        <time>2021-07-17T13:43:05Z</time>
      </trkpt>
      <trkpt lat="36.84386" lon="-3.51189">
        <ele>134.709</ele>
        <time>2021-07-17T13:43:16Z</time>
      </trkpt>
      <trkpt lat="36.84389" lon="-3.51186">
        <ele>134.7724</ele>
        <time>2021-07-17T13:44:15Z</time>
      </trkpt>
      <trkpt lat="36.84385" lon="-3.51187">
        <ele>135.0631</ele>
        <time>2021-07-17T13:45:08Z</time>
      </trkpt>
      <trkpt lat="36.84385" lon="-3.51198">
        <ele>135.7739</ele>
        <time>2021-07-17T13:45:19Z</time>
      </trkpt>
      <trkpt lat="36.84397" lon="-3.512">
        <ele>135.6638</ele>
        <time>2021-07-17T13:45:30Z</time>
      </trkpt>
      <trkpt lat="36.84413" lon="-3.51179">
        <ele>137.4818</ele>
        <time>2021-07-17T13:45:41Z</time>
      </trkpt>
      <trkpt lat="36.84485" lon="-3.51083">
        <ele>139.1076</ele>
        <time>2021-07-17T13:45:52Z</time>
      </trkpt>
      <trkpt lat="36.84554" lon="-3.51022">
        <ele>136.8179</ele>
        <time>2021-07-17T13:46:03Z</time>
      </trkpt>
      <trkpt lat="36.84631" lon="-3.50979">
        <ele>138.1995</ele>
        <time>2021-07-17T13:46:14Z</time>
      </trkpt>
      <trkpt lat="36.84676" lon="-3.50953">
        <ele>144.7266</ele>
        <time>2021-07-17T13:46:25Z</time>
      </trkpt>
      <trkpt lat="36.84715" lon="-3.50939">
        <ele>146.5259</ele>
        <time>2021-07-17T13:46:36Z</time>
      </trkpt>
      <trkpt lat="36.8477" lon="-3.50899">
        <ele>148.4656</ele>
        <time>2021-07-17T13:46:47Z</time>
      </trkpt>
      <trkpt lat="36.84878" lon="-3.50861">
        <ele>149.3572</ele>
        <time>2021-07-17T13:46:58Z</time>
      </trkpt>
      <trkpt lat="36.8503" lon="-3.50726">
        <ele>154.4845</ele>
        <time>2021-07-17T13:47:09Z</time>
      </trkpt>
      <trkpt lat="36.8511" lon="-3.50617">
        <ele>160.3508</ele>
        <time>2021-07-17T13:47:20Z</time>
      </trkpt>
      <trkpt lat="36.85024" lon="-3.50493">
        <ele>157.7003</ele>
        <time>2021-07-17T13:47:31Z</time>
      </trkpt>
      <trkpt lat="36.85129" lon="-3.50316">
        <ele>174.809</ele>
        <time>2021-07-17T13:47:42Z</time>
      </trkpt>
      <trkpt lat="36.8523" lon="-3.50147">
        <ele>187.4259</ele>
        <time>2021-07-17T13:47:53Z</time>
      </trkpt>
      <trkpt lat="36.85282" lon="-3.49941">
        <ele>202.6947</ele>
        <time>2021-07-17T13:48:04Z</time>
      </trkpt>
      <trkpt lat="36.85419" lon="-3.49905">
        <ele>214.4909</ele>
        <time>2021-07-17T13:48:15Z</time>
      </trkpt>
      <trkpt lat="36.8559" lon="-3.49794">
        <ele>226.7807</ele>
        <time>2021-07-17T13:48:26Z</time>
      </trkpt>
      <trkpt lat="36.85712" lon="-3.49648">
        <ele>245.0768</ele>
        <time>2021-07-17T13:48:37Z</time>
      </trkpt>
      <trkpt lat="36.85681" lon="-3.49446">
        <ele>253.0556</ele>
        <time>2021-07-17T13:48:48Z</time>
      </trkpt>
      <trkpt lat="36.85643" lon="-3.49267">
        <ele>260.7024</ele>
        <time>2021-07-17T13:48:59Z</time>
      </trkpt>
      <trkpt lat="36.8571" lon="-3.4915">
        <ele>268.2815</ele>
        <time>2021-07-17T13:49:10Z</time>
      </trkpt>
      <trkpt lat="36.85817" lon="-3.49032">
        <ele>266.5369</ele>
        <time>2021-07-17T13:49:21Z</time>
      </trkpt>
      <trkpt lat="36.85889" lon="-3.48796">
        <ele>268.2457</ele>
        <time>2021-07-17T13:49:32Z</time>
      </trkpt>
      <trkpt lat="36.86076" lon="-3.48762">
        <ele>259.1848</ele>
        <time>2021-07-17T13:49:43Z</time>
      </trkpt>
      <trkpt lat="36.86124" lon="-3.4858">
        <ele>265.8024</ele>
        <time>2021-07-17T13:49:54Z</time>
      </trkpt>
      <trkpt lat="36.86196" lon="-3.48605">
        <ele>271.5616</ele>
        <time>2021-07-17T13:50:05Z</time>
      </trkpt>
      <trkpt lat="36.86314" lon="-3.48601">
        <ele>276.7598</ele>
        <time>2021-07-17T13:50:16Z</time>
      </trkpt>
      <trkpt lat="36.86432" lon="-3.48462">
        <ele>286.3313</ele>
        <time>2021-07-17T13:50:27Z</time>
      </trkpt>
      <trkpt lat="36.86504" lon="-3.48409">
        <ele>290.0906</ele>
        <time>2021-07-17T13:50:38Z</time>
      </trkpt>
      <trkpt lat="36.86513" lon="-3.48417">
        <ele>291.3762</ele>
        <time>2021-07-17T13:50:55Z</time>
      </trkpt>
      <trkpt lat="36.86511" lon="-3.48416">
        <ele>284.4747</ele>
        <time>2021-07-17T13:51:54Z</time>
      </trkpt>
      <trkpt lat="36.86513" lon="-3.48412">
        <ele>286.1727</ele>
        <time>2021-07-17T13:52:46Z</time>
      </trkpt>
      <trkpt lat="36.86513" lon="-3.48406">
        <ele>287.0519</ele>
        <time>2021-07-17T13:52:57Z</time>
      </trkpt>
      <trkpt lat="36.8661" lon="-3.48293">
        <ele>285.7977</ele>
        <time>2021-07-17T13:53:08Z</time>
      </trkpt>
      <trkpt lat="36.86771" lon="-3.48224">
        <ele>294.9542</ele>
        <time>2021-07-17T13:53:19Z</time>
      </trkpt>
      <trkpt lat="36.86822" lon="-3.48081">
        <ele>294.3585</ele>
        <time>2021-07-17T13:53:30Z</time>
      </trkpt>
      <trkpt lat="36.86733" lon="-3.47861">
        <ele>313.5164</ele>
        <time>2021-07-17T13:53:41Z</time>
      </trkpt>
      <trkpt lat="36.86735" lon="-3.47677">
        <ele>321.911</ele>
        <time>2021-07-17T13:53:52Z</time>
      </trkpt>
      <trkpt lat="36.86899" lon="-3.47746">
        <ele>334.1743</ele>
        <time>2021-07-17T13:54:03Z</time>
      </trkpt>
      <trkpt lat="36.87032" lon="-3.47709">
        <ele>344.8121</ele>
        <time>2021-07-17T13:54:14Z</time>
      </trkpt>
      <trkpt lat="36.8707" lon="-3.47612">
        <ele>355.3586</ele>
        <time>2021-07-17T13:54:25Z</time>
      </trkpt>
      <trkpt lat="36.87078" lon="-3.47615">
        <ele>357.2445</ele>
        <time>2021-07-17T13:54:36Z</time>
      </trkpt>
      <trkpt lat="36.87077" lon="-3.47623">
        <ele>358.1763</ele>
        <time>2021-07-17T13:55:17Z</time>
      </trkpt>
      <trkpt lat="36.87087" lon="-3.47622">
        <ele>360.4134</ele>
        <time>2021-07-17T13:55:28Z</time>
      </trkpt>
      <trkpt lat="36.87225" lon="-3.47561">
        <ele>370.4564</ele>
        <time>2021-07-17T13:55:39Z</time>
      </trkpt>
      <trkpt lat="36.8723" lon="-3.47401">
        <ele>379.1444</ele>
        <time>2021-07-17T13:55:50Z</time>
      </trkpt>
      <trkpt lat="36.8724" lon="-3.47207">
        <ele>387.7097</ele>
        <time>2021-07-17T13:56:01Z</time>
      </trkpt>
      <trkpt lat="36.8717" lon="-3.47078">
        <ele>392.2732</ele>
        <time>2021-07-17T13:56:12Z</time>
      </trkpt>
      <trkpt lat="36.87148" lon="-3.46891">
        <ele>391.6311</ele>
        <time>2021-07-17T13:56:23Z</time>
      </trkpt>
      <trkpt lat="36.87152" lon="-3.46629">
        <ele>394.177</ele>
        <time>2021-07-17T13:56:34Z</time>
      </trkpt>
      <trkpt lat="36.87158" lon="-3.46351">
        <ele>392.0076</ele>
        <time>2021-07-17T13:56:45Z</time>
      </trkpt>
      <trkpt lat="36.87189" lon="-3.46122">
        <ele>384.4018</ele>
        <time>2021-07-17T13:56:56Z</time>
      </trkpt>
      <trkpt lat="36.87261" lon="-3.45906">
        <ele>394.1976</ele>
        <time>2021-07-17T13:57:07Z</time>
      </trkpt>
      <trkpt lat="36.87316" lon="-3.4567">
        <ele>383.0124</ele>
        <time>2021-07-17T13:57:18Z</time>
      </trkpt>
      <trkpt lat="36.87318" lon="-3.45438">
        <ele>374.6356</ele>
        <time>2021-07-17T13:57:29Z</time>
      </trkpt>
      <trkpt lat="36.87459" lon="-3.45438">
        <ele>368.1694</ele>
        <time>2021-07-17T13:57:40Z</time>
      </trkpt>
      <trkpt lat="36.87469" lon="-3.4523">
        <ele>357.0329</ele>
        <time>2021-07-17T13:57:51Z</time>
      </trkpt>
      <trkpt lat="36.8754" lon="-3.4498">
        <ele>337.2354</ele>
        <time>2021-07-17T13:58:02Z</time>
      </trkpt>
      <trkpt lat="36.8752" lon="-3.44745">
        <ele>334.1396</ele>
        <time>2021-07-17T13:58:13Z</time>
      </trkpt>
      <trkpt lat="36.87511" lon="-3.44496">
        <ele>329.6525</ele>
        <time>2021-07-17T13:58:24Z</time>
      </trkpt>
      <trkpt lat="36.8746" lon="-3.44247">
        <ele>323.8306</ele>
        <time>2021-07-17T13:58:35Z</time>
      </trkpt>
      <trkpt lat="36.87366" lon="-3.44071">
        <ele>327.1463</ele>
        <time>2021-07-17T13:58:46Z</time>
      </trkpt>
      <trkpt lat="36.87223" lon="-3.43976">
        <ele>331.1628</ele>
        <time>2021-07-17T13:58:57Z</time>
      </trkpt>
      <trkpt lat="36.87382" lon="-3.43906">
        <ele>336.7514</ele>
        <time>2021-07-17T13:59:08Z</time>
      </trkpt>
      <trkpt lat="36.87512" lon="-3.43817">
        <ele>346.0261</ele>
        <time>2021-07-17T13:59:19Z</time>
      </trkpt>
      <trkpt lat="36.87514" lon="-3.43641">
        <ele>354.1136</ele>
        <time>2021-07-17T13:59:30Z</time>
      </trkpt>
      <trkpt lat="36.87427" lon="-3.4341">
        <ele>361.5145</ele>
        <time>2021-07-17T13:59:41Z</time>
      </trkpt>
      <trkpt lat="36.87572" lon="-3.43405">
        <ele>370.0564</ele>
        <time>2021-07-17T13:59:52Z</time>
      </trkpt>
      <trkpt lat="36.87703" lon="-3.43308">
        <ele>389.2081</ele>
        <time>2021-07-17T14:00:03Z</time>
      </trkpt>
      <trkpt lat="36.87755" lon="-3.43123">
        <ele>392.9411</ele>
        <time>2021-07-17T14:00:14Z</time>
      </trkpt>
      <trkpt lat="36.87908" lon="-3.43092">
        <ele>389.549</ele>
        <time>2021-07-17T14:00:25Z</time>
      </trkpt>
      <trkpt lat="36.87908" lon="-3.4284">
        <ele>380.2322</ele>
        <time>2021-07-17T14:00:36Z</time>
      </trkpt>
      <trkpt lat="36.8788" lon="-3.42616">
        <ele>374.3738</ele>
        <time>2021-07-17T14:00:47Z</time>
      </trkpt>
      <trkpt lat="36.87917" lon="-3.42478">
        <ele>370.7285</ele>
        <time>2021-07-17T14:00:58Z</time>
      </trkpt>
      <trkpt lat="36.87897" lon="-3.42275">
        <ele>358.8148</ele>
        <time>2021-07-17T14:01:09Z</time>
      </trkpt>
      <trkpt lat="36.87993" lon="-3.42057">
        <ele>358.0626</ele>
        <time>2021-07-17T14:01:20Z</time>
      </trkpt>
      <trkpt lat="36.87959" lon="-3.41854">
        <ele>344.9759</ele>
        <time>2021-07-17T14:01:31Z</time>
      </trkpt>
      <trkpt lat="36.87978" lon="-3.41628">
        <ele>328.4188</ele>
        <time>2021-07-17T14:01:42Z</time>
      </trkpt>
      <trkpt lat="36.88148" lon="-3.41665">
        <ele>312.5314</ele>
        <time>2021-07-17T14:01:53Z</time>
      </trkpt>
      <trkpt lat="36.88299" lon="-3.41813">
        <ele>310.067</ele>
        <time>2021-07-17T14:02:04Z</time>
      </trkpt>
      <trkpt lat="36.88349" lon="-3.41678">
        <ele>321.8984</ele>
        <time>2021-07-17T14:02:15Z</time>
      </trkpt>
      <trkpt lat="36.8835" lon="-3.41511">
        <ele>320.0278</ele>
        <time>2021-07-17T14:02:26Z</time>
      </trkpt>
      <trkpt lat="36.88466" lon="-3.41556">
        <ele>317.9316</ele>
        <time>2021-07-17T14:02:37Z</time>
      </trkpt>
      <trkpt lat="36.886" lon="-3.41685">
        <ele>327.5036</ele>
        <time>2021-07-17T14:02:48Z</time>
      </trkpt>
      <trkpt lat="36.88745" lon="-3.41818">
        <ele>337.9205</ele>
        <time>2021-07-17T14:02:59Z</time>
      </trkpt>
      <trkpt lat="36.88876" lon="-3.41839">
        <ele>349.1395</ele>
        <time>2021-07-17T14:03:10Z</time>
      </trkpt>
      <trkpt lat="36.89014" lon="-3.41909">
        <ele>360.3027</ele>
        <time>2021-07-17T14:03:21Z</time>
      </trkpt>
      <trkpt lat="36.89146" lon="-3.42005">
        <ele>370.9675</ele>
        <time>2021-07-17T14:03:32Z</time>
      </trkpt>
      <trkpt lat="36.89239" lon="-3.41977">
        <ele>379.9636</ele>
        <time>2021-07-17T14:03:43Z</time>
      </trkpt>
      <trkpt lat="36.89316" lon="-3.42091">
        <ele>387.2425</ele>
        <time>2021-07-17T14:03:54Z</time>
      </trkpt>
      <trkpt lat="36.89399" lon="-3.42118">
        <ele>393.6423</ele>
        <time>2021-07-17T14:04:05Z</time>
      </trkpt>
      <trkpt lat="36.89497" lon="-3.42247">
        <ele>403.3263</ele>
        <time>2021-07-17T14:04:16Z</time>
      </trkpt>
      <trkpt lat="36.89629" lon="-3.42273">
        <ele>413.5145</ele>
        <time>2021-07-17T14:04:27Z</time>
      </trkpt>
      <trkpt lat="36.89737" lon="-3.42217">
        <ele>420.7637</ele>
        <time>2021-07-17T14:04:38Z</time>
      </trkpt>
      <trkpt lat="36.89816" lon="-3.42153">
        <ele>429.0371</ele>
        <time>2021-07-17T14:04:49Z</time>
      </trkpt>
      <trkpt lat="36.89892" lon="-3.4213">
        <ele>436.3211</ele>
        <time>2021-07-17T14:05:00Z</time>
      </trkpt>
      <trkpt lat="36.89896" lon="-3.42221">
        <ele>443.9526</ele>
        <time>2021-07-17T14:05:11Z</time>
      </trkpt>
      <trkpt lat="36.89895" lon="-3.42243">
        <ele>449.1056</ele>
        <time>2021-07-17T14:05:22Z</time>
      </trkpt>
      <trkpt lat="36.89894" lon="-3.42249">
        <ele>458.7316</ele>
        <time>2021-07-17T14:05:48Z</time>
      </trkpt>
      <trkpt lat="36.89904" lon="-3.42302">
        <ele>458.3821</ele>
        <time>2021-07-17T14:05:59Z</time>
      </trkpt>
      <trkpt lat="36.89962" lon="-3.42332">
        <ele>459.1172</ele>
        <time>2021-07-17T14:06:10Z</time>
      </trkpt>
      <trkpt lat="36.89997" lon="-3.42352">
        <ele>454.6503</ele>
        <time>2021-07-17T14:06:21Z</time>
      </trkpt>
      <trkpt lat="36.9" lon="-3.42354">
        <ele>454.4319</ele>
        <time>2021-07-17T14:06:33Z</time>
      </trkpt>
      <trkpt lat="36.90005" lon="-3.42357">
        <ele>454.6241</ele>
        <time>2021-07-17T14:06:48Z</time>
      </trkpt>
      <trkpt lat="36.90055" lon="-3.4238">
        <ele>456.0766</ele>
        <time>2021-07-17T14:06:59Z</time>
      </trkpt>
      <trkpt lat="36.90065" lon="-3.42449">
        <ele>458.4673</ele>
        <time>2021-07-17T14:07:10Z</time>
      </trkpt>
      <trkpt lat="36.90065" lon="-3.42534">
        <ele>460.9199</ele>
        <time>2021-07-17T14:07:21Z</time>
      </trkpt>
      <trkpt lat="36.90097" lon="-3.42543">
        <ele>461.2667</ele>
        <time>2021-07-17T14:07:32Z</time>
      </trkpt>
      <trkpt lat="36.90166" lon="-3.42561">
        <ele>458.0806</ele>
        <time>2021-07-17T14:07:43Z</time>
      </trkpt>
      <trkpt lat="36.90224" lon="-3.4265">
        <ele>455.0583</ele>
        <time>2021-07-17T14:07:54Z</time>
      </trkpt>
      <trkpt lat="36.90225" lon="-3.42769">
        <ele>455.3018</ele>
        <time>2021-07-17T14:08:05Z</time>
      </trkpt>
      <trkpt lat="36.90113" lon="-3.4282">
        <ele>461.888</ele>
        <time>2021-07-17T14:08:16Z</time>
      </trkpt>
      <trkpt lat="36.9018" lon="-3.42816">
        <ele>470.375</ele>
        <time>2021-07-17T14:08:27Z</time>
      </trkpt>
      <trkpt lat="36.90389" lon="-3.42805">
        <ele>483.6702</ele>
        <time>2021-07-17T14:08:38Z</time>
      </trkpt>
      <trkpt lat="36.90593" lon="-3.42778">
        <ele>496.8809</ele>
        <time>2021-07-17T14:08:49Z</time>
      </trkpt>
      <trkpt lat="36.90692" lon="-3.42782">
        <ele>502.2162</ele>
        <time>2021-07-17T14:09:00Z</time>
      </trkpt>
      <trkpt lat="36.90624" lon="-3.42836">
        <ele>508.1268</ele>
        <time>2021-07-17T14:09:11Z</time>
      </trkpt>
      <trkpt lat="36.90583" lon="-3.42882">
        <ele>513.959</ele>
        <time>2021-07-17T14:09:22Z</time>
      </trkpt>
      <trkpt lat="36.90698" lon="-3.42929">
        <ele>521.6942</ele>
        <time>2021-07-17T14:09:33Z</time>
      </trkpt>
      <trkpt lat="36.90813" lon="-3.43013">
        <ele>531.3687</ele>
        <time>2021-07-17T14:09:44Z</time>
      </trkpt>
      <trkpt lat="36.90889" lon="-3.43104">
        <ele>538.7579</ele>
        <time>2021-07-17T14:09:55Z</time>
      </trkpt>
      <trkpt lat="36.91008" lon="-3.43063">
        <ele>547.2923</ele>
        <time>2021-07-17T14:10:06Z</time>
      </trkpt>
      <trkpt lat="36.91124" lon="-3.42926">
        <ele>562.4316</ele>
        <time>2021-07-17T14:10:17Z</time>
      </trkpt>
      <trkpt lat="36.91236" lon="-3.42746">
        <ele>570.1452</ele>
        <time>2021-07-17T14:10:28Z</time>
      </trkpt>
      <trkpt lat="36.91299" lon="-3.42698">
        <ele>583.0134</ele>
        <time>2021-07-17T14:10:39Z</time>
      </trkpt>
      <trkpt lat="36.91221" lon="-3.42896">
        <ele>596.0847</ele>
        <time>2021-07-17T14:10:50Z</time>
      </trkpt>
      <trkpt lat="36.91173" lon="-3.4305">
        <ele>606.2913</ele>
        <time>2021-07-17T14:11:01Z</time>
      </trkpt>
      <trkpt lat="36.91147" lon="-3.43226">
        <ele>614.158</ele>
        <time>2021-07-17T14:11:12Z</time>
      </trkpt>
      <trkpt lat="36.91178" lon="-3.43256">
        <ele>622.5219</ele>
        <time>2021-07-17T14:11:23Z</time>
      </trkpt>
      <trkpt lat="36.91233" lon="-3.43051">
        <ele>635.1866</ele>
        <time>2021-07-17T14:11:34Z</time>
      </trkpt>
      <trkpt lat="36.91302" lon="-3.42924">
        <ele>645.6829</ele>
        <time>2021-07-17T14:11:45Z</time>
      </trkpt>
      <trkpt lat="36.91454" lon="-3.42866">
        <ele>658.9483</ele>
        <time>2021-07-17T14:11:56Z</time>
      </trkpt>
      <trkpt lat="36.91543" lon="-3.42767">
        <ele>669.7297</ele>
        <time>2021-07-17T14:12:07Z</time>
      </trkpt>
      <trkpt lat="36.91691" lon="-3.42728">
        <ele>678.633</ele>
        <time>2021-07-17T14:12:18Z</time>
      </trkpt>
      <trkpt lat="36.91784" lon="-3.42513">
        <ele>684.5438</ele>
        <time>2021-07-17T14:12:29Z</time>
      </trkpt>
      <trkpt lat="36.91931" lon="-3.42347">
        <ele>692.1458</ele>
        <time>2021-07-17T14:12:40Z</time>
      </trkpt>
      <trkpt lat="36.91892" lon="-3.42216">
        <ele>697.8184</ele>
        <time>2021-07-17T14:12:51Z</time>
      </trkpt>
      <trkpt lat="36.91926" lon="-3.4206">
        <ele>705.7544</ele>
        <time>2021-07-17T14:13:02Z</time>
      </trkpt>
      <trkpt lat="36.91996" lon="-3.41958">
        <ele>708.5762</ele>
        <time>2021-07-17T14:13:13Z</time>
      </trkpt>
      <trkpt lat="36.92153" lon="-3.42044">
        <ele>718.0771</ele>
        <time>2021-07-17T14:13:24Z</time>
      </trkpt>
      <trkpt lat="36.92193" lon="-3.4192">
        <ele>721.3344</ele>
        <time>2021-07-17T14:13:35Z</time>
      </trkpt>
      <trkpt lat="36.92226" lon="-3.41697">
        <ele>727.2525</ele>
        <time>2021-07-17T14:13:46Z</time>
      </trkpt>
      <trkpt lat="36.92347" lon="-3.41519">
        <ele>736.3645</ele>
        <time>2021-07-17T14:13:57Z</time>
      </trkpt>
      <trkpt lat="36.92503" lon="-3.41538">
        <ele>743.7408</ele>
        <time>2021-07-17T14:14:08Z</time>
      </trkpt>
      <trkpt lat="36.92651" lon="-3.41543">
        <ele>747.2331</ele>
        <time>2021-07-17T14:14:19Z</time>
      </trkpt>
      <trkpt lat="36.92638" lon="-3.41374">
        <ele>754.4653</ele>
        <time>2021-07-17T14:14:30Z</time>
      </trkpt>
      <trkpt lat="36.9258" lon="-3.41269">
        <ele>764.7983</ele>
        <time>2021-07-17T14:14:41Z</time>
      </trkpt>
      <trkpt lat="36.92594" lon="-3.41106">
        <ele>775.6349</ele>
        <time>2021-07-17T14:14:52Z</time>
      </trkpt>
      <trkpt lat="36.92496" lon="-3.41083">
        <ele>788.421</ele>
        <time>2021-07-17T14:15:03Z</time>
      </trkpt>
      <trkpt lat="36.92422" lon="-3.40925">
        <ele>800.0966</ele>
        <time>2021-07-17T14:15:14Z</time>
      </trkpt>
      <trkpt lat="36.92486" lon="-3.40767">
        <ele>808.721</ele>
        <time>2021-07-17T14:15:25Z</time>
      </trkpt>
      <trkpt lat="36.92554" lon="-3.40582">
        <ele>822.4562</ele>
        <time>2021-07-17T14:15:36Z</time>
      </trkpt>
      <trkpt lat="36.92588" lon="-3.40406">
        <ele>835.4467</ele>
        <time>2021-07-17T14:15:47Z</time>
      </trkpt>
      <trkpt lat="36.92515" lon="-3.40277">
        <ele>843.7273</ele>
        <time>2021-07-17T14:15:58Z</time>
      </trkpt>
      <trkpt lat="36.92498" lon="-3.4006">
        <ele>854.1369</ele>
        <time>2021-07-17T14:16:09Z</time>
      </trkpt>
      <trkpt lat="36.92448" lon="-3.39852">
        <ele>865.5516</ele>
        <time>2021-07-17T14:16:20Z</time>
      </trkpt>
      <trkpt lat="36.92326" lon="-3.39779">
        <ele>873.1619</ele>
        <time>2021-07-17T14:16:31Z</time>
      </trkpt>
      <trkpt lat="36.92425" lon="-3.39765">
        <ele>881.4896</ele>
        <time>2021-07-17T14:16:42Z</time>
      </trkpt>
      <trkpt lat="36.92416" lon="-3.397">
        <ele>890.8426</ele>
        <time>2021-07-17T14:16:53Z</time>
      </trkpt>
      <trkpt lat="36.92378" lon="-3.39504">
        <ele>903.3552</ele>
        <time>2021-07-17T14:17:04Z</time>
      </trkpt>
      <trkpt lat="36.92342" lon="-3.39332">
        <ele>912.4974</ele>
        <time>2021-07-17T14:17:15Z</time>
      </trkpt>
      <trkpt lat="36.92351" lon="-3.39178">
        <ele>918.1867</ele>
        <time>2021-07-17T14:17:26Z</time>
      </trkpt>
      <trkpt lat="36.92319" lon="-3.39024">
        <ele>924.6967</ele>
        <time>2021-07-17T14:17:37Z</time>
      </trkpt>
      <trkpt lat="36.92267" lon="-3.38904">
        <ele>930.6754</ele>
        <time>2021-07-17T14:17:48Z</time>
      </trkpt>
      <trkpt lat="36.92145" lon="-3.3885">
        <ele>942.3344</ele>
        <time>2021-07-17T14:17:59Z</time>
      </trkpt>
      <trkpt lat="36.92182" lon="-3.38712">
        <ele>945.9438</ele>
        <time>2021-07-17T14:18:10Z</time>
      </trkpt>
      <trkpt lat="36.92296" lon="-3.3864">
        <ele>945.8519</ele>
        <time>2021-07-17T14:18:21Z</time>
      </trkpt>
      <trkpt lat="36.92374" lon="-3.38557">
        <ele>945.1645</ele>
        <time>2021-07-17T14:18:32Z</time>
      </trkpt>
      <trkpt lat="36.92346" lon="-3.38429">
        <ele>941.2906</ele>
        <time>2021-07-17T14:18:43Z</time>
      </trkpt>
      <trkpt lat="36.92288" lon="-3.38301">
        <ele>937.2028</ele>
        <time>2021-07-17T14:18:54Z</time>
      </trkpt>
      <trkpt lat="36.92255" lon="-3.38138">
        <ele>932.191</ele>
        <time>2021-07-17T14:19:05Z</time>
      </trkpt>
      <trkpt lat="36.92225" lon="-3.37989">
        <ele>929.064</ele>
        <time>2021-07-17T14:19:16Z</time>
      </trkpt>
      <trkpt lat="36.92299" lon="-3.37936">
        <ele>928.0321</ele>
        <time>2021-07-17T14:19:27Z</time>
      </trkpt>
      <trkpt lat="36.92456" lon="-3.37915">
        <ele>936.1595</ele>
        <time>2021-07-17T14:19:38Z</time>
      </trkpt>
      <trkpt lat="36.92595" lon="-3.3784">
        <ele>939.872</ele>
        <time>2021-07-17T14:19:49Z</time>
      </trkpt>
      <trkpt lat="36.92716" lon="-3.37718">
        <ele>941.5331</ele>
        <time>2021-07-17T14:20:00Z</time>
      </trkpt>
      <trkpt lat="36.92838" lon="-3.37679">
        <ele>946.3877</ele>
        <time>2021-07-17T14:20:11Z</time>
      </trkpt>
      <trkpt lat="36.92905" lon="-3.37608">
        <ele>943.9147</ele>
        <time>2021-07-17T14:20:22Z</time>
      </trkpt>
      <trkpt lat="36.93002" lon="-3.37532">
        <ele>940.951</ele>
        <time>2021-07-17T14:20:33Z</time>
      </trkpt>
      <trkpt lat="36.9309" lon="-3.37459">
        <ele>940.7914</ele>
        <time>2021-07-17T14:20:44Z</time>
      </trkpt>
      <trkpt lat="36.93137" lon="-3.37311">
        <ele>947.2209</ele>
        <time>2021-07-17T14:20:55Z</time>
      </trkpt>
      <trkpt lat="36.93312" lon="-3.37193">
        <ele>953.4888</ele>
        <time>2021-07-17T14:21:06Z</time>
      </trkpt>
      <trkpt lat="36.93397" lon="-3.37064">
        <ele>954.1034</ele>
        <time>2021-07-17T14:21:17Z</time>
      </trkpt>
      <trkpt lat="36.93461" lon="-3.36975">
        <ele>961.7972</ele>
        <time>2021-07-17T14:21:28Z</time>
      </trkpt>
      <trkpt lat="36.93537" lon="-3.36888">
        <ele>968.7557</ele>
        <time>2021-07-17T14:21:39Z</time>
      </trkpt>
      <trkpt lat="36.93631" lon="-3.3679">
        <ele>963.5549</ele>
        <time>2021-07-17T14:21:50Z</time>
      </trkpt>
      <trkpt lat="36.93744" lon="-3.36666">
        <ele>952.8717</ele>
        <time>2021-07-17T14:22:01Z</time>
      </trkpt>
      <trkpt lat="36.93928" lon="-3.3655">
        <ele>957.3671</ele>
        <time>2021-07-17T14:22:12Z</time>
      </trkpt>
      <trkpt lat="36.94076" lon="-3.36485">
        <ele>959.6486</ele>
        <time>2021-07-17T14:22:23Z</time>
      </trkpt>
      <trkpt lat="36.94219" lon="-3.36438">
        <ele>956.0864</ele>
        <time>2021-07-17T14:22:34Z</time>
      </trkpt>
      <trkpt lat="36.94207" lon="-3.36366">
        <ele>960.5903</ele>
        <time>2021-07-17T14:22:45Z</time>
      </trkpt>
      <trkpt lat="36.94043" lon="-3.36324">
        <ele>973.5585</ele>
        <time>2021-07-17T14:22:56Z</time>
      </trkpt>
      <trkpt lat="36.93858" lon="-3.36338">
        <ele>986.1673</ele>
        <time>2021-07-17T14:23:07Z</time>
      </trkpt>
      <trkpt lat="36.93811" lon="-3.36336">
        <ele>994.1943</ele>
        <time>2021-07-17T14:23:18Z</time>
      </trkpt>
      <trkpt lat="36.93983" lon="-3.36269">
        <ele>1008.166</ele>
        <time>2021-07-17T14:23:29Z</time>
      </trkpt>
      <trkpt lat="36.94125" lon="-3.36216">
        <ele>1019.024</ele>
        <time>2021-07-17T14:23:40Z</time>
      </trkpt>
      <trkpt lat="36.94175" lon="-3.36162">
        <ele>1028.05</ele>
        <time>2021-07-17T14:23:51Z</time>
      </trkpt>
      <trkpt lat="36.9406" lon="-3.36229">
        <ele>1038.529</ele>
        <time>2021-07-17T14:24:02Z</time>
      </trkpt>
      <trkpt lat="36.93933" lon="-3.36214">
        <ele>1054.016</ele>
        <time>2021-07-17T14:24:13Z</time>
      </trkpt>
      <trkpt lat="36.93984" lon="-3.3611">
        <ele>1060.697</ele>
        <time>2021-07-17T14:24:24Z</time>
      </trkpt>
      <trkpt lat="36.93917" lon="-3.36115">
        <ele>1072.287</ele>
        <time>2021-07-17T14:24:35Z</time>
      </trkpt>
      <trkpt lat="36.93846" lon="-3.36141">
        <ele>1080.199</ele>
        <time>2021-07-17T14:24:46Z</time>
      </trkpt>
      <trkpt lat="36.93879" lon="-3.36138">
        <ele>1082.614</ele>
        <time>2021-07-17T14:24:57Z</time>
      </trkpt>
      <trkpt lat="36.93883" lon="-3.36143">
        <ele>1081.079</ele>
        <time>2021-07-17T14:25:08Z</time>
      </trkpt>
      <trkpt lat="36.93882" lon="-3.36138">
        <ele>1074.457</ele>
        <time>2021-07-17T14:25:21Z</time>
      </trkpt>
      <trkpt lat="36.93879" lon="-3.36141">
        <ele>1074.931</ele>
        <time>2021-07-17T14:25:32Z</time>
      </trkpt>
      <trkpt lat="36.93879" lon="-3.36136">
        <ele>1071.588</ele>
        <time>2021-07-17T14:25:55Z</time>
      </trkpt>
      <trkpt lat="36.93882" lon="-3.36137">
        <ele>1076.212</ele>
        <time>2021-07-17T14:26:12Z</time>
      </trkpt>
      <trkpt lat="36.93878" lon="-3.36138">
        <ele>1077.005</ele>
        <time>2021-07-17T14:26:23Z</time>
      </trkpt>
      <trkpt lat="36.93898" lon="-3.36081">
        <ele>1081.726</ele>
        <time>2021-07-17T14:26:34Z</time>
      </trkpt>
      <trkpt lat="36.93995" lon="-3.35985">
        <ele>1090.446</ele>
        <time>2021-07-17T14:26:45Z</time>
      </trkpt>
      <trkpt lat="36.93911" lon="-3.36028">
        <ele>1102.7</ele>
        <time>2021-07-17T14:26:56Z</time>
      </trkpt>
      <trkpt lat="36.93776" lon="-3.36168">
        <ele>1114.292</ele>
        <time>2021-07-17T14:27:07Z</time>
      </trkpt>
      <trkpt lat="36.93648" lon="-3.36209">
        <ele>1127.085</ele>
        <time>2021-07-17T14:27:18Z</time>
      </trkpt>
      <trkpt lat="36.93512" lon="-3.36239">
        <ele>1137.139</ele>
        <time>2021-07-17T14:27:29Z</time>
      </trkpt>
      <trkpt lat="36.93436" lon="-3.36322">
        <ele>1147.595</ele>
        <time>2021-07-17T14:27:40Z</time>
      </trkpt>
      <trkpt lat="36.93312" lon="-3.36372">
        <ele>1155.247</ele>
        <time>2021-07-17T14:27:51Z</time>
      </trkpt>
      <trkpt lat="36.93187" lon="-3.36411">
        <ele>1164.724</ele>
        <time>2021-07-17T14:28:02Z</time>
      </trkpt>
      <trkpt lat="36.93084" lon="-3.36442">
        <ele>1167.116</ele>
        <time>2021-07-17T14:28:13Z</time>
      </trkpt>
      <trkpt lat="36.92985" lon="-3.36447">
        <ele>1165.93</ele>
        <time>2021-07-17T14:28:24Z</time>
      </trkpt>
      <trkpt lat="36.92823" lon="-3.36545">
        <ele>1173.257</ele>
        <time>2021-07-17T14:28:35Z</time>
      </trkpt>
      <trkpt lat="36.92707" lon="-3.36616">
        <ele>1177.439</ele>
        <time>2021-07-17T14:28:46Z</time>
      </trkpt>
      <trkpt lat="36.92667" lon="-3.36493">
        <ele>1180.517</ele>
        <time>2021-07-17T14:28:57Z</time>
      </trkpt>
      <trkpt lat="36.92668" lon="-3.36355">
        <ele>1179.759</ele>
        <time>2021-07-17T14:29:08Z</time>
      </trkpt>
      <trkpt lat="36.92684" lon="-3.36208">
        <ele>1177.314</ele>
        <time>2021-07-17T14:29:19Z</time>
      </trkpt>
      <trkpt lat="36.9266" lon="-3.36039">
        <ele>1178.536</ele>
        <time>2021-07-17T14:29:30Z</time>
      </trkpt>
      <trkpt lat="36.92637" lon="-3.35756">
        <ele>1168.55</ele>
        <time>2021-07-17T14:29:41Z</time>
      </trkpt>
      <trkpt lat="36.92659" lon="-3.35593">
        <ele>1160.466</ele>
        <time>2021-07-17T14:29:52Z</time>
      </trkpt>
      <trkpt lat="36.92708" lon="-3.35445">
        <ele>1152.64</ele>
        <time>2021-07-17T14:30:03Z</time>
      </trkpt>
      <trkpt lat="36.92545" lon="-3.35383">
        <ele>1166.708</ele>
        <time>2021-07-17T14:30:14Z</time>
      </trkpt>
      <trkpt lat="36.92427" lon="-3.35237">
        <ele>1176.763</ele>
        <time>2021-07-17T14:30:25Z</time>
      </trkpt>
      <trkpt lat="36.92423" lon="-3.35132">
        <ele>1185.917</ele>
        <time>2021-07-17T14:30:36Z</time>
      </trkpt>
      <trkpt lat="36.92579" lon="-3.34961">
        <ele>1200.947</ele>
        <time>2021-07-17T14:30:47Z</time>
      </trkpt>
      <trkpt lat="36.92706" lon="-3.34788">
        <ele>1213.376</ele>
        <time>2021-07-17T14:30:58Z</time>
      </trkpt>
      <trkpt lat="36.92882" lon="-3.34624">
        <ele>1224.99</ele>
        <time>2021-07-17T14:31:09Z</time>
      </trkpt>
      <trkpt lat="36.92992" lon="-3.34481">
        <ele>1234.146</ele>
        <time>2021-07-17T14:31:20Z</time>
      </trkpt>
      <trkpt lat="36.93047" lon="-3.34343">
        <ele>1242.132</ele>
        <time>2021-07-17T14:31:31Z</time>
      </trkpt>
      <trkpt lat="36.93092" lon="-3.34209">
        <ele>1251.656</ele>
        <time>2021-07-17T14:31:42Z</time>
      </trkpt>
      <trkpt lat="36.93102" lon="-3.34044">
        <ele>1253.93</ele>
        <time>2021-07-17T14:31:53Z</time>
      </trkpt>
      <trkpt lat="36.93157" lon="-3.33921">
        <ele>1252.494</ele>
        <time>2021-07-17T14:32:04Z</time>
      </trkpt>
      <trkpt lat="36.9315" lon="-3.33812">
        <ele>1247.858</ele>
        <time>2021-07-17T14:32:15Z</time>
      </trkpt>
      <trkpt lat="36.93195" lon="-3.33707">
        <ele>1246.65</ele>
        <time>2021-07-17T14:32:26Z</time>
      </trkpt>
      <trkpt lat="36.93155" lon="-3.33614">
        <ele>1248.899</ele>
        <time>2021-07-17T14:32:37Z</time>
      </trkpt>
      <trkpt lat="36.93178" lon="-3.33486">
        <ele>1244.879</ele>
        <time>2021-07-17T14:32:48Z</time>
      </trkpt>
      <trkpt lat="36.93137" lon="-3.33365">
        <ele>1240.218</ele>
        <time>2021-07-17T14:32:59Z</time>
      </trkpt>
      <trkpt lat="36.93184" lon="-3.33254">
        <ele>1238.959</ele>
        <time>2021-07-17T14:33:10Z</time>
      </trkpt>
      <trkpt lat="36.93247" lon="-3.33141">
        <ele>1239.481</ele>
        <time>2021-07-17T14:33:21Z</time>
      </trkpt>
      <trkpt lat="36.93319" lon="-3.33064">
        <ele>1238.421</ele>
        <time>2021-07-17T14:33:32Z</time>
      </trkpt>
      <trkpt lat="36.9336" lon="-3.32985">
        <ele>1239.95</ele>
        <time>2021-07-17T14:33:43Z</time>
      </trkpt>
      <trkpt lat="36.93407" lon="-3.32879">
        <ele>1238.723</ele>
        <time>2021-07-17T14:33:54Z</time>
      </trkpt>
      <trkpt lat="36.93422" lon="-3.32782">
        <ele>1235.685</ele>
        <time>2021-07-17T14:34:05Z</time>
      </trkpt>
      <trkpt lat="36.93468" lon="-3.32699">
        <ele>1232.565</ele>
        <time>2021-07-17T14:34:16Z</time>
      </trkpt>
      <trkpt lat="36.93494" lon="-3.32575">
        <ele>1231.24</ele>
        <time>2021-07-17T14:34:27Z</time>
      </trkpt>
      <trkpt lat="36.93555" lon="-3.32481">
        <ele>1230.112</ele>
        <time>2021-07-17T14:34:38Z</time>
      </trkpt>
      <trkpt lat="36.93627" lon="-3.32417">
        <ele>1231.885</ele>
        <time>2021-07-17T14:34:49Z</time>
      </trkpt>
      <trkpt lat="36.93696" lon="-3.32354">
        <ele>1237.381</ele>
        <time>2021-07-17T14:35:00Z</time>
      </trkpt>
      <trkpt lat="36.93755" lon="-3.32216">
        <ele>1246.956</ele>
        <time>2021-07-17T14:35:11Z</time>
      </trkpt>
      <trkpt lat="36.93882" lon="-3.32271">
        <ele>1259.741</ele>
        <time>2021-07-17T14:35:22Z</time>
      </trkpt>
      <trkpt lat="36.93999" lon="-3.32205">
        <ele>1262.05</ele>
        <time>2021-07-17T14:35:33Z</time>
      </trkpt>
      <trkpt lat="36.94107" lon="-3.32072">
        <ele>1271.828</ele>
        <time>2021-07-17T14:35:44Z</time>
      </trkpt>
      <trkpt lat="36.94063" lon="-3.31991">
        <ele>1279.894</ele>
        <time>2021-07-17T14:35:55Z</time>
      </trkpt>
      <trkpt lat="36.94041" lon="-3.31874">
        <ele>1285.248</ele>
        <time>2021-07-17T14:36:06Z</time>
      </trkpt>
      <trkpt lat="36.94024" lon="-3.31582">
        <ele>1273.719</ele>
        <time>2021-07-17T14:36:17Z</time>
      </trkpt>
      <trkpt lat="36.9401" lon="-3.31349">
        <ele>1285.646</ele>
        <time>2021-07-17T14:36:28Z</time>
      </trkpt>
      <trkpt lat="36.94105" lon="-3.3126">
        <ele>1283.795</ele>
        <time>2021-07-17T14:36:39Z</time>
      </trkpt>
      <trkpt lat="36.94147" lon="-3.31191">
        <ele>1283.059</ele>
        <time>2021-07-17T14:36:50Z</time>
      </trkpt>
      <trkpt lat="36.94089" lon="-3.31121">
        <ele>1289.086</ele>
        <time>2021-07-17T14:37:01Z</time>
      </trkpt>
      <trkpt lat="36.94074" lon="-3.31022">
        <ele>1294.527</ele>
        <time>2021-07-17T14:37:12Z</time>
      </trkpt>
      <trkpt lat="36.94045" lon="-3.30848">
        <ele>1278.066</ele>
        <time>2021-07-17T14:37:23Z</time>
      </trkpt>
      <trkpt lat="36.94102" lon="-3.30682">
        <ele>1262.385</ele>
        <time>2021-07-17T14:37:34Z</time>
      </trkpt>
      <trkpt lat="36.94039" lon="-3.30606">
        <ele>1255.39</ele>
        <time>2021-07-17T14:37:45Z</time>
      </trkpt>
      <trkpt lat="36.94006" lon="-3.30393">
        <ele>1242.763</ele>
        <time>2021-07-17T14:37:56Z</time>
      </trkpt>
      <trkpt lat="36.93829" lon="-3.303">
        <ele>1230.929</ele>
        <time>2021-07-17T14:38:07Z</time>
      </trkpt>
      <trkpt lat="36.93673" lon="-3.30186">
        <ele>1219.121</ele>
        <time>2021-07-17T14:38:18Z</time>
      </trkpt>
      <trkpt lat="36.93667" lon="-3.30012">
        <ele>1211.052</ele>
        <time>2021-07-17T14:38:29Z</time>
      </trkpt>
      <trkpt lat="36.93764" lon="-3.29867">
        <ele>1196.775</ele>
        <time>2021-07-17T14:38:40Z</time>
      </trkpt>
      <trkpt lat="36.9389" lon="-3.29727">
        <ele>1189.272</ele>
        <time>2021-07-17T14:38:51Z</time>
      </trkpt>
      <trkpt lat="36.93916" lon="-3.29588">
        <ele>1184.343</ele>
        <time>2021-07-17T14:39:02Z</time>
      </trkpt>
      <trkpt lat="36.93864" lon="-3.29483">
        <ele>1183.908</ele>
        <time>2021-07-17T14:39:13Z</time>
      </trkpt>
      <trkpt lat="36.93862" lon="-3.29345">
        <ele>1194.476</ele>
        <time>2021-07-17T14:39:24Z</time>
      </trkpt>
      <trkpt lat="36.93839" lon="-3.29193">
        <ele>1203.655</ele>
        <time>2021-07-17T14:39:35Z</time>
      </trkpt>
      <trkpt lat="36.93791" lon="-3.29024">
        <ele>1216.036</ele>
        <time>2021-07-17T14:39:46Z</time>
      </trkpt>
      <trkpt lat="36.93929" lon="-3.29038">
        <ele>1223.467</ele>
        <time>2021-07-17T14:39:57Z</time>
      </trkpt>
      <trkpt lat="36.94007" lon="-3.28881">
        <ele>1228.965</ele>
        <time>2021-07-17T14:40:08Z</time>
      </trkpt>
      <trkpt lat="36.9412" lon="-3.28723">
        <ele>1239.498</ele>
        <time>2021-07-17T14:40:19Z</time>
      </trkpt>
      <trkpt lat="36.94262" lon="-3.28616">
        <ele>1254.182</ele>
        <time>2021-07-17T14:40:30Z</time>
      </trkpt>
      <trkpt lat="36.94403" lon="-3.28562">
        <ele>1266.668</ele>
        <time>2021-07-17T14:40:41Z</time>
      </trkpt>
      <trkpt lat="36.94517" lon="-3.28566">
        <ele>1276.14</ele>
        <time>2021-07-17T14:40:52Z</time>
      </trkpt>
      <trkpt lat="36.94628" lon="-3.28522">
        <ele>1288.969</ele>
        <time>2021-07-17T14:41:03Z</time>
      </trkpt>
      <trkpt lat="36.94788" lon="-3.28551">
        <ele>1299.208</ele>
        <time>2021-07-17T14:41:14Z</time>
      </trkpt>
      <trkpt lat="36.94905" lon="-3.28571">
        <ele>1312.038</ele>
        <time>2021-07-17T14:41:25Z</time>
      </trkpt>
      <trkpt lat="36.95002" lon="-3.28484">
        <ele>1321.356</ele>
        <time>2021-07-17T14:41:36Z</time>
      </trkpt>
      <trkpt lat="36.95109" lon="-3.28401">
        <ele>1333.461</ele>
        <time>2021-07-17T14:41:47Z</time>
      </trkpt>
      <trkpt lat="36.9523" lon="-3.28267">
        <ele>1339.817</ele>
        <time>2021-07-17T14:41:58Z</time>
      </trkpt>
      <trkpt lat="36.95352" lon="-3.28171">
        <ele>1340.789</ele>
        <time>2021-07-17T14:42:09Z</time>
      </trkpt>
      <trkpt lat="36.9541" lon="-3.281">
        <ele>1340.978</ele>
        <time>2021-07-17T14:42:20Z</time>
      </trkpt>
      <trkpt lat="36.95297" lon="-3.28002">
        <ele>1347.469</ele>
        <time>2021-07-17T14:42:31Z</time>
      </trkpt>
      <trkpt lat="36.95444" lon="-3.27855">
        <ele>1359.839</ele>
        <time>2021-07-17T14:42:42Z</time>
      </trkpt>
      <trkpt lat="36.95639" lon="-3.27832">
        <ele>1378.724</ele>
        <time>2021-07-17T14:42:53Z</time>
      </trkpt>
      <trkpt lat="36.95823" lon="-3.27879">
        <ele>1396.446</ele>
        <time>2021-07-17T14:43:04Z</time>
      </trkpt>
      <trkpt lat="36.96001" lon="-3.27846">
        <ele>1409.574</ele>
        <time>2021-07-17T14:43:15Z</time>
      </trkpt>
      <trkpt lat="36.96137" lon="-3.27929">
        <ele>1420.485</ele>
        <time>2021-07-17T14:43:26Z</time>
      </trkpt>
      <trkpt lat="36.96287" lon="-3.28004">
        <ele>1433.802</ele>
        <time>2021-07-17T14:43:37Z</time>
      </trkpt>
      <trkpt lat="36.96436" lon="-3.28141">
        <ele>1446.06</ele>
        <time>2021-07-17T14:43:48Z</time>
      </trkpt>
      <trkpt lat="36.96562" lon="-3.28084">
        <ele>1448.866</ele>
        <time>2021-07-17T14:43:59Z</time>
      </trkpt>
      <trkpt lat="36.96703" lon="-3.28043">
        <ele>1461.426</ele>
        <time>2021-07-17T14:44:10Z</time>
      </trkpt>
      <trkpt lat="36.96833" lon="-3.28">
        <ele>1464.625</ele>
        <time>2021-07-17T14:44:21Z</time>
      </trkpt>
      <trkpt lat="36.9697" lon="-3.28102">
        <ele>1458.517</ele>
        <time>2021-07-17T14:44:32Z</time>
      </trkpt>
      <trkpt lat="36.97075" lon="-3.28072">
        <ele>1458.045</ele>
        <time>2021-07-17T14:44:43Z</time>
      </trkpt>
      <trkpt lat="36.972" lon="-3.27942">
        <ele>1453.823</ele>
        <time>2021-07-17T14:44:54Z</time>
      </trkpt>
      <trkpt lat="36.97356" lon="-3.27846">
        <ele>1453.479</ele>
        <time>2021-07-17T14:45:05Z</time>
      </trkpt>
      <trkpt lat="36.97514" lon="-3.27816">
        <ele>1456.443</ele>
        <time>2021-07-17T14:45:16Z</time>
      </trkpt>
      <trkpt lat="36.97679" lon="-3.27822">
        <ele>1454.101</ele>
        <time>2021-07-17T14:45:27Z</time>
      </trkpt>
      <trkpt lat="36.97824" lon="-3.27781">
        <ele>1455.077</ele>
        <time>2021-07-17T14:45:38Z</time>
      </trkpt>
      <trkpt lat="36.97954" lon="-3.2776">
        <ele>1462.921</ele>
        <time>2021-07-17T14:45:49Z</time>
      </trkpt>
      <trkpt lat="36.98059" lon="-3.27933">
        <ele>1459.349</ele>
        <time>2021-07-17T14:46:00Z</time>
      </trkpt>
      <trkpt lat="36.98194" lon="-3.27964">
        <ele>1459.937</ele>
        <time>2021-07-17T14:46:11Z</time>
      </trkpt>
      <trkpt lat="36.98344" lon="-3.28028">
        <ele>1447.775</ele>
        <time>2021-07-17T14:46:22Z</time>
      </trkpt>
      <trkpt lat="36.98328" lon="-3.27927">
        <ele>1451.554</ele>
        <time>2021-07-17T14:46:33Z</time>
      </trkpt>
      <trkpt lat="36.98349" lon="-3.27789">
        <ele>1463.513</ele>
        <time>2021-07-17T14:46:44Z</time>
      </trkpt>
      <trkpt lat="36.98376" lon="-3.2767">
        <ele>1471.031</ele>
        <time>2021-07-17T14:46:55Z</time>
      </trkpt>
      <trkpt lat="36.98348" lon="-3.27515">
        <ele>1481.669</ele>
        <time>2021-07-17T14:47:06Z</time>
      </trkpt>
      <trkpt lat="36.98353" lon="-3.27354">
        <ele>1490.378</ele>
        <time>2021-07-17T14:47:17Z</time>
      </trkpt>
      <trkpt lat="36.98509" lon="-3.27297">
        <ele>1498.5</ele>
        <time>2021-07-17T14:47:28Z</time>
      </trkpt>
      <trkpt lat="36.98624" lon="-3.27236">
        <ele>1504.106</ele>
        <time>2021-07-17T14:47:39Z</time>
      </trkpt>
      <trkpt lat="36.98726" lon="-3.27155">
        <ele>1506.997</ele>
        <time>2021-07-17T14:47:50Z</time>
      </trkpt>
      <trkpt lat="36.9889" lon="-3.27159">
        <ele>1509.345</ele>
        <time>2021-07-17T14:48:01Z</time>
      </trkpt>
      <trkpt lat="36.99011" lon="-3.27057">
        <ele>1519.597</ele>
        <time>2021-07-17T14:48:12Z</time>
      </trkpt>
      <trkpt lat="36.99119" lon="-3.27083">
        <ele>1523.832</ele>
        <time>2021-07-17T14:48:23Z</time>
      </trkpt>
      <trkpt lat="36.99228" lon="-3.27014">
        <ele>1515.143</ele>
        <time>2021-07-17T14:48:34Z</time>
      </trkpt>
      <trkpt lat="36.99343" lon="-3.26955">
        <ele>1505.156</ele>
        <time>2021-07-17T14:48:45Z</time>
      </trkpt>
      <trkpt lat="36.9943" lon="-3.27027">
        <ele>1498.259</ele>
        <time>2021-07-17T14:48:56Z</time>
      </trkpt>
      <trkpt lat="36.99543" lon="-3.26996">
        <ele>1487.661</ele>
        <time>2021-07-17T14:49:07Z</time>
      </trkpt>
      <trkpt lat="36.99693" lon="-3.26831">
        <ele>1477.246</ele>
        <time>2021-07-17T14:49:18Z</time>
      </trkpt>
      <trkpt lat="36.99804" lon="-3.26724">
        <ele>1464.08</ele>
        <time>2021-07-17T14:49:29Z</time>
      </trkpt>
      <trkpt lat="36.99824" lon="-3.26584">
        <ele>1456.823</ele>
        <time>2021-07-17T14:49:40Z</time>
      </trkpt>
      <trkpt lat="36.99918" lon="-3.26544">
        <ele>1451.372</ele>
        <time>2021-07-17T14:49:51Z</time>
      </trkpt>
      <trkpt lat="36.99879" lon="-3.26442">
        <ele>1456.033</ele>
        <time>2021-07-17T14:50:02Z</time>
      </trkpt>
      <trkpt lat="36.99951" lon="-3.26396">
        <ele>1453.164</ele>
        <time>2021-07-17T14:50:13Z</time>
      </trkpt>
      <trkpt lat="37.00054" lon="-3.26358">
        <ele>1436.954</ele>
        <time>2021-07-17T14:50:24Z</time>
      </trkpt>
      <trkpt lat="37.00089" lon="-3.26238">
        <ele>1428.974</ele>
        <time>2021-07-17T14:50:35Z</time>
      </trkpt>
      <trkpt lat="37.00019" lon="-3.26224">
        <ele>1429.958</ele>
        <time>2021-07-17T14:50:46Z</time>
      </trkpt>
      <trkpt lat="36.99871" lon="-3.26254">
        <ele>1431.083</ele>
        <time>2021-07-17T14:50:57Z</time>
      </trkpt>
      <trkpt lat="36.99672" lon="-3.26268">
        <ele>1432.638</ele>
        <time>2021-07-17T14:51:08Z</time>
      </trkpt>
      <trkpt lat="36.99612" lon="-3.26457">
        <ele>1443.382</ele>
        <time>2021-07-17T14:51:19Z</time>
      </trkpt>
      <trkpt lat="36.99439" lon="-3.26522">
        <ele>1441.416</ele>
        <time>2021-07-17T14:51:30Z</time>
      </trkpt>
      <trkpt lat="36.99275" lon="-3.26468">
        <ele>1444.713</ele>
        <time>2021-07-17T14:51:41Z</time>
      </trkpt>
      <trkpt lat="36.99124" lon="-3.26556">
        <ele>1451.667</ele>
        <time>2021-07-17T14:51:52Z</time>
      </trkpt>
      <trkpt lat="36.98948" lon="-3.26603">
        <ele>1440.273</ele>
        <time>2021-07-17T14:52:03Z</time>
      </trkpt>
      <trkpt lat="36.98804" lon="-3.26655">
        <ele>1424.175</ele>
        <time>2021-07-17T14:52:14Z</time>
      </trkpt>
      <trkpt lat="36.98666" lon="-3.26712">
        <ele>1413.606</ele>
        <time>2021-07-17T14:52:25Z</time>
      </trkpt>
      <trkpt lat="36.98594" lon="-3.26628">
        <ele>1402.477</ele>
        <time>2021-07-17T14:52:36Z</time>
      </trkpt>
      <trkpt lat="36.9852" lon="-3.26641">
        <ele>1403.383</ele>
        <time>2021-07-17T14:52:47Z</time>
      </trkpt>
      <trkpt lat="36.98476" lon="-3.26771">
        <ele>1410.82</ele>
        <time>2021-07-17T14:52:58Z</time>
      </trkpt>
      <trkpt lat="36.98435" lon="-3.26856">
        <ele>1419.904</ele>
        <time>2021-07-17T14:53:09Z</time>
      </trkpt>
      <trkpt lat="36.98317" lon="-3.2681">
        <ele>1431.346</ele>
        <time>2021-07-17T14:53:20Z</time>
      </trkpt>
      <trkpt lat="36.98233" lon="-3.26738">
        <ele>1436.598</ele>
        <time>2021-07-17T14:53:31Z</time>
      </trkpt>
      <trkpt lat="36.9813" lon="-3.26733">
        <ele>1446.156</ele>
        <time>2021-07-17T14:53:42Z</time>
      </trkpt>
      <trkpt lat="36.98" lon="-3.26859">
        <ele>1460.991</ele>
        <time>2021-07-17T14:53:53Z</time>
      </trkpt>
      <trkpt lat="36.97883" lon="-3.26879">
        <ele>1468.476</ele>
        <time>2021-07-17T14:54:04Z</time>
      </trkpt>
      <trkpt lat="36.97745" lon="-3.26837">
        <ele>1463.32</ele>
        <time>2021-07-17T14:54:15Z</time>
      </trkpt>
      <trkpt lat="36.97541" lon="-3.2681">
        <ele>1457.49</ele>
        <time>2021-07-17T14:54:26Z</time>
      </trkpt>
      <trkpt lat="36.97396" lon="-3.26845">
        <ele>1453.342</ele>
        <time>2021-07-17T14:54:37Z</time>
      </trkpt>
      <trkpt lat="36.97272" lon="-3.26785">
        <ele>1447.139</ele>
        <time>2021-07-17T14:54:48Z</time>
      </trkpt>
      <trkpt lat="36.97178" lon="-3.26675">
        <ele>1442.697</ele>
        <time>2021-07-17T14:55:00Z</time>
      </trkpt>
      <trkpt lat="36.97046" lon="-3.26728">
        <ele>1439.38</ele>
        <time>2021-07-17T14:55:11Z</time>
      </trkpt>
      <trkpt lat="36.96912" lon="-3.26682">
        <ele>1431.176</ele>
        <time>2021-07-17T14:55:22Z</time>
      </trkpt>
      <trkpt lat="36.96782" lon="-3.26677">
        <ele>1437.097</ele>
        <time>2021-07-17T14:55:33Z</time>
      </trkpt>
      <trkpt lat="36.96653" lon="-3.26705">
        <ele>1441.085</ele>
        <time>2021-07-17T14:55:44Z</time>
      </trkpt>
      <trkpt lat="36.96521" lon="-3.26716">
        <ele>1444.893</ele>
        <time>2021-07-17T14:55:55Z</time>
      </trkpt>
      <trkpt lat="36.96387" lon="-3.26685">
        <ele>1437.852</ele>
        <time>2021-07-17T14:56:06Z</time>
      </trkpt>
      <trkpt lat="36.96226" lon="-3.26637">
        <ele>1426.945</ele>
        <time>2021-07-17T14:56:17Z</time>
      </trkpt>
      <trkpt lat="36.96089" lon="-3.26647">
        <ele>1421.535</ele>
        <time>2021-07-17T14:56:28Z</time>
      </trkpt>
      <trkpt lat="36.95965" lon="-3.26577">
        <ele>1415.719</ele>
        <time>2021-07-17T14:56:39Z</time>
      </trkpt>
      <trkpt lat="36.95817" lon="-3.26613">
        <ele>1416.743</ele>
        <time>2021-07-17T14:56:50Z</time>
      </trkpt>
      <trkpt lat="36.9568" lon="-3.26618">
        <ele>1411.803</ele>
        <time>2021-07-17T14:57:01Z</time>
      </trkpt>
      <trkpt lat="36.95563" lon="-3.26604">
        <ele>1404.804</ele>
        <time>2021-07-17T14:57:12Z</time>
      </trkpt>
      <trkpt lat="36.95409" lon="-3.26653">
        <ele>1398.824</ele>
        <time>2021-07-17T14:57:23Z</time>
      </trkpt>
      <trkpt lat="36.95308" lon="-3.26615">
        <ele>1396.933</ele>
        <time>2021-07-17T14:57:34Z</time>
      </trkpt>
      <trkpt lat="36.95233" lon="-3.26554">
        <ele>1393.713</ele>
        <time>2021-07-17T14:57:45Z</time>
      </trkpt>
      <trkpt lat="36.95069" lon="-3.26569">
        <ele>1387.843</ele>
        <time>2021-07-17T14:57:56Z</time>
      </trkpt>
      <trkpt lat="36.94883" lon="-3.26673">
        <ele>1388.942</ele>
        <time>2021-07-17T14:58:07Z</time>
      </trkpt>
      <trkpt lat="36.9469" lon="-3.26834">
        <ele>1386.821</ele>
        <time>2021-07-17T14:58:18Z</time>
      </trkpt>
      <trkpt lat="36.94587" lon="-3.26945">
        <ele>1396.352</ele>
        <time>2021-07-17T14:58:29Z</time>
      </trkpt>
      <trkpt lat="36.94484" lon="-3.26907">
        <ele>1397.277</ele>
        <time>2021-07-17T14:58:40Z</time>
      </trkpt>
      <trkpt lat="36.9452" lon="-3.26631">
        <ele>1398.368</ele>
        <time>2021-07-17T14:58:51Z</time>
      </trkpt>
      <trkpt lat="36.94594" lon="-3.26415">
        <ele>1399.969</ele>
        <time>2021-07-17T14:59:02Z</time>
      </trkpt>
      <trkpt lat="36.94658" lon="-3.26178">
        <ele>1395.664</ele>
        <time>2021-07-17T14:59:13Z</time>
      </trkpt>
      <trkpt lat="36.94697" lon="-3.25984">
        <ele>1401.336</ele>
        <time>2021-07-17T14:59:24Z</time>
      </trkpt>
      <trkpt lat="36.94794" lon="-3.25855">
        <ele>1404.831</ele>
        <time>2021-07-17T14:59:35Z</time>
      </trkpt>
      <trkpt lat="36.94763" lon="-3.25723">
        <ele>1405.612</ele>
        <time>2021-07-17T14:59:46Z</time>
      </trkpt>
      <trkpt lat="36.94763" lon="-3.25531">
        <ele>1402.442</ele>
        <time>2021-07-17T14:59:57Z</time>
      </trkpt>
      <trkpt lat="36.94829" lon="-3.25356">
        <ele>1402.743</ele>
        <time>2021-07-17T15:00:08Z</time>
      </trkpt>
      <trkpt lat="36.9484" lon="-3.25172">
        <ele>1403.433</ele>
        <time>2021-07-17T15:00:19Z</time>
      </trkpt>
      <trkpt lat="36.948" lon="-3.25008">
        <ele>1391.751</ele>
        <time>2021-07-17T15:00:30Z</time>
      </trkpt>
      <trkpt lat="36.94766" lon="-3.24898">
        <ele>1383.014</ele>
        <time>2021-07-17T15:00:41Z</time>
      </trkpt>
      <trkpt lat="36.94777" lon="-3.24738">
        <ele>1373.26</ele>
        <time>2021-07-17T15:00:52Z</time>
      </trkpt>
      <trkpt lat="36.94763" lon="-3.24686">
        <ele>1352.923</ele>
        <time>2021-07-17T15:01:03Z</time>
      </trkpt>
      <trkpt lat="36.94887" lon="-3.24594">
        <ele>1351.922</ele>
        <time>2021-07-17T15:01:14Z</time>
      </trkpt>
      <trkpt lat="36.94826" lon="-3.24449">
        <ele>1348.614</ele>
        <time>2021-07-17T15:01:25Z</time>
      </trkpt>
      <trkpt lat="36.94686" lon="-3.2429">
        <ele>1343.557</ele>
        <time>2021-07-17T15:01:36Z</time>
      </trkpt>
      <trkpt lat="36.94624" lon="-3.24101">
        <ele>1339.507</ele>
        <time>2021-07-17T15:01:47Z</time>
      </trkpt>
      <trkpt lat="36.94632" lon="-3.23885">
        <ele>1338.866</ele>
        <time>2021-07-17T15:01:58Z</time>
      </trkpt>
      <trkpt lat="36.94632" lon="-3.23705">
        <ele>1333.3</ele>
        <time>2021-07-17T15:02:09Z</time>
      </trkpt>
      <trkpt lat="36.94666" lon="-3.23563">
        <ele>1326.565</ele>
        <time>2021-07-17T15:02:20Z</time>
      </trkpt>
      <trkpt lat="36.94701" lon="-3.23398">
        <ele>1316.803</ele>
        <time>2021-07-17T15:02:31Z</time>
      </trkpt>
      <trkpt lat="36.94626" lon="-3.23242">
        <ele>1304.188</ele>
        <time>2021-07-17T15:02:42Z</time>
      </trkpt>
      <trkpt lat="36.94587" lon="-3.23022">
        <ele>1291.031</ele>
        <time>2021-07-17T15:02:53Z</time>
      </trkpt>
      <trkpt lat="36.94547" lon="-3.22841">
        <ele>1282.254</ele>
        <time>2021-07-17T15:03:04Z</time>
      </trkpt>
      <trkpt lat="36.94542" lon="-3.22786">
        <ele>1283.94</ele>
        <time>2021-07-17T15:03:15Z</time>
      </trkpt>
      <trkpt lat="36.94543" lon="-3.22787">
        <ele>1283.283</ele>
        <time>2021-07-17T15:04:15Z</time>
      </trkpt>
      <trkpt lat="36.94546" lon="-3.22784">
        <ele>1285.261</ele>
        <time>2021-07-17T15:04:58Z</time>
      </trkpt>
      <trkpt lat="36.94544" lon="-3.22789">
        <ele>1285.933</ele>
        <time>2021-07-17T15:05:09Z</time>
      </trkpt>
      <trkpt lat="36.94547" lon="-3.22828">
        <ele>1285.189</ele>
        <time>2021-07-17T15:05:20Z</time>
      </trkpt>
      <trkpt lat="36.94523" lon="-3.22822">
        <ele>1283.169</ele>
        <time>2021-07-17T15:05:31Z</time>
      </trkpt>
      <trkpt lat="36.94525" lon="-3.22729">
        <ele>1274.346</ele>
        <time>2021-07-17T15:05:42Z</time>
      </trkpt>
      <trkpt lat="36.94649" lon="-3.2273">
        <ele>1265.234</ele>
        <time>2021-07-17T15:05:53Z</time>
      </trkpt>
      <trkpt lat="36.94773" lon="-3.22691">
        <ele>1258.055</ele>
        <time>2021-07-17T15:06:04Z</time>
      </trkpt>
      <trkpt lat="36.94831" lon="-3.22588">
        <ele>1258.157</ele>
        <time>2021-07-17T15:06:15Z</time>
      </trkpt>
      <trkpt lat="36.94888" lon="-3.22485">
        <ele>1264.093</ele>
        <time>2021-07-17T15:06:26Z</time>
      </trkpt>
      <trkpt lat="36.94927" lon="-3.22416">
        <ele>1267.123</ele>
        <time>2021-07-17T15:06:37Z</time>
      </trkpt>
      <trkpt lat="36.95014" lon="-3.22407">
        <ele>1268.586</ele>
        <time>2021-07-17T15:06:48Z</time>
      </trkpt>
      <trkpt lat="36.95148" lon="-3.22412">
        <ele>1272.255</ele>
        <time>2021-07-17T15:06:59Z</time>
      </trkpt>
      <trkpt lat="36.95266" lon="-3.22426">
        <ele>1271.932</ele>
        <time>2021-07-17T15:07:10Z</time>
      </trkpt>
      <trkpt lat="36.95281" lon="-3.22363">
        <ele>1273.883</ele>
        <time>2021-07-17T15:07:21Z</time>
      </trkpt>
      <trkpt lat="36.95285" lon="-3.22193">
        <ele>1283.871</ele>
        <time>2021-07-17T15:07:32Z</time>
      </trkpt>
      <trkpt lat="36.95309" lon="-3.22041">
        <ele>1294.228</ele>
        <time>2021-07-17T15:07:43Z</time>
      </trkpt>
      <trkpt lat="36.95344" lon="-3.21858">
        <ele>1304.994</ele>
        <time>2021-07-17T15:07:54Z</time>
      </trkpt>
      <trkpt lat="36.95305" lon="-3.2173">
        <ele>1311.052</ele>
        <time>2021-07-17T15:08:05Z</time>
      </trkpt>
      <trkpt lat="36.95422" lon="-3.21625">
        <ele>1314.85</ele>
        <time>2021-07-17T15:08:16Z</time>
      </trkpt>
      <trkpt lat="36.95584" lon="-3.21645">
        <ele>1325.559</ele>
        <time>2021-07-17T15:08:27Z</time>
      </trkpt>
      <trkpt lat="36.95718" lon="-3.21654">
        <ele>1330.016</ele>
        <time>2021-07-17T15:08:38Z</time>
      </trkpt>
      <trkpt lat="36.95777" lon="-3.21615">
        <ele>1326.499</ele>
        <time>2021-07-17T15:08:49Z</time>
      </trkpt>
      <trkpt lat="36.95714" lon="-3.21503">
        <ele>1337.451</ele>
        <time>2021-07-17T15:09:00Z</time>
      </trkpt>
      <trkpt lat="36.95615" lon="-3.21361">
        <ele>1349.227</ele>
        <time>2021-07-17T15:09:11Z</time>
      </trkpt>
      <trkpt lat="36.95643" lon="-3.21174">
        <ele>1360.877</ele>
        <time>2021-07-17T15:09:22Z</time>
      </trkpt>
      <trkpt lat="36.95702" lon="-3.20985">
        <ele>1371.335</ele>
        <time>2021-07-17T15:09:33Z</time>
      </trkpt>
      <trkpt lat="36.95754" lon="-3.20819">
        <ele>1380.891</ele>
        <time>2021-07-17T15:09:44Z</time>
      </trkpt>
      <trkpt lat="36.95782" lon="-3.20689">
        <ele>1388.769</ele>
        <time>2021-07-17T15:09:55Z</time>
      </trkpt>
      <trkpt lat="36.95797" lon="-3.20684">
        <ele>1389.072</ele>
        <time>2021-07-17T15:10:06Z</time>
      </trkpt>
      <trkpt lat="36.95792" lon="-3.20691">
        <ele>1388.823</ele>
        <time>2021-07-17T15:10:18Z</time>
      </trkpt>
      <trkpt lat="36.95784" lon="-3.20778">
        <ele>1395.382</ele>
        <time>2021-07-17T15:10:29Z</time>
      </trkpt>
      <trkpt lat="36.95809" lon="-3.20811">
        <ele>1399.605</ele>
        <time>2021-07-17T15:10:40Z</time>
      </trkpt>
      <trkpt lat="36.95781" lon="-3.20773">
        <ele>1397.772</ele>
        <time>2021-07-17T15:10:51Z</time>
      </trkpt>
      <trkpt lat="36.95765" lon="-3.20736">
        <ele>1390.977</ele>
        <time>2021-07-17T15:11:02Z</time>
      </trkpt>
      <trkpt lat="36.95768" lon="-3.20813">
        <ele>1388.822</ele>
        <time>2021-07-17T15:11:13Z</time>
      </trkpt>
      <trkpt lat="36.95775" lon="-3.20858">
        <ele>1391.57</ele>
        <time>2021-07-17T15:11:24Z</time>
      </trkpt>
      <trkpt lat="36.95776" lon="-3.209">
        <ele>1394.841</ele>
        <time>2021-07-17T15:11:35Z</time>
      </trkpt>
      <trkpt lat="36.95773" lon="-3.20897">
        <ele>1393.619</ele>
        <time>2021-07-17T15:11:53Z</time>
      </trkpt>
      <trkpt lat="36.95769" lon="-3.2088">
        <ele>1393.767</ele>
        <time>2021-07-17T15:12:04Z</time>
      </trkpt>
      <trkpt lat="36.95788" lon="-3.20831">
        <ele>1390.221</ele>
        <time>2021-07-17T15:12:15Z</time>
      </trkpt>
      <trkpt lat="36.95764" lon="-3.20745">
        <ele>1391.702</ele>
        <time>2021-07-17T15:12:26Z</time>
      </trkpt>
      <trkpt lat="36.95787" lon="-3.20783">
        <ele>1395.229</ele>
        <time>2021-07-17T15:12:37Z</time>
      </trkpt>
      <trkpt lat="36.95832" lon="-3.20776">
        <ele>1404.644</ele>
        <time>2021-07-17T15:12:48Z</time>
      </trkpt>
      <trkpt lat="36.95859" lon="-3.20788">
        <ele>1413.53</ele>
        <time>2021-07-17T15:12:59Z</time>
      </trkpt>
      <trkpt lat="36.95899" lon="-3.20743">
        <ele>1419.317</ele>
        <time>2021-07-17T15:13:10Z</time>
      </trkpt>
      <trkpt lat="36.95961" lon="-3.20742">
        <ele>1429.726</ele>
        <time>2021-07-17T15:13:21Z</time>
      </trkpt>
      <trkpt lat="36.95968" lon="-3.20765">
        <ele>1435.808</ele>
        <time>2021-07-17T15:13:32Z</time>
      </trkpt>
      <trkpt lat="36.96041" lon="-3.20782">
        <ele>1443.942</ele>
        <time>2021-07-17T15:13:43Z</time>
      </trkpt>
      <trkpt lat="36.9612" lon="-3.20874">
        <ele>1456.796</ele>
        <time>2021-07-17T15:13:54Z</time>
      </trkpt>
      <trkpt lat="36.96168" lon="-3.20976">
        <ele>1467.447</ele>
        <time>2021-07-17T15:14:05Z</time>
      </trkpt>
      <trkpt lat="36.9621" lon="-3.21022">
        <ele>1480.047</ele>
        <time>2021-07-17T15:14:16Z</time>
      </trkpt>
      <trkpt lat="36.9622" lon="-3.21098">
        <ele>1492.821</ele>
        <time>2021-07-17T15:14:27Z</time>
      </trkpt>
      <trkpt lat="36.96308" lon="-3.20993">
        <ele>1509.087</ele>
        <time>2021-07-17T15:14:38Z</time>
      </trkpt>
      <trkpt lat="36.96392" lon="-3.21054">
        <ele>1524.025</ele>
        <time>2021-07-17T15:14:49Z</time>
      </trkpt>
      <trkpt lat="36.96428" lon="-3.21184">
        <ele>1527.959</ele>
        <time>2021-07-17T15:15:00Z</time>
      </trkpt>
      <trkpt lat="36.96471" lon="-3.21241">
        <ele>1534.437</ele>
        <time>2021-07-17T15:15:11Z</time>
      </trkpt>
      <trkpt lat="36.96473" lon="-3.21243">
        <ele>1529.916</ele>
        <time>2021-07-17T15:16:11Z</time>
      </trkpt>
      <trkpt lat="36.9648" lon="-3.21243">
        <ele>1531.694</ele>
        <time>2021-07-17T15:17:02Z</time>
      </trkpt>
      <trkpt lat="36.96551" lon="-3.21281">
        <ele>1541.939</ele>
        <time>2021-07-17T15:17:13Z</time>
      </trkpt>
      <trkpt lat="36.96506" lon="-3.21347">
        <ele>1548.256</ele>
        <time>2021-07-17T15:17:24Z</time>
      </trkpt>
      <trkpt lat="36.9655" lon="-3.2137">
        <ele>1560.149</ele>
        <time>2021-07-17T15:17:35Z</time>
      </trkpt>
      <trkpt lat="36.96635" lon="-3.21441">
        <ele>1564.774</ele>
        <time>2021-07-17T15:17:46Z</time>
      </trkpt>
      <trkpt lat="36.96696" lon="-3.2149">
        <ele>1580.04</ele>
        <time>2021-07-17T15:17:57Z</time>
      </trkpt>
      <trkpt lat="36.96818" lon="-3.21436">
        <ele>1589.795</ele>
        <time>2021-07-17T15:18:08Z</time>
      </trkpt>
      <trkpt lat="36.96933" lon="-3.21421">
        <ele>1583.191</ele>
        <time>2021-07-17T15:18:19Z</time>
      </trkpt>
      <trkpt lat="36.96984" lon="-3.21407">
        <ele>1607.055</ele>
        <time>2021-07-17T15:18:30Z</time>
      </trkpt>
      <trkpt lat="36.97041" lon="-3.21401">
        <ele>1631.225</ele>
        <time>2021-07-17T15:18:41Z</time>
      </trkpt>
      <trkpt lat="36.97031" lon="-3.21523">
        <ele>1642.591</ele>
        <time>2021-07-17T15:18:52Z</time>
      </trkpt>
      <trkpt lat="36.96997" lon="-3.2166">
        <ele>1645.503</ele>
        <time>2021-07-17T15:19:03Z</time>
      </trkpt>
      <trkpt lat="36.97026" lon="-3.21819">
        <ele>1649.346</ele>
        <time>2021-07-17T15:19:14Z</time>
      </trkpt>
      <trkpt lat="36.97075" lon="-3.21924">
        <ele>1659.501</ele>
        <time>2021-07-17T15:19:25Z</time>
      </trkpt>
      <trkpt lat="36.97137" lon="-3.21864">
        <ele>1690.135</ele>
        <time>2021-07-17T15:19:36Z</time>
      </trkpt>
      <trkpt lat="36.97235" lon="-3.21765">
        <ele>1698.703</ele>
        <time>2021-07-17T15:19:47Z</time>
      </trkpt>
      <trkpt lat="36.97351" lon="-3.21777">
        <ele>1710.326</ele>
        <time>2021-07-17T15:19:58Z</time>
      </trkpt>
      <trkpt lat="36.9737" lon="-3.21744">
        <ele>1721.706</ele>
        <time>2021-07-17T15:20:09Z</time>
      </trkpt>
      <trkpt lat="36.97356" lon="-3.21603">
        <ele>1724.691</ele>
        <time>2021-07-17T15:20:20Z</time>
      </trkpt>
      <trkpt lat="36.97394" lon="-3.21507">
        <ele>1727.034</ele>
        <time>2021-07-17T15:20:31Z</time>
      </trkpt>
      <trkpt lat="36.97472" lon="-3.21422">
        <ele>1728.984</ele>
        <time>2021-07-17T15:20:42Z</time>
      </trkpt>
      <trkpt lat="36.9755" lon="-3.21345">
        <ele>1732.659</ele>
        <time>2021-07-17T15:20:53Z</time>
      </trkpt>
      <trkpt lat="36.97601" lon="-3.21298">
        <ele>1740.155</ele>
        <time>2021-07-17T15:21:04Z</time>
      </trkpt>
      <trkpt lat="36.97602" lon="-3.21296">
        <ele>1744.019</ele>
        <time>2021-07-17T15:22:02Z</time>
      </trkpt>
      <trkpt lat="36.97605" lon="-3.213">
        <ele>1742.549</ele>
        <time>2021-07-17T15:22:56Z</time>
      </trkpt>
      <trkpt lat="36.97686" lon="-3.2134">
        <ele>1745.726</ele>
        <time>2021-07-17T15:23:07Z</time>
      </trkpt>
      <trkpt lat="36.97755" lon="-3.21454">
        <ele>1762.822</ele>
        <time>2021-07-17T15:23:18Z</time>
      </trkpt>
      <trkpt lat="36.97765" lon="-3.21623">
        <ele>1776.738</ele>
        <time>2021-07-17T15:23:29Z</time>
      </trkpt>
      <trkpt lat="36.97746" lon="-3.21712">
        <ele>1781.912</ele>
        <time>2021-07-17T15:23:40Z</time>
      </trkpt>
      <trkpt lat="36.97744" lon="-3.21849">
        <ele>1794.857</ele>
        <time>2021-07-17T15:23:51Z</time>
      </trkpt>
      <trkpt lat="36.97834" lon="-3.21745">
        <ele>1805.038</ele>
        <time>2021-07-17T15:24:02Z</time>
      </trkpt>
      <trkpt lat="36.97955" lon="-3.21753">
        <ele>1818.209</ele>
        <time>2021-07-17T15:24:13Z</time>
      </trkpt>
      <trkpt lat="36.98084" lon="-3.21824">
        <ele>1830.527</ele>
        <time>2021-07-17T15:24:24Z</time>
      </trkpt>
      <trkpt lat="36.98195" lon="-3.21801">
        <ele>1836.007</ele>
        <time>2021-07-17T15:24:35Z</time>
      </trkpt>
      <trkpt lat="36.9829" lon="-3.21834">
        <ele>1837.271</ele>
        <time>2021-07-17T15:24:47Z</time>
      </trkpt>
      <trkpt lat="36.984" lon="-3.2175">
        <ele>1839.087</ele>
        <time>2021-07-17T15:24:58Z</time>
      </trkpt>
      <trkpt lat="36.9847" lon="-3.21629">
        <ele>1843.428</ele>
        <time>2021-07-17T15:25:09Z</time>
      </trkpt>
      <trkpt lat="36.98545" lon="-3.21609">
        <ele>1846.913</ele>
        <time>2021-07-17T15:25:20Z</time>
      </trkpt>
      <trkpt lat="36.98579" lon="-3.21587">
        <ele>1844.224</ele>
        <time>2021-07-17T15:25:31Z</time>
      </trkpt>
      <trkpt lat="36.98528" lon="-3.21472">
        <ele>1853.562</ele>
        <time>2021-07-17T15:25:42Z</time>
      </trkpt>
      <trkpt lat="36.98579" lon="-3.21395">
        <ele>1852.755</ele>
        <time>2021-07-17T15:25:53Z</time>
      </trkpt>
      <trkpt lat="36.98722" lon="-3.21281">
        <ele>1853.095</ele>
        <time>2021-07-17T15:26:04Z</time>
      </trkpt>
      <trkpt lat="36.98843" lon="-3.21268">
        <ele>1858.256</ele>
        <time>2021-07-17T15:26:15Z</time>
      </trkpt>
      <trkpt lat="36.98945" lon="-3.21273">
        <ele>1850.111</ele>
        <time>2021-07-17T15:26:26Z</time>
      </trkpt>
      <trkpt lat="36.99019" lon="-3.21289">
        <ele>1857.664</ele>
        <time>2021-07-17T15:26:37Z</time>
      </trkpt>
      <trkpt lat="36.99162" lon="-3.21315">
        <ele>1865.001</ele>
        <time>2021-07-17T15:26:48Z</time>
      </trkpt>
      <trkpt lat="36.99279" lon="-3.21334">
        <ele>1872.653</ele>
        <time>2021-07-17T15:26:59Z</time>
      </trkpt>
      <trkpt lat="36.99417" lon="-3.21315">
        <ele>1883.412</ele>
        <time>2021-07-17T15:27:10Z</time>
      </trkpt>
      <trkpt lat="36.99497" lon="-3.21337">
        <ele>1889.933</ele>
        <time>2021-07-17T15:27:21Z</time>
      </trkpt>
      <trkpt lat="36.99531" lon="-3.21251">
        <ele>1897.538</ele>
        <time>2021-07-17T15:27:32Z</time>
      </trkpt>
      <trkpt lat="36.99667" lon="-3.21209">
        <ele>1908.411</ele>
        <time>2021-07-17T15:27:43Z</time>
      </trkpt>
      <trkpt lat="36.99822" lon="-3.21233">
        <ele>1920.356</ele>
        <time>2021-07-17T15:27:54Z</time>
      </trkpt>
      <trkpt lat="36.99975" lon="-3.21243">
        <ele>1929.211</ele>
        <time>2021-07-17T15:28:05Z</time>
      </trkpt>
      <trkpt lat="37.00137" lon="-3.21236">
        <ele>1936.077</ele>
        <time>2021-07-17T15:28:16Z</time>
      </trkpt>
      <trkpt lat="37.00287" lon="-3.21247">
        <ele>1940.467</ele>
        <time>2021-07-17T15:28:27Z</time>
      </trkpt>
      <trkpt lat="37.0045" lon="-3.21265">
        <ele>1940.903</ele>
        <time>2021-07-17T15:28:38Z</time>
      </trkpt>
      <trkpt lat="37.00587" lon="-3.21223">
        <ele>1942.605</ele>
        <time>2021-07-17T15:28:49Z</time>
      </trkpt>
      <trkpt lat="37.00715" lon="-3.21143">
        <ele>1946.212</ele>
        <time>2021-07-17T15:29:00Z</time>
      </trkpt>
      <trkpt lat="37.00874" lon="-3.21147">
        <ele>1949.802</ele>
        <time>2021-07-17T15:29:11Z</time>
      </trkpt>
      <trkpt lat="37.00994" lon="-3.21162">
        <ele>1954.47</ele>
        <time>2021-07-17T15:29:22Z</time>
      </trkpt>
      <trkpt lat="37.01157" lon="-3.21129">
        <ele>1958.647</ele>
        <time>2021-07-17T15:29:33Z</time>
      </trkpt>
      <trkpt lat="37.01253" lon="-3.21165">
        <ele>1960.929</ele>
        <time>2021-07-17T15:29:44Z</time>
      </trkpt>
      <trkpt lat="37.01338" lon="-3.21148">
        <ele>1962.582</ele>
        <time>2021-07-17T15:29:55Z</time>
      </trkpt>
      <trkpt lat="37.01409" lon="-3.21086">
        <ele>1962.768</ele>
        <time>2021-07-17T15:30:06Z</time>
      </trkpt>
      <trkpt lat="37.01555" lon="-3.21094">
        <ele>1962.727</ele>
        <time>2021-07-17T15:30:17Z</time>
      </trkpt>
      <trkpt lat="37.01692" lon="-3.21134">
        <ele>1969.574</ele>
        <time>2021-07-17T15:30:28Z</time>
      </trkpt>
      <trkpt lat="37.01786" lon="-3.21212">
        <ele>1973.234</ele>
        <time>2021-07-17T15:30:39Z</time>
      </trkpt>
      <trkpt lat="37.01825" lon="-3.21184">
        <ele>1981.149</ele>
        <time>2021-07-17T15:30:50Z</time>
      </trkpt>
      <trkpt lat="37.01927" lon="-3.21097">
        <ele>1978.709</ele>
        <time>2021-07-17T15:31:01Z</time>
      </trkpt>
      <trkpt lat="37.02075" lon="-3.21043">
        <ele>1981.633</ele>
        <time>2021-07-17T15:31:12Z</time>
      </trkpt>
      <trkpt lat="37.02197" lon="-3.21031">
        <ele>1987.237</ele>
        <time>2021-07-17T15:31:23Z</time>
      </trkpt>
      <trkpt lat="37.02283" lon="-3.21003">
        <ele>1979.529</ele>
        <time>2021-07-17T15:31:34Z</time>
      </trkpt>
      <trkpt lat="37.02304" lon="-3.20861">
        <ele>1963.168</ele>
        <time>2021-07-17T15:31:45Z</time>
      </trkpt>
      <trkpt lat="37.02326" lon="-3.20744">
        <ele>1958.841</ele>
        <time>2021-07-17T15:31:56Z</time>
      </trkpt>
      <trkpt lat="37.02462" lon="-3.20665">
        <ele>1970.367</ele>
        <time>2021-07-17T15:32:07Z</time>
      </trkpt>
      <trkpt lat="37.02604" lon="-3.20654">
        <ele>1978.707</ele>
        <time>2021-07-17T15:32:18Z</time>
      </trkpt>
      <trkpt lat="37.02717" lon="-3.20612">
        <ele>1986.784</ele>
        <time>2021-07-17T15:32:29Z</time>
      </trkpt>
      <trkpt lat="37.02844" lon="-3.20608">
        <ele>1988.164</ele>
        <time>2021-07-17T15:32:40Z</time>
      </trkpt>
      <trkpt lat="37.02953" lon="-3.20607">
        <ele>1991.911</ele>
        <time>2021-07-17T15:32:51Z</time>
      </trkpt>
      <trkpt lat="37.02998" lon="-3.20605">
        <ele>2001.019</ele>
        <time>2021-07-17T15:33:02Z</time>
      </trkpt>
      <trkpt lat="37.03017" lon="-3.20608">
        <ele>2023.139</ele>
        <time>2021-07-17T15:33:13Z</time>
      </trkpt>
      <trkpt lat="37.03136" lon="-3.20634">
        <ele>2006.93</ele>
        <time>2021-07-17T15:33:24Z</time>
      </trkpt>
      <trkpt lat="37.03258" lon="-3.20634">
        <ele>2006.17</ele>
        <time>2021-07-17T15:33:35Z</time>
      </trkpt>
      <trkpt lat="37.03373" lon="-3.20638">
        <ele>2022.731</ele>
        <time>2021-07-17T15:33:46Z</time>
      </trkpt>
      <trkpt lat="37.03487" lon="-3.20741">
        <ele>2029.058</ele>
        <time>2021-07-17T15:33:57Z</time>
      </trkpt>
      <trkpt lat="37.03587" lon="-3.2082">
        <ele>2018.44</ele>
        <time>2021-07-17T15:34:08Z</time>
      </trkpt>
      <trkpt lat="37.03554" lon="-3.20713">
        <ele>2018.605</ele>
        <time>2021-07-17T15:34:19Z</time>
      </trkpt>
      <trkpt lat="37.03579" lon="-3.20614">
        <ele>2026.137</ele>
        <time>2021-07-17T15:34:30Z</time>
      </trkpt>
      <trkpt lat="37.0369" lon="-3.20501">
        <ele>2015.367</ele>
        <time>2021-07-17T15:34:41Z</time>
      </trkpt>
      <trkpt lat="37.03777" lon="-3.20413">
        <ele>2007.397</ele>
        <time>2021-07-17T15:34:52Z</time>
      </trkpt>
      <trkpt lat="37.03831" lon="-3.20284">
        <ele>1993.242</ele>
        <time>2021-07-17T15:35:03Z</time>
      </trkpt>
      <trkpt lat="37.038" lon="-3.20245">
        <ele>1999.363</ele>
        <time>2021-07-17T15:35:14Z</time>
      </trkpt>
      <trkpt lat="37.03681" lon="-3.20308">
        <ele>1998.446</ele>
        <time>2021-07-17T15:35:25Z</time>
      </trkpt>
      <trkpt lat="37.03538" lon="-3.20275">
        <ele>1983.212</ele>
        <time>2021-07-17T15:35:36Z</time>
      </trkpt>
      <trkpt lat="37.03429" lon="-3.20283">
        <ele>2012.194</ele>
        <time>2021-07-17T15:35:47Z</time>
      </trkpt>
      <trkpt lat="37.03299" lon="-3.20244">
        <ele>2013.393</ele>
        <time>2021-07-17T15:35:58Z</time>
      </trkpt>
      <trkpt lat="37.03175" lon="-3.20209">
        <ele>2012.674</ele>
        <time>2021-07-17T15:36:09Z</time>
      </trkpt>
      <trkpt lat="37.03065" lon="-3.20215">
        <ele>2016.201</ele>
        <time>2021-07-17T15:36:20Z</time>
      </trkpt>
      <trkpt lat="37.02958" lon="-3.20175">
        <ele>2018.967</ele>
        <time>2021-07-17T15:36:31Z</time>
      </trkpt>
      <trkpt lat="37.02877" lon="-3.20171">
        <ele>2015.85</ele>
        <time>2021-07-17T15:36:42Z</time>
      </trkpt>
      <trkpt lat="37.02807" lon="-3.20093">
        <ele>2007.564</ele>
        <time>2021-07-17T15:36:53Z</time>
      </trkpt>
      <trkpt lat="37.02708" lon="-3.20012">
        <ele>1993.433</ele>
        <time>2021-07-17T15:37:04Z</time>
      </trkpt>
      <trkpt lat="37.02668" lon="-3.19919">
        <ele>1980.139</ele>
        <time>2021-07-17T15:37:15Z</time>
      </trkpt>
      <trkpt lat="37.02725" lon="-3.19817">
        <ele>1971.708</ele>
        <time>2021-07-17T15:37:26Z</time>
      </trkpt>
      <trkpt lat="37.02831" lon="-3.19751">
        <ele>1959.517</ele>
        <time>2021-07-17T15:37:37Z</time>
      </trkpt>
      <trkpt lat="37.02937" lon="-3.19685">
        <ele>1950.642</ele>
        <time>2021-07-17T15:37:48Z</time>
      </trkpt>
      <trkpt lat="37.03014" lon="-3.19569">
        <ele>1944.959</ele>
        <time>2021-07-17T15:37:59Z</time>
      </trkpt>
      <trkpt lat="37.03099" lon="-3.19474">
        <ele>1938.904</ele>
        <time>2021-07-17T15:38:10Z</time>
      </trkpt>
      <trkpt lat="37.03172" lon="-3.19349">
        <ele>1925.117</ele>
        <time>2021-07-17T15:38:21Z</time>
      </trkpt>
      <trkpt lat="37.03283" lon="-3.19244">
        <ele>1915.437</ele>
        <time>2021-07-17T15:38:32Z</time>
      </trkpt>
      <trkpt lat="37.03395" lon="-3.19194">
        <ele>1901.522</ele>
        <time>2021-07-17T15:38:43Z</time>
      </trkpt>
      <trkpt lat="37.03439" lon="-3.19091">
        <ele>1892.707</ele>
        <time>2021-07-17T15:38:54Z</time>
      </trkpt>
      <trkpt lat="37.0355" lon="-3.19026">
        <ele>1884.747</ele>
        <time>2021-07-17T15:39:05Z</time>
      </trkpt>
      <trkpt lat="37.03685" lon="-3.18961">
        <ele>1873.158</ele>
        <time>2021-07-17T15:39:16Z</time>
      </trkpt>
      <trkpt lat="37.03816" lon="-3.18901">
        <ele>1860.332</ele>
        <time>2021-07-17T15:39:27Z</time>
      </trkpt>
      <trkpt lat="37.03926" lon="-3.18858">
        <ele>1849.334</ele>
        <time>2021-07-17T15:39:38Z</time>
      </trkpt>
      <trkpt lat="37.03992" lon="-3.1878">
        <ele>1845.031</ele>
        <time>2021-07-17T15:39:49Z</time>
      </trkpt>
      <trkpt lat="37.04109" lon="-3.18742">
        <ele>1835.189</ele>
        <time>2021-07-17T15:40:00Z</time>
      </trkpt>
      <trkpt lat="37.04217" lon="-3.18734">
        <ele>1826.286</ele>
        <time>2021-07-17T15:40:11Z</time>
      </trkpt>
      <trkpt lat="37.04302" lon="-3.18687">
        <ele>1819.418</ele>
        <time>2021-07-17T15:40:22Z</time>
      </trkpt>
      <trkpt lat="37.04364" lon="-3.18607">
        <ele>1806.905</ele>
        <time>2021-07-17T15:40:33Z</time>
      </trkpt>
      <trkpt lat="37.04407" lon="-3.18507">
        <ele>1804.252</ele>
        <time>2021-07-17T15:40:44Z</time>
      </trkpt>
      <trkpt lat="37.0434" lon="-3.18479">
        <ele>1809.755</ele>
        <time>2021-07-17T15:40:55Z</time>
      </trkpt>
      <trkpt lat="37.04245" lon="-3.18522">
        <ele>1818.566</ele>
        <time>2021-07-17T15:41:06Z</time>
      </trkpt>
      <trkpt lat="37.04143" lon="-3.18444">
        <ele>1819.084</ele>
        <time>2021-07-17T15:41:17Z</time>
      </trkpt>
      <trkpt lat="37.04026" lon="-3.18367">
        <ele>1818.919</ele>
        <time>2021-07-17T15:41:28Z</time>
      </trkpt>
      <trkpt lat="37.03919" lon="-3.1832">
        <ele>1820.871</ele>
        <time>2021-07-17T15:41:39Z</time>
      </trkpt>
      <trkpt lat="37.0381" lon="-3.18222">
        <ele>1823.865</ele>
        <time>2021-07-17T15:41:50Z</time>
      </trkpt>
      <trkpt lat="37.03742" lon="-3.18227">
        <ele>1828.169</ele>
        <time>2021-07-17T15:42:01Z</time>
      </trkpt>
      <trkpt lat="37.03624" lon="-3.18156">
        <ele>1832.635</ele>
        <time>2021-07-17T15:42:12Z</time>
      </trkpt>
      <trkpt lat="37.03584" lon="-3.18057">
        <ele>1845.419</ele>
        <time>2021-07-17T15:42:23Z</time>
      </trkpt>
      <trkpt lat="37.03597" lon="-3.17982">
        <ele>1850.153</ele>
        <time>2021-07-17T15:42:34Z</time>
      </trkpt>
      <trkpt lat="37.03522" lon="-3.17974">
        <ele>1871.506</ele>
        <time>2021-07-17T15:42:45Z</time>
      </trkpt>
      <trkpt lat="37.03391" lon="-3.17962">
        <ele>1874.245</ele>
        <time>2021-07-17T15:42:56Z</time>
      </trkpt>
      <trkpt lat="37.03275" lon="-3.17883">
        <ele>1866.98</ele>
        <time>2021-07-17T15:43:07Z</time>
      </trkpt>
      <trkpt lat="37.03166" lon="-3.17752">
        <ele>1872.691</ele>
        <time>2021-07-17T15:43:18Z</time>
      </trkpt>
      <trkpt lat="37.03101" lon="-3.17636">
        <ele>1860.581</ele>
        <time>2021-07-17T15:43:29Z</time>
      </trkpt>
      <trkpt lat="37.02977" lon="-3.17593">
        <ele>1860.383</ele>
        <time>2021-07-17T15:43:40Z</time>
      </trkpt>
      <trkpt lat="37.02847" lon="-3.17575">
        <ele>1875.079</ele>
        <time>2021-07-17T15:43:51Z</time>
      </trkpt>
      <trkpt lat="37.02748" lon="-3.17542">
        <ele>1883.027</ele>
        <time>2021-07-17T15:44:02Z</time>
      </trkpt>
      <trkpt lat="37.02666" lon="-3.17603">
        <ele>1894.322</ele>
        <time>2021-07-17T15:44:13Z</time>
      </trkpt>
      <trkpt lat="37.02585" lon="-3.17691">
        <ele>1894.926</ele>
        <time>2021-07-17T15:44:25Z</time>
      </trkpt>
      <trkpt lat="37.02469" lon="-3.17664">
        <ele>1893.86</ele>
        <time>2021-07-17T15:44:36Z</time>
      </trkpt>
      <trkpt lat="37.0236" lon="-3.17618">
        <ele>1896.679</ele>
        <time>2021-07-17T15:44:47Z</time>
      </trkpt>
      <trkpt lat="37.02255" lon="-3.17556">
        <ele>1911.155</ele>
        <time>2021-07-17T15:44:58Z</time>
      </trkpt>
      <trkpt lat="37.02131" lon="-3.17501">
        <ele>1916.677</ele>
        <time>2021-07-17T15:45:09Z</time>
      </trkpt>
      <trkpt lat="37.0203" lon="-3.17475">
        <ele>1921.344</ele>
        <time>2021-07-17T15:45:20Z</time>
      </trkpt>
      <trkpt lat="37.01924" lon="-3.17415">
        <ele>1935.905</ele>
        <time>2021-07-17T15:45:31Z</time>
      </trkpt>
      <trkpt lat="37.01819" lon="-3.1747">
        <ele>1957.439</ele>
        <time>2021-07-17T15:45:42Z</time>
      </trkpt>
      <trkpt lat="37.01722" lon="-3.17587">
        <ele>1961.555</ele>
        <time>2021-07-17T15:45:53Z</time>
      </trkpt>
      <trkpt lat="37.01611" lon="-3.17599">
        <ele>1960.31</ele>
        <time>2021-07-17T15:46:04Z</time>
      </trkpt>
      <trkpt lat="37.01475" lon="-3.17551">
        <ele>1960.895</ele>
        <time>2021-07-17T15:46:15Z</time>
      </trkpt>
      <trkpt lat="37.01355" lon="-3.17554">
        <ele>1962.252</ele>
        <time>2021-07-17T15:46:26Z</time>
      </trkpt>
      <trkpt lat="37.01315" lon="-3.17571">
        <ele>1961.831</ele>
        <time>2021-07-17T15:46:37Z</time>
      </trkpt>
      <trkpt lat="37.01351" lon="-3.17456">
        <ele>1967.002</ele>
        <time>2021-07-17T15:46:48Z</time>
      </trkpt>
      <trkpt lat="37.01422" lon="-3.17414">
        <ele>1975.913</ele>
        <time>2021-07-17T15:46:59Z</time>
      </trkpt>
      <trkpt lat="37.01554" lon="-3.1735">
        <ele>1977.966</ele>
        <time>2021-07-17T15:47:10Z</time>
      </trkpt>
      <trkpt lat="37.01698" lon="-3.17261">
        <ele>1968.778</ele>
        <time>2021-07-17T15:47:21Z</time>
      </trkpt>
      <trkpt lat="37.01827" lon="-3.17193">
        <ele>1961.769</ele>
        <time>2021-07-17T15:47:32Z</time>
      </trkpt>
      <trkpt lat="37.01974" lon="-3.1711">
        <ele>1959.867</ele>
        <time>2021-07-17T15:47:43Z</time>
      </trkpt>
      <trkpt lat="37.02096" lon="-3.16987">
        <ele>1965.049</ele>
        <time>2021-07-17T15:47:54Z</time>
      </trkpt>
      <trkpt lat="37.02224" lon="-3.1688">
        <ele>1967.681</ele>
        <time>2021-07-17T15:48:05Z</time>
      </trkpt>
      <trkpt lat="37.02347" lon="-3.16761">
        <ele>1972.432</ele>
        <time>2021-07-17T15:48:16Z</time>
      </trkpt>
      <trkpt lat="37.02507" lon="-3.16682">
        <ele>1960.137</ele>
        <time>2021-07-17T15:48:27Z</time>
      </trkpt>
      <trkpt lat="37.02624" lon="-3.16577">
        <ele>1963.468</ele>
        <time>2021-07-17T15:48:38Z</time>
      </trkpt>
      <trkpt lat="37.02727" lon="-3.16418">
        <ele>1969.897</ele>
        <time>2021-07-17T15:48:49Z</time>
      </trkpt>
      <trkpt lat="37.0283" lon="-3.16264">
        <ele>1968.598</ele>
        <time>2021-07-17T15:49:00Z</time>
      </trkpt>
      <trkpt lat="37.02952" lon="-3.16131">
        <ele>1964.89</ele>
        <time>2021-07-17T15:49:11Z</time>
      </trkpt>
      <trkpt lat="37.03104" lon="-3.16066">
        <ele>1964.763</ele>
        <time>2021-07-17T15:49:22Z</time>
      </trkpt>
      <trkpt lat="37.03218" lon="-3.16002">
        <ele>1955.36</ele>
        <time>2021-07-17T15:49:33Z</time>
      </trkpt>
      <trkpt lat="37.03343" lon="-3.16009">
        <ele>1954.561</ele>
        <time>2021-07-17T15:49:44Z</time>
      </trkpt>
      <trkpt lat="37.03488" lon="-3.15972">
        <ele>1959.506</ele>
        <time>2021-07-17T15:49:55Z</time>
      </trkpt>
      <trkpt lat="37.03643" lon="-3.15896">
        <ele>1973.359</ele>
        <time>2021-07-17T15:50:06Z</time>
      </trkpt>
      <trkpt lat="37.03791" lon="-3.15858">
        <ele>1975.777</ele>
        <time>2021-07-17T15:50:17Z</time>
      </trkpt>
      <trkpt lat="37.03884" lon="-3.15756">
        <ele>1972.758</ele>
        <time>2021-07-17T15:50:28Z</time>
      </trkpt>
      <trkpt lat="37.03971" lon="-3.15781">
        <ele>1968.251</ele>
        <time>2021-07-17T15:50:39Z</time>
      </trkpt>
      <trkpt lat="37.03966" lon="-3.15706">
        <ele>1964.98</ele>
        <time>2021-07-17T15:50:50Z</time>
      </trkpt>
      <trkpt lat="37.03939" lon="-3.15544">
        <ele>1956.529</ele>
        <time>2021-07-17T15:51:01Z</time>
      </trkpt>
      <trkpt lat="37.03855" lon="-3.15383">
        <ele>1948.261</ele>
        <time>2021-07-17T15:51:12Z</time>
      </trkpt>
      <trkpt lat="37.03742" lon="-3.15261">
        <ele>1930.793</ele>
        <time>2021-07-17T15:51:23Z</time>
      </trkpt>
      <trkpt lat="37.03628" lon="-3.15095">
        <ele>1921.28</ele>
        <time>2021-07-17T15:51:34Z</time>
      </trkpt>
      <trkpt lat="37.03586" lon="-3.14941">
        <ele>1930.94</ele>
        <time>2021-07-17T15:51:45Z</time>
      </trkpt>
      <trkpt lat="37.03669" lon="-3.14795">
        <ele>1929.469</ele>
        <time>2021-07-17T15:51:56Z</time>
      </trkpt>
      <trkpt lat="37.03792" lon="-3.14706">
        <ele>1930.523</ele>
        <time>2021-07-17T15:52:07Z</time>
      </trkpt>
      <trkpt lat="37.03886" lon="-3.14568">
        <ele>1934.46</ele>
        <time>2021-07-17T15:52:18Z</time>
      </trkpt>
      <trkpt lat="37.0394" lon="-3.1439">
        <ele>1941.701</ele>
        <time>2021-07-17T15:52:29Z</time>
      </trkpt>
      <trkpt lat="37.04057" lon="-3.14262">
        <ele>1942.144</ele>
        <time>2021-07-17T15:52:40Z</time>
      </trkpt>
      <trkpt lat="37.04194" lon="-3.14172">
        <ele>1934.357</ele>
        <time>2021-07-17T15:52:51Z</time>
      </trkpt>
      <trkpt lat="37.04308" lon="-3.14025">
        <ele>1920.898</ele>
        <time>2021-07-17T15:53:02Z</time>
      </trkpt>
      <trkpt lat="37.04378" lon="-3.13862">
        <ele>1909.794</ele>
        <time>2021-07-17T15:53:13Z</time>
      </trkpt>
      <trkpt lat="37.04454" lon="-3.13683">
        <ele>1896.209</ele>
        <time>2021-07-17T15:53:24Z</time>
      </trkpt>
      <trkpt lat="37.04534" lon="-3.13512">
        <ele>1896.724</ele>
        <time>2021-07-17T15:53:35Z</time>
      </trkpt>
      <trkpt lat="37.04625" lon="-3.13344">
        <ele>1898.739</ele>
        <time>2021-07-17T15:53:46Z</time>
      </trkpt>
      <trkpt lat="37.04739" lon="-3.13299">
        <ele>1890.872</ele>
        <time>2021-07-17T15:53:57Z</time>
      </trkpt>
      <trkpt lat="37.04872" lon="-3.13329">
        <ele>1884.815</ele>
        <time>2021-07-17T15:54:08Z</time>
      </trkpt>
      <trkpt lat="37.04986" lon="-3.13265">
        <ele>1875.322</ele>
        <time>2021-07-17T15:54:19Z</time>
      </trkpt>
      <trkpt lat="37.05119" lon="-3.13305">
        <ele>1855.148</ele>
        <time>2021-07-17T15:54:30Z</time>
      </trkpt>
      <trkpt lat="37.05207" lon="-3.1331">
        <ele>1837.918</ele>
        <time>2021-07-17T15:54:41Z</time>
      </trkpt>
      <trkpt lat="37.05256" lon="-3.1326">
        <ele>1853.849</ele>
        <time>2021-07-17T15:54:52Z</time>
      </trkpt>
      <trkpt lat="37.05377" lon="-3.13225">
        <ele>1869.903</ele>
        <time>2021-07-17T15:55:03Z</time>
      </trkpt>
      <trkpt lat="37.05487" lon="-3.13161">
        <ele>1870.209</ele>
        <time>2021-07-17T15:55:14Z</time>
      </trkpt>
      <trkpt lat="37.0552" lon="-3.13152">
        <ele>1869.704</ele>
        <time>2021-07-17T15:55:25Z</time>
      </trkpt>
      <trkpt lat="37.05524" lon="-3.13143">
        <ele>1886.044</ele>
        <time>2021-07-17T15:56:09Z</time>
      </trkpt>
      <trkpt lat="37.05548" lon="-3.13089">
        <ele>1883.613</ele>
        <time>2021-07-17T15:56:20Z</time>
      </trkpt>
      <trkpt lat="37.05451" lon="-3.13088">
        <ele>1868.948</ele>
        <time>2021-07-17T15:56:31Z</time>
      </trkpt>
      <trkpt lat="37.05335" lon="-3.13053">
        <ele>1854.486</ele>
        <time>2021-07-17T15:56:42Z</time>
      </trkpt>
      <trkpt lat="37.05219" lon="-3.13008">
        <ele>1869.244</ele>
        <time>2021-07-17T15:56:53Z</time>
      </trkpt>
      <trkpt lat="37.05085" lon="-3.12976">
        <ele>1885.471</ele>
        <time>2021-07-17T15:57:04Z</time>
      </trkpt>
      <trkpt lat="37.04968" lon="-3.12845">
        <ele>1896.402</ele>
        <time>2021-07-17T15:57:15Z</time>
      </trkpt>
      <trkpt lat="37.04831" lon="-3.1277">
        <ele>1906.146</ele>
        <time>2021-07-17T15:57:26Z</time>
      </trkpt>
      <trkpt lat="37.04684" lon="-3.12709">
        <ele>1922.732</ele>
        <time>2021-07-17T15:57:37Z</time>
      </trkpt>
      <trkpt lat="37.04558" lon="-3.12614">
        <ele>1943.335</ele>
        <time>2021-07-17T15:57:48Z</time>
      </trkpt>
      <trkpt lat="37.04389" lon="-3.1254">
        <ele>1945.443</ele>
        <time>2021-07-17T15:57:59Z</time>
      </trkpt>
      <trkpt lat="37.04215" lon="-3.12471">
        <ele>1949.473</ele>
        <time>2021-07-17T15:58:10Z</time>
      </trkpt>
      <trkpt lat="37.04062" lon="-3.12447">
        <ele>1955.308</ele>
        <time>2021-07-17T15:58:21Z</time>
      </trkpt>
      <trkpt lat="37.03901" lon="-3.12453">
        <ele>1957.79</ele>
        <time>2021-07-17T15:58:32Z</time>
      </trkpt>
      <trkpt lat="37.03761" lon="-3.12475">
        <ele>1967.478</ele>
        <time>2021-07-17T15:58:43Z</time>
      </trkpt>
      <trkpt lat="37.03646" lon="-3.12616">
        <ele>1973.731</ele>
        <time>2021-07-17T15:58:54Z</time>
      </trkpt>
      <trkpt lat="37.03515" lon="-3.12702">
        <ele>1978.875</ele>
        <time>2021-07-17T15:59:05Z</time>
      </trkpt>
      <trkpt lat="37.03344" lon="-3.12692">
        <ele>1985.121</ele>
        <time>2021-07-17T15:59:16Z</time>
      </trkpt>
      <trkpt lat="37.03197" lon="-3.12699">
        <ele>1987.779</ele>
        <time>2021-07-17T15:59:27Z</time>
      </trkpt>
      <trkpt lat="37.03072" lon="-3.12799">
        <ele>1983.703</ele>
        <time>2021-07-17T15:59:38Z</time>
      </trkpt>
      <trkpt lat="37.02896" lon="-3.12817">
        <ele>1979.747</ele>
        <time>2021-07-17T15:59:49Z</time>
      </trkpt>
      <trkpt lat="37.02765" lon="-3.12904">
        <ele>1977.956</ele>
        <time>2021-07-17T16:00:00Z</time>
      </trkpt>
      <trkpt lat="37.02742" lon="-3.12904">
        <ele>1980.212</ele>
        <time>2021-07-17T16:00:11Z</time>
      </trkpt>
      <trkpt lat="37.02743" lon="-3.12905">
        <ele>1976.231</ele>
        <time>2021-07-17T16:01:11Z</time>
      </trkpt>
      <trkpt lat="37.02735" lon="-3.12903">
        <ele>1975.413</ele>
        <time>2021-07-17T16:01:54Z</time>
      </trkpt>
      <trkpt lat="37.02627" lon="-3.12847">
        <ele>1961.942</ele>
        <time>2021-07-17T16:02:05Z</time>
      </trkpt>
      <trkpt lat="37.02575" lon="-3.12668">
        <ele>1956.555</ele>
        <time>2021-07-17T16:02:16Z</time>
      </trkpt>
      <trkpt lat="37.02601" lon="-3.1246">
        <ele>1957.533</ele>
        <time>2021-07-17T16:02:27Z</time>
      </trkpt>
      <trkpt lat="37.0269" lon="-3.12277">
        <ele>1957.681</ele>
        <time>2021-07-17T16:02:38Z</time>
      </trkpt>
      <trkpt lat="37.02804" lon="-3.1216">
        <ele>1956.57</ele>
        <time>2021-07-17T16:02:49Z</time>
      </trkpt>
      <trkpt lat="37.02941" lon="-3.12088">
        <ele>1953.269</ele>
        <time>2021-07-17T16:03:00Z</time>
      </trkpt>
      <trkpt lat="37.03043" lon="-3.11985">
        <ele>1944.936</ele>
        <time>2021-07-17T16:03:11Z</time>
      </trkpt>
      <trkpt lat="37.0311" lon="-3.11815">
        <ele>1938.256</ele>
        <time>2021-07-17T16:03:22Z</time>
      </trkpt>
      <trkpt lat="37.03188" lon="-3.11665">
        <ele>1933.612</ele>
        <time>2021-07-17T16:03:33Z</time>
      </trkpt>
      <trkpt lat="37.03155" lon="-3.11526">
        <ele>1934.083</ele>
        <time>2021-07-17T16:03:44Z</time>
      </trkpt>
      <trkpt lat="37.03192" lon="-3.11395">
        <ele>1930.398</ele>
        <time>2021-07-17T16:03:55Z</time>
      </trkpt>
      <trkpt lat="37.03192" lon="-3.11217">
        <ele>1924.25</ele>
        <time>2021-07-17T16:04:06Z</time>
      </trkpt>
      <trkpt lat="37.03311" lon="-3.11136">
        <ele>1918.507</ele>
        <time>2021-07-17T16:04:17Z</time>
      </trkpt>
      <trkpt lat="37.03455" lon="-3.11172">
        <ele>1909.676</ele>
        <time>2021-07-17T16:04:28Z</time>
      </trkpt>
      <trkpt lat="37.03565" lon="-3.1126">
        <ele>1903.22</ele>
        <time>2021-07-17T16:04:39Z</time>
      </trkpt>
      <trkpt lat="37.03661" lon="-3.11382">
        <ele>1895.724</ele>
        <time>2021-07-17T16:04:50Z</time>
      </trkpt>
      <trkpt lat="37.03751" lon="-3.11443">
        <ele>1887.973</ele>
        <time>2021-07-17T16:05:01Z</time>
      </trkpt>
      <trkpt lat="37.03862" lon="-3.11338">
        <ele>1881.25</ele>
        <time>2021-07-17T16:05:12Z</time>
      </trkpt>
      <trkpt lat="37.04008" lon="-3.1126">
        <ele>1882.986</ele>
        <time>2021-07-17T16:05:23Z</time>
      </trkpt>
      <trkpt lat="37.04145" lon="-3.11228">
        <ele>1875.404</ele>
        <time>2021-07-17T16:05:34Z</time>
      </trkpt>
      <trkpt lat="37.04256" lon="-3.11187">
        <ele>1859.354</ele>
        <time>2021-07-17T16:05:45Z</time>
      </trkpt>
      <trkpt lat="37.04383" lon="-3.11109">
        <ele>1843.476</ele>
        <time>2021-07-17T16:05:56Z</time>
      </trkpt>
      <trkpt lat="37.04489" lon="-3.11055">
        <ele>1845.784</ele>
        <time>2021-07-17T16:06:07Z</time>
      </trkpt>
      <trkpt lat="37.04499" lon="-3.10928">
        <ele>1849.579</ele>
        <time>2021-07-17T16:06:18Z</time>
      </trkpt>
      <trkpt lat="37.04599" lon="-3.10842">
        <ele>1842.882</ele>
        <time>2021-07-17T16:06:29Z</time>
      </trkpt>
      <trkpt lat="37.04671" lon="-3.10765">
        <ele>1838.851</ele>
        <time>2021-07-17T16:06:40Z</time>
      </trkpt>
      <trkpt lat="37.04773" lon="-3.10713">
        <ele>1838.863</ele>
        <time>2021-07-17T16:06:51Z</time>
      </trkpt>
      <trkpt lat="37.04825" lon="-3.10587">
        <ele>1836.45</ele>
        <time>2021-07-17T16:07:02Z</time>
      </trkpt>
      <trkpt lat="37.04956" lon="-3.10463">
        <ele>1833.5</ele>
        <time>2021-07-17T16:07:13Z</time>
      </trkpt>
      <trkpt lat="37.05099" lon="-3.10331">
        <ele>1833.575</ele>
        <time>2021-07-17T16:07:24Z</time>
      </trkpt>
      <trkpt lat="37.05202" lon="-3.10241">
        <ele>1819.085</ele>
        <time>2021-07-17T16:07:35Z</time>
      </trkpt>
      <trkpt lat="37.05168" lon="-3.10198">
        <ele>1819.149</ele>
        <time>2021-07-17T16:07:46Z</time>
      </trkpt>
      <trkpt lat="37.05052" lon="-3.10184">
        <ele>1820.181</ele>
        <time>2021-07-17T16:07:57Z</time>
      </trkpt>
      <trkpt lat="37.0492" lon="-3.10212">
        <ele>1823.016</ele>
        <time>2021-07-17T16:08:08Z</time>
      </trkpt>
      <trkpt lat="37.0478" lon="-3.10227">
        <ele>1830.307</ele>
        <time>2021-07-17T16:08:19Z</time>
      </trkpt>
      <trkpt lat="37.0465" lon="-3.10139">
        <ele>1837.311</ele>
        <time>2021-07-17T16:08:30Z</time>
      </trkpt>
      <trkpt lat="37.04502" lon="-3.10102">
        <ele>1842.18</ele>
        <time>2021-07-17T16:08:41Z</time>
      </trkpt>
      <trkpt lat="37.04364" lon="-3.10025">
        <ele>1844.105</ele>
        <time>2021-07-17T16:08:52Z</time>
      </trkpt>
      <trkpt lat="37.04272" lon="-3.09896">
        <ele>1838.845</ele>
        <time>2021-07-17T16:09:03Z</time>
      </trkpt>
      <trkpt lat="37.04144" lon="-3.09805">
        <ele>1835.193</ele>
        <time>2021-07-17T16:09:14Z</time>
      </trkpt>
      <trkpt lat="37.04019" lon="-3.09683">
        <ele>1825.208</ele>
        <time>2021-07-17T16:09:25Z</time>
      </trkpt>
      <trkpt lat="37.03907" lon="-3.09544">
        <ele>1814.724</ele>
        <time>2021-07-17T16:09:36Z</time>
      </trkpt>
      <trkpt lat="37.03809" lon="-3.0937">
        <ele>1805.481</ele>
        <time>2021-07-17T16:09:47Z</time>
      </trkpt>
      <trkpt lat="37.03834" lon="-3.09286">
        <ele>1800.258</ele>
        <time>2021-07-17T16:09:58Z</time>
      </trkpt>
      <trkpt lat="37.03978" lon="-3.09256">
        <ele>1795.162</ele>
        <time>2021-07-17T16:10:09Z</time>
      </trkpt>
      <trkpt lat="37.04151" lon="-3.09228">
        <ele>1800.954</ele>
        <time>2021-07-17T16:10:20Z</time>
      </trkpt>
      <trkpt lat="37.04306" lon="-3.09256">
        <ele>1802.949</ele>
        <time>2021-07-17T16:10:31Z</time>
      </trkpt>
      <trkpt lat="37.04487" lon="-3.09277">
        <ele>1790.216</ele>
        <time>2021-07-17T16:10:42Z</time>
      </trkpt>
      <trkpt lat="37.04658" lon="-3.09297">
        <ele>1796.037</ele>
        <time>2021-07-17T16:10:53Z</time>
      </trkpt>
      <trkpt lat="37.04808" lon="-3.09321">
        <ele>1799.498</ele>
        <time>2021-07-17T16:11:04Z</time>
      </trkpt>
      <trkpt lat="37.04948" lon="-3.09393">
        <ele>1804.506</ele>
        <time>2021-07-17T16:11:15Z</time>
      </trkpt>
      <trkpt lat="37.05087" lon="-3.09461">
        <ele>1813.697</ele>
        <time>2021-07-17T16:11:26Z</time>
      </trkpt>
      <trkpt lat="37.0523" lon="-3.09528">
        <ele>1820.522</ele>
        <time>2021-07-17T16:11:37Z</time>
      </trkpt>
      <trkpt lat="37.05367" lon="-3.09566">
        <ele>1828.367</ele>
        <time>2021-07-17T16:11:48Z</time>
      </trkpt>
      <trkpt lat="37.0549" lon="-3.09555">
        <ele>1832.508</ele>
        <time>2021-07-17T16:11:59Z</time>
      </trkpt>
      <trkpt lat="37.056" lon="-3.09456">
        <ele>1832.092</ele>
        <time>2021-07-17T16:12:10Z</time>
      </trkpt>
      <trkpt lat="37.05706" lon="-3.09377">
        <ele>1830.35</ele>
        <time>2021-07-17T16:12:21Z</time>
      </trkpt>
      <trkpt lat="37.05788" lon="-3.09291">
        <ele>1827.512</ele>
        <time>2021-07-17T16:12:32Z</time>
      </trkpt>
      <trkpt lat="37.05875" lon="-3.09221">
        <ele>1825.802</ele>
        <time>2021-07-17T16:12:43Z</time>
      </trkpt>
      <trkpt lat="37.05981" lon="-3.09147">
        <ele>1832.3</ele>
        <time>2021-07-17T16:12:54Z</time>
      </trkpt>
      <trkpt lat="37.0611" lon="-3.09126">
        <ele>1835.842</ele>
        <time>2021-07-17T16:13:05Z</time>
      </trkpt>
      <trkpt lat="37.06219" lon="-3.09042">
        <ele>1841.254</ele>
        <time>2021-07-17T16:13:16Z</time>
      </trkpt>
      <trkpt lat="37.06351" lon="-3.0898">
        <ele>1848.681</ele>
        <time>2021-07-17T16:13:27Z</time>
      </trkpt>
      <trkpt lat="37.06495" lon="-3.08921">
        <ele>1844.25</ele>
        <time>2021-07-17T16:13:38Z</time>
      </trkpt>
      <trkpt lat="37.06635" lon="-3.08985">
        <ele>1845.84</ele>
        <time>2021-07-17T16:13:49Z</time>
      </trkpt>
      <trkpt lat="37.06786" lon="-3.09037">
        <ele>1851.777</ele>
        <time>2021-07-17T16:14:00Z</time>
      </trkpt>
      <trkpt lat="37.06928" lon="-3.09083">
        <ele>1865.7</ele>
        <time>2021-07-17T16:14:11Z</time>
      </trkpt>
      <trkpt lat="37.07053" lon="-3.09123">
        <ele>1870.31</ele>
        <time>2021-07-17T16:14:22Z</time>
      </trkpt>
      <trkpt lat="37.07123" lon="-3.09041">
        <ele>1852.544</ele>
        <time>2021-07-17T16:14:33Z</time>
      </trkpt>
      <trkpt lat="37.07211" lon="-3.09096">
        <ele>1815.979</ele>
        <time>2021-07-17T16:14:44Z</time>
      </trkpt>
      <trkpt lat="37.07261" lon="-3.09096">
        <ele>1801.359</ele>
        <time>2021-07-17T16:14:55Z</time>
      </trkpt>
      <trkpt lat="37.07211" lon="-3.08947">
        <ele>1826.336</ele>
        <time>2021-07-17T16:15:06Z</time>
      </trkpt>
      <trkpt lat="37.07179" lon="-3.08851">
        <ele>1840.185</ele>
        <time>2021-07-17T16:15:17Z</time>
      </trkpt>
      <trkpt lat="37.07058" lon="-3.08797">
        <ele>1833.677</ele>
        <time>2021-07-17T16:15:28Z</time>
      </trkpt>
      <trkpt lat="37.06943" lon="-3.08688">
        <ele>1817.084</ele>
        <time>2021-07-17T16:15:39Z</time>
      </trkpt>
      <trkpt lat="37.06901" lon="-3.08672">
        <ele>1843.125</ele>
        <time>2021-07-17T16:15:50Z</time>
      </trkpt>
      <trkpt lat="37.06908" lon="-3.08696">
        <ele>1889.23</ele>
        <time>2021-07-17T16:16:01Z</time>
      </trkpt>
      <trkpt lat="37.06903" lon="-3.08676">
        <ele>1865.149</ele>
        <time>2021-07-17T16:16:12Z</time>
      </trkpt>
      <trkpt lat="37.069" lon="-3.08669">
        <ele>1867.069</ele>
        <time>2021-07-17T16:16:34Z</time>
      </trkpt>
      <trkpt lat="37.06852" lon="-3.08512">
        <ele>1874.724</ele>
        <time>2021-07-17T16:16:45Z</time>
      </trkpt>
      <trkpt lat="37.06844" lon="-3.08402">
        <ele>1881.131</ele>
        <time>2021-07-17T16:16:56Z</time>
      </trkpt>
      <trkpt lat="37.06733" lon="-3.08383">
        <ele>1888.719</ele>
        <time>2021-07-17T16:17:07Z</time>
      </trkpt>
      <trkpt lat="37.06594" lon="-3.08355">
        <ele>1892.997</ele>
        <time>2021-07-17T16:17:18Z</time>
      </trkpt>
      <trkpt lat="37.06465" lon="-3.0829">
        <ele>1902.287</ele>
        <time>2021-07-17T16:17:29Z</time>
      </trkpt>
      <trkpt lat="37.06392" lon="-3.08161">
        <ele>1895.909</ele>
        <time>2021-07-17T16:17:40Z</time>
      </trkpt>
      <trkpt lat="37.06252" lon="-3.08092">
        <ele>1907.15</ele>
        <time>2021-07-17T16:17:51Z</time>
      </trkpt>
      <trkpt lat="37.06105" lon="-3.08006">
        <ele>1909.925</ele>
        <time>2021-07-17T16:18:02Z</time>
      </trkpt>
      <trkpt lat="37.05989" lon="-3.07909">
        <ele>1913.425</ele>
        <time>2021-07-17T16:18:13Z</time>
      </trkpt>
      <trkpt lat="37.05884" lon="-3.07771">
        <ele>1916.698</ele>
        <time>2021-07-17T16:18:24Z</time>
      </trkpt>
      <trkpt lat="37.05877" lon="-3.0759">
        <ele>1921.498</ele>
        <time>2021-07-17T16:18:35Z</time>
      </trkpt>
      <trkpt lat="37.05894" lon="-3.07414">
        <ele>1922.101</ele>
        <time>2021-07-17T16:18:46Z</time>
      </trkpt>
      <trkpt lat="37.05944" lon="-3.07256">
        <ele>1924.902</ele>
        <time>2021-07-17T16:18:57Z</time>
      </trkpt>
      <trkpt lat="37.05942" lon="-3.07121">
        <ele>1926.628</ele>
        <time>2021-07-17T16:19:08Z</time>
      </trkpt>
      <trkpt lat="37.05919" lon="-3.06935">
        <ele>1930.284</ele>
        <time>2021-07-17T16:19:19Z</time>
      </trkpt>
      <trkpt lat="37.059" lon="-3.06805">
        <ele>1933.338</ele>
        <time>2021-07-17T16:19:30Z</time>
      </trkpt>
      <trkpt lat="37.058" lon="-3.06717">
        <ele>1930.786</ele>
        <time>2021-07-17T16:19:41Z</time>
      </trkpt>
      <trkpt lat="37.05673" lon="-3.06648">
        <ele>1931.674</ele>
        <time>2021-07-17T16:19:52Z</time>
      </trkpt>
      <trkpt lat="37.05616" lon="-3.06503">
        <ele>1937.582</ele>
        <time>2021-07-17T16:20:03Z</time>
      </trkpt>
      <trkpt lat="37.05544" lon="-3.0652">
        <ele>1948.869</ele>
        <time>2021-07-17T16:20:14Z</time>
      </trkpt>
      <trkpt lat="37.05428" lon="-3.06485">
        <ele>1942.155</ele>
        <time>2021-07-17T16:20:25Z</time>
      </trkpt>
      <trkpt lat="37.05304" lon="-3.06412">
        <ele>1930.634</ele>
        <time>2021-07-17T16:20:36Z</time>
      </trkpt>
      <trkpt lat="37.05144" lon="-3.06291">
        <ele>1925.326</ele>
        <time>2021-07-17T16:20:47Z</time>
      </trkpt>
      <trkpt lat="37.05015" lon="-3.06158">
        <ele>1921.787</ele>
        <time>2021-07-17T16:20:58Z</time>
      </trkpt>
      <trkpt lat="37.04928" lon="-3.05986">
        <ele>1934.752</ele>
        <time>2021-07-17T16:21:09Z</time>
      </trkpt>
      <trkpt lat="37.04858" lon="-3.05854">
        <ele>1942.751</ele>
        <time>2021-07-17T16:21:20Z</time>
      </trkpt>
      <trkpt lat="37.04745" lon="-3.05795">
        <ele>1948.525</ele>
        <time>2021-07-17T16:21:31Z</time>
      </trkpt>
      <trkpt lat="37.04577" lon="-3.05742">
        <ele>1935.816</ele>
        <time>2021-07-17T16:21:42Z</time>
      </trkpt>
      <trkpt lat="37.04427" lon="-3.05706">
        <ele>1915.92</ele>
        <time>2021-07-17T16:21:53Z</time>
      </trkpt>
      <trkpt lat="37.04327" lon="-3.05557">
        <ele>1892.422</ele>
        <time>2021-07-17T16:22:04Z</time>
      </trkpt>
      <trkpt lat="37.04326" lon="-3.0539">
        <ele>1884.62</ele>
        <time>2021-07-17T16:22:15Z</time>
      </trkpt>
      <trkpt lat="37.04307" lon="-3.05291">
        <ele>1886.689</ele>
        <time>2021-07-17T16:22:26Z</time>
      </trkpt>
      <trkpt lat="37.0423" lon="-3.05137">
        <ele>1887.818</ele>
        <time>2021-07-17T16:22:37Z</time>
      </trkpt>
      <trkpt lat="37.0421" lon="-3.04924">
        <ele>1887.657</ele>
        <time>2021-07-17T16:22:48Z</time>
      </trkpt>
      <trkpt lat="37.04129" lon="-3.04784">
        <ele>1885.716</ele>
        <time>2021-07-17T16:22:59Z</time>
      </trkpt>
      <trkpt lat="37.04073" lon="-3.04594">
        <ele>1868.561</ele>
        <time>2021-07-17T16:23:10Z</time>
      </trkpt>
      <trkpt lat="37.04088" lon="-3.04445">
        <ele>1855.783</ele>
        <time>2021-07-17T16:23:21Z</time>
      </trkpt>
      <trkpt lat="37.04199" lon="-3.04452">
        <ele>1852.969</ele>
        <time>2021-07-17T16:23:32Z</time>
      </trkpt>
      <trkpt lat="37.04317" lon="-3.04527">
        <ele>1839.818</ele>
        <time>2021-07-17T16:23:43Z</time>
      </trkpt>
      <trkpt lat="37.04458" lon="-3.04547">
        <ele>1839.075</ele>
        <time>2021-07-17T16:23:54Z</time>
      </trkpt>
      <trkpt lat="37.04589" lon="-3.04569">
        <ele>1838.285</ele>
        <time>2021-07-17T16:24:05Z</time>
      </trkpt>
      <trkpt lat="37.04705" lon="-3.04517">
        <ele>1851.127</ele>
        <time>2021-07-17T16:24:16Z</time>
      </trkpt>
      <trkpt lat="37.04806" lon="-3.04522">
        <ele>1849.444</ele>
        <time>2021-07-17T16:24:27Z</time>
      </trkpt>
      <trkpt lat="37.0491" lon="-3.04534">
        <ele>1842.14</ele>
        <time>2021-07-17T16:24:38Z</time>
      </trkpt>
      <trkpt lat="37.05017" lon="-3.04541">
        <ele>1841.254</ele>
        <time>2021-07-17T16:24:49Z</time>
      </trkpt>
      <trkpt lat="37.05142" lon="-3.04496">
        <ele>1845.209</ele>
        <time>2021-07-17T16:25:00Z</time>
      </trkpt>
      <trkpt lat="37.05278" lon="-3.0449">
        <ele>1838.479</ele>
        <time>2021-07-17T16:25:11Z</time>
      </trkpt>
      <trkpt lat="37.05403" lon="-3.04486">
        <ele>1834.747</ele>
        <time>2021-07-17T16:25:22Z</time>
      </trkpt>
      <trkpt lat="37.05534" lon="-3.04467">
        <ele>1840.59</ele>
        <time>2021-07-17T16:25:33Z</time>
      </trkpt>
      <trkpt lat="37.0565" lon="-3.0446">
        <ele>1836.448</ele>
        <time>2021-07-17T16:25:44Z</time>
      </trkpt>
      <trkpt lat="37.05737" lon="-3.04462">
        <ele>1830.814</ele>
        <time>2021-07-17T16:25:55Z</time>
      </trkpt>
      <trkpt lat="37.05859" lon="-3.04449">
        <ele>1825.605</ele>
        <time>2021-07-17T16:26:06Z</time>
      </trkpt>
      <trkpt lat="37.05991" lon="-3.04478">
        <ele>1820.64</ele>
        <time>2021-07-17T16:26:17Z</time>
      </trkpt>
      <trkpt lat="37.06129" lon="-3.04468">
        <ele>1816.169</ele>
        <time>2021-07-17T16:26:28Z</time>
      </trkpt>
      <trkpt lat="37.06238" lon="-3.04441">
        <ele>1807.144</ele>
        <time>2021-07-17T16:26:39Z</time>
      </trkpt>
      <trkpt lat="37.0636" lon="-3.04425">
        <ele>1798.177</ele>
        <time>2021-07-17T16:26:50Z</time>
      </trkpt>
      <trkpt lat="37.06438" lon="-3.04516">
        <ele>1793.448</ele>
        <time>2021-07-17T16:27:01Z</time>
      </trkpt>
      <trkpt lat="37.06537" lon="-3.04585">
        <ele>1779.992</ele>
        <time>2021-07-17T16:27:12Z</time>
      </trkpt>
      <trkpt lat="37.06521" lon="-3.04524">
        <ele>1787.577</ele>
        <time>2021-07-17T16:27:23Z</time>
      </trkpt>
      <trkpt lat="37.06481" lon="-3.04432">
        <ele>1780.851</ele>
        <time>2021-07-17T16:27:34Z</time>
      </trkpt>
      <trkpt lat="37.06473" lon="-3.04396">
        <ele>1781.683</ele>
        <time>2021-07-17T16:27:45Z</time>
      </trkpt>
      <trkpt lat="37.06467" lon="-3.04376">
        <ele>1785.904</ele>
        <time>2021-07-17T16:27:56Z</time>
      </trkpt>
      <trkpt lat="37.0646" lon="-3.04362">
        <ele>1783.632</ele>
        <time>2021-07-17T16:28:07Z</time>
      </trkpt>
      <trkpt lat="37.06416" lon="-3.04298">
        <ele>1776.008</ele>
        <time>2021-07-17T16:28:18Z</time>
      </trkpt>
      <trkpt lat="37.06322" lon="-3.04259">
        <ele>1752.72</ele>
        <time>2021-07-17T16:28:29Z</time>
      </trkpt>
      <trkpt lat="37.06206" lon="-3.04146">
        <ele>1790.357</ele>
        <time>2021-07-17T16:28:40Z</time>
      </trkpt>
      <trkpt lat="37.06092" lon="-3.04047">
        <ele>1787.961</ele>
        <time>2021-07-17T16:28:51Z</time>
      </trkpt>
      <trkpt lat="37.05977" lon="-3.0398">
        <ele>1791.047</ele>
        <time>2021-07-17T16:29:02Z</time>
      </trkpt>
      <trkpt lat="37.0582" lon="-3.03922">
        <ele>1785.674</ele>
        <time>2021-07-17T16:29:13Z</time>
      </trkpt>
      <trkpt lat="37.0574" lon="-3.03793">
        <ele>1779.035</ele>
        <time>2021-07-17T16:29:24Z</time>
      </trkpt>
      <trkpt lat="37.05654" lon="-3.03705">
        <ele>1772.295</ele>
        <time>2021-07-17T16:29:35Z</time>
      </trkpt>
      <trkpt lat="37.05572" lon="-3.03574">
        <ele>1770.74</ele>
        <time>2021-07-17T16:29:46Z</time>
      </trkpt>
      <trkpt lat="37.0546" lon="-3.03509">
        <ele>1765.441</ele>
        <time>2021-07-17T16:29:57Z</time>
      </trkpt>
      <trkpt lat="37.0536" lon="-3.03418">
        <ele>1757.626</ele>
        <time>2021-07-17T16:30:08Z</time>
      </trkpt>
      <trkpt lat="37.05224" lon="-3.03361">
        <ele>1747.452</ele>
        <time>2021-07-17T16:30:19Z</time>
      </trkpt>
      <trkpt lat="37.05107" lon="-3.03336">
        <ele>1739.843</ele>
        <time>2021-07-17T16:30:30Z</time>
      </trkpt>
      <trkpt lat="37.04983" lon="-3.03231">
        <ele>1729.671</ele>
        <time>2021-07-17T16:30:41Z</time>
      </trkpt>
      <trkpt lat="37.04867" lon="-3.03125">
        <ele>1720.297</ele>
        <time>2021-07-17T16:30:52Z</time>
      </trkpt>
      <trkpt lat="37.04781" lon="-3.02937">
        <ele>1712.887</ele>
        <time>2021-07-17T16:31:03Z</time>
      </trkpt>
      <trkpt lat="37.04739" lon="-3.02758">
        <ele>1705.12</ele>
        <time>2021-07-17T16:31:14Z</time>
      </trkpt>
      <trkpt lat="37.04644" lon="-3.02598">
        <ele>1701.999</ele>
        <time>2021-07-17T16:31:25Z</time>
      </trkpt>
      <trkpt lat="37.04534" lon="-3.0245">
        <ele>1696.787</ele>
        <time>2021-07-17T16:31:36Z</time>
      </trkpt>
      <trkpt lat="37.04443" lon="-3.02327">
        <ele>1688.613</ele>
        <time>2021-07-17T16:31:47Z</time>
      </trkpt>
      <trkpt lat="37.04366" lon="-3.02161">
        <ele>1681.051</ele>
        <time>2021-07-17T16:31:58Z</time>
      </trkpt>
      <trkpt lat="37.0426" lon="-3.01993">
        <ele>1671.297</ele>
        <time>2021-07-17T16:32:09Z</time>
      </trkpt>
      <trkpt lat="37.04116" lon="-3.01904">
        <ele>1660.524</ele>
        <time>2021-07-17T16:32:20Z</time>
      </trkpt>
      <trkpt lat="37.04033" lon="-3.01802">
        <ele>1656.427</ele>
        <time>2021-07-17T16:32:31Z</time>
      </trkpt>
      <trkpt lat="37.03928" lon="-3.01713">
        <ele>1646.966</ele>
        <time>2021-07-17T16:32:42Z</time>
      </trkpt>
      <trkpt lat="37.0385" lon="-3.01579">
        <ele>1644.206</ele>
        <time>2021-07-17T16:32:53Z</time>
      </trkpt>
      <trkpt lat="37.03917" lon="-3.01521">
        <ele>1645.804</ele>
        <time>2021-07-17T16:33:04Z</time>
      </trkpt>
      <trkpt lat="37.03993" lon="-3.0146">
        <ele>1640.215</ele>
        <time>2021-07-17T16:33:15Z</time>
      </trkpt>
      <trkpt lat="37.04003" lon="-3.01452">
        <ele>1636.781</ele>
        <time>2021-07-17T16:33:26Z</time>
      </trkpt>
      <trkpt lat="37.04003" lon="-3.01453">
        <ele>1630.32</ele>
        <time>2021-07-17T16:34:26Z</time>
      </trkpt>
      <trkpt lat="37.0401" lon="-3.01447">
        <ele>1631</ele>
        <time>2021-07-17T16:35:10Z</time>
      </trkpt>
      <trkpt lat="37.04126" lon="-3.01458">
        <ele>1626.451</ele>
        <time>2021-07-17T16:35:21Z</time>
      </trkpt>
      <trkpt lat="37.04261" lon="-3.01535">
        <ele>1615.825</ele>
        <time>2021-07-17T16:35:32Z</time>
      </trkpt>
      <trkpt lat="37.04415" lon="-3.01544">
        <ele>1597.599</ele>
        <time>2021-07-17T16:35:43Z</time>
      </trkpt>
      <trkpt lat="37.04566" lon="-3.01607">
        <ele>1580.338</ele>
        <time>2021-07-17T16:35:54Z</time>
      </trkpt>
      <trkpt lat="37.04684" lon="-3.01667">
        <ele>1595.132</ele>
        <time>2021-07-17T16:36:05Z</time>
      </trkpt>
      <trkpt lat="37.04836" lon="-3.01668">
        <ele>1590.21</ele>
        <time>2021-07-17T16:36:16Z</time>
      </trkpt>
      <trkpt lat="37.04959" lon="-3.01689">
        <ele>1575.635</ele>
        <time>2021-07-17T16:36:27Z</time>
      </trkpt>
      <trkpt lat="37.0502" lon="-3.01692">
        <ele>1578.836</ele>
        <time>2021-07-17T16:36:38Z</time>
      </trkpt>
      <trkpt lat="37.05183" lon="-3.01705">
        <ele>1594.415</ele>
        <time>2021-07-17T16:36:49Z</time>
      </trkpt>
      <trkpt lat="37.05375" lon="-3.01664">
        <ele>1608.152</ele>
        <time>2021-07-17T16:37:00Z</time>
      </trkpt>
      <trkpt lat="37.05598" lon="-3.01678">
        <ele>1629.174</ele>
        <time>2021-07-17T16:37:11Z</time>
      </trkpt>
      <trkpt lat="37.05806" lon="-3.01678">
        <ele>1646.399</ele>
        <time>2021-07-17T16:37:22Z</time>
      </trkpt>
      <trkpt lat="37.05972" lon="-3.01754">
        <ele>1659.615</ele>
        <time>2021-07-17T16:37:33Z</time>
      </trkpt>
      <trkpt lat="37.06122" lon="-3.01789">
        <ele>1666.847</ele>
        <time>2021-07-17T16:37:44Z</time>
      </trkpt>
      <trkpt lat="37.06319" lon="-3.0173">
        <ele>1671.985</ele>
        <time>2021-07-17T16:37:55Z</time>
      </trkpt>
      <trkpt lat="37.06485" lon="-3.01712">
        <ele>1678.444</ele>
        <time>2021-07-17T16:38:06Z</time>
      </trkpt>
      <trkpt lat="37.06656" lon="-3.01707">
        <ele>1680.699</ele>
        <time>2021-07-17T16:38:17Z</time>
      </trkpt>
      <trkpt lat="37.0686" lon="-3.01738">
        <ele>1697.207</ele>
        <time>2021-07-17T16:38:28Z</time>
      </trkpt>
      <trkpt lat="37.07076" lon="-3.01768">
        <ele>1707.329</ele>
        <time>2021-07-17T16:38:39Z</time>
      </trkpt>
      <trkpt lat="37.07239" lon="-3.01862">
        <ele>1712.477</ele>
        <time>2021-07-17T16:38:50Z</time>
      </trkpt>
      <trkpt lat="37.07329" lon="-3.02027">
        <ele>1720.01</ele>
        <time>2021-07-17T16:39:01Z</time>
      </trkpt>
      <trkpt lat="37.07415" lon="-3.02066">
        <ele>1730.205</ele>
        <time>2021-07-17T16:39:12Z</time>
      </trkpt>
      <trkpt lat="37.07603" lon="-3.02114">
        <ele>1745.471</ele>
        <time>2021-07-17T16:39:23Z</time>
      </trkpt>
      <trkpt lat="37.07737" lon="-3.0216">
        <ele>1755.16</ele>
        <time>2021-07-17T16:39:34Z</time>
      </trkpt>
      <trkpt lat="37.07821" lon="-3.02225">
        <ele>1764.375</ele>
        <time>2021-07-17T16:39:45Z</time>
      </trkpt>
      <trkpt lat="37.07979" lon="-3.02235">
        <ele>1772.286</ele>
        <time>2021-07-17T16:39:56Z</time>
      </trkpt>
      <trkpt lat="37.08196" lon="-3.02281">
        <ele>1785.994</ele>
        <time>2021-07-17T16:40:07Z</time>
      </trkpt>
      <trkpt lat="37.08388" lon="-3.0236">
        <ele>1800.729</ele>
        <time>2021-07-17T16:40:18Z</time>
      </trkpt>
      <trkpt lat="37.08577" lon="-3.0247">
        <ele>1811.355</ele>
        <time>2021-07-17T16:40:29Z</time>
      </trkpt>
      <trkpt lat="37.0877" lon="-3.02502">
        <ele>1826.611</ele>
        <time>2021-07-17T16:40:40Z</time>
      </trkpt>
      <trkpt lat="37.08923" lon="-3.02692">
        <ele>1847.566</ele>
        <time>2021-07-17T16:40:51Z</time>
      </trkpt>
      <trkpt lat="37.09038" lon="-3.02867">
        <ele>1863.048</ele>
        <time>2021-07-17T16:41:02Z</time>
      </trkpt>
      <trkpt lat="37.09086" lon="-3.02856">
        <ele>1877.91</ele>
        <time>2021-07-17T16:41:13Z</time>
      </trkpt>
      <trkpt lat="37.09045" lon="-3.0267">
        <ele>1890.027</ele>
        <time>2021-07-17T16:41:24Z</time>
      </trkpt>
      <trkpt lat="37.09136" lon="-3.02545">
        <ele>1903.616</ele>
        <time>2021-07-17T16:41:35Z</time>
      </trkpt>
      <trkpt lat="37.09273" lon="-3.02337">
        <ele>1923.495</ele>
        <time>2021-07-17T16:41:46Z</time>
      </trkpt>
      <trkpt lat="37.0948" lon="-3.02321">
        <ele>1938.038</ele>
        <time>2021-07-17T16:41:57Z</time>
      </trkpt>
      <trkpt lat="37.09693" lon="-3.02375">
        <ele>1954.684</ele>
        <time>2021-07-17T16:42:08Z</time>
      </trkpt>
      <trkpt lat="37.09888" lon="-3.02271">
        <ele>1970.316</ele>
        <time>2021-07-17T16:42:19Z</time>
      </trkpt>
      <trkpt lat="37.10031" lon="-3.02359">
        <ele>1983.112</ele>
        <time>2021-07-17T16:42:30Z</time>
      </trkpt>
      <trkpt lat="37.10169" lon="-3.02517">
        <ele>1991.361</ele>
        <time>2021-07-17T16:42:41Z</time>
      </trkpt>
      <trkpt lat="37.10345" lon="-3.02629">
        <ele>2003.434</ele>
        <time>2021-07-17T16:42:52Z</time>
      </trkpt>
      <trkpt lat="37.10566" lon="-3.02605">
        <ele>2018.447</ele>
        <time>2021-07-17T16:43:03Z</time>
      </trkpt>
      <trkpt lat="37.10788" lon="-3.02707">
        <ele>2032.547</ele>
        <time>2021-07-17T16:43:14Z</time>
      </trkpt>
      <trkpt lat="37.10988" lon="-3.02831">
        <ele>2038.83</ele>
        <time>2021-07-17T16:43:25Z</time>
      </trkpt>
      <trkpt lat="37.11207" lon="-3.02931">
        <ele>2034.157</ele>
        <time>2021-07-17T16:43:36Z</time>
      </trkpt>
      <trkpt lat="37.11431" lon="-3.03025">
        <ele>2032.747</ele>
        <time>2021-07-17T16:43:47Z</time>
      </trkpt>
      <trkpt lat="37.11654" lon="-3.03139">
        <ele>2019.224</ele>
        <time>2021-07-17T16:43:58Z</time>
      </trkpt>
      <trkpt lat="37.1184" lon="-3.0323">
        <ele>2004.69</ele>
        <time>2021-07-17T16:44:09Z</time>
      </trkpt>
      <trkpt lat="37.11973" lon="-3.03302">
        <ele>1988.581</ele>
        <time>2021-07-17T16:44:20Z</time>
      </trkpt>
      <trkpt lat="37.12079" lon="-3.03394">
        <ele>1983.073</ele>
        <time>2021-07-17T16:44:31Z</time>
      </trkpt>
      <trkpt lat="37.12206" lon="-3.03431">
        <ele>1981.674</ele>
        <time>2021-07-17T16:44:42Z</time>
      </trkpt>
      <trkpt lat="37.12318" lon="-3.03537">
        <ele>1973.507</ele>
        <time>2021-07-17T16:44:53Z</time>
      </trkpt>
      <trkpt lat="37.12447" lon="-3.03704">
        <ele>1961.469</ele>
        <time>2021-07-17T16:45:04Z</time>
      </trkpt>
      <trkpt lat="37.12602" lon="-3.03746">
        <ele>1951.211</ele>
        <time>2021-07-17T16:45:15Z</time>
      </trkpt>
      <trkpt lat="37.12645" lon="-3.03929">
        <ele>1941.261</ele>
        <time>2021-07-17T16:45:26Z</time>
      </trkpt>
      <trkpt lat="37.12667" lon="-3.04135">
        <ele>1932.075</ele>
        <time>2021-07-17T16:45:37Z</time>
      </trkpt>
      <trkpt lat="37.12759" lon="-3.04219">
        <ele>1922.139</ele>
        <time>2021-07-17T16:45:48Z</time>
      </trkpt>
      <trkpt lat="37.12876" lon="-3.04271">
        <ele>1914.211</ele>
        <time>2021-07-17T16:45:59Z</time>
      </trkpt>
      <trkpt lat="37.13024" lon="-3.04367">
        <ele>1903.543</ele>
        <time>2021-07-17T16:46:10Z</time>
      </trkpt>
      <trkpt lat="37.13214" lon="-3.04325">
        <ele>1891.211</ele>
        <time>2021-07-17T16:46:21Z</time>
      </trkpt>
      <trkpt lat="37.13349" lon="-3.04212">
        <ele>1880.966</ele>
        <time>2021-07-17T16:46:32Z</time>
      </trkpt>
      <trkpt lat="37.13473" lon="-3.04234">
        <ele>1869.737</ele>
        <time>2021-07-17T16:46:43Z</time>
      </trkpt>
      <trkpt lat="37.13534" lon="-3.04402">
        <ele>1855.636</ele>
        <time>2021-07-17T16:46:54Z</time>
      </trkpt>
      <trkpt lat="37.13568" lon="-3.04555">
        <ele>1847.311</ele>
        <time>2021-07-17T16:47:05Z</time>
      </trkpt>
      <trkpt lat="37.13629" lon="-3.04619">
        <ele>1839.889</ele>
        <time>2021-07-17T16:47:16Z</time>
      </trkpt>
      <trkpt lat="37.13617" lon="-3.04583">
        <ele>1838.882</ele>
        <time>2021-07-17T16:47:27Z</time>
      </trkpt>
      <trkpt lat="37.13594" lon="-3.04477">
        <ele>1831.967</ele>
        <time>2021-07-17T16:47:38Z</time>
      </trkpt>
      <trkpt lat="37.13601" lon="-3.04313">
        <ele>1819.868</ele>
        <time>2021-07-17T16:47:49Z</time>
      </trkpt>
      <trkpt lat="37.13625" lon="-3.04142">
        <ele>1810.124</ele>
        <time>2021-07-17T16:48:00Z</time>
      </trkpt>
      <trkpt lat="37.13611" lon="-3.0408">
        <ele>1807.118</ele>
        <time>2021-07-17T16:48:11Z</time>
      </trkpt>
      <trkpt lat="37.13489" lon="-3.04066">
        <ele>1802.567</ele>
        <time>2021-07-17T16:48:22Z</time>
      </trkpt>
      <trkpt lat="37.13364" lon="-3.04022">
        <ele>1798.347</ele>
        <time>2021-07-17T16:48:33Z</time>
      </trkpt>
      <trkpt lat="37.13248" lon="-3.04085">
        <ele>1784.216</ele>
        <time>2021-07-17T16:48:44Z</time>
      </trkpt>
      <trkpt lat="37.13151" lon="-3.04105">
        <ele>1786.374</ele>
        <time>2021-07-17T16:48:55Z</time>
      </trkpt>
      <trkpt lat="37.13136" lon="-3.03998">
        <ele>1779.351</ele>
        <time>2021-07-17T16:49:06Z</time>
      </trkpt>
      <trkpt lat="37.1305" lon="-3.03928">
        <ele>1769.775</ele>
        <time>2021-07-17T16:49:17Z</time>
      </trkpt>
      <trkpt lat="37.12971" lon="-3.03903">
        <ele>1762.34</ele>
        <time>2021-07-17T16:49:28Z</time>
      </trkpt>
      <trkpt lat="37.13022" lon="-3.03756">
        <ele>1753.945</ele>
        <time>2021-07-17T16:49:39Z</time>
      </trkpt>
      <trkpt lat="37.13127" lon="-3.03666">
        <ele>1738.799</ele>
        <time>2021-07-17T16:49:50Z</time>
      </trkpt>
      <trkpt lat="37.13233" lon="-3.036">
        <ele>1735.032</ele>
        <time>2021-07-17T16:50:01Z</time>
      </trkpt>
      <trkpt lat="37.13308" lon="-3.03459">
        <ele>1728.362</ele>
        <time>2021-07-17T16:50:12Z</time>
      </trkpt>
      <trkpt lat="37.1342" lon="-3.03329">
        <ele>1715.971</ele>
        <time>2021-07-17T16:50:23Z</time>
      </trkpt>
      <trkpt lat="37.13467" lon="-3.03207">
        <ele>1711.748</ele>
        <time>2021-07-17T16:50:34Z</time>
      </trkpt>
      <trkpt lat="37.13352" lon="-3.03198">
        <ele>1705.612</ele>
        <time>2021-07-17T16:50:45Z</time>
      </trkpt>
      <trkpt lat="37.13245" lon="-3.0319">
        <ele>1697.458</ele>
        <time>2021-07-17T16:50:56Z</time>
      </trkpt>
      <trkpt lat="37.13149" lon="-3.03107">
        <ele>1692.782</ele>
        <time>2021-07-17T16:51:07Z</time>
      </trkpt>
      <trkpt lat="37.13059" lon="-3.02987">
        <ele>1676.885</ele>
        <time>2021-07-17T16:51:18Z</time>
      </trkpt>
      <trkpt lat="37.12965" lon="-3.03">
        <ele>1655.769</ele>
        <time>2021-07-17T16:51:29Z</time>
      </trkpt>
      <trkpt lat="37.13002" lon="-3.02889">
        <ele>1654.736</ele>
        <time>2021-07-17T16:51:40Z</time>
      </trkpt>
      <trkpt lat="37.12976" lon="-3.028">
        <ele>1667.438</ele>
        <time>2021-07-17T16:51:51Z</time>
      </trkpt>
      <trkpt lat="37.12881" lon="-3.02697">
        <ele>1686.814</ele>
        <time>2021-07-17T16:52:02Z</time>
      </trkpt>
      <trkpt lat="37.12904" lon="-3.02649">
        <ele>1690.99</ele>
        <time>2021-07-17T16:52:13Z</time>
      </trkpt>
      <trkpt lat="37.13021" lon="-3.02706">
        <ele>1692.28</ele>
        <time>2021-07-17T16:52:24Z</time>
      </trkpt>
      <trkpt lat="37.13146" lon="-3.02752">
        <ele>1699.193</ele>
        <time>2021-07-17T16:52:35Z</time>
      </trkpt>
      <trkpt lat="37.13233" lon="-3.02769">
        <ele>1701.12</ele>
        <time>2021-07-17T16:52:46Z</time>
      </trkpt>
      <trkpt lat="37.13277" lon="-3.02689">
        <ele>1711.694</ele>
        <time>2021-07-17T16:52:57Z</time>
      </trkpt>
      <trkpt lat="37.13355" lon="-3.02634">
        <ele>1724.407</ele>
        <time>2021-07-17T16:53:08Z</time>
      </trkpt>
      <trkpt lat="37.13463" lon="-3.02541">
        <ele>1734.545</ele>
        <time>2021-07-17T16:53:19Z</time>
      </trkpt>
      <trkpt lat="37.13476" lon="-3.02383">
        <ele>1745.12</ele>
        <time>2021-07-17T16:53:30Z</time>
      </trkpt>
      <trkpt lat="37.13369" lon="-3.02223">
        <ele>1751.617</ele>
        <time>2021-07-17T16:53:41Z</time>
      </trkpt>
      <trkpt lat="37.13412" lon="-3.02123">
        <ele>1751.071</ele>
        <time>2021-07-17T16:53:52Z</time>
      </trkpt>
      <trkpt lat="37.13464" lon="-3.01986">
        <ele>1752.414</ele>
        <time>2021-07-17T16:54:03Z</time>
      </trkpt>
      <trkpt lat="37.1352" lon="-3.01877">
        <ele>1757.19</ele>
        <time>2021-07-17T16:54:14Z</time>
      </trkpt>
      <trkpt lat="37.13677" lon="-3.01883">
        <ele>1761.583</ele>
        <time>2021-07-17T16:54:25Z</time>
      </trkpt>
      <trkpt lat="37.13798" lon="-3.01953">
        <ele>1777.211</ele>
        <time>2021-07-17T16:54:36Z</time>
      </trkpt>
      <trkpt lat="37.13884" lon="-3.02052">
        <ele>1791.139</ele>
        <time>2021-07-17T16:54:47Z</time>
      </trkpt>
      <trkpt lat="37.14028" lon="-3.02039">
        <ele>1796.898</ele>
        <time>2021-07-17T16:54:58Z</time>
      </trkpt>
      <trkpt lat="37.14084" lon="-3.02018">
        <ele>1796.194</ele>
        <time>2021-07-17T16:55:09Z</time>
      </trkpt>
      <trkpt lat="37.1408" lon="-3.0202">
        <ele>1796.552</ele>
        <time>2021-07-17T16:55:34Z</time>
      </trkpt>
      <trkpt lat="37.14086" lon="-3.02015">
        <ele>1797.372</ele>
        <time>2021-07-17T16:56:20Z</time>
      </trkpt>
      <trkpt lat="37.14208" lon="-3.01947">
        <ele>1799.227</ele>
        <time>2021-07-17T16:56:31Z</time>
      </trkpt>
      <trkpt lat="37.14278" lon="-3.01912">
        <ele>1804.992</ele>
        <time>2021-07-17T16:56:43Z</time>
      </trkpt>
      <trkpt lat="37.14271" lon="-3.01735">
        <ele>1801.053</ele>
        <time>2021-07-17T16:56:54Z</time>
      </trkpt>
      <trkpt lat="37.14272" lon="-3.01675">
        <ele>1804.658</ele>
        <time>2021-07-17T16:57:05Z</time>
      </trkpt>
      <trkpt lat="37.14274" lon="-3.01677">
        <ele>1805.219</ele>
        <time>2021-07-17T16:58:05Z</time>
      </trkpt>
      <trkpt lat="37.14269" lon="-3.01671">
        <ele>1806.538</ele>
        <time>2021-07-17T16:58:40Z</time>
      </trkpt>
      <trkpt lat="37.14185" lon="-3.01684">
        <ele>1804.38</ele>
        <time>2021-07-17T16:58:51Z</time>
      </trkpt>
      <trkpt lat="37.14104" lon="-3.0161">
        <ele>1798.86</ele>
        <time>2021-07-17T16:59:02Z</time>
      </trkpt>
      <trkpt lat="37.14054" lon="-3.01474">
        <ele>1788.645</ele>
        <time>2021-07-17T16:59:13Z</time>
      </trkpt>
      <trkpt lat="37.13978" lon="-3.01462">
        <ele>1792.801</ele>
        <time>2021-07-17T16:59:24Z</time>
      </trkpt>
      <trkpt lat="37.13877" lon="-3.01539">
        <ele>1797.979</ele>
        <time>2021-07-17T16:59:35Z</time>
      </trkpt>
      <trkpt lat="37.13758" lon="-3.01521">
        <ele>1792.323</ele>
        <time>2021-07-17T16:59:46Z</time>
      </trkpt>
      <trkpt lat="37.13679" lon="-3.01418">
        <ele>1777.275</ele>
        <time>2021-07-17T16:59:57Z</time>
      </trkpt>
      <trkpt lat="37.13634" lon="-3.01254">
        <ele>1764.647</ele>
        <time>2021-07-17T17:00:08Z</time>
      </trkpt>
      <trkpt lat="37.13534" lon="-3.01155">
        <ele>1755.288</ele>
        <time>2021-07-17T17:00:19Z</time>
      </trkpt>
      <trkpt lat="37.13435" lon="-3.01022">
        <ele>1748.952</ele>
        <time>2021-07-17T17:00:30Z</time>
      </trkpt>
      <trkpt lat="37.13389" lon="-3.00841">
        <ele>1746.41</ele>
        <time>2021-07-17T17:00:41Z</time>
      </trkpt>
      <trkpt lat="37.13308" lon="-3.0078">
        <ele>1734.011</ele>
        <time>2021-07-17T17:00:52Z</time>
      </trkpt>
      <trkpt lat="37.13238" lon="-3.00679">
        <ele>1720.29</ele>
        <time>2021-07-17T17:01:03Z</time>
      </trkpt>
      <trkpt lat="37.13142" lon="-3.00559">
        <ele>1719.473</ele>
        <time>2021-07-17T17:01:14Z</time>
      </trkpt>
      <trkpt lat="37.13065" lon="-3.00453">
        <ele>1716.543</ele>
        <time>2021-07-17T17:01:25Z</time>
      </trkpt>
      <trkpt lat="37.13006" lon="-3.00368">
        <ele>1716.686</ele>
        <time>2021-07-17T17:01:36Z</time>
      </trkpt>
      <trkpt lat="37.12901" lon="-3.00265">
        <ele>1710.457</ele>
        <time>2021-07-17T17:01:47Z</time>
      </trkpt>
      <trkpt lat="37.1279" lon="-3.00148">
        <ele>1712.819</ele>
        <time>2021-07-17T17:01:58Z</time>
      </trkpt>
      <trkpt lat="37.12715" lon="-3.00025">
        <ele>1706.616</ele>
        <time>2021-07-17T17:02:09Z</time>
      </trkpt>
      <trkpt lat="37.12679" lon="-2.99999">
        <ele>1696.157</ele>
        <time>2021-07-17T17:02:20Z</time>
      </trkpt>
      <trkpt lat="37.12726" lon="-2.99972">
        <ele>1696.126</ele>
        <time>2021-07-17T17:02:31Z</time>
      </trkpt>
      <trkpt lat="37.12841" lon="-3.00042">
        <ele>1696.614</ele>
        <time>2021-07-17T17:02:42Z</time>
      </trkpt>
      <trkpt lat="37.12979" lon="-3.00058">
        <ele>1702.681</ele>
        <time>2021-07-17T17:02:53Z</time>
      </trkpt>
      <trkpt lat="37.13118" lon="-2.99997">
        <ele>1713.578</ele>
        <time>2021-07-17T17:03:04Z</time>
      </trkpt>
      <trkpt lat="37.13227" lon="-3.00063">
        <ele>1705.044</ele>
        <time>2021-07-17T17:03:15Z</time>
      </trkpt>
      <trkpt lat="37.13361" lon="-3.00074">
        <ele>1726.477</ele>
        <time>2021-07-17T17:03:26Z</time>
      </trkpt>
      <trkpt lat="37.13488" lon="-3.00046">
        <ele>1732.354</ele>
        <time>2021-07-17T17:03:37Z</time>
      </trkpt>
      <trkpt lat="37.13648" lon="-3.00042">
        <ele>1753.685</ele>
        <time>2021-07-17T17:03:48Z</time>
      </trkpt>
      <trkpt lat="37.13788" lon="-2.99951">
        <ele>1767.312</ele>
        <time>2021-07-17T17:03:59Z</time>
      </trkpt>
      <trkpt lat="37.13911" lon="-2.99841">
        <ele>1781.049</ele>
        <time>2021-07-17T17:04:10Z</time>
      </trkpt>
      <trkpt lat="37.13941" lon="-2.99775">
        <ele>1793.359</ele>
        <time>2021-07-17T17:04:21Z</time>
      </trkpt>
      <trkpt lat="37.13993" lon="-2.99705">
        <ele>1816.693</ele>
        <time>2021-07-17T17:04:32Z</time>
      </trkpt>
      <trkpt lat="37.1413" lon="-2.99663">
        <ele>1803.65</ele>
        <time>2021-07-17T17:04:43Z</time>
      </trkpt>
      <trkpt lat="37.14233" lon="-2.99516">
        <ele>1808.781</ele>
        <time>2021-07-17T17:04:54Z</time>
      </trkpt>
      <trkpt lat="37.14279" lon="-2.99296">
        <ele>1818.784</ele>
        <time>2021-07-17T17:05:05Z</time>
      </trkpt>
      <trkpt lat="37.14239" lon="-2.99129">
        <ele>1827.546</ele>
        <time>2021-07-17T17:05:16Z</time>
      </trkpt>
      <trkpt lat="37.1417" lon="-2.9902">
        <ele>1819.063</ele>
        <time>2021-07-17T17:05:27Z</time>
      </trkpt>
      <trkpt lat="37.14115" lon="-2.98876">
        <ele>1811.649</ele>
        <time>2021-07-17T17:05:38Z</time>
      </trkpt>
      <trkpt lat="37.14129" lon="-2.98648">
        <ele>1799.008</ele>
        <time>2021-07-17T17:05:49Z</time>
      </trkpt>
      <trkpt lat="37.14114" lon="-2.98425">
        <ele>1783.556</ele>
        <time>2021-07-17T17:06:00Z</time>
      </trkpt>
      <trkpt lat="37.14071" lon="-2.98263">
        <ele>1774.741</ele>
        <time>2021-07-17T17:06:11Z</time>
      </trkpt>
      <trkpt lat="37.1394" lon="-2.98192">
        <ele>1769.252</ele>
        <time>2021-07-17T17:06:22Z</time>
      </trkpt>
      <trkpt lat="37.13878" lon="-2.98206">
        <ele>1763.954</ele>
        <time>2021-07-17T17:06:33Z</time>
      </trkpt>
      <trkpt lat="37.13815" lon="-2.98353">
        <ele>1757.448</ele>
        <time>2021-07-17T17:06:44Z</time>
      </trkpt>
      <trkpt lat="37.1375" lon="-2.98477">
        <ele>1751.18</ele>
        <time>2021-07-17T17:06:55Z</time>
      </trkpt>
      <trkpt lat="37.13704" lon="-2.98426">
        <ele>1738.168</ele>
        <time>2021-07-17T17:07:06Z</time>
      </trkpt>
      <trkpt lat="37.13676" lon="-2.98263">
        <ele>1729.834</ele>
        <time>2021-07-17T17:07:17Z</time>
      </trkpt>
      <trkpt lat="37.13665" lon="-2.98114">
        <ele>1713.764</ele>
        <time>2021-07-17T17:07:28Z</time>
      </trkpt>
      <trkpt lat="37.1359" lon="-2.97957">
        <ele>1701.59</ele>
        <time>2021-07-17T17:07:39Z</time>
      </trkpt>
      <trkpt lat="37.13556" lon="-2.97809">
        <ele>1686.322</ele>
        <time>2021-07-17T17:07:50Z</time>
      </trkpt>
      <trkpt lat="37.13525" lon="-2.97665">
        <ele>1674.661</ele>
        <time>2021-07-17T17:08:01Z</time>
      </trkpt>
      <trkpt lat="37.13407" lon="-2.97538">
        <ele>1668.187</ele>
        <time>2021-07-17T17:08:12Z</time>
      </trkpt>
      <trkpt lat="37.133" lon="-2.97457">
        <ele>1670.001</ele>
        <time>2021-07-17T17:08:23Z</time>
      </trkpt>
      <trkpt lat="37.13335" lon="-2.97439">
        <ele>1666.167</ele>
        <time>2021-07-17T17:08:34Z</time>
      </trkpt>
      <trkpt lat="37.13449" lon="-2.97489">
        <ele>1657.321</ele>
        <time>2021-07-17T17:08:45Z</time>
      </trkpt>
      <trkpt lat="37.13593" lon="-2.97559">
        <ele>1637.938</ele>
        <time>2021-07-17T17:08:56Z</time>
      </trkpt>
      <trkpt lat="37.13675" lon="-2.97671">
        <ele>1626.959</ele>
        <time>2021-07-17T17:09:07Z</time>
      </trkpt>
      <trkpt lat="37.13705" lon="-2.97723">
        <ele>1616.008</ele>
        <time>2021-07-17T17:09:18Z</time>
      </trkpt>
      <trkpt lat="37.13784" lon="-2.97675">
        <ele>1614.667</ele>
        <time>2021-07-17T17:09:29Z</time>
      </trkpt>
      <trkpt lat="37.13809" lon="-2.97559">
        <ele>1606.183</ele>
        <time>2021-07-17T17:09:40Z</time>
      </trkpt>
      <trkpt lat="37.13745" lon="-2.9741">
        <ele>1595.932</ele>
        <time>2021-07-17T17:09:51Z</time>
      </trkpt>
      <trkpt lat="37.13651" lon="-2.97277">
        <ele>1589.512</ele>
        <time>2021-07-17T17:10:02Z</time>
      </trkpt>
      <trkpt lat="37.13629" lon="-2.97104">
        <ele>1585.98</ele>
        <time>2021-07-17T17:10:13Z</time>
      </trkpt>
      <trkpt lat="37.13584" lon="-2.97001">
        <ele>1570.486</ele>
        <time>2021-07-17T17:10:24Z</time>
      </trkpt>
      <trkpt lat="37.13553" lon="-2.96876">
        <ele>1551.517</ele>
        <time>2021-07-17T17:10:35Z</time>
      </trkpt>
      <trkpt lat="37.13581" lon="-2.96748">
        <ele>1531.203</ele>
        <time>2021-07-17T17:10:46Z</time>
      </trkpt>
      <trkpt lat="37.1363" lon="-2.96668">
        <ele>1529.231</ele>
        <time>2021-07-17T17:10:57Z</time>
      </trkpt>
      <trkpt lat="37.13732" lon="-2.96713">
        <ele>1524.516</ele>
        <time>2021-07-17T17:11:08Z</time>
      </trkpt>
      <trkpt lat="37.13788" lon="-2.96617">
        <ele>1515.254</ele>
        <time>2021-07-17T17:11:19Z</time>
      </trkpt>
      <trkpt lat="37.13814" lon="-2.96434">
        <ele>1501.89</ele>
        <time>2021-07-17T17:11:30Z</time>
      </trkpt>
      <trkpt lat="37.13909" lon="-2.96433">
        <ele>1496.513</ele>
        <time>2021-07-17T17:11:41Z</time>
      </trkpt>
      <trkpt lat="37.14018" lon="-2.96383">
        <ele>1461.749</ele>
        <time>2021-07-17T17:11:52Z</time>
      </trkpt>
      <trkpt lat="37.14129" lon="-2.96264">
        <ele>1468.385</ele>
        <time>2021-07-17T17:12:03Z</time>
      </trkpt>
      <trkpt lat="37.1417" lon="-2.96359">
        <ele>1460.261</ele>
        <time>2021-07-17T17:12:14Z</time>
      </trkpt>
      <trkpt lat="37.14164" lon="-2.96513">
        <ele>1453.618</ele>
        <time>2021-07-17T17:12:25Z</time>
      </trkpt>
      <trkpt lat="37.1425" lon="-2.96618">
        <ele>1444.449</ele>
        <time>2021-07-17T17:12:36Z</time>
      </trkpt>
      <trkpt lat="37.14264" lon="-2.96767">
        <ele>1440.68</ele>
        <time>2021-07-17T17:12:47Z</time>
      </trkpt>
      <trkpt lat="37.14318" lon="-2.96729">
        <ele>1437.607</ele>
        <time>2021-07-17T17:12:58Z</time>
      </trkpt>
      <trkpt lat="37.1438" lon="-2.96615">
        <ele>1426.764</ele>
        <time>2021-07-17T17:13:09Z</time>
      </trkpt>
      <trkpt lat="37.14364" lon="-2.96517">
        <ele>1419.537</ele>
        <time>2021-07-17T17:13:20Z</time>
      </trkpt>
      <trkpt lat="37.14384" lon="-2.9635">
        <ele>1414.01</ele>
        <time>2021-07-17T17:13:31Z</time>
      </trkpt>
      <trkpt lat="37.14438" lon="-2.9619">
        <ele>1404.641</ele>
        <time>2021-07-17T17:13:42Z</time>
      </trkpt>
      <trkpt lat="37.14444" lon="-2.96024">
        <ele>1395.13</ele>
        <time>2021-07-17T17:13:53Z</time>
      </trkpt>
      <trkpt lat="37.14478" lon="-2.95864">
        <ele>1387.279</ele>
        <time>2021-07-17T17:14:04Z</time>
      </trkpt>
      <trkpt lat="37.14583" lon="-2.9574">
        <ele>1375.081</ele>
        <time>2021-07-17T17:14:15Z</time>
      </trkpt>
      <trkpt lat="37.14703" lon="-2.9572">
        <ele>1365.632</ele>
        <time>2021-07-17T17:14:26Z</time>
      </trkpt>
      <trkpt lat="37.14773" lon="-2.956">
        <ele>1356.53</ele>
        <time>2021-07-17T17:14:37Z</time>
      </trkpt>
      <trkpt lat="37.14892" lon="-2.95563">
        <ele>1348.584</ele>
        <time>2021-07-17T17:14:48Z</time>
      </trkpt>
      <trkpt lat="37.14978" lon="-2.95435">
        <ele>1336.172</ele>
        <time>2021-07-17T17:14:59Z</time>
      </trkpt>
      <trkpt lat="37.15106" lon="-2.95516">
        <ele>1324.563</ele>
        <time>2021-07-17T17:15:10Z</time>
      </trkpt>
      <trkpt lat="37.1518" lon="-2.95603">
        <ele>1313.702</ele>
        <time>2021-07-17T17:15:21Z</time>
      </trkpt>
      <trkpt lat="37.15261" lon="-2.95489">
        <ele>1292.395</ele>
        <time>2021-07-17T17:15:32Z</time>
      </trkpt>
      <trkpt lat="37.15267" lon="-2.95392">
        <ele>1280.136</ele>
        <time>2021-07-17T17:15:43Z</time>
      </trkpt>
      <trkpt lat="37.15348" lon="-2.95358">
        <ele>1265.329</ele>
        <time>2021-07-17T17:15:54Z</time>
      </trkpt>
      <trkpt lat="37.1551" lon="-2.95338">
        <ele>1257.329</ele>
        <time>2021-07-17T17:16:05Z</time>
      </trkpt>
      <trkpt lat="37.15649" lon="-2.9538">
        <ele>1247.129</ele>
        <time>2021-07-17T17:16:16Z</time>
      </trkpt>
      <trkpt lat="37.15767" lon="-2.95411">
        <ele>1233.687</ele>
        <time>2021-07-17T17:16:27Z</time>
      </trkpt>
      <trkpt lat="37.1587" lon="-2.95373">
        <ele>1232.278</ele>
        <time>2021-07-17T17:16:38Z</time>
      </trkpt>
      <trkpt lat="37.16047" lon="-2.95319">
        <ele>1232.879</ele>
        <time>2021-07-17T17:16:49Z</time>
      </trkpt>
      <trkpt lat="37.16192" lon="-2.95237">
        <ele>1228.933</ele>
        <time>2021-07-17T17:17:00Z</time>
      </trkpt>
      <trkpt lat="37.1628" lon="-2.95169">
        <ele>1224.24</ele>
        <time>2021-07-17T17:17:11Z</time>
      </trkpt>
      <trkpt lat="37.16357" lon="-2.95128">
        <ele>1226.164</ele>
        <time>2021-07-17T17:17:22Z</time>
      </trkpt>
      <trkpt lat="37.16468" lon="-2.95096">
        <ele>1222.139</ele>
        <time>2021-07-17T17:17:33Z</time>
      </trkpt>
      <trkpt lat="37.16619" lon="-2.95053">
        <ele>1223.083</ele>
        <time>2021-07-17T17:17:44Z</time>
      </trkpt>
      <trkpt lat="37.16725" lon="-2.95033">
        <ele>1226.743</ele>
        <time>2021-07-17T17:17:55Z</time>
      </trkpt>
      <trkpt lat="37.16787" lon="-2.94921">
        <ele>1218.059</ele>
        <time>2021-07-17T17:18:06Z</time>
      </trkpt>
      <trkpt lat="37.16846" lon="-2.94992">
        <ele>1217.723</ele>
        <time>2021-07-17T17:18:17Z</time>
      </trkpt>
      <trkpt lat="37.16996" lon="-2.95002">
        <ele>1208.417</ele>
        <time>2021-07-17T17:18:28Z</time>
      </trkpt>
      <trkpt lat="37.17063" lon="-2.94934">
        <ele>1204.881</ele>
        <time>2021-07-17T17:18:39Z</time>
      </trkpt>
      <trkpt lat="37.17127" lon="-2.94967">
        <ele>1201.22</ele>
        <time>2021-07-17T17:18:50Z</time>
      </trkpt>
      <trkpt lat="37.17046" lon="-2.9507">
        <ele>1198.947</ele>
        <time>2021-07-17T17:19:01Z</time>
      </trkpt>
      <trkpt lat="37.16934" lon="-2.95145">
        <ele>1193.23</ele>
        <time>2021-07-17T17:19:12Z</time>
      </trkpt>
      <trkpt lat="37.17021" lon="-2.95276">
        <ele>1188.814</ele>
        <time>2021-07-17T17:19:23Z</time>
      </trkpt>
      <trkpt lat="37.17196" lon="-2.9527">
        <ele>1182.95</ele>
        <time>2021-07-17T17:19:34Z</time>
      </trkpt>
      <trkpt lat="37.1735" lon="-2.95259">
        <ele>1180.89</ele>
        <time>2021-07-17T17:19:45Z</time>
      </trkpt>
      <trkpt lat="37.17497" lon="-2.95249">
        <ele>1179.363</ele>
        <time>2021-07-17T17:19:56Z</time>
      </trkpt>
      <trkpt lat="37.17631" lon="-2.95302">
        <ele>1181.16</ele>
        <time>2021-07-17T17:20:07Z</time>
      </trkpt>
      <trkpt lat="37.17724" lon="-2.95341">
        <ele>1185.217</ele>
        <time>2021-07-17T17:20:18Z</time>
      </trkpt>
      <trkpt lat="37.17646" lon="-2.95314">
        <ele>1185.158</ele>
        <time>2021-07-17T17:20:29Z</time>
      </trkpt>
      <trkpt lat="37.17634" lon="-2.95247">
        <ele>1183.458</ele>
        <time>2021-07-17T17:20:40Z</time>
      </trkpt>
      <trkpt lat="37.17639" lon="-2.95175">
        <ele>1183.416</ele>
        <time>2021-07-17T17:20:51Z</time>
      </trkpt>
      <trkpt lat="37.17586" lon="-2.95143">
        <ele>1169.606</ele>
        <time>2021-07-17T17:21:02Z</time>
      </trkpt>
      <trkpt lat="37.17629" lon="-2.95114">
        <ele>1176.271</ele>
        <time>2021-07-17T17:21:13Z</time>
      </trkpt>
      <trkpt lat="37.17622" lon="-2.9507">
        <ele>1173.753</ele>
        <time>2021-07-17T17:21:24Z</time>
      </trkpt>
      <trkpt lat="37.17649" lon="-2.95041">
        <ele>1174.641</ele>
        <time>2021-07-17T17:21:35Z</time>
      </trkpt>
      <trkpt lat="37.17705" lon="-2.95039">
        <ele>1173.259</ele>
        <time>2021-07-17T17:21:46Z</time>
      </trkpt>
      <trkpt lat="37.17725" lon="-2.95">
        <ele>1173.147</ele>
        <time>2021-07-17T17:21:57Z</time>
      </trkpt>
      <trkpt lat="37.17753" lon="-2.94977">
        <ele>1172.637</ele>
        <time>2021-07-17T17:22:08Z</time>
      </trkpt>
      <trkpt lat="37.17774" lon="-2.94976">
        <ele>1169.657</ele>
        <time>2021-07-17T17:22:19Z</time>
      </trkpt>
      <trkpt lat="37.1783" lon="-2.95026">
        <ele>1174.636</ele>
        <time>2021-07-17T17:22:30Z</time>
      </trkpt>
      <trkpt lat="37.17863" lon="-2.95096">
        <ele>1184.649</ele>
        <time>2021-07-17T17:22:41Z</time>
      </trkpt>
      <trkpt lat="37.17945" lon="-2.95051">
        <ele>1183.302</ele>
        <time>2021-07-17T17:22:52Z</time>
      </trkpt>
      <trkpt lat="37.18065" lon="-2.94953">
        <ele>1179.37</ele>
        <time>2021-07-17T17:23:03Z</time>
      </trkpt>
      <trkpt lat="37.18129" lon="-2.94778">
        <ele>1172.754</ele>
        <time>2021-07-17T17:23:14Z</time>
      </trkpt>
      <trkpt lat="37.18126" lon="-2.94661">
        <ele>1169.691</ele>
        <time>2021-07-17T17:23:25Z</time>
      </trkpt>
      <trkpt lat="37.18165" lon="-2.94527">
        <ele>1167.257</ele>
        <time>2021-07-17T17:23:36Z</time>
      </trkpt>
      <trkpt lat="37.18201" lon="-2.94443">
        <ele>1165.174</ele>
        <time>2021-07-17T17:23:47Z</time>
      </trkpt>
      <trkpt lat="37.18201" lon="-2.94441">
        <ele>1161.218</ele>
        <time>2021-07-17T17:24:46Z</time>
      </trkpt>
      <trkpt lat="37.182" lon="-2.94441">
        <ele>1162.793</ele>
        <time>2021-07-17T17:25:46Z</time>
      </trkpt>
      <trkpt lat="37.182" lon="-2.94439">
        <ele>1165.298</ele>
        <time>2021-07-17T17:26:46Z</time>
      </trkpt>
      <trkpt lat="37.18201" lon="-2.94438">
        <ele>1163.576</ele>
        <time>2021-07-17T17:27:45Z</time>
      </trkpt>
      <trkpt lat="37.182" lon="-2.94441">
        <ele>1163.845</ele>
        <time>2021-07-17T17:28:44Z</time>
      </trkpt>
      <trkpt lat="37.182" lon="-2.94441">
        <ele>1164.312</ele>
        <time>2021-07-17T17:29:43Z</time>
      </trkpt>
      <trkpt lat="37.18198" lon="-2.94441">
        <ele>1163.097</ele>
        <time>2021-07-17T17:30:43Z</time>
      </trkpt>
      <trkpt lat="37.18202" lon="-2.94442">
        <ele>1162.22</ele>
        <time>2021-07-17T17:31:37Z</time>
      </trkpt>
      <trkpt lat="37.18201" lon="-2.94442">
        <ele>1163.514</ele>
        <time>2021-07-17T17:32:35Z</time>
      </trkpt>
      <trkpt lat="37.18199" lon="-2.94442">
        <ele>1164.764</ele>
        <time>2021-07-17T17:33:34Z</time>
      </trkpt>
      <trkpt lat="37.18198" lon="-2.94441">
        <ele>1168.864</ele>
        <time>2021-07-17T17:34:33Z</time>
      </trkpt>
      <trkpt lat="37.18199" lon="-2.94441">
        <ele>1162.647</ele>
        <time>2021-07-17T17:35:32Z</time>
      </trkpt>
      <trkpt lat="37.18199" lon="-2.94441">
        <ele>1162.623</ele>
        <time>2021-07-17T17:36:31Z</time>
      </trkpt>
      <trkpt lat="37.18195" lon="-2.9444">
        <ele>1162.669</ele>
        <time>2021-07-17T17:37:17Z</time>
      </trkpt>
      <trkpt lat="37.18192" lon="-2.94435">
        <ele>1164.242</ele>
        <time>2021-07-17T17:37:40Z</time>
      </trkpt>
      <trkpt lat="37.18219" lon="-2.94308">
        <ele>1164.24</ele>
        <time>2021-07-17T17:37:51Z</time>
      </trkpt>
      <trkpt lat="37.18271" lon="-2.94169">
        <ele>1159.605</ele>
        <time>2021-07-17T17:38:02Z</time>
      </trkpt>
      <trkpt lat="37.18329" lon="-2.94028">
        <ele>1158.463</ele>
        <time>2021-07-17T17:38:13Z</time>
      </trkpt>
      <trkpt lat="37.18371" lon="-2.93836">
        <ele>1148.187</ele>
        <time>2021-07-17T17:38:24Z</time>
      </trkpt>
      <trkpt lat="37.18408" lon="-2.93619">
        <ele>1142.318</ele>
        <time>2021-07-17T17:38:35Z</time>
      </trkpt>
      <trkpt lat="37.18509" lon="-2.93427">
        <ele>1138.692</ele>
        <time>2021-07-17T17:38:46Z</time>
      </trkpt>
      <trkpt lat="37.18537" lon="-2.9319">
        <ele>1132.756</ele>
        <time>2021-07-17T17:38:57Z</time>
      </trkpt>
      <trkpt lat="37.18534" lon="-2.92953">
        <ele>1127.465</ele>
        <time>2021-07-17T17:39:08Z</time>
      </trkpt>
      <trkpt lat="37.18615" lon="-2.92738">
        <ele>1123.647</ele>
        <time>2021-07-17T17:39:19Z</time>
      </trkpt>
      <trkpt lat="37.18714" lon="-2.92471">
        <ele>1117.361</ele>
        <time>2021-07-17T17:39:30Z</time>
      </trkpt>
      <trkpt lat="37.18803" lon="-2.92174">
        <ele>1107.787</ele>
        <time>2021-07-17T17:39:41Z</time>
      </trkpt>
      <trkpt lat="37.18853" lon="-2.91867">
        <ele>1104.11</ele>
        <time>2021-07-17T17:39:52Z</time>
      </trkpt>
      <trkpt lat="37.18886" lon="-2.9157">
        <ele>1099.819</ele>
        <time>2021-07-17T17:40:03Z</time>
      </trkpt>
      <trkpt lat="37.18948" lon="-2.9131">
        <ele>1096.131</ele>
        <time>2021-07-17T17:40:14Z</time>
      </trkpt>
      <trkpt lat="37.19001" lon="-2.91049">
        <ele>1086.563</ele>
        <time>2021-07-17T17:40:25Z</time>
      </trkpt>
      <trkpt lat="37.18976" lon="-2.90792">
        <ele>1067.287</ele>
        <time>2021-07-17T17:40:36Z</time>
      </trkpt>
      <trkpt lat="37.18939" lon="-2.90517">
        <ele>1050.253</ele>
        <time>2021-07-17T17:40:47Z</time>
      </trkpt>
      <trkpt lat="37.18892" lon="-2.90239">
        <ele>1041.851</ele>
        <time>2021-07-17T17:40:58Z</time>
      </trkpt>
      <trkpt lat="37.18912" lon="-2.89985">
        <ele>1032.091</ele>
        <time>2021-07-17T17:41:09Z</time>
      </trkpt>
      <trkpt lat="37.18937" lon="-2.89822">
        <ele>1029.208</ele>
        <time>2021-07-17T17:41:20Z</time>
      </trkpt>
      <trkpt lat="37.18969" lon="-2.8971">
        <ele>1029.046</ele>
        <time>2021-07-17T17:41:31Z</time>
      </trkpt>
      <trkpt lat="37.19019" lon="-2.8962">
        <ele>1024.928</ele>
        <time>2021-07-17T17:41:42Z</time>
      </trkpt>
      <trkpt lat="37.19003" lon="-2.89559">
        <ele>1019.314</ele>
        <time>2021-07-17T17:41:53Z</time>
      </trkpt>
      <trkpt lat="37.19039" lon="-2.89434">
        <ele>1018.817</ele>
        <time>2021-07-17T17:42:04Z</time>
      </trkpt>
      <trkpt lat="37.19072" lon="-2.89333">
        <ele>1015.373</ele>
        <time>2021-07-17T17:42:15Z</time>
      </trkpt>
      <trkpt lat="37.19023" lon="-2.89248">
        <ele>1015.445</ele>
        <time>2021-07-17T17:42:26Z</time>
      </trkpt>
      <trkpt lat="37.18956" lon="-2.89168">
        <ele>1014.062</ele>
        <time>2021-07-17T17:42:37Z</time>
      </trkpt>
      <trkpt lat="37.18903" lon="-2.89081">
        <ele>1014.224</ele>
        <time>2021-07-17T17:42:48Z</time>
      </trkpt>
      <trkpt lat="37.18852" lon="-2.89001">
        <ele>1011.404</ele>
        <time>2021-07-17T17:42:59Z</time>
      </trkpt>
      <trkpt lat="37.18851" lon="-2.88899">
        <ele>1007.955</ele>
        <time>2021-07-17T17:43:10Z</time>
      </trkpt>
      <trkpt lat="37.18859" lon="-2.88813">
        <ele>1006.039</ele>
        <time>2021-07-17T17:43:21Z</time>
      </trkpt>
      <trkpt lat="37.18854" lon="-2.88697">
        <ele>997.4307</ele>
        <time>2021-07-17T17:43:32Z</time>
      </trkpt>
      <trkpt lat="37.18846" lon="-2.88592">
        <ele>994.3101</ele>
        <time>2021-07-17T17:43:43Z</time>
      </trkpt>
      <trkpt lat="37.18844" lon="-2.88581">
        <ele>999.2672</ele>
        <time>2021-07-17T17:43:54Z</time>
      </trkpt>
      <trkpt lat="37.18829" lon="-2.88536">
        <ele>1014.243</ele>
        <time>2021-07-17T17:44:05Z</time>
      </trkpt>
      <trkpt lat="37.18814" lon="-2.88474">
        <ele>1012.348</ele>
        <time>2021-07-17T17:44:16Z</time>
      </trkpt>
      <trkpt lat="37.188" lon="-2.88401">
        <ele>1006.939</ele>
        <time>2021-07-17T17:44:27Z</time>
      </trkpt>
      <trkpt lat="37.18791" lon="-2.88326">
        <ele>998.6161</ele>
        <time>2021-07-17T17:44:38Z</time>
      </trkpt>
      <trkpt lat="37.18784" lon="-2.88285">
        <ele>996.3152</ele>
        <time>2021-07-17T17:44:49Z</time>
      </trkpt>
      <trkpt lat="37.18775" lon="-2.883">
        <ele>996.3489</ele>
        <time>2021-07-17T17:45:00Z</time>
      </trkpt>
      <trkpt lat="37.1878" lon="-2.88303">
        <ele>993.1207</ele>
        <time>2021-07-17T17:45:22Z</time>
      </trkpt>
      <trkpt lat="37.18786" lon="-2.88275">
        <ele>994.558</ele>
        <time>2021-07-17T17:45:33Z</time>
      </trkpt>
      <trkpt lat="37.18774" lon="-2.88189">
        <ele>990.6977</ele>
        <time>2021-07-17T17:45:44Z</time>
      </trkpt>
      <trkpt lat="37.18746" lon="-2.88107">
        <ele>993.1592</ele>
        <time>2021-07-17T17:45:55Z</time>
      </trkpt>
      <trkpt lat="37.18733" lon="-2.88072">
        <ele>992.7934</ele>
        <time>2021-07-17T17:46:06Z</time>
      </trkpt>
      <trkpt lat="37.18781" lon="-2.88076">
        <ele>994.8188</ele>
        <time>2021-07-17T17:46:17Z</time>
      </trkpt>
      <trkpt lat="37.18888" lon="-2.88042">
        <ele>1002.535</ele>
        <time>2021-07-17T17:46:28Z</time>
      </trkpt>
      <trkpt lat="37.18912" lon="-2.88033">
        <ele>1001.768</ele>
        <time>2021-07-17T17:46:39Z</time>
      </trkpt>
      <trkpt lat="37.1892" lon="-2.88044">
        <ele>1001.801</ele>
        <time>2021-07-17T17:46:54Z</time>
      </trkpt>
      <trkpt lat="37.18954" lon="-2.8816">
        <ele>1000.73</ele>
        <time>2021-07-17T17:47:05Z</time>
      </trkpt>
      <trkpt lat="37.18962" lon="-2.88185">
        <ele>1001.014</ele>
        <time>2021-07-17T17:47:16Z</time>
      </trkpt>
      <trkpt lat="37.18968" lon="-2.88208">
        <ele>1002.765</ele>
        <time>2021-07-17T17:47:27Z</time>
      </trkpt>
      <trkpt lat="37.18942" lon="-2.88087">
        <ele>999.8099</ele>
        <time>2021-07-17T17:47:38Z</time>
      </trkpt>
      <trkpt lat="37.18913" lon="-2.88039">
        <ele>996.5786</ele>
        <time>2021-07-17T17:47:49Z</time>
      </trkpt>
      <trkpt lat="37.18834" lon="-2.88072">
        <ele>992.8981</ele>
        <time>2021-07-17T17:48:00Z</time>
      </trkpt>
      <trkpt lat="37.1876" lon="-2.881">
        <ele>989.6381</ele>
        <time>2021-07-17T17:48:11Z</time>
      </trkpt>
      <trkpt lat="37.18785" lon="-2.88236">
        <ele>990.1081</ele>
        <time>2021-07-17T17:48:22Z</time>
      </trkpt>
      <trkpt lat="37.18789" lon="-2.883">
        <ele>990.1357</ele>
        <time>2021-07-17T17:48:33Z</time>
      </trkpt>
      <trkpt lat="37.18792" lon="-2.88308">
        <ele>992.6204</ele>
        <time>2021-07-17T17:48:47Z</time>
      </trkpt>
      <trkpt lat="37.18807" lon="-2.88418">
        <ele>995.4218</ele>
        <time>2021-07-17T17:48:58Z</time>
      </trkpt>
      <trkpt lat="37.18811" lon="-2.88434">
        <ele>993.4919</ele>
        <time>2021-07-17T17:49:09Z</time>
      </trkpt>
      <trkpt lat="37.18821" lon="-2.88483">
        <ele>993.9991</ele>
        <time>2021-07-17T17:49:20Z</time>
      </trkpt>
      <trkpt lat="37.1882" lon="-2.88487">
        <ele>995.309</ele>
        <time>2021-07-17T17:49:36Z</time>
      </trkpt>
      <trkpt lat="37.18823" lon="-2.88493">
        <ele>993.3865</ele>
        <time>2021-07-17T17:49:54Z</time>
      </trkpt>
      <trkpt lat="37.18828" lon="-2.88511">
        <ele>993.7011</ele>
        <time>2021-07-17T17:50:05Z</time>
      </trkpt>
      <trkpt lat="37.18776" lon="-2.88533">
        <ele>994.3932</ele>
        <time>2021-07-17T17:50:16Z</time>
      </trkpt>
      <trkpt lat="37.18764" lon="-2.88545">
        <ele>996.0034</ele>
        <time>2021-07-17T17:50:27Z</time>
      </trkpt>
      <trkpt lat="37.18771" lon="-2.88559">
        <ele>998.6858</ele>
        <time>2021-07-17T17:50:38Z</time>
      </trkpt>
      <trkpt lat="37.18752" lon="-2.88547">
        <ele>1003.019</ele>
        <time>2021-07-17T17:50:49Z</time>
      </trkpt>
      <trkpt lat="37.18731" lon="-2.88514">
        <ele>1006.082</ele>
        <time>2021-07-17T17:51:00Z</time>
      </trkpt>
      <trkpt lat="37.18735" lon="-2.88528">
        <ele>1005.904</ele>
        <time>2021-07-17T17:51:11Z</time>
      </trkpt>
      <trkpt lat="37.18743" lon="-2.8854">
        <ele>1006.162</ele>
        <time>2021-07-17T17:51:22Z</time>
      </trkpt>
      <trkpt lat="37.18762" lon="-2.88579">
        <ele>1004.928</ele>
        <time>2021-07-17T17:51:33Z</time>
      </trkpt>
      <trkpt lat="37.18775" lon="-2.88605">
        <ele>1004.399</ele>
        <time>2021-07-17T17:51:44Z</time>
      </trkpt>
      <trkpt lat="37.18781" lon="-2.88606">
        <ele>1003.645</ele>
        <time>2021-07-17T17:51:55Z</time>
      </trkpt>
      <trkpt lat="37.18822" lon="-2.88645">
        <ele>1000.825</ele>
        <time>2021-07-17T17:52:06Z</time>
      </trkpt>
      <trkpt lat="37.18822" lon="-2.8865">
        <ele>1001.101</ele>
        <time>2021-07-17T17:52:17Z</time>
      </trkpt>
    </trkseg>
  </trk>
</gpx>